<?xml version="1.0" encoding="UTF-8" standalone="no" ?>
<gpx xmlns="http://www.topografix.com/GPX/1/1" xmlns:xsi="http://www.w3.org/2001/XMLSchema-instance" xsi:schemaLocation="http://www.topografix.com/GPX/1/1 http://www.topografix.com/GPX/1/1/gpx.xsd" version="1.1" creator="VisuGPX - https://www.visugpx.com">
  <metadata>
    <name>VTT du mercredi 27 septembre (à 4)</name>
    <desc><![CDATA[Il avait beaucoup plu la veille. Christian avait testé dimanche un parcours très intéressant pour éviter les endroits boueux, mais qui faisait 31 km (en passant à Chemilly et les rives de Saône). Il a finalement décidé de le raccourcir en rentrant par Vauchoux, donc nous avons, sans Jacques, parcouru les 25 km sous la grisaille. On a retrouvé avec plaisir les secteurs avant et après Bougnon (Km 7 à KM 13) qu'on n'avait pas fait depuis longtemps.
Apéro avec Pakoras et Samossas.
Il a fallu nettoyer les vélos au retour (mais il y avait du soleil à Coulevon !)]]></desc>
  </metadata>
  <trk>
    <name><![CDATA[2017-09-27 09:36]]></name>
    <desc><![CDATA[<p>Heure de départ: 09/27/2017 09:36<br/>Heure d'arrivée: 09/27/2017 12:02<br/>Distance: 25,6 km (02:25)<br/>Temps déplacement: 01:56<br/>Vitesse moyenne: 10,53 km/h<br/>Vitesse moyenne mouv.: 13,18 km/h<br/>Vitesse Max.: 39,9 km/h<br/>Altitude minimale: 210 m<br/>Altitude maximale: 314 m<br/>Vitesse de montée: 193,6 m/h<br/>Vitesse de descente: -447 m/h<br/>Gain d'altitude: 239 m<br/>Perte d'altitude: -244 m<br/>Temps de montée: 01:14<br/>Temps de descente: 00:32<br/></p><hr align="center" width="480" style="height: 2px; width: 517px"/>]]></desc>
    <trkseg>
      <trkpt lat="47.68644" lon="6.04552">
        <ele>220.79</ele>
        <time>2017-09-27T07:36:53Z</time>
      </trkpt>
      <trkpt lat="47.6864" lon="6.04556">
        <ele>225.42</ele>
        <time>2017-09-27T07:36:57Z</time>
      </trkpt>
      <trkpt lat="47.68634" lon="6.04554">
        <ele>231.09</ele>
        <time>2017-09-27T07:37:02Z</time>
      </trkpt>
      <trkpt lat="47.68631" lon="6.04548">
        <ele>235.16</ele>
        <time>2017-09-27T07:37:09Z</time>
      </trkpt>
      <trkpt lat="47.68632" lon="6.04541">
        <ele>240.41</ele>
        <time>2017-09-27T07:37:34Z</time>
      </trkpt>
      <trkpt lat="47.68634" lon="6.04531">
        <ele>240.81</ele>
        <time>2017-09-27T07:37:39Z</time>
      </trkpt>
      <trkpt lat="47.68638" lon="6.04529">
        <ele>240.99</ele>
        <time>2017-09-27T07:37:41Z</time>
      </trkpt>
      <trkpt lat="47.68643" lon="6.04535">
        <ele>241.19</ele>
        <time>2017-09-27T07:37:44Z</time>
      </trkpt>
      <trkpt lat="47.68647" lon="6.04542">
        <ele>241.26</ele>
        <time>2017-09-27T07:37:46Z</time>
      </trkpt>
      <trkpt lat="47.68653" lon="6.04547">
        <ele>241.29</ele>
        <time>2017-09-27T07:37:48Z</time>
      </trkpt>
      <trkpt lat="47.68657" lon="6.04552">
        <ele>241.3</ele>
        <time>2017-09-27T07:37:50Z</time>
      </trkpt>
      <trkpt lat="47.68662" lon="6.04558">
        <ele>241.29</ele>
        <time>2017-09-27T07:37:52Z</time>
      </trkpt>
      <trkpt lat="47.68665" lon="6.04563">
        <ele>241.25</ele>
        <time>2017-09-27T07:37:54Z</time>
      </trkpt>
      <trkpt lat="47.68668" lon="6.04568">
        <ele>241.18</ele>
        <time>2017-09-27T07:37:56Z</time>
      </trkpt>
      <trkpt lat="47.68671" lon="6.04573">
        <ele>241.08</ele>
        <time>2017-09-27T07:37:58Z</time>
      </trkpt>
      <trkpt lat="47.68674" lon="6.0458">
        <ele>240.97</ele>
        <time>2017-09-27T07:38:00Z</time>
      </trkpt>
      <trkpt lat="47.68677" lon="6.04586">
        <ele>240.86</ele>
        <time>2017-09-27T07:38:02Z</time>
      </trkpt>
      <trkpt lat="47.68679" lon="6.04592">
        <ele>240.74</ele>
        <time>2017-09-27T07:38:04Z</time>
      </trkpt>
      <trkpt lat="47.68682" lon="6.04598">
        <ele>240.6</ele>
        <time>2017-09-27T07:38:06Z</time>
      </trkpt>
      <trkpt lat="47.68685" lon="6.04605">
        <ele>240.46</ele>
        <time>2017-09-27T07:38:08Z</time>
      </trkpt>
      <trkpt lat="47.68687" lon="6.04612">
        <ele>240.32</ele>
        <time>2017-09-27T07:38:10Z</time>
      </trkpt>
      <trkpt lat="47.6869" lon="6.04619">
        <ele>240.19</ele>
        <time>2017-09-27T07:38:12Z</time>
      </trkpt>
      <trkpt lat="47.68692" lon="6.04625">
        <ele>240.08</ele>
        <time>2017-09-27T07:38:14Z</time>
      </trkpt>
      <trkpt lat="47.68695" lon="6.04631">
        <ele>239.97</ele>
        <time>2017-09-27T07:38:16Z</time>
      </trkpt>
      <trkpt lat="47.68698" lon="6.04636">
        <ele>239.87</ele>
        <time>2017-09-27T07:38:18Z</time>
      </trkpt>
      <trkpt lat="47.68701" lon="6.04643">
        <ele>239.79</ele>
        <time>2017-09-27T07:38:20Z</time>
      </trkpt>
      <trkpt lat="47.68705" lon="6.0465">
        <ele>239.71</ele>
        <time>2017-09-27T07:38:22Z</time>
      </trkpt>
      <trkpt lat="47.68708" lon="6.04657">
        <ele>239.62</ele>
        <time>2017-09-27T07:38:24Z</time>
      </trkpt>
      <trkpt lat="47.68712" lon="6.04666">
        <ele>239.55</ele>
        <time>2017-09-27T07:38:26Z</time>
      </trkpt>
      <trkpt lat="47.68716" lon="6.04675">
        <ele>239.48</ele>
        <time>2017-09-27T07:38:28Z</time>
      </trkpt>
      <trkpt lat="47.6872" lon="6.04684">
        <ele>239.19</ele>
        <time>2017-09-27T07:38:30Z</time>
      </trkpt>
      <trkpt lat="47.68724" lon="6.04693">
        <ele>238.6</ele>
        <time>2017-09-27T07:38:32Z</time>
      </trkpt>
      <trkpt lat="47.68729" lon="6.04703">
        <ele>238.26</ele>
        <time>2017-09-27T07:38:34Z</time>
      </trkpt>
      <trkpt lat="47.68733" lon="6.04713">
        <ele>237.99</ele>
        <time>2017-09-27T07:38:36Z</time>
      </trkpt>
      <trkpt lat="47.68737" lon="6.04722">
        <ele>237.82</ele>
        <time>2017-09-27T07:38:38Z</time>
      </trkpt>
      <trkpt lat="47.6874" lon="6.04731">
        <ele>237.79</ele>
        <time>2017-09-27T07:38:40Z</time>
      </trkpt>
      <trkpt lat="47.68742" lon="6.0474">
        <ele>237.75</ele>
        <time>2017-09-27T07:38:42Z</time>
      </trkpt>
      <trkpt lat="47.68745" lon="6.04748">
        <ele>237.72</ele>
        <time>2017-09-27T07:38:44Z</time>
      </trkpt>
      <trkpt lat="47.68747" lon="6.04758">
        <ele>237.67</ele>
        <time>2017-09-27T07:38:46Z</time>
      </trkpt>
      <trkpt lat="47.68749" lon="6.04769">
        <ele>237.61</ele>
        <time>2017-09-27T07:38:48Z</time>
      </trkpt>
      <trkpt lat="47.68752" lon="6.0478">
        <ele>237.15</ele>
        <time>2017-09-27T07:38:50Z</time>
      </trkpt>
      <trkpt lat="47.68755" lon="6.04792">
        <ele>236.72</ele>
        <time>2017-09-27T07:38:52Z</time>
      </trkpt>
      <trkpt lat="47.68759" lon="6.04805">
        <ele>236.36</ele>
        <time>2017-09-27T07:38:54Z</time>
      </trkpt>
      <trkpt lat="47.6876" lon="6.04812">
        <ele>236.19</ele>
        <time>2017-09-27T07:38:55Z</time>
      </trkpt>
      <trkpt lat="47.68762" lon="6.04818">
        <ele>236.04</ele>
        <time>2017-09-27T07:38:56Z</time>
      </trkpt>
      <trkpt lat="47.68763" lon="6.04825">
        <ele>235.9</ele>
        <time>2017-09-27T07:38:57Z</time>
      </trkpt>
      <trkpt lat="47.68766" lon="6.04835">
        <ele>235.73</ele>
        <time>2017-09-27T07:38:59Z</time>
      </trkpt>
      <trkpt lat="47.68768" lon="6.04844">
        <ele>235.69</ele>
        <time>2017-09-27T07:39:01Z</time>
      </trkpt>
      <trkpt lat="47.68771" lon="6.04855">
        <ele>235.55</ele>
        <time>2017-09-27T07:39:03Z</time>
      </trkpt>
      <trkpt lat="47.68774" lon="6.04867">
        <ele>235.3</ele>
        <time>2017-09-27T07:39:05Z</time>
      </trkpt>
      <trkpt lat="47.68776" lon="6.04877">
        <ele>235.24</ele>
        <time>2017-09-27T07:39:07Z</time>
      </trkpt>
      <trkpt lat="47.68779" lon="6.04886">
        <ele>235.21</ele>
        <time>2017-09-27T07:39:09Z</time>
      </trkpt>
      <trkpt lat="47.68781" lon="6.04895">
        <ele>235.18</ele>
        <time>2017-09-27T07:39:11Z</time>
      </trkpt>
      <trkpt lat="47.68784" lon="6.04903">
        <ele>235.16</ele>
        <time>2017-09-27T07:39:13Z</time>
      </trkpt>
      <trkpt lat="47.68787" lon="6.04913">
        <ele>235.13</ele>
        <time>2017-09-27T07:39:15Z</time>
      </trkpt>
      <trkpt lat="47.68789" lon="6.04921">
        <ele>235.1</ele>
        <time>2017-09-27T07:39:17Z</time>
      </trkpt>
      <trkpt lat="47.6879" lon="6.04928">
        <ele>235.07</ele>
        <time>2017-09-27T07:39:19Z</time>
      </trkpt>
      <trkpt lat="47.68792" lon="6.04935">
        <ele>235.03</ele>
        <time>2017-09-27T07:39:22Z</time>
      </trkpt>
      <trkpt lat="47.68797" lon="6.04938">
        <ele>234.98</ele>
        <time>2017-09-27T07:39:25Z</time>
      </trkpt>
      <trkpt lat="47.68802" lon="6.04937">
        <ele>234.92</ele>
        <time>2017-09-27T07:39:42Z</time>
      </trkpt>
      <trkpt lat="47.68808" lon="6.04933">
        <ele>234.91</ele>
        <time>2017-09-27T07:39:45Z</time>
      </trkpt>
      <trkpt lat="47.68812" lon="6.04925">
        <ele>234.91</ele>
        <time>2017-09-27T07:39:47Z</time>
      </trkpt>
      <trkpt lat="47.68817" lon="6.04921">
        <ele>234.9</ele>
        <time>2017-09-27T07:39:49Z</time>
      </trkpt>
      <trkpt lat="47.68824" lon="6.04917">
        <ele>234.87</ele>
        <time>2017-09-27T07:39:51Z</time>
      </trkpt>
      <trkpt lat="47.68829" lon="6.04915">
        <ele>234.82</ele>
        <time>2017-09-27T07:39:52Z</time>
      </trkpt>
      <trkpt lat="47.68836" lon="6.0491">
        <ele>234.76</ele>
        <time>2017-09-27T07:39:54Z</time>
      </trkpt>
      <trkpt lat="47.68843" lon="6.04912">
        <ele>234.73</ele>
        <time>2017-09-27T07:39:56Z</time>
      </trkpt>
      <trkpt lat="47.68847" lon="6.0492">
        <ele>234.65</ele>
        <time>2017-09-27T07:39:58Z</time>
      </trkpt>
      <trkpt lat="47.68853" lon="6.04931">
        <ele>234.5</ele>
        <time>2017-09-27T07:40:00Z</time>
      </trkpt>
      <trkpt lat="47.68858" lon="6.0494">
        <ele>234.36</ele>
        <time>2017-09-27T07:40:02Z</time>
      </trkpt>
      <trkpt lat="47.68862" lon="6.0495">
        <ele>234.28</ele>
        <time>2017-09-27T07:40:04Z</time>
      </trkpt>
      <trkpt lat="47.68866" lon="6.04958">
        <ele>234.26</ele>
        <time>2017-09-27T07:40:06Z</time>
      </trkpt>
      <trkpt lat="47.6887" lon="6.04966">
        <ele>234.24</ele>
        <time>2017-09-27T07:40:08Z</time>
      </trkpt>
      <trkpt lat="47.68873" lon="6.04974">
        <ele>234.21</ele>
        <time>2017-09-27T07:40:10Z</time>
      </trkpt>
      <trkpt lat="47.68877" lon="6.04982">
        <ele>234.18</ele>
        <time>2017-09-27T07:40:12Z</time>
      </trkpt>
      <trkpt lat="47.68881" lon="6.0499">
        <ele>234.15</ele>
        <time>2017-09-27T07:40:14Z</time>
      </trkpt>
      <trkpt lat="47.68885" lon="6.04998">
        <ele>234.12</ele>
        <time>2017-09-27T07:40:16Z</time>
      </trkpt>
      <trkpt lat="47.68889" lon="6.05002">
        <ele>234.09</ele>
        <time>2017-09-27T07:40:18Z</time>
      </trkpt>
      <trkpt lat="47.68894" lon="6.05007">
        <ele>234.05</ele>
        <time>2017-09-27T07:40:20Z</time>
      </trkpt>
      <trkpt lat="47.68899" lon="6.05013">
        <ele>234.01</ele>
        <time>2017-09-27T07:40:22Z</time>
      </trkpt>
      <trkpt lat="47.68903" lon="6.05017">
        <ele>233.98</ele>
        <time>2017-09-27T07:40:24Z</time>
      </trkpt>
      <trkpt lat="47.68909" lon="6.05021">
        <ele>233.94</ele>
        <time>2017-09-27T07:40:26Z</time>
      </trkpt>
      <trkpt lat="47.68914" lon="6.05025">
        <ele>233.9</ele>
        <time>2017-09-27T07:40:28Z</time>
      </trkpt>
      <trkpt lat="47.68919" lon="6.0503">
        <ele>233.87</ele>
        <time>2017-09-27T07:40:30Z</time>
      </trkpt>
      <trkpt lat="47.68924" lon="6.05034">
        <ele>233.83</ele>
        <time>2017-09-27T07:40:32Z</time>
      </trkpt>
      <trkpt lat="47.68929" lon="6.05038">
        <ele>233.8</ele>
        <time>2017-09-27T07:40:34Z</time>
      </trkpt>
      <trkpt lat="47.68935" lon="6.05041">
        <ele>233.76</ele>
        <time>2017-09-27T07:40:36Z</time>
      </trkpt>
      <trkpt lat="47.6894" lon="6.05046">
        <ele>233.73</ele>
        <time>2017-09-27T07:40:38Z</time>
      </trkpt>
      <trkpt lat="47.68945" lon="6.05049">
        <ele>233.7</ele>
        <time>2017-09-27T07:40:40Z</time>
      </trkpt>
      <trkpt lat="47.68949" lon="6.05052">
        <ele>233.68</ele>
        <time>2017-09-27T07:40:42Z</time>
      </trkpt>
      <trkpt lat="47.68953" lon="6.05055">
        <ele>233.65</ele>
        <time>2017-09-27T07:40:44Z</time>
      </trkpt>
      <trkpt lat="47.68959" lon="6.05058">
        <ele>233.62</ele>
        <time>2017-09-27T07:40:47Z</time>
      </trkpt>
      <trkpt lat="47.68964" lon="6.05062">
        <ele>233.59</ele>
        <time>2017-09-27T07:40:50Z</time>
      </trkpt>
      <trkpt lat="47.68969" lon="6.05064">
        <ele>233.57</ele>
        <time>2017-09-27T07:40:52Z</time>
      </trkpt>
      <trkpt lat="47.68974" lon="6.05068">
        <ele>233.55</ele>
        <time>2017-09-27T07:40:55Z</time>
      </trkpt>
      <trkpt lat="47.6898" lon="6.05072">
        <ele>233.54</ele>
        <time>2017-09-27T07:40:58Z</time>
      </trkpt>
      <trkpt lat="47.68984" lon="6.05075">
        <ele>233.54</ele>
        <time>2017-09-27T07:41:01Z</time>
      </trkpt>
      <trkpt lat="47.68989" lon="6.05079">
        <ele>233.54</ele>
        <time>2017-09-27T07:41:04Z</time>
      </trkpt>
      <trkpt lat="47.68995" lon="6.05083">
        <ele>233.55</ele>
        <time>2017-09-27T07:41:07Z</time>
      </trkpt>
      <trkpt lat="47.69001" lon="6.05087">
        <ele>233.56</ele>
        <time>2017-09-27T07:41:10Z</time>
      </trkpt>
      <trkpt lat="47.69006" lon="6.0509">
        <ele>233.58</ele>
        <time>2017-09-27T07:41:12Z</time>
      </trkpt>
      <trkpt lat="47.69012" lon="6.05092">
        <ele>233.61</ele>
        <time>2017-09-27T07:41:15Z</time>
      </trkpt>
      <trkpt lat="47.69017" lon="6.05097">
        <ele>233.65</ele>
        <time>2017-09-27T07:41:18Z</time>
      </trkpt>
      <trkpt lat="47.69023" lon="6.051">
        <ele>233.7</ele>
        <time>2017-09-27T07:41:21Z</time>
      </trkpt>
      <trkpt lat="47.69027" lon="6.05102">
        <ele>233.74</ele>
        <time>2017-09-27T07:41:23Z</time>
      </trkpt>
      <trkpt lat="47.69031" lon="6.05105">
        <ele>233.78</ele>
        <time>2017-09-27T07:41:25Z</time>
      </trkpt>
      <trkpt lat="47.69036" lon="6.05108">
        <ele>233.83</ele>
        <time>2017-09-27T07:41:27Z</time>
      </trkpt>
      <trkpt lat="47.69042" lon="6.05111">
        <ele>233.9</ele>
        <time>2017-09-27T07:41:30Z</time>
      </trkpt>
      <trkpt lat="47.69048" lon="6.05115">
        <ele>233.99</ele>
        <time>2017-09-27T07:41:33Z</time>
      </trkpt>
      <trkpt lat="47.69054" lon="6.05119">
        <ele>234.09</ele>
        <time>2017-09-27T07:41:36Z</time>
      </trkpt>
      <trkpt lat="47.69058" lon="6.05123">
        <ele>234.16</ele>
        <time>2017-09-27T07:41:38Z</time>
      </trkpt>
      <trkpt lat="47.69062" lon="6.05126">
        <ele>234.23</ele>
        <time>2017-09-27T07:41:40Z</time>
      </trkpt>
      <trkpt lat="47.69068" lon="6.0513">
        <ele>234.35</ele>
        <time>2017-09-27T07:41:43Z</time>
      </trkpt>
      <trkpt lat="47.69072" lon="6.05133">
        <ele>234.43</ele>
        <time>2017-09-27T07:41:45Z</time>
      </trkpt>
      <trkpt lat="47.69078" lon="6.05137">
        <ele>234.56</ele>
        <time>2017-09-27T07:41:48Z</time>
      </trkpt>
      <trkpt lat="47.69083" lon="6.0514">
        <ele>234.69</ele>
        <time>2017-09-27T07:41:51Z</time>
      </trkpt>
      <trkpt lat="47.69089" lon="6.05143">
        <ele>234.83</ele>
        <time>2017-09-27T07:41:54Z</time>
      </trkpt>
      <trkpt lat="47.69095" lon="6.05148">
        <ele>234.96</ele>
        <time>2017-09-27T07:41:57Z</time>
      </trkpt>
      <trkpt lat="47.69099" lon="6.05152">
        <ele>235.06</ele>
        <time>2017-09-27T07:41:59Z</time>
      </trkpt>
      <trkpt lat="47.69103" lon="6.05156">
        <ele>235.15</ele>
        <time>2017-09-27T07:42:01Z</time>
      </trkpt>
      <trkpt lat="47.69108" lon="6.05159">
        <ele>235.25</ele>
        <time>2017-09-27T07:42:03Z</time>
      </trkpt>
      <trkpt lat="47.69112" lon="6.05163">
        <ele>235.35</ele>
        <time>2017-09-27T07:42:05Z</time>
      </trkpt>
      <trkpt lat="47.69116" lon="6.05166">
        <ele>235.45</ele>
        <time>2017-09-27T07:42:07Z</time>
      </trkpt>
      <trkpt lat="47.6912" lon="6.0517">
        <ele>235.55</ele>
        <time>2017-09-27T07:42:09Z</time>
      </trkpt>
      <trkpt lat="47.69124" lon="6.05174">
        <ele>235.65</ele>
        <time>2017-09-27T07:42:11Z</time>
      </trkpt>
      <trkpt lat="47.69128" lon="6.05178">
        <ele>235.74</ele>
        <time>2017-09-27T07:42:13Z</time>
      </trkpt>
      <trkpt lat="47.69132" lon="6.05182">
        <ele>235.84</ele>
        <time>2017-09-27T07:42:15Z</time>
      </trkpt>
      <trkpt lat="47.69136" lon="6.05186">
        <ele>235.94</ele>
        <time>2017-09-27T07:42:17Z</time>
      </trkpt>
      <trkpt lat="47.69139" lon="6.05191">
        <ele>236.04</ele>
        <time>2017-09-27T07:42:19Z</time>
      </trkpt>
      <trkpt lat="47.69144" lon="6.05196">
        <ele>236.14</ele>
        <time>2017-09-27T07:42:21Z</time>
      </trkpt>
      <trkpt lat="47.69148" lon="6.052">
        <ele>236.23</ele>
        <time>2017-09-27T07:42:23Z</time>
      </trkpt>
      <trkpt lat="47.69154" lon="6.05204">
        <ele>236.33</ele>
        <time>2017-09-27T07:42:25Z</time>
      </trkpt>
      <trkpt lat="47.69159" lon="6.0521">
        <ele>236.42</ele>
        <time>2017-09-27T07:42:27Z</time>
      </trkpt>
      <trkpt lat="47.69164" lon="6.05218">
        <ele>237.12</ele>
        <time>2017-09-27T07:42:29Z</time>
      </trkpt>
      <trkpt lat="47.69167" lon="6.05223">
        <ele>237.45</ele>
        <time>2017-09-27T07:42:30Z</time>
      </trkpt>
      <trkpt lat="47.69172" lon="6.05232">
        <ele>237.81</ele>
        <time>2017-09-27T07:42:32Z</time>
      </trkpt>
      <trkpt lat="47.69177" lon="6.0524">
        <ele>237.88</ele>
        <time>2017-09-27T07:42:34Z</time>
      </trkpt>
      <trkpt lat="47.69182" lon="6.05246">
        <ele>237.93</ele>
        <time>2017-09-27T07:42:36Z</time>
      </trkpt>
      <trkpt lat="47.69187" lon="6.05252">
        <ele>237.97</ele>
        <time>2017-09-27T07:42:38Z</time>
      </trkpt>
      <trkpt lat="47.69194" lon="6.05254">
        <ele>238.01</ele>
        <time>2017-09-27T07:42:40Z</time>
      </trkpt>
      <trkpt lat="47.69199" lon="6.05255">
        <ele>238.09</ele>
        <time>2017-09-27T07:42:43Z</time>
      </trkpt>
      <trkpt lat="47.69203" lon="6.05261">
        <ele>238.77</ele>
        <time>2017-09-27T07:44:06Z</time>
      </trkpt>
      <trkpt lat="47.69209" lon="6.05268">
        <ele>239.29</ele>
        <time>2017-09-27T07:44:08Z</time>
      </trkpt>
      <trkpt lat="47.69214" lon="6.05272">
        <ele>239.78</ele>
        <time>2017-09-27T07:44:09Z</time>
      </trkpt>
      <trkpt lat="47.69223" lon="6.05279">
        <ele>240.63</ele>
        <time>2017-09-27T07:44:11Z</time>
      </trkpt>
      <trkpt lat="47.69227" lon="6.05283">
        <ele>240.98</ele>
        <time>2017-09-27T07:44:12Z</time>
      </trkpt>
      <trkpt lat="47.69232" lon="6.05288">
        <ele>241.27</ele>
        <time>2017-09-27T07:44:13Z</time>
      </trkpt>
      <trkpt lat="47.69237" lon="6.05293">
        <ele>241.53</ele>
        <time>2017-09-27T07:44:14Z</time>
      </trkpt>
      <trkpt lat="47.69242" lon="6.05298">
        <ele>241.75</ele>
        <time>2017-09-27T07:44:15Z</time>
      </trkpt>
      <trkpt lat="47.69247" lon="6.05302">
        <ele>241.96</ele>
        <time>2017-09-27T07:44:16Z</time>
      </trkpt>
      <trkpt lat="47.69252" lon="6.05307">
        <ele>242.15</ele>
        <time>2017-09-27T07:44:17Z</time>
      </trkpt>
      <trkpt lat="47.69257" lon="6.05311">
        <ele>242.32</ele>
        <time>2017-09-27T07:44:18Z</time>
      </trkpt>
      <trkpt lat="47.69263" lon="6.05316">
        <ele>242.47</ele>
        <time>2017-09-27T07:44:19Z</time>
      </trkpt>
      <trkpt lat="47.69269" lon="6.05321">
        <ele>242.61</ele>
        <time>2017-09-27T07:44:20Z</time>
      </trkpt>
      <trkpt lat="47.69275" lon="6.05327">
        <ele>242.75</ele>
        <time>2017-09-27T07:44:21Z</time>
      </trkpt>
      <trkpt lat="47.6928" lon="6.05332">
        <ele>242.86</ele>
        <time>2017-09-27T07:44:22Z</time>
      </trkpt>
      <trkpt lat="47.69286" lon="6.05337">
        <ele>242.98</ele>
        <time>2017-09-27T07:44:23Z</time>
      </trkpt>
      <trkpt lat="47.69292" lon="6.05341">
        <ele>243.1</ele>
        <time>2017-09-27T07:44:24Z</time>
      </trkpt>
      <trkpt lat="47.69297" lon="6.05346">
        <ele>243.22</ele>
        <time>2017-09-27T07:44:25Z</time>
      </trkpt>
      <trkpt lat="47.69303" lon="6.0535">
        <ele>243.32</ele>
        <time>2017-09-27T07:44:26Z</time>
      </trkpt>
      <trkpt lat="47.69309" lon="6.05355">
        <ele>243.42</ele>
        <time>2017-09-27T07:44:27Z</time>
      </trkpt>
      <trkpt lat="47.69315" lon="6.05359">
        <ele>243.54</ele>
        <time>2017-09-27T07:44:28Z</time>
      </trkpt>
      <trkpt lat="47.6932" lon="6.05364">
        <ele>243.65</ele>
        <time>2017-09-27T07:44:29Z</time>
      </trkpt>
      <trkpt lat="47.69326" lon="6.05368">
        <ele>243.74</ele>
        <time>2017-09-27T07:44:30Z</time>
      </trkpt>
      <trkpt lat="47.69332" lon="6.05373">
        <ele>243.83</ele>
        <time>2017-09-27T07:44:31Z</time>
      </trkpt>
      <trkpt lat="47.69337" lon="6.05377">
        <ele>243.95</ele>
        <time>2017-09-27T07:44:32Z</time>
      </trkpt>
      <trkpt lat="47.69343" lon="6.05381">
        <ele>244.07</ele>
        <time>2017-09-27T07:44:33Z</time>
      </trkpt>
      <trkpt lat="47.69348" lon="6.05385">
        <ele>244.18</ele>
        <time>2017-09-27T07:44:34Z</time>
      </trkpt>
      <trkpt lat="47.69354" lon="6.0539">
        <ele>244.28</ele>
        <time>2017-09-27T07:44:35Z</time>
      </trkpt>
      <trkpt lat="47.6936" lon="6.05394">
        <ele>244.4</ele>
        <time>2017-09-27T07:44:36Z</time>
      </trkpt>
      <trkpt lat="47.69365" lon="6.05398">
        <ele>244.53</ele>
        <time>2017-09-27T07:44:37Z</time>
      </trkpt>
      <trkpt lat="47.6937" lon="6.05402">
        <ele>244.64</ele>
        <time>2017-09-27T07:44:38Z</time>
      </trkpt>
      <trkpt lat="47.69376" lon="6.05407">
        <ele>244.78</ele>
        <time>2017-09-27T07:44:39Z</time>
      </trkpt>
      <trkpt lat="47.69381" lon="6.05411">
        <ele>244.91</ele>
        <time>2017-09-27T07:44:40Z</time>
      </trkpt>
      <trkpt lat="47.69386" lon="6.05415">
        <ele>245.03</ele>
        <time>2017-09-27T07:44:41Z</time>
      </trkpt>
      <trkpt lat="47.69391" lon="6.05419">
        <ele>245.16</ele>
        <time>2017-09-27T07:44:42Z</time>
      </trkpt>
      <trkpt lat="47.69397" lon="6.05423">
        <ele>245.29</ele>
        <time>2017-09-27T07:44:43Z</time>
      </trkpt>
      <trkpt lat="47.69402" lon="6.05428">
        <ele>245.38</ele>
        <time>2017-09-27T07:44:44Z</time>
      </trkpt>
      <trkpt lat="47.69407" lon="6.05432">
        <ele>245.43</ele>
        <time>2017-09-27T07:44:45Z</time>
      </trkpt>
      <trkpt lat="47.69412" lon="6.05436">
        <ele>245.48</ele>
        <time>2017-09-27T07:44:46Z</time>
      </trkpt>
      <trkpt lat="47.69417" lon="6.05441">
        <ele>245.55</ele>
        <time>2017-09-27T07:44:47Z</time>
      </trkpt>
      <trkpt lat="47.69422" lon="6.05445">
        <ele>245.61</ele>
        <time>2017-09-27T07:44:48Z</time>
      </trkpt>
      <trkpt lat="47.69427" lon="6.0545">
        <ele>245.69</ele>
        <time>2017-09-27T07:44:49Z</time>
      </trkpt>
      <trkpt lat="47.69433" lon="6.05455">
        <ele>245.8</ele>
        <time>2017-09-27T07:44:50Z</time>
      </trkpt>
      <trkpt lat="47.69438" lon="6.0546">
        <ele>245.91</ele>
        <time>2017-09-27T07:44:51Z</time>
      </trkpt>
      <trkpt lat="47.69443" lon="6.05465">
        <ele>246.04</ele>
        <time>2017-09-27T07:44:52Z</time>
      </trkpt>
      <trkpt lat="47.69448" lon="6.05469">
        <ele>246.18</ele>
        <time>2017-09-27T07:44:53Z</time>
      </trkpt>
      <trkpt lat="47.69454" lon="6.05474">
        <ele>246.33</ele>
        <time>2017-09-27T07:44:54Z</time>
      </trkpt>
      <trkpt lat="47.69459" lon="6.05479">
        <ele>246.49</ele>
        <time>2017-09-27T07:44:55Z</time>
      </trkpt>
      <trkpt lat="47.69464" lon="6.05483">
        <ele>246.68</ele>
        <time>2017-09-27T07:44:56Z</time>
      </trkpt>
      <trkpt lat="47.69469" lon="6.05487">
        <ele>246.88</ele>
        <time>2017-09-27T07:44:57Z</time>
      </trkpt>
      <trkpt lat="47.69475" lon="6.05491">
        <ele>247.09</ele>
        <time>2017-09-27T07:44:58Z</time>
      </trkpt>
      <trkpt lat="47.6948" lon="6.05495">
        <ele>247.3</ele>
        <time>2017-09-27T07:44:59Z</time>
      </trkpt>
      <trkpt lat="47.69485" lon="6.055">
        <ele>247.51</ele>
        <time>2017-09-27T07:45:00Z</time>
      </trkpt>
      <trkpt lat="47.69489" lon="6.05504">
        <ele>247.73</ele>
        <time>2017-09-27T07:45:01Z</time>
      </trkpt>
      <trkpt lat="47.69494" lon="6.05508">
        <ele>247.94</ele>
        <time>2017-09-27T07:45:02Z</time>
      </trkpt>
      <trkpt lat="47.69499" lon="6.05512">
        <ele>248.14</ele>
        <time>2017-09-27T07:45:03Z</time>
      </trkpt>
      <trkpt lat="47.69504" lon="6.05516">
        <ele>248.35</ele>
        <time>2017-09-27T07:45:04Z</time>
      </trkpt>
      <trkpt lat="47.69508" lon="6.0552">
        <ele>248.56</ele>
        <time>2017-09-27T07:45:05Z</time>
      </trkpt>
      <trkpt lat="47.69512" lon="6.05523">
        <ele>248.76</ele>
        <time>2017-09-27T07:45:06Z</time>
      </trkpt>
      <trkpt lat="47.6952" lon="6.05527">
        <ele>249.04</ele>
        <time>2017-09-27T07:45:08Z</time>
      </trkpt>
      <trkpt lat="47.69525" lon="6.05529">
        <ele>249.11</ele>
        <time>2017-09-27T07:45:10Z</time>
      </trkpt>
      <trkpt lat="47.6953" lon="6.05531">
        <ele>249.16</ele>
        <time>2017-09-27T07:45:12Z</time>
      </trkpt>
      <trkpt lat="47.69535" lon="6.05531">
        <ele>249.48</ele>
        <time>2017-09-27T07:45:57Z</time>
      </trkpt>
      <trkpt lat="47.6954" lon="6.0553">
        <ele>249.61</ele>
        <time>2017-09-27T07:46:01Z</time>
      </trkpt>
      <trkpt lat="47.69547" lon="6.05533">
        <ele>249.87</ele>
        <time>2017-09-27T07:46:03Z</time>
      </trkpt>
      <trkpt lat="47.69552" lon="6.05534">
        <ele>250.11</ele>
        <time>2017-09-27T07:46:04Z</time>
      </trkpt>
      <trkpt lat="47.69557" lon="6.05535">
        <ele>250.33</ele>
        <time>2017-09-27T07:46:05Z</time>
      </trkpt>
      <trkpt lat="47.69562" lon="6.05536">
        <ele>250.51</ele>
        <time>2017-09-27T07:46:06Z</time>
      </trkpt>
      <trkpt lat="47.69568" lon="6.05539">
        <ele>250.67</ele>
        <time>2017-09-27T07:46:07Z</time>
      </trkpt>
      <trkpt lat="47.69574" lon="6.05541">
        <ele>250.79</ele>
        <time>2017-09-27T07:46:08Z</time>
      </trkpt>
      <trkpt lat="47.6958" lon="6.05544">
        <ele>250.86</ele>
        <time>2017-09-27T07:46:09Z</time>
      </trkpt>
      <trkpt lat="47.69586" lon="6.0555">
        <ele>250.9</ele>
        <time>2017-09-27T07:46:10Z</time>
      </trkpt>
      <trkpt lat="47.69591" lon="6.05555">
        <ele>250.9</ele>
        <time>2017-09-27T07:46:11Z</time>
      </trkpt>
      <trkpt lat="47.69597" lon="6.05562">
        <ele>250.87</ele>
        <time>2017-09-27T07:46:12Z</time>
      </trkpt>
      <trkpt lat="47.69602" lon="6.05568">
        <ele>250.81</ele>
        <time>2017-09-27T07:46:13Z</time>
      </trkpt>
      <trkpt lat="47.69609" lon="6.05571">
        <ele>250.73</ele>
        <time>2017-09-27T07:46:14Z</time>
      </trkpt>
      <trkpt lat="47.69617" lon="6.05575">
        <ele>250.63</ele>
        <time>2017-09-27T07:46:15Z</time>
      </trkpt>
      <trkpt lat="47.69624" lon="6.05578">
        <ele>250.52</ele>
        <time>2017-09-27T07:46:16Z</time>
      </trkpt>
      <trkpt lat="47.69631" lon="6.05582">
        <ele>250.42</ele>
        <time>2017-09-27T07:46:17Z</time>
      </trkpt>
      <trkpt lat="47.69639" lon="6.05584">
        <ele>250.32</ele>
        <time>2017-09-27T07:46:18Z</time>
      </trkpt>
      <trkpt lat="47.69647" lon="6.05584">
        <ele>250.19</ele>
        <time>2017-09-27T07:46:19Z</time>
      </trkpt>
      <trkpt lat="47.69654" lon="6.05584">
        <ele>250.08</ele>
        <time>2017-09-27T07:46:20Z</time>
      </trkpt>
      <trkpt lat="47.69663" lon="6.05582">
        <ele>249.97</ele>
        <time>2017-09-27T07:46:21Z</time>
      </trkpt>
      <trkpt lat="47.69671" lon="6.05578">
        <ele>249.9</ele>
        <time>2017-09-27T07:46:22Z</time>
      </trkpt>
      <trkpt lat="47.69678" lon="6.05572">
        <ele>249.84</ele>
        <time>2017-09-27T07:46:23Z</time>
      </trkpt>
      <trkpt lat="47.69686" lon="6.05567">
        <ele>249.8</ele>
        <time>2017-09-27T07:46:24Z</time>
      </trkpt>
      <trkpt lat="47.69693" lon="6.05561">
        <ele>249.78</ele>
        <time>2017-09-27T07:46:25Z</time>
      </trkpt>
      <trkpt lat="47.697" lon="6.05556">
        <ele>249.76</ele>
        <time>2017-09-27T07:46:26Z</time>
      </trkpt>
      <trkpt lat="47.69707" lon="6.05549">
        <ele>249.71</ele>
        <time>2017-09-27T07:46:27Z</time>
      </trkpt>
      <trkpt lat="47.69713" lon="6.05541">
        <ele>249.66</ele>
        <time>2017-09-27T07:46:28Z</time>
      </trkpt>
      <trkpt lat="47.69719" lon="6.05534">
        <ele>249.61</ele>
        <time>2017-09-27T07:46:29Z</time>
      </trkpt>
      <trkpt lat="47.69725" lon="6.05527">
        <ele>249.55</ele>
        <time>2017-09-27T07:46:30Z</time>
      </trkpt>
      <trkpt lat="47.69731" lon="6.0552">
        <ele>249.49</ele>
        <time>2017-09-27T07:46:31Z</time>
      </trkpt>
      <trkpt lat="47.69736" lon="6.05512">
        <ele>249.4</ele>
        <time>2017-09-27T07:46:32Z</time>
      </trkpt>
      <trkpt lat="47.69742" lon="6.05504">
        <ele>249.29</ele>
        <time>2017-09-27T07:46:33Z</time>
      </trkpt>
      <trkpt lat="47.69747" lon="6.05496">
        <ele>249.15</ele>
        <time>2017-09-27T07:46:34Z</time>
      </trkpt>
      <trkpt lat="47.69753" lon="6.05488">
        <ele>249.01</ele>
        <time>2017-09-27T07:46:35Z</time>
      </trkpt>
      <trkpt lat="47.69759" lon="6.0548">
        <ele>248.94</ele>
        <time>2017-09-27T07:46:36Z</time>
      </trkpt>
      <trkpt lat="47.69765" lon="6.05472">
        <ele>248.87</ele>
        <time>2017-09-27T07:46:37Z</time>
      </trkpt>
      <trkpt lat="47.69772" lon="6.05464">
        <ele>248.82</ele>
        <time>2017-09-27T07:46:38Z</time>
      </trkpt>
      <trkpt lat="47.69778" lon="6.05458">
        <ele>248.79</ele>
        <time>2017-09-27T07:46:39Z</time>
      </trkpt>
      <trkpt lat="47.69785" lon="6.05455">
        <ele>248.76</ele>
        <time>2017-09-27T07:46:40Z</time>
      </trkpt>
      <trkpt lat="47.69792" lon="6.05453">
        <ele>248.75</ele>
        <time>2017-09-27T07:46:41Z</time>
      </trkpt>
      <trkpt lat="47.69798" lon="6.05452">
        <ele>248.76</ele>
        <time>2017-09-27T07:46:42Z</time>
      </trkpt>
      <trkpt lat="47.69804" lon="6.05453">
        <ele>248.77</ele>
        <time>2017-09-27T07:46:43Z</time>
      </trkpt>
      <trkpt lat="47.6981" lon="6.05454">
        <ele>248.81</ele>
        <time>2017-09-27T07:46:44Z</time>
      </trkpt>
      <trkpt lat="47.69815" lon="6.05455">
        <ele>248.89</ele>
        <time>2017-09-27T07:46:45Z</time>
      </trkpt>
      <trkpt lat="47.69823" lon="6.05455">
        <ele>249.03</ele>
        <time>2017-09-27T07:46:47Z</time>
      </trkpt>
      <trkpt lat="47.69828" lon="6.05455">
        <ele>249.08</ele>
        <time>2017-09-27T07:46:49Z</time>
      </trkpt>
      <trkpt lat="47.69832" lon="6.05456">
        <ele>249.12</ele>
        <time>2017-09-27T07:46:51Z</time>
      </trkpt>
      <trkpt lat="47.69838" lon="6.05456">
        <ele>249.17</ele>
        <time>2017-09-27T07:46:53Z</time>
      </trkpt>
      <trkpt lat="47.69843" lon="6.05454">
        <ele>249.24</ele>
        <time>2017-09-27T07:46:55Z</time>
      </trkpt>
      <trkpt lat="47.69849" lon="6.05451">
        <ele>249.32</ele>
        <time>2017-09-27T07:46:57Z</time>
      </trkpt>
      <trkpt lat="47.69855" lon="6.05447">
        <ele>249.4</ele>
        <time>2017-09-27T07:46:59Z</time>
      </trkpt>
      <trkpt lat="47.6986" lon="6.05442">
        <ele>249.49</ele>
        <time>2017-09-27T07:47:01Z</time>
      </trkpt>
      <trkpt lat="47.69864" lon="6.05439">
        <ele>249.58</ele>
        <time>2017-09-27T07:47:03Z</time>
      </trkpt>
      <trkpt lat="47.69869" lon="6.05436">
        <ele>249.66</ele>
        <time>2017-09-27T07:47:05Z</time>
      </trkpt>
      <trkpt lat="47.69875" lon="6.05432">
        <ele>249.75</ele>
        <time>2017-09-27T07:47:08Z</time>
      </trkpt>
      <trkpt lat="47.69879" lon="6.05429">
        <ele>249.8</ele>
        <time>2017-09-27T07:47:10Z</time>
      </trkpt>
      <trkpt lat="47.69884" lon="6.05426">
        <ele>249.86</ele>
        <time>2017-09-27T07:47:12Z</time>
      </trkpt>
      <trkpt lat="47.69889" lon="6.05423">
        <ele>249.93</ele>
        <time>2017-09-27T07:47:14Z</time>
      </trkpt>
      <trkpt lat="47.69893" lon="6.05421">
        <ele>249.99</ele>
        <time>2017-09-27T07:47:16Z</time>
      </trkpt>
      <trkpt lat="47.69898" lon="6.05418">
        <ele>250.06</ele>
        <time>2017-09-27T07:47:18Z</time>
      </trkpt>
      <trkpt lat="47.69903" lon="6.05415">
        <ele>250.13</ele>
        <time>2017-09-27T07:47:20Z</time>
      </trkpt>
      <trkpt lat="47.69908" lon="6.05412">
        <ele>250.21</ele>
        <time>2017-09-27T07:47:22Z</time>
      </trkpt>
      <trkpt lat="47.69913" lon="6.05409">
        <ele>250.28</ele>
        <time>2017-09-27T07:47:24Z</time>
      </trkpt>
      <trkpt lat="47.69918" lon="6.05405">
        <ele>250.39</ele>
        <time>2017-09-27T07:47:27Z</time>
      </trkpt>
      <trkpt lat="47.69923" lon="6.05404">
        <ele>250.47</ele>
        <time>2017-09-27T07:47:29Z</time>
      </trkpt>
      <trkpt lat="47.69929" lon="6.05403">
        <ele>250.55</ele>
        <time>2017-09-27T07:47:31Z</time>
      </trkpt>
      <trkpt lat="47.69933" lon="6.05399">
        <ele>250.62</ele>
        <time>2017-09-27T07:47:33Z</time>
      </trkpt>
      <trkpt lat="47.69938" lon="6.05396">
        <ele>250.69</ele>
        <time>2017-09-27T07:47:35Z</time>
      </trkpt>
      <trkpt lat="47.69943" lon="6.05394">
        <ele>250.74</ele>
        <time>2017-09-27T07:47:37Z</time>
      </trkpt>
      <trkpt lat="47.69948" lon="6.05392">
        <ele>250.78</ele>
        <time>2017-09-27T07:47:39Z</time>
      </trkpt>
      <trkpt lat="47.69954" lon="6.0539">
        <ele>250.83</ele>
        <time>2017-09-27T07:47:41Z</time>
      </trkpt>
      <trkpt lat="47.69959" lon="6.05387">
        <ele>250.89</ele>
        <time>2017-09-27T07:47:43Z</time>
      </trkpt>
      <trkpt lat="47.69965" lon="6.05384">
        <ele>250.94</ele>
        <time>2017-09-27T07:47:45Z</time>
      </trkpt>
      <trkpt lat="47.69971" lon="6.05382">
        <ele>250.98</ele>
        <time>2017-09-27T07:47:47Z</time>
      </trkpt>
      <trkpt lat="47.69977" lon="6.05382">
        <ele>251.03</ele>
        <time>2017-09-27T07:47:49Z</time>
      </trkpt>
      <trkpt lat="47.69984" lon="6.05381">
        <ele>251.07</ele>
        <time>2017-09-27T07:47:51Z</time>
      </trkpt>
      <trkpt lat="47.69991" lon="6.0538">
        <ele>251.12</ele>
        <time>2017-09-27T07:47:53Z</time>
      </trkpt>
      <trkpt lat="47.69998" lon="6.0538">
        <ele>251.16</ele>
        <time>2017-09-27T07:47:55Z</time>
      </trkpt>
      <trkpt lat="47.70006" lon="6.0538">
        <ele>251.2</ele>
        <time>2017-09-27T07:47:57Z</time>
      </trkpt>
      <trkpt lat="47.70013" lon="6.05379">
        <ele>251.31</ele>
        <time>2017-09-27T07:47:59Z</time>
      </trkpt>
      <trkpt lat="47.7002" lon="6.05378">
        <ele>251.48</ele>
        <time>2017-09-27T07:48:01Z</time>
      </trkpt>
      <trkpt lat="47.70029" lon="6.05377">
        <ele>251.53</ele>
        <time>2017-09-27T07:48:03Z</time>
      </trkpt>
      <trkpt lat="47.70037" lon="6.05377">
        <ele>251.5</ele>
        <time>2017-09-27T07:48:05Z</time>
      </trkpt>
      <trkpt lat="47.70043" lon="6.05377">
        <ele>251.45</ele>
        <time>2017-09-27T07:48:06Z</time>
      </trkpt>
      <trkpt lat="47.70049" lon="6.05378">
        <ele>251.38</ele>
        <time>2017-09-27T07:48:07Z</time>
      </trkpt>
      <trkpt lat="47.70055" lon="6.05379">
        <ele>251.27</ele>
        <time>2017-09-27T07:48:08Z</time>
      </trkpt>
      <trkpt lat="47.70061" lon="6.05378">
        <ele>251.16</ele>
        <time>2017-09-27T07:48:09Z</time>
      </trkpt>
      <trkpt lat="47.70067" lon="6.05378">
        <ele>251.05</ele>
        <time>2017-09-27T07:48:10Z</time>
      </trkpt>
      <trkpt lat="47.70073" lon="6.05377">
        <ele>250.93</ele>
        <time>2017-09-27T07:48:11Z</time>
      </trkpt>
      <trkpt lat="47.70079" lon="6.05376">
        <ele>250.77</ele>
        <time>2017-09-27T07:48:12Z</time>
      </trkpt>
      <trkpt lat="47.70085" lon="6.05374">
        <ele>250.57</ele>
        <time>2017-09-27T07:48:13Z</time>
      </trkpt>
      <trkpt lat="47.70091" lon="6.05372">
        <ele>250.32</ele>
        <time>2017-09-27T07:48:14Z</time>
      </trkpt>
      <trkpt lat="47.70098" lon="6.05369">
        <ele>250.09</ele>
        <time>2017-09-27T07:48:15Z</time>
      </trkpt>
      <trkpt lat="47.70104" lon="6.05367">
        <ele>249.84</ele>
        <time>2017-09-27T07:48:16Z</time>
      </trkpt>
      <trkpt lat="47.70111" lon="6.05364">
        <ele>249.58</ele>
        <time>2017-09-27T07:48:17Z</time>
      </trkpt>
      <trkpt lat="47.70117" lon="6.0536">
        <ele>249.32</ele>
        <time>2017-09-27T07:48:18Z</time>
      </trkpt>
      <trkpt lat="47.70124" lon="6.05357">
        <ele>249.08</ele>
        <time>2017-09-27T07:48:19Z</time>
      </trkpt>
      <trkpt lat="47.7013" lon="6.05354">
        <ele>248.86</ele>
        <time>2017-09-27T07:48:20Z</time>
      </trkpt>
      <trkpt lat="47.70137" lon="6.05351">
        <ele>248.66</ele>
        <time>2017-09-27T07:48:21Z</time>
      </trkpt>
      <trkpt lat="47.70143" lon="6.05348">
        <ele>248.49</ele>
        <time>2017-09-27T07:48:22Z</time>
      </trkpt>
      <trkpt lat="47.70149" lon="6.05345">
        <ele>248.35</ele>
        <time>2017-09-27T07:48:23Z</time>
      </trkpt>
      <trkpt lat="47.70155" lon="6.05341">
        <ele>248.24</ele>
        <time>2017-09-27T07:48:24Z</time>
      </trkpt>
      <trkpt lat="47.70161" lon="6.05338">
        <ele>248.16</ele>
        <time>2017-09-27T07:48:25Z</time>
      </trkpt>
      <trkpt lat="47.70166" lon="6.05334">
        <ele>248.06</ele>
        <time>2017-09-27T07:48:26Z</time>
      </trkpt>
      <trkpt lat="47.70171" lon="6.0533">
        <ele>247.97</ele>
        <time>2017-09-27T07:48:27Z</time>
      </trkpt>
      <trkpt lat="47.70176" lon="6.05326">
        <ele>247.91</ele>
        <time>2017-09-27T07:48:28Z</time>
      </trkpt>
      <trkpt lat="47.70181" lon="6.05322">
        <ele>247.88</ele>
        <time>2017-09-27T07:48:29Z</time>
      </trkpt>
      <trkpt lat="47.70186" lon="6.05318">
        <ele>247.87</ele>
        <time>2017-09-27T07:48:30Z</time>
      </trkpt>
      <trkpt lat="47.70191" lon="6.05314">
        <ele>247.88</ele>
        <time>2017-09-27T07:48:31Z</time>
      </trkpt>
      <trkpt lat="47.70195" lon="6.0531">
        <ele>247.86</ele>
        <time>2017-09-27T07:48:32Z</time>
      </trkpt>
      <trkpt lat="47.70202" lon="6.05303">
        <ele>247.78</ele>
        <time>2017-09-27T07:48:34Z</time>
      </trkpt>
      <trkpt lat="47.70207" lon="6.05298">
        <ele>247.76</ele>
        <time>2017-09-27T07:48:36Z</time>
      </trkpt>
      <trkpt lat="47.70213" lon="6.05295">
        <ele>247.76</ele>
        <time>2017-09-27T07:48:38Z</time>
      </trkpt>
      <trkpt lat="47.70217" lon="6.05292">
        <ele>247.75</ele>
        <time>2017-09-27T07:48:40Z</time>
      </trkpt>
      <trkpt lat="47.70221" lon="6.05289">
        <ele>247.78</ele>
        <time>2017-09-27T07:48:42Z</time>
      </trkpt>
      <trkpt lat="47.70226" lon="6.05286">
        <ele>247.82</ele>
        <time>2017-09-27T07:48:44Z</time>
      </trkpt>
      <trkpt lat="47.70231" lon="6.05283">
        <ele>247.85</ele>
        <time>2017-09-27T07:48:46Z</time>
      </trkpt>
      <trkpt lat="47.70236" lon="6.05281">
        <ele>247.91</ele>
        <time>2017-09-27T07:48:48Z</time>
      </trkpt>
      <trkpt lat="47.70241" lon="6.0528">
        <ele>247.98</ele>
        <time>2017-09-27T07:48:50Z</time>
      </trkpt>
      <trkpt lat="47.70248" lon="6.05279">
        <ele>248.08</ele>
        <time>2017-09-27T07:48:53Z</time>
      </trkpt>
      <trkpt lat="47.70253" lon="6.05278">
        <ele>248.17</ele>
        <time>2017-09-27T07:48:56Z</time>
      </trkpt>
      <trkpt lat="47.70259" lon="6.05278">
        <ele>248.27</ele>
        <time>2017-09-27T07:48:59Z</time>
      </trkpt>
      <trkpt lat="47.70263" lon="6.05277">
        <ele>248.35</ele>
        <time>2017-09-27T07:49:01Z</time>
      </trkpt>
      <trkpt lat="47.70268" lon="6.05275">
        <ele>248.43</ele>
        <time>2017-09-27T07:49:03Z</time>
      </trkpt>
      <trkpt lat="47.70273" lon="6.05275">
        <ele>248.59</ele>
        <time>2017-09-27T07:49:06Z</time>
      </trkpt>
      <trkpt lat="47.70278" lon="6.05275">
        <ele>248.76</ele>
        <time>2017-09-27T07:49:09Z</time>
      </trkpt>
      <trkpt lat="47.70283" lon="6.05276">
        <ele>248.94</ele>
        <time>2017-09-27T07:49:12Z</time>
      </trkpt>
      <trkpt lat="47.70288" lon="6.05277">
        <ele>249.13</ele>
        <time>2017-09-27T07:49:15Z</time>
      </trkpt>
      <trkpt lat="47.70294" lon="6.05277">
        <ele>249.39</ele>
        <time>2017-09-27T07:49:19Z</time>
      </trkpt>
      <trkpt lat="47.703" lon="6.05276">
        <ele>249.59</ele>
        <time>2017-09-27T07:49:22Z</time>
      </trkpt>
      <trkpt lat="47.70305" lon="6.05275">
        <ele>249.88</ele>
        <time>2017-09-27T07:49:26Z</time>
      </trkpt>
      <trkpt lat="47.70309" lon="6.05274">
        <ele>250.11</ele>
        <time>2017-09-27T07:49:29Z</time>
      </trkpt>
      <trkpt lat="47.70315" lon="6.05271">
        <ele>250.44</ele>
        <time>2017-09-27T07:49:33Z</time>
      </trkpt>
      <trkpt lat="47.7032" lon="6.05273">
        <ele>250.77</ele>
        <time>2017-09-27T07:49:37Z</time>
      </trkpt>
      <trkpt lat="47.70324" lon="6.05273">
        <ele>251.03</ele>
        <time>2017-09-27T07:49:40Z</time>
      </trkpt>
      <trkpt lat="47.70329" lon="6.05271">
        <ele>251.36</ele>
        <time>2017-09-27T07:49:44Z</time>
      </trkpt>
      <trkpt lat="47.70335" lon="6.05274">
        <ele>251.75</ele>
        <time>2017-09-27T07:49:49Z</time>
      </trkpt>
      <trkpt lat="47.7034" lon="6.05276">
        <ele>252.02</ele>
        <time>2017-09-27T07:49:53Z</time>
      </trkpt>
      <trkpt lat="47.70345" lon="6.05276">
        <ele>252.28</ele>
        <time>2017-09-27T07:49:57Z</time>
      </trkpt>
      <trkpt lat="47.7035" lon="6.05277">
        <ele>252.46</ele>
        <time>2017-09-27T07:50:00Z</time>
      </trkpt>
      <trkpt lat="47.70356" lon="6.05277">
        <ele>252.69</ele>
        <time>2017-09-27T07:50:04Z</time>
      </trkpt>
      <trkpt lat="47.7036" lon="6.05278">
        <ele>252.92</ele>
        <time>2017-09-27T07:50:08Z</time>
      </trkpt>
      <trkpt lat="47.70367" lon="6.05279">
        <ele>253.1</ele>
        <time>2017-09-27T07:50:11Z</time>
      </trkpt>
      <trkpt lat="47.70372" lon="6.0528">
        <ele>253.28</ele>
        <time>2017-09-27T07:50:14Z</time>
      </trkpt>
      <trkpt lat="47.70377" lon="6.05281">
        <ele>253.46</ele>
        <time>2017-09-27T07:50:17Z</time>
      </trkpt>
      <trkpt lat="47.70383" lon="6.05282">
        <ele>253.65</ele>
        <time>2017-09-27T07:50:20Z</time>
      </trkpt>
      <trkpt lat="47.70388" lon="6.05283">
        <ele>253.77</ele>
        <time>2017-09-27T07:50:22Z</time>
      </trkpt>
      <trkpt lat="47.70393" lon="6.05284">
        <ele>253.9</ele>
        <time>2017-09-27T07:50:24Z</time>
      </trkpt>
      <trkpt lat="47.70398" lon="6.05284">
        <ele>254.02</ele>
        <time>2017-09-27T07:50:26Z</time>
      </trkpt>
      <trkpt lat="47.70405" lon="6.05285">
        <ele>254.21</ele>
        <time>2017-09-27T07:50:29Z</time>
      </trkpt>
      <trkpt lat="47.7041" lon="6.05287">
        <ele>254.39</ele>
        <time>2017-09-27T07:50:32Z</time>
      </trkpt>
      <trkpt lat="47.70415" lon="6.0529">
        <ele>254.51</ele>
        <time>2017-09-27T07:50:34Z</time>
      </trkpt>
      <trkpt lat="47.70421" lon="6.05292">
        <ele>254.7</ele>
        <time>2017-09-27T07:50:37Z</time>
      </trkpt>
      <trkpt lat="47.70425" lon="6.05293">
        <ele>254.81</ele>
        <time>2017-09-27T07:50:39Z</time>
      </trkpt>
      <trkpt lat="47.7043" lon="6.05296">
        <ele>254.93</ele>
        <time>2017-09-27T07:50:41Z</time>
      </trkpt>
      <trkpt lat="47.70437" lon="6.05299">
        <ele>255.11</ele>
        <time>2017-09-27T07:50:44Z</time>
      </trkpt>
      <trkpt lat="47.70442" lon="6.05301">
        <ele>255.27</ele>
        <time>2017-09-27T07:50:47Z</time>
      </trkpt>
      <trkpt lat="47.70447" lon="6.05303">
        <ele>255.38</ele>
        <time>2017-09-27T07:50:49Z</time>
      </trkpt>
      <trkpt lat="47.70452" lon="6.05307">
        <ele>255.49</ele>
        <time>2017-09-27T07:50:51Z</time>
      </trkpt>
      <trkpt lat="47.70456" lon="6.05311">
        <ele>255.6</ele>
        <time>2017-09-27T07:50:53Z</time>
      </trkpt>
      <trkpt lat="47.70461" lon="6.05315">
        <ele>255.72</ele>
        <time>2017-09-27T07:50:55Z</time>
      </trkpt>
      <trkpt lat="47.70465" lon="6.05319">
        <ele>255.84</ele>
        <time>2017-09-27T07:50:57Z</time>
      </trkpt>
      <trkpt lat="47.70469" lon="6.05323">
        <ele>255.97</ele>
        <time>2017-09-27T07:50:59Z</time>
      </trkpt>
      <trkpt lat="47.70473" lon="6.05328">
        <ele>256.1</ele>
        <time>2017-09-27T07:51:01Z</time>
      </trkpt>
      <trkpt lat="47.70478" lon="6.05334">
        <ele>256.3</ele>
        <time>2017-09-27T07:51:04Z</time>
      </trkpt>
      <trkpt lat="47.70481" lon="6.0534">
        <ele>256.49</ele>
        <time>2017-09-27T07:51:07Z</time>
      </trkpt>
      <trkpt lat="47.70486" lon="6.05346">
        <ele>256.67</ele>
        <time>2017-09-27T07:51:10Z</time>
      </trkpt>
      <trkpt lat="47.70492" lon="6.0535">
        <ele>256.84</ele>
        <time>2017-09-27T07:51:13Z</time>
      </trkpt>
      <trkpt lat="47.70497" lon="6.05351">
        <ele>256.94</ele>
        <time>2017-09-27T07:51:15Z</time>
      </trkpt>
      <trkpt lat="47.70503" lon="6.05353">
        <ele>257.03</ele>
        <time>2017-09-27T07:51:17Z</time>
      </trkpt>
      <trkpt lat="47.7051" lon="6.05355">
        <ele>257.11</ele>
        <time>2017-09-27T07:51:19Z</time>
      </trkpt>
      <trkpt lat="47.70516" lon="6.05357">
        <ele>257.19</ele>
        <time>2017-09-27T07:51:21Z</time>
      </trkpt>
      <trkpt lat="47.70522" lon="6.05361">
        <ele>257.3</ele>
        <time>2017-09-27T07:51:24Z</time>
      </trkpt>
      <trkpt lat="47.70527" lon="6.05364">
        <ele>257.41</ele>
        <time>2017-09-27T07:51:27Z</time>
      </trkpt>
      <trkpt lat="47.70532" lon="6.05366">
        <ele>257.48</ele>
        <time>2017-09-27T07:51:29Z</time>
      </trkpt>
      <trkpt lat="47.70539" lon="6.05368">
        <ele>257.55</ele>
        <time>2017-09-27T07:51:31Z</time>
      </trkpt>
      <trkpt lat="47.70546" lon="6.05371">
        <ele>257.62</ele>
        <time>2017-09-27T07:51:33Z</time>
      </trkpt>
      <trkpt lat="47.70553" lon="6.05374">
        <ele>257.68</ele>
        <time>2017-09-27T07:51:35Z</time>
      </trkpt>
      <trkpt lat="47.70558" lon="6.05378">
        <ele>257.74</ele>
        <time>2017-09-27T07:51:37Z</time>
      </trkpt>
      <trkpt lat="47.70564" lon="6.05381">
        <ele>257.82</ele>
        <time>2017-09-27T07:51:40Z</time>
      </trkpt>
      <trkpt lat="47.70569" lon="6.05383">
        <ele>257.87</ele>
        <time>2017-09-27T07:51:42Z</time>
      </trkpt>
      <trkpt lat="47.70577" lon="6.05386">
        <ele>257.92</ele>
        <time>2017-09-27T07:51:44Z</time>
      </trkpt>
      <trkpt lat="47.70585" lon="6.05389">
        <ele>257.96</ele>
        <time>2017-09-27T07:51:46Z</time>
      </trkpt>
      <trkpt lat="47.70589" lon="6.0539">
        <ele>257.99</ele>
        <time>2017-09-27T07:51:47Z</time>
      </trkpt>
      <trkpt lat="47.70598" lon="6.05392">
        <ele>258.03</ele>
        <time>2017-09-27T07:51:49Z</time>
      </trkpt>
      <trkpt lat="47.70606" lon="6.05393">
        <ele>258.08</ele>
        <time>2017-09-27T07:51:51Z</time>
      </trkpt>
      <trkpt lat="47.70613" lon="6.05395">
        <ele>258.12</ele>
        <time>2017-09-27T07:51:53Z</time>
      </trkpt>
      <trkpt lat="47.70619" lon="6.05396">
        <ele>258.17</ele>
        <time>2017-09-27T07:51:55Z</time>
      </trkpt>
      <trkpt lat="47.70624" lon="6.05399">
        <ele>258.21</ele>
        <time>2017-09-27T07:51:57Z</time>
      </trkpt>
      <trkpt lat="47.7063" lon="6.05402">
        <ele>258.28</ele>
        <time>2017-09-27T07:52:00Z</time>
      </trkpt>
      <trkpt lat="47.70635" lon="6.05404">
        <ele>258.33</ele>
        <time>2017-09-27T07:52:02Z</time>
      </trkpt>
      <trkpt lat="47.7064" lon="6.05405">
        <ele>258.38</ele>
        <time>2017-09-27T07:52:04Z</time>
      </trkpt>
      <trkpt lat="47.70645" lon="6.05406">
        <ele>258.43</ele>
        <time>2017-09-27T07:52:06Z</time>
      </trkpt>
      <trkpt lat="47.70651" lon="6.05409">
        <ele>258.48</ele>
        <time>2017-09-27T07:52:08Z</time>
      </trkpt>
      <trkpt lat="47.70657" lon="6.0541">
        <ele>258.54</ele>
        <time>2017-09-27T07:52:10Z</time>
      </trkpt>
      <trkpt lat="47.70663" lon="6.05411">
        <ele>258.59</ele>
        <time>2017-09-27T07:52:12Z</time>
      </trkpt>
      <trkpt lat="47.7067" lon="6.05411">
        <ele>258.64</ele>
        <time>2017-09-27T07:52:14Z</time>
      </trkpt>
      <trkpt lat="47.70676" lon="6.05411">
        <ele>258.69</ele>
        <time>2017-09-27T07:52:16Z</time>
      </trkpt>
      <trkpt lat="47.70682" lon="6.05411">
        <ele>258.73</ele>
        <time>2017-09-27T07:52:18Z</time>
      </trkpt>
      <trkpt lat="47.70688" lon="6.0541">
        <ele>258.77</ele>
        <time>2017-09-27T07:52:20Z</time>
      </trkpt>
      <trkpt lat="47.70694" lon="6.0541">
        <ele>258.83</ele>
        <time>2017-09-27T07:52:24Z</time>
      </trkpt>
      <trkpt lat="47.70701" lon="6.05411">
        <ele>258.88</ele>
        <time>2017-09-27T07:52:27Z</time>
      </trkpt>
      <trkpt lat="47.70707" lon="6.05412">
        <ele>258.92</ele>
        <time>2017-09-27T07:52:29Z</time>
      </trkpt>
      <trkpt lat="47.70713" lon="6.05412">
        <ele>258.95</ele>
        <time>2017-09-27T07:52:31Z</time>
      </trkpt>
      <trkpt lat="47.7072" lon="6.05413">
        <ele>258.98</ele>
        <time>2017-09-27T07:52:33Z</time>
      </trkpt>
      <trkpt lat="47.70726" lon="6.05413">
        <ele>259.02</ele>
        <time>2017-09-27T07:52:35Z</time>
      </trkpt>
      <trkpt lat="47.70732" lon="6.05413">
        <ele>259.04</ele>
        <time>2017-09-27T07:52:37Z</time>
      </trkpt>
      <trkpt lat="47.70738" lon="6.05414">
        <ele>259.07</ele>
        <time>2017-09-27T07:52:39Z</time>
      </trkpt>
      <trkpt lat="47.70745" lon="6.05414">
        <ele>259.1</ele>
        <time>2017-09-27T07:52:41Z</time>
      </trkpt>
      <trkpt lat="47.70751" lon="6.05414">
        <ele>259.13</ele>
        <time>2017-09-27T07:52:43Z</time>
      </trkpt>
      <trkpt lat="47.70757" lon="6.05414">
        <ele>259.15</ele>
        <time>2017-09-27T07:52:45Z</time>
      </trkpt>
      <trkpt lat="47.70763" lon="6.05415">
        <ele>259.18</ele>
        <time>2017-09-27T07:52:47Z</time>
      </trkpt>
      <trkpt lat="47.70768" lon="6.05416">
        <ele>259.2</ele>
        <time>2017-09-27T07:52:49Z</time>
      </trkpt>
      <trkpt lat="47.70773" lon="6.05417">
        <ele>259.22</ele>
        <time>2017-09-27T07:52:51Z</time>
      </trkpt>
      <trkpt lat="47.70778" lon="6.05419">
        <ele>259.24</ele>
        <time>2017-09-27T07:52:53Z</time>
      </trkpt>
      <trkpt lat="47.70782" lon="6.0542">
        <ele>259.26</ele>
        <time>2017-09-27T07:52:55Z</time>
      </trkpt>
      <trkpt lat="47.70788" lon="6.05421">
        <ele>259.28</ele>
        <time>2017-09-27T07:52:57Z</time>
      </trkpt>
      <trkpt lat="47.70792" lon="6.05423">
        <ele>259.31</ele>
        <time>2017-09-27T07:52:59Z</time>
      </trkpt>
      <trkpt lat="47.70797" lon="6.05426">
        <ele>259.33</ele>
        <time>2017-09-27T07:53:01Z</time>
      </trkpt>
      <trkpt lat="47.70802" lon="6.05429">
        <ele>259.35</ele>
        <time>2017-09-27T07:53:03Z</time>
      </trkpt>
      <trkpt lat="47.70807" lon="6.05431">
        <ele>259.38</ele>
        <time>2017-09-27T07:53:05Z</time>
      </trkpt>
      <trkpt lat="47.70814" lon="6.05433">
        <ele>259.43</ele>
        <time>2017-09-27T07:53:08Z</time>
      </trkpt>
      <trkpt lat="47.70819" lon="6.05434">
        <ele>259.46</ele>
        <time>2017-09-27T07:53:10Z</time>
      </trkpt>
      <trkpt lat="47.70826" lon="6.05435">
        <ele>259.52</ele>
        <time>2017-09-27T07:53:13Z</time>
      </trkpt>
      <trkpt lat="47.70832" lon="6.05434">
        <ele>259.57</ele>
        <time>2017-09-27T07:53:16Z</time>
      </trkpt>
      <trkpt lat="47.70837" lon="6.05436">
        <ele>259.63</ele>
        <time>2017-09-27T07:53:19Z</time>
      </trkpt>
      <trkpt lat="47.70843" lon="6.05437">
        <ele>259.68</ele>
        <time>2017-09-27T07:53:22Z</time>
      </trkpt>
      <trkpt lat="47.70848" lon="6.05441">
        <ele>259.73</ele>
        <time>2017-09-27T07:53:25Z</time>
      </trkpt>
      <trkpt lat="47.70854" lon="6.05443">
        <ele>259.77</ele>
        <time>2017-09-27T07:53:28Z</time>
      </trkpt>
      <trkpt lat="47.7086" lon="6.05448">
        <ele>259.81</ele>
        <time>2017-09-27T07:53:31Z</time>
      </trkpt>
      <trkpt lat="47.70864" lon="6.0545">
        <ele>259.84</ele>
        <time>2017-09-27T07:53:33Z</time>
      </trkpt>
      <trkpt lat="47.70869" lon="6.05451">
        <ele>259.87</ele>
        <time>2017-09-27T07:53:35Z</time>
      </trkpt>
      <trkpt lat="47.70874" lon="6.05454">
        <ele>259.89</ele>
        <time>2017-09-27T07:53:37Z</time>
      </trkpt>
      <trkpt lat="47.70879" lon="6.0546">
        <ele>259.92</ele>
        <time>2017-09-27T07:53:39Z</time>
      </trkpt>
      <trkpt lat="47.70884" lon="6.05463">
        <ele>259.96</ele>
        <time>2017-09-27T07:53:41Z</time>
      </trkpt>
      <trkpt lat="47.70888" lon="6.05467">
        <ele>260.01</ele>
        <time>2017-09-27T07:53:43Z</time>
      </trkpt>
      <trkpt lat="47.70893" lon="6.05471">
        <ele>260.09</ele>
        <time>2017-09-27T07:53:46Z</time>
      </trkpt>
      <trkpt lat="47.70898" lon="6.05475">
        <ele>260.17</ele>
        <time>2017-09-27T07:53:49Z</time>
      </trkpt>
      <trkpt lat="47.70904" lon="6.0548">
        <ele>260.27</ele>
        <time>2017-09-27T07:53:52Z</time>
      </trkpt>
      <trkpt lat="47.70909" lon="6.05485">
        <ele>260.38</ele>
        <time>2017-09-27T07:53:55Z</time>
      </trkpt>
      <trkpt lat="47.70913" lon="6.05488">
        <ele>260.5</ele>
        <time>2017-09-27T07:53:58Z</time>
      </trkpt>
      <trkpt lat="47.70918" lon="6.05492">
        <ele>260.62</ele>
        <time>2017-09-27T07:54:01Z</time>
      </trkpt>
      <trkpt lat="47.70924" lon="6.05493">
        <ele>260.74</ele>
        <time>2017-09-27T07:54:04Z</time>
      </trkpt>
      <trkpt lat="47.70929" lon="6.05496">
        <ele>260.86</ele>
        <time>2017-09-27T07:54:07Z</time>
      </trkpt>
      <trkpt lat="47.70935" lon="6.05497">
        <ele>260.98</ele>
        <time>2017-09-27T07:54:10Z</time>
      </trkpt>
      <trkpt lat="47.7094" lon="6.05497">
        <ele>261.11</ele>
        <time>2017-09-27T07:54:13Z</time>
      </trkpt>
      <trkpt lat="47.70945" lon="6.05498">
        <ele>261.23</ele>
        <time>2017-09-27T07:54:16Z</time>
      </trkpt>
      <trkpt lat="47.7095" lon="6.055">
        <ele>261.35</ele>
        <time>2017-09-27T07:54:19Z</time>
      </trkpt>
      <trkpt lat="47.70955" lon="6.05503">
        <ele>261.47</ele>
        <time>2017-09-27T07:54:22Z</time>
      </trkpt>
      <trkpt lat="47.70961" lon="6.05503">
        <ele>261.57</ele>
        <time>2017-09-27T07:54:25Z</time>
      </trkpt>
      <trkpt lat="47.70966" lon="6.05504">
        <ele>261.67</ele>
        <time>2017-09-27T07:54:28Z</time>
      </trkpt>
      <trkpt lat="47.7097" lon="6.05505">
        <ele>261.8</ele>
        <time>2017-09-27T07:54:32Z</time>
      </trkpt>
      <trkpt lat="47.70977" lon="6.05506">
        <ele>261.91</ele>
        <time>2017-09-27T07:54:36Z</time>
      </trkpt>
      <trkpt lat="47.70982" lon="6.05508">
        <ele>262.03</ele>
        <time>2017-09-27T07:54:40Z</time>
      </trkpt>
      <trkpt lat="47.70987" lon="6.0551">
        <ele>262.16</ele>
        <time>2017-09-27T07:54:45Z</time>
      </trkpt>
      <trkpt lat="47.70992" lon="6.05514">
        <ele>262.26</ele>
        <time>2017-09-27T07:54:49Z</time>
      </trkpt>
      <trkpt lat="47.70998" lon="6.05517">
        <ele>262.35</ele>
        <time>2017-09-27T07:54:53Z</time>
      </trkpt>
      <trkpt lat="47.71004" lon="6.0552">
        <ele>262.43</ele>
        <time>2017-09-27T07:54:56Z</time>
      </trkpt>
      <trkpt lat="47.7101" lon="6.05523">
        <ele>262.5</ele>
        <time>2017-09-27T07:54:59Z</time>
      </trkpt>
      <trkpt lat="47.71015" lon="6.05525">
        <ele>262.55</ele>
        <time>2017-09-27T07:55:01Z</time>
      </trkpt>
      <trkpt lat="47.7102" lon="6.05524">
        <ele>262.6</ele>
        <time>2017-09-27T07:55:03Z</time>
      </trkpt>
      <trkpt lat="47.71026" lon="6.05525">
        <ele>262.67</ele>
        <time>2017-09-27T07:55:06Z</time>
      </trkpt>
      <trkpt lat="47.71031" lon="6.05525">
        <ele>262.72</ele>
        <time>2017-09-27T07:55:08Z</time>
      </trkpt>
      <trkpt lat="47.71036" lon="6.05525">
        <ele>262.77</ele>
        <time>2017-09-27T07:55:10Z</time>
      </trkpt>
      <trkpt lat="47.71042" lon="6.05525">
        <ele>262.84</ele>
        <time>2017-09-27T07:55:13Z</time>
      </trkpt>
      <trkpt lat="47.71048" lon="6.05523">
        <ele>262.89</ele>
        <time>2017-09-27T07:55:15Z</time>
      </trkpt>
      <trkpt lat="47.71054" lon="6.05522">
        <ele>262.94</ele>
        <time>2017-09-27T07:55:17Z</time>
      </trkpt>
      <trkpt lat="47.71059" lon="6.05521">
        <ele>262.99</ele>
        <time>2017-09-27T07:55:19Z</time>
      </trkpt>
      <trkpt lat="47.71064" lon="6.0552">
        <ele>263.04</ele>
        <time>2017-09-27T07:55:21Z</time>
      </trkpt>
      <trkpt lat="47.7107" lon="6.05518">
        <ele>263.09</ele>
        <time>2017-09-27T07:55:23Z</time>
      </trkpt>
      <trkpt lat="47.71076" lon="6.05517">
        <ele>263.14</ele>
        <time>2017-09-27T07:55:25Z</time>
      </trkpt>
      <trkpt lat="47.7108" lon="6.05517">
        <ele>263.19</ele>
        <time>2017-09-27T07:55:27Z</time>
      </trkpt>
      <trkpt lat="47.71086" lon="6.05517">
        <ele>263.26</ele>
        <time>2017-09-27T07:55:30Z</time>
      </trkpt>
      <trkpt lat="47.71091" lon="6.05516">
        <ele>263.31</ele>
        <time>2017-09-27T07:55:32Z</time>
      </trkpt>
      <trkpt lat="47.71097" lon="6.05515">
        <ele>263.37</ele>
        <time>2017-09-27T07:55:34Z</time>
      </trkpt>
      <trkpt lat="47.71102" lon="6.05514">
        <ele>263.42</ele>
        <time>2017-09-27T07:55:36Z</time>
      </trkpt>
      <trkpt lat="47.71107" lon="6.05514">
        <ele>263.47</ele>
        <time>2017-09-27T07:55:38Z</time>
      </trkpt>
      <trkpt lat="47.71111" lon="6.05512">
        <ele>263.53</ele>
        <time>2017-09-27T07:55:40Z</time>
      </trkpt>
      <trkpt lat="47.71117" lon="6.05511">
        <ele>263.58</ele>
        <time>2017-09-27T07:55:42Z</time>
      </trkpt>
      <trkpt lat="47.71123" lon="6.05511">
        <ele>263.64</ele>
        <time>2017-09-27T07:55:44Z</time>
      </trkpt>
      <trkpt lat="47.71129" lon="6.0551">
        <ele>263.72</ele>
        <time>2017-09-27T07:55:47Z</time>
      </trkpt>
      <trkpt lat="47.71135" lon="6.0551">
        <ele>263.81</ele>
        <time>2017-09-27T07:55:50Z</time>
      </trkpt>
      <trkpt lat="47.71141" lon="6.05509">
        <ele>263.86</ele>
        <time>2017-09-27T07:55:52Z</time>
      </trkpt>
      <trkpt lat="47.71146" lon="6.05509">
        <ele>263.92</ele>
        <time>2017-09-27T07:55:54Z</time>
      </trkpt>
      <trkpt lat="47.71151" lon="6.0551">
        <ele>263.98</ele>
        <time>2017-09-27T07:55:56Z</time>
      </trkpt>
      <trkpt lat="47.71157" lon="6.0551">
        <ele>264.03</ele>
        <time>2017-09-27T07:55:58Z</time>
      </trkpt>
      <trkpt lat="47.71164" lon="6.05511">
        <ele>264.09</ele>
        <time>2017-09-27T07:56:00Z</time>
      </trkpt>
      <trkpt lat="47.71169" lon="6.05512">
        <ele>264.14</ele>
        <time>2017-09-27T07:56:02Z</time>
      </trkpt>
      <trkpt lat="47.71175" lon="6.05517">
        <ele>264.22</ele>
        <time>2017-09-27T07:56:05Z</time>
      </trkpt>
      <trkpt lat="47.71179" lon="6.05521">
        <ele>264.27</ele>
        <time>2017-09-27T07:56:07Z</time>
      </trkpt>
      <trkpt lat="47.71184" lon="6.05524">
        <ele>264.32</ele>
        <time>2017-09-27T07:56:09Z</time>
      </trkpt>
      <trkpt lat="47.71191" lon="6.05523">
        <ele>264.39</ele>
        <time>2017-09-27T07:56:12Z</time>
      </trkpt>
      <trkpt lat="47.71197" lon="6.05527">
        <ele>264.44</ele>
        <time>2017-09-27T07:56:14Z</time>
      </trkpt>
      <trkpt lat="47.71203" lon="6.05531">
        <ele>264.48</ele>
        <time>2017-09-27T07:56:16Z</time>
      </trkpt>
      <trkpt lat="47.71206" lon="6.05536">
        <ele>264.52</ele>
        <time>2017-09-27T07:56:18Z</time>
      </trkpt>
      <trkpt lat="47.7121" lon="6.05541">
        <ele>264.55</ele>
        <time>2017-09-27T07:56:21Z</time>
      </trkpt>
      <trkpt lat="47.71212" lon="6.05549">
        <ele>264.59</ele>
        <time>2017-09-27T07:56:24Z</time>
      </trkpt>
      <trkpt lat="47.71215" lon="6.05554">
        <ele>264.62</ele>
        <time>2017-09-27T07:56:26Z</time>
      </trkpt>
      <trkpt lat="47.71214" lon="6.05561">
        <ele>264.66</ele>
        <time>2017-09-27T07:56:29Z</time>
      </trkpt>
      <trkpt lat="47.71221" lon="6.05564">
        <ele>264.69</ele>
        <time>2017-09-27T07:56:32Z</time>
      </trkpt>
      <trkpt lat="47.71228" lon="6.05564">
        <ele>264.72</ele>
        <time>2017-09-27T07:56:34Z</time>
      </trkpt>
      <trkpt lat="47.71235" lon="6.05566">
        <ele>264.74</ele>
        <time>2017-09-27T07:56:36Z</time>
      </trkpt>
      <trkpt lat="47.71242" lon="6.05568">
        <ele>264.75</ele>
        <time>2017-09-27T07:56:38Z</time>
      </trkpt>
      <trkpt lat="47.71247" lon="6.0557">
        <ele>264.76</ele>
        <time>2017-09-27T07:56:39Z</time>
      </trkpt>
      <trkpt lat="47.71251" lon="6.05573">
        <ele>264.77</ele>
        <time>2017-09-27T07:56:40Z</time>
      </trkpt>
      <trkpt lat="47.71256" lon="6.05575">
        <ele>264.78</ele>
        <time>2017-09-27T07:56:41Z</time>
      </trkpt>
      <trkpt lat="47.71261" lon="6.05577">
        <ele>264.79</ele>
        <time>2017-09-27T07:56:42Z</time>
      </trkpt>
      <trkpt lat="47.71266" lon="6.05578">
        <ele>264.8</ele>
        <time>2017-09-27T07:56:43Z</time>
      </trkpt>
      <trkpt lat="47.71273" lon="6.05578">
        <ele>264.81</ele>
        <time>2017-09-27T07:56:44Z</time>
      </trkpt>
      <trkpt lat="47.7128" lon="6.0558">
        <ele>264.82</ele>
        <time>2017-09-27T07:56:45Z</time>
      </trkpt>
      <trkpt lat="47.71285" lon="6.05583">
        <ele>264.82</ele>
        <time>2017-09-27T07:56:46Z</time>
      </trkpt>
      <trkpt lat="47.71291" lon="6.05585">
        <ele>264.83</ele>
        <time>2017-09-27T07:56:47Z</time>
      </trkpt>
      <trkpt lat="47.71296" lon="6.05587">
        <ele>264.84</ele>
        <time>2017-09-27T07:56:48Z</time>
      </trkpt>
      <trkpt lat="47.71304" lon="6.05589">
        <ele>264.86</ele>
        <time>2017-09-27T07:56:50Z</time>
      </trkpt>
      <trkpt lat="47.71313" lon="6.0559">
        <ele>264.86</ele>
        <time>2017-09-27T07:56:51Z</time>
      </trkpt>
      <trkpt lat="47.7132" lon="6.05593">
        <ele>264.87</ele>
        <time>2017-09-27T07:56:52Z</time>
      </trkpt>
      <trkpt lat="47.71325" lon="6.05596">
        <ele>264.88</ele>
        <time>2017-09-27T07:56:53Z</time>
      </trkpt>
      <trkpt lat="47.71334" lon="6.05597">
        <ele>264.89</ele>
        <time>2017-09-27T07:56:54Z</time>
      </trkpt>
      <trkpt lat="47.71343" lon="6.056">
        <ele>264.9</ele>
        <time>2017-09-27T07:56:56Z</time>
      </trkpt>
      <trkpt lat="47.7135" lon="6.05601">
        <ele>264.92</ele>
        <time>2017-09-27T07:56:58Z</time>
      </trkpt>
      <trkpt lat="47.71355" lon="6.05604">
        <ele>264.93</ele>
        <time>2017-09-27T07:57:00Z</time>
      </trkpt>
      <trkpt lat="47.7136" lon="6.05607">
        <ele>264.94</ele>
        <time>2017-09-27T07:57:02Z</time>
      </trkpt>
      <trkpt lat="47.71365" lon="6.05609">
        <ele>264.95</ele>
        <time>2017-09-27T07:57:04Z</time>
      </trkpt>
      <trkpt lat="47.7137" lon="6.05611">
        <ele>264.96</ele>
        <time>2017-09-27T07:57:06Z</time>
      </trkpt>
      <trkpt lat="47.71375" lon="6.05614">
        <ele>264.97</ele>
        <time>2017-09-27T07:57:08Z</time>
      </trkpt>
      <trkpt lat="47.71379" lon="6.05617">
        <ele>264.98</ele>
        <time>2017-09-27T07:57:10Z</time>
      </trkpt>
      <trkpt lat="47.71384" lon="6.05621">
        <ele>264.99</ele>
        <time>2017-09-27T07:57:12Z</time>
      </trkpt>
      <trkpt lat="47.71388" lon="6.05625">
        <ele>265</ele>
        <time>2017-09-27T07:57:14Z</time>
      </trkpt>
      <trkpt lat="47.71392" lon="6.05629">
        <ele>265.01</ele>
        <time>2017-09-27T07:57:16Z</time>
      </trkpt>
      <trkpt lat="47.71398" lon="6.05633">
        <ele>265.02</ele>
        <time>2017-09-27T07:57:18Z</time>
      </trkpt>
      <trkpt lat="47.71401" lon="6.05637">
        <ele>265.04</ele>
        <time>2017-09-27T07:57:21Z</time>
      </trkpt>
      <trkpt lat="47.71407" lon="6.0564">
        <ele>265.05</ele>
        <time>2017-09-27T07:57:23Z</time>
      </trkpt>
      <trkpt lat="47.71411" lon="6.05644">
        <ele>265.05</ele>
        <time>2017-09-27T07:57:25Z</time>
      </trkpt>
      <trkpt lat="47.71416" lon="6.05649">
        <ele>265.06</ele>
        <time>2017-09-27T07:57:27Z</time>
      </trkpt>
      <trkpt lat="47.7142" lon="6.05654">
        <ele>265.07</ele>
        <time>2017-09-27T07:57:29Z</time>
      </trkpt>
      <trkpt lat="47.71424" lon="6.05659">
        <ele>265.08</ele>
        <time>2017-09-27T07:57:31Z</time>
      </trkpt>
      <trkpt lat="47.71429" lon="6.05662">
        <ele>265.08</ele>
        <time>2017-09-27T07:57:33Z</time>
      </trkpt>
      <trkpt lat="47.71434" lon="6.05666">
        <ele>265.09</ele>
        <time>2017-09-27T07:57:35Z</time>
      </trkpt>
      <trkpt lat="47.71439" lon="6.05669">
        <ele>265.09</ele>
        <time>2017-09-27T07:57:36Z</time>
      </trkpt>
      <trkpt lat="47.71443" lon="6.05672">
        <ele>265.1</ele>
        <time>2017-09-27T07:57:37Z</time>
      </trkpt>
      <trkpt lat="47.7145" lon="6.05676">
        <ele>265.1</ele>
        <time>2017-09-27T07:57:39Z</time>
      </trkpt>
      <trkpt lat="47.71456" lon="6.0568">
        <ele>265.1</ele>
        <time>2017-09-27T07:57:41Z</time>
      </trkpt>
      <trkpt lat="47.71461" lon="6.05685">
        <ele>265.09</ele>
        <time>2017-09-27T07:57:43Z</time>
      </trkpt>
      <trkpt lat="47.71467" lon="6.05689">
        <ele>265.08</ele>
        <time>2017-09-27T07:57:45Z</time>
      </trkpt>
      <trkpt lat="47.71472" lon="6.05694">
        <ele>265.06</ele>
        <time>2017-09-27T07:57:47Z</time>
      </trkpt>
      <trkpt lat="47.71478" lon="6.05698">
        <ele>265.04</ele>
        <time>2017-09-27T07:57:49Z</time>
      </trkpt>
      <trkpt lat="47.71483" lon="6.05703">
        <ele>265.02</ele>
        <time>2017-09-27T07:57:51Z</time>
      </trkpt>
      <trkpt lat="47.71487" lon="6.05707">
        <ele>265</ele>
        <time>2017-09-27T07:57:53Z</time>
      </trkpt>
      <trkpt lat="47.71492" lon="6.05713">
        <ele>264.97</ele>
        <time>2017-09-27T07:57:55Z</time>
      </trkpt>
      <trkpt lat="47.71497" lon="6.05717">
        <ele>264.94</ele>
        <time>2017-09-27T07:57:57Z</time>
      </trkpt>
      <trkpt lat="47.71503" lon="6.05721">
        <ele>264.91</ele>
        <time>2017-09-27T07:57:59Z</time>
      </trkpt>
      <trkpt lat="47.71508" lon="6.05724">
        <ele>264.87</ele>
        <time>2017-09-27T07:58:01Z</time>
      </trkpt>
      <trkpt lat="47.71514" lon="6.05727">
        <ele>264.84</ele>
        <time>2017-09-27T07:58:03Z</time>
      </trkpt>
      <trkpt lat="47.7152" lon="6.0573">
        <ele>264.8</ele>
        <time>2017-09-27T07:58:05Z</time>
      </trkpt>
      <trkpt lat="47.71526" lon="6.05731">
        <ele>264.76</ele>
        <time>2017-09-27T07:58:07Z</time>
      </trkpt>
      <trkpt lat="47.71531" lon="6.05732">
        <ele>264.71</ele>
        <time>2017-09-27T07:58:09Z</time>
      </trkpt>
      <trkpt lat="47.71537" lon="6.05734">
        <ele>264.68</ele>
        <time>2017-09-27T07:58:11Z</time>
      </trkpt>
      <trkpt lat="47.71542" lon="6.05735">
        <ele>264.62</ele>
        <time>2017-09-27T07:58:13Z</time>
      </trkpt>
      <trkpt lat="47.71548" lon="6.05735">
        <ele>264.58</ele>
        <time>2017-09-27T07:58:15Z</time>
      </trkpt>
      <trkpt lat="47.71553" lon="6.05736">
        <ele>264.53</ele>
        <time>2017-09-27T07:58:17Z</time>
      </trkpt>
      <trkpt lat="47.71558" lon="6.05737">
        <ele>264.48</ele>
        <time>2017-09-27T07:58:19Z</time>
      </trkpt>
      <trkpt lat="47.71563" lon="6.05737">
        <ele>264.43</ele>
        <time>2017-09-27T07:58:21Z</time>
      </trkpt>
      <trkpt lat="47.71569" lon="6.05737">
        <ele>264.38</ele>
        <time>2017-09-27T07:58:23Z</time>
      </trkpt>
      <trkpt lat="47.71574" lon="6.05738">
        <ele>264.33</ele>
        <time>2017-09-27T07:58:25Z</time>
      </trkpt>
      <trkpt lat="47.7158" lon="6.05739">
        <ele>264.28</ele>
        <time>2017-09-27T07:58:27Z</time>
      </trkpt>
      <trkpt lat="47.71585" lon="6.05741">
        <ele>264.23</ele>
        <time>2017-09-27T07:58:29Z</time>
      </trkpt>
      <trkpt lat="47.71588" lon="6.0575">
        <ele>264.15</ele>
        <time>2017-09-27T07:58:32Z</time>
      </trkpt>
      <trkpt lat="47.71587" lon="6.05758">
        <ele>264.07</ele>
        <time>2017-09-27T07:58:35Z</time>
      </trkpt>
      <trkpt lat="47.71584" lon="6.05763">
        <ele>263.79</ele>
        <time>2017-09-27T07:58:56Z</time>
      </trkpt>
      <trkpt lat="47.71585" lon="6.05773">
        <ele>263.69</ele>
        <time>2017-09-27T07:58:59Z</time>
      </trkpt>
      <trkpt lat="47.71587" lon="6.0578">
        <ele>263.62</ele>
        <time>2017-09-27T07:59:01Z</time>
      </trkpt>
      <trkpt lat="47.71588" lon="6.05788">
        <ele>263.56</ele>
        <time>2017-09-27T07:59:03Z</time>
      </trkpt>
      <trkpt lat="47.71589" lon="6.05796">
        <ele>263.5</ele>
        <time>2017-09-27T07:59:05Z</time>
      </trkpt>
      <trkpt lat="47.71591" lon="6.05804">
        <ele>263.43</ele>
        <time>2017-09-27T07:59:07Z</time>
      </trkpt>
      <trkpt lat="47.71592" lon="6.05813">
        <ele>263.36</ele>
        <time>2017-09-27T07:59:09Z</time>
      </trkpt>
      <trkpt lat="47.71591" lon="6.05821">
        <ele>263.3</ele>
        <time>2017-09-27T07:59:11Z</time>
      </trkpt>
      <trkpt lat="47.71592" lon="6.0583">
        <ele>263.23</ele>
        <time>2017-09-27T07:59:13Z</time>
      </trkpt>
      <trkpt lat="47.71593" lon="6.0584">
        <ele>263.16</ele>
        <time>2017-09-27T07:59:15Z</time>
      </trkpt>
      <trkpt lat="47.71594" lon="6.0585">
        <ele>263.1</ele>
        <time>2017-09-27T07:59:17Z</time>
      </trkpt>
      <trkpt lat="47.71595" lon="6.0586">
        <ele>263.03</ele>
        <time>2017-09-27T07:59:19Z</time>
      </trkpt>
      <trkpt lat="47.71596" lon="6.05869">
        <ele>262.97</ele>
        <time>2017-09-27T07:59:21Z</time>
      </trkpt>
      <trkpt lat="47.71597" lon="6.05878">
        <ele>262.91</ele>
        <time>2017-09-27T07:59:23Z</time>
      </trkpt>
      <trkpt lat="47.71598" lon="6.05886">
        <ele>262.85</ele>
        <time>2017-09-27T07:59:25Z</time>
      </trkpt>
      <trkpt lat="47.71599" lon="6.05895">
        <ele>262.79</ele>
        <time>2017-09-27T07:59:27Z</time>
      </trkpt>
      <trkpt lat="47.71601" lon="6.05903">
        <ele>262.73</ele>
        <time>2017-09-27T07:59:29Z</time>
      </trkpt>
      <trkpt lat="47.71602" lon="6.05911">
        <ele>262.67</ele>
        <time>2017-09-27T07:59:31Z</time>
      </trkpt>
      <trkpt lat="47.71602" lon="6.0592">
        <ele>262.62</ele>
        <time>2017-09-27T07:59:33Z</time>
      </trkpt>
      <trkpt lat="47.71604" lon="6.05927">
        <ele>262.56</ele>
        <time>2017-09-27T07:59:35Z</time>
      </trkpt>
      <trkpt lat="47.71604" lon="6.05935">
        <ele>262.51</ele>
        <time>2017-09-27T07:59:37Z</time>
      </trkpt>
      <trkpt lat="47.71604" lon="6.05945">
        <ele>262.3</ele>
        <time>2017-09-27T07:59:39Z</time>
      </trkpt>
      <trkpt lat="47.71604" lon="6.05957">
        <ele>262.04</ele>
        <time>2017-09-27T07:59:41Z</time>
      </trkpt>
      <trkpt lat="47.71604" lon="6.05966">
        <ele>261.99</ele>
        <time>2017-09-27T07:59:43Z</time>
      </trkpt>
      <trkpt lat="47.71604" lon="6.05974">
        <ele>261.96</ele>
        <time>2017-09-27T07:59:45Z</time>
      </trkpt>
      <trkpt lat="47.71603" lon="6.05981">
        <ele>261.92</ele>
        <time>2017-09-27T07:59:48Z</time>
      </trkpt>
      <trkpt lat="47.71601" lon="6.05988">
        <ele>261.9</ele>
        <time>2017-09-27T07:59:50Z</time>
      </trkpt>
      <trkpt lat="47.716" lon="6.05995">
        <ele>261.86</ele>
        <time>2017-09-27T07:59:53Z</time>
      </trkpt>
      <trkpt lat="47.716" lon="6.06002">
        <ele>261.8</ele>
        <time>2017-09-27T07:59:59Z</time>
      </trkpt>
      <trkpt lat="47.71596" lon="6.06013">
        <ele>261.78</ele>
        <time>2017-09-27T08:00:01Z</time>
      </trkpt>
      <trkpt lat="47.71592" lon="6.06024">
        <ele>261.77</ele>
        <time>2017-09-27T08:00:02Z</time>
      </trkpt>
      <trkpt lat="47.7159" lon="6.06032">
        <ele>261.76</ele>
        <time>2017-09-27T08:00:03Z</time>
      </trkpt>
      <trkpt lat="47.71586" lon="6.06041">
        <ele>261.75</ele>
        <time>2017-09-27T08:00:04Z</time>
      </trkpt>
      <trkpt lat="47.71585" lon="6.06048">
        <ele>261.73</ele>
        <time>2017-09-27T08:00:06Z</time>
      </trkpt>
      <trkpt lat="47.71583" lon="6.06055">
        <ele>261.71</ele>
        <time>2017-09-27T08:00:09Z</time>
      </trkpt>
      <trkpt lat="47.71581" lon="6.06062">
        <ele>261.69</ele>
        <time>2017-09-27T08:00:12Z</time>
      </trkpt>
      <trkpt lat="47.71579" lon="6.0607">
        <ele>261.68</ele>
        <time>2017-09-27T08:00:14Z</time>
      </trkpt>
      <trkpt lat="47.71576" lon="6.06079">
        <ele>261.67</ele>
        <time>2017-09-27T08:00:16Z</time>
      </trkpt>
      <trkpt lat="47.71574" lon="6.06086">
        <ele>261.66</ele>
        <time>2017-09-27T08:00:18Z</time>
      </trkpt>
      <trkpt lat="47.71572" lon="6.06095">
        <ele>261.66</ele>
        <time>2017-09-27T08:00:21Z</time>
      </trkpt>
      <trkpt lat="47.71571" lon="6.06102">
        <ele>261.66</ele>
        <time>2017-09-27T08:00:25Z</time>
      </trkpt>
      <trkpt lat="47.71568" lon="6.06109">
        <ele>261.66</ele>
        <time>2017-09-27T08:00:28Z</time>
      </trkpt>
      <trkpt lat="47.71566" lon="6.06118">
        <ele>261.66</ele>
        <time>2017-09-27T08:00:30Z</time>
      </trkpt>
      <trkpt lat="47.71562" lon="6.06127">
        <ele>261.66</ele>
        <time>2017-09-27T08:00:32Z</time>
      </trkpt>
      <trkpt lat="47.71559" lon="6.06135">
        <ele>261.67</ele>
        <time>2017-09-27T08:00:34Z</time>
      </trkpt>
      <trkpt lat="47.71556" lon="6.06141">
        <ele>261.68</ele>
        <time>2017-09-27T08:00:37Z</time>
      </trkpt>
      <trkpt lat="47.71554" lon="6.0615">
        <ele>261.69</ele>
        <time>2017-09-27T08:00:41Z</time>
      </trkpt>
      <trkpt lat="47.71553" lon="6.06156">
        <ele>261.69</ele>
        <time>2017-09-27T08:00:43Z</time>
      </trkpt>
      <trkpt lat="47.71551" lon="6.06165">
        <ele>261.7</ele>
        <time>2017-09-27T08:00:46Z</time>
      </trkpt>
      <trkpt lat="47.71549" lon="6.06174">
        <ele>261.71</ele>
        <time>2017-09-27T08:00:49Z</time>
      </trkpt>
      <trkpt lat="47.71547" lon="6.06182">
        <ele>261.72</ele>
        <time>2017-09-27T08:00:51Z</time>
      </trkpt>
      <trkpt lat="47.71545" lon="6.06191">
        <ele>261.73</ele>
        <time>2017-09-27T08:00:54Z</time>
      </trkpt>
      <trkpt lat="47.71544" lon="6.06198">
        <ele>261.74</ele>
        <time>2017-09-27T08:00:56Z</time>
      </trkpt>
      <trkpt lat="47.71544" lon="6.06205">
        <ele>261.76</ele>
        <time>2017-09-27T08:00:59Z</time>
      </trkpt>
      <trkpt lat="47.71544" lon="6.06214">
        <ele>261.78</ele>
        <time>2017-09-27T08:01:03Z</time>
      </trkpt>
      <trkpt lat="47.7154" lon="6.06222">
        <ele>261.8</ele>
        <time>2017-09-27T08:01:06Z</time>
      </trkpt>
      <trkpt lat="47.71539" lon="6.06231">
        <ele>261.81</ele>
        <time>2017-09-27T08:01:08Z</time>
      </trkpt>
      <trkpt lat="47.71537" lon="6.0624">
        <ele>261.82</ele>
        <time>2017-09-27T08:01:10Z</time>
      </trkpt>
      <trkpt lat="47.71533" lon="6.06253">
        <ele>261.83</ele>
        <time>2017-09-27T08:01:12Z</time>
      </trkpt>
      <trkpt lat="47.71531" lon="6.0626">
        <ele>261.85</ele>
        <time>2017-09-27T08:01:14Z</time>
      </trkpt>
      <trkpt lat="47.71529" lon="6.06266">
        <ele>261.86</ele>
        <time>2017-09-27T08:01:16Z</time>
      </trkpt>
      <trkpt lat="47.71527" lon="6.06275">
        <ele>261.9</ele>
        <time>2017-09-27T08:01:20Z</time>
      </trkpt>
      <trkpt lat="47.71526" lon="6.06281">
        <ele>261.92</ele>
        <time>2017-09-27T08:01:23Z</time>
      </trkpt>
      <trkpt lat="47.71523" lon="6.06289">
        <ele>261.94</ele>
        <time>2017-09-27T08:01:26Z</time>
      </trkpt>
      <trkpt lat="47.71521" lon="6.06295">
        <ele>261.96</ele>
        <time>2017-09-27T08:01:28Z</time>
      </trkpt>
      <trkpt lat="47.71517" lon="6.06302">
        <ele>261.98</ele>
        <time>2017-09-27T08:01:31Z</time>
      </trkpt>
      <trkpt lat="47.71514" lon="6.06308">
        <ele>262.01</ele>
        <time>2017-09-27T08:01:34Z</time>
      </trkpt>
      <trkpt lat="47.71513" lon="6.0632">
        <ele>262.03</ele>
        <time>2017-09-27T08:01:37Z</time>
      </trkpt>
      <trkpt lat="47.71512" lon="6.06328">
        <ele>262.04</ele>
        <time>2017-09-27T08:01:39Z</time>
      </trkpt>
      <trkpt lat="47.71512" lon="6.06335">
        <ele>262.06</ele>
        <time>2017-09-27T08:01:41Z</time>
      </trkpt>
      <trkpt lat="47.7151" lon="6.06342">
        <ele>262.08</ele>
        <time>2017-09-27T08:01:43Z</time>
      </trkpt>
      <trkpt lat="47.71509" lon="6.06349">
        <ele>262.09</ele>
        <time>2017-09-27T08:01:45Z</time>
      </trkpt>
      <trkpt lat="47.71507" lon="6.06357">
        <ele>262.12</ele>
        <time>2017-09-27T08:01:48Z</time>
      </trkpt>
      <trkpt lat="47.71506" lon="6.06366">
        <ele>262.14</ele>
        <time>2017-09-27T08:01:51Z</time>
      </trkpt>
      <trkpt lat="47.71505" lon="6.06375">
        <ele>262.17</ele>
        <time>2017-09-27T08:01:54Z</time>
      </trkpt>
      <trkpt lat="47.71504" lon="6.06382">
        <ele>262.19</ele>
        <time>2017-09-27T08:01:57Z</time>
      </trkpt>
      <trkpt lat="47.71502" lon="6.06391">
        <ele>262.22</ele>
        <time>2017-09-27T08:02:00Z</time>
      </trkpt>
      <trkpt lat="47.715" lon="6.06399">
        <ele>262.24</ele>
        <time>2017-09-27T08:02:02Z</time>
      </trkpt>
      <trkpt lat="47.71499" lon="6.06407">
        <ele>262.25</ele>
        <time>2017-09-27T08:02:04Z</time>
      </trkpt>
      <trkpt lat="47.71497" lon="6.06413">
        <ele>262.27</ele>
        <time>2017-09-27T08:02:06Z</time>
      </trkpt>
      <trkpt lat="47.71495" lon="6.06421">
        <ele>262.3</ele>
        <time>2017-09-27T08:02:09Z</time>
      </trkpt>
      <trkpt lat="47.71493" lon="6.06428">
        <ele>262.32</ele>
        <time>2017-09-27T08:02:11Z</time>
      </trkpt>
      <trkpt lat="47.71491" lon="6.06436">
        <ele>262.35</ele>
        <time>2017-09-27T08:02:14Z</time>
      </trkpt>
      <trkpt lat="47.71488" lon="6.06444">
        <ele>262.37</ele>
        <time>2017-09-27T08:02:17Z</time>
      </trkpt>
      <trkpt lat="47.71487" lon="6.06453">
        <ele>262.39</ele>
        <time>2017-09-27T08:02:19Z</time>
      </trkpt>
      <trkpt lat="47.71487" lon="6.06463">
        <ele>262.41</ele>
        <time>2017-09-27T08:02:21Z</time>
      </trkpt>
      <trkpt lat="47.71486" lon="6.06471">
        <ele>262.43</ele>
        <time>2017-09-27T08:02:23Z</time>
      </trkpt>
      <trkpt lat="47.71486" lon="6.06478">
        <ele>262.45</ele>
        <time>2017-09-27T08:02:25Z</time>
      </trkpt>
      <trkpt lat="47.71485" lon="6.06486">
        <ele>262.46</ele>
        <time>2017-09-27T08:02:27Z</time>
      </trkpt>
      <trkpt lat="47.71482" lon="6.06494">
        <ele>262.48</ele>
        <time>2017-09-27T08:02:29Z</time>
      </trkpt>
      <trkpt lat="47.7148" lon="6.06505">
        <ele>262.5</ele>
        <time>2017-09-27T08:02:31Z</time>
      </trkpt>
      <trkpt lat="47.71478" lon="6.06513">
        <ele>262.52</ele>
        <time>2017-09-27T08:02:33Z</time>
      </trkpt>
      <trkpt lat="47.71475" lon="6.06522">
        <ele>262.55</ele>
        <time>2017-09-27T08:02:35Z</time>
      </trkpt>
      <trkpt lat="47.71473" lon="6.06532">
        <ele>262.57</ele>
        <time>2017-09-27T08:02:37Z</time>
      </trkpt>
      <trkpt lat="47.71471" lon="6.06543">
        <ele>262.59</ele>
        <time>2017-09-27T08:02:39Z</time>
      </trkpt>
      <trkpt lat="47.7147" lon="6.06553">
        <ele>262.62</ele>
        <time>2017-09-27T08:02:41Z</time>
      </trkpt>
      <trkpt lat="47.71469" lon="6.06563">
        <ele>262.65</ele>
        <time>2017-09-27T08:02:44Z</time>
      </trkpt>
      <trkpt lat="47.71468" lon="6.06571">
        <ele>262.68</ele>
        <time>2017-09-27T08:02:46Z</time>
      </trkpt>
      <trkpt lat="47.71466" lon="6.06584">
        <ele>262.71</ele>
        <time>2017-09-27T08:02:48Z</time>
      </trkpt>
      <trkpt lat="47.71465" lon="6.06595">
        <ele>262.73</ele>
        <time>2017-09-27T08:02:50Z</time>
      </trkpt>
      <trkpt lat="47.71465" lon="6.06604">
        <ele>262.76</ele>
        <time>2017-09-27T08:02:52Z</time>
      </trkpt>
      <trkpt lat="47.71463" lon="6.06613">
        <ele>262.8</ele>
        <time>2017-09-27T08:02:55Z</time>
      </trkpt>
      <trkpt lat="47.71463" lon="6.06622">
        <ele>262.84</ele>
        <time>2017-09-27T08:02:58Z</time>
      </trkpt>
      <trkpt lat="47.71463" lon="6.06629">
        <ele>262.87</ele>
        <time>2017-09-27T08:03:00Z</time>
      </trkpt>
      <trkpt lat="47.71462" lon="6.06639">
        <ele>262.9</ele>
        <time>2017-09-27T08:03:02Z</time>
      </trkpt>
      <trkpt lat="47.7146" lon="6.06646">
        <ele>262.91</ele>
        <time>2017-09-27T08:03:03Z</time>
      </trkpt>
      <trkpt lat="47.71459" lon="6.06652">
        <ele>262.92</ele>
        <time>2017-09-27T08:03:04Z</time>
      </trkpt>
      <trkpt lat="47.71458" lon="6.06663">
        <ele>262.95</ele>
        <time>2017-09-27T08:03:06Z</time>
      </trkpt>
      <trkpt lat="47.71457" lon="6.06674">
        <ele>263.07</ele>
        <time>2017-09-27T08:03:08Z</time>
      </trkpt>
      <trkpt lat="47.71456" lon="6.06682">
        <ele>263.18</ele>
        <time>2017-09-27T08:03:09Z</time>
      </trkpt>
      <trkpt lat="47.71455" lon="6.06689">
        <ele>263.29</ele>
        <time>2017-09-27T08:03:10Z</time>
      </trkpt>
      <trkpt lat="47.71454" lon="6.06697">
        <ele>263.37</ele>
        <time>2017-09-27T08:03:11Z</time>
      </trkpt>
      <trkpt lat="47.71453" lon="6.06705">
        <ele>263.45</ele>
        <time>2017-09-27T08:03:12Z</time>
      </trkpt>
      <trkpt lat="47.71453" lon="6.06712">
        <ele>263.51</ele>
        <time>2017-09-27T08:03:13Z</time>
      </trkpt>
      <trkpt lat="47.71452" lon="6.06719">
        <ele>263.56</ele>
        <time>2017-09-27T08:03:14Z</time>
      </trkpt>
      <trkpt lat="47.71451" lon="6.06727">
        <ele>263.6</ele>
        <time>2017-09-27T08:03:15Z</time>
      </trkpt>
      <trkpt lat="47.7145" lon="6.06734">
        <ele>263.63</ele>
        <time>2017-09-27T08:03:16Z</time>
      </trkpt>
      <trkpt lat="47.7145" lon="6.06741">
        <ele>263.67</ele>
        <time>2017-09-27T08:03:17Z</time>
      </trkpt>
      <trkpt lat="47.71449" lon="6.06749">
        <ele>263.69</ele>
        <time>2017-09-27T08:03:18Z</time>
      </trkpt>
      <trkpt lat="47.71449" lon="6.06756">
        <ele>263.72</ele>
        <time>2017-09-27T08:03:19Z</time>
      </trkpt>
      <trkpt lat="47.71448" lon="6.06764">
        <ele>263.74</ele>
        <time>2017-09-27T08:03:20Z</time>
      </trkpt>
      <trkpt lat="47.71447" lon="6.06772">
        <ele>263.76</ele>
        <time>2017-09-27T08:03:21Z</time>
      </trkpt>
      <trkpt lat="47.71447" lon="6.06779">
        <ele>263.78</ele>
        <time>2017-09-27T08:03:22Z</time>
      </trkpt>
      <trkpt lat="47.71446" lon="6.06787">
        <ele>263.79</ele>
        <time>2017-09-27T08:03:23Z</time>
      </trkpt>
      <trkpt lat="47.71446" lon="6.06794">
        <ele>263.8</ele>
        <time>2017-09-27T08:03:24Z</time>
      </trkpt>
      <trkpt lat="47.71445" lon="6.06802">
        <ele>263.81</ele>
        <time>2017-09-27T08:03:25Z</time>
      </trkpt>
      <trkpt lat="47.71445" lon="6.0681">
        <ele>263.82</ele>
        <time>2017-09-27T08:03:26Z</time>
      </trkpt>
      <trkpt lat="47.71444" lon="6.06818">
        <ele>263.83</ele>
        <time>2017-09-27T08:03:27Z</time>
      </trkpt>
      <trkpt lat="47.71444" lon="6.06826">
        <ele>263.83</ele>
        <time>2017-09-27T08:03:28Z</time>
      </trkpt>
      <trkpt lat="47.71443" lon="6.06835">
        <ele>263.83</ele>
        <time>2017-09-27T08:03:29Z</time>
      </trkpt>
      <trkpt lat="47.71443" lon="6.06844">
        <ele>263.84</ele>
        <time>2017-09-27T08:03:30Z</time>
      </trkpt>
      <trkpt lat="47.71442" lon="6.06853">
        <ele>263.85</ele>
        <time>2017-09-27T08:03:31Z</time>
      </trkpt>
      <trkpt lat="47.71442" lon="6.06862">
        <ele>263.86</ele>
        <time>2017-09-27T08:03:32Z</time>
      </trkpt>
      <trkpt lat="47.71442" lon="6.06872">
        <ele>263.88</ele>
        <time>2017-09-27T08:03:33Z</time>
      </trkpt>
      <trkpt lat="47.71442" lon="6.06882">
        <ele>263.9</ele>
        <time>2017-09-27T08:03:34Z</time>
      </trkpt>
      <trkpt lat="47.71442" lon="6.06892">
        <ele>263.93</ele>
        <time>2017-09-27T08:03:35Z</time>
      </trkpt>
      <trkpt lat="47.71442" lon="6.06901">
        <ele>263.96</ele>
        <time>2017-09-27T08:03:36Z</time>
      </trkpt>
      <trkpt lat="47.71442" lon="6.06912">
        <ele>264</ele>
        <time>2017-09-27T08:03:37Z</time>
      </trkpt>
      <trkpt lat="47.71441" lon="6.06921">
        <ele>264.02</ele>
        <time>2017-09-27T08:03:38Z</time>
      </trkpt>
      <trkpt lat="47.71441" lon="6.06931">
        <ele>264.05</ele>
        <time>2017-09-27T08:03:39Z</time>
      </trkpt>
      <trkpt lat="47.71441" lon="6.0694">
        <ele>264.07</ele>
        <time>2017-09-27T08:03:40Z</time>
      </trkpt>
      <trkpt lat="47.7144" lon="6.06949">
        <ele>264.1</ele>
        <time>2017-09-27T08:03:41Z</time>
      </trkpt>
      <trkpt lat="47.7144" lon="6.06958">
        <ele>264.14</ele>
        <time>2017-09-27T08:03:42Z</time>
      </trkpt>
      <trkpt lat="47.7144" lon="6.06967">
        <ele>264.2</ele>
        <time>2017-09-27T08:03:43Z</time>
      </trkpt>
      <trkpt lat="47.71439" lon="6.06975">
        <ele>264.26</ele>
        <time>2017-09-27T08:03:44Z</time>
      </trkpt>
      <trkpt lat="47.71438" lon="6.06984">
        <ele>264.32</ele>
        <time>2017-09-27T08:03:45Z</time>
      </trkpt>
      <trkpt lat="47.71437" lon="6.06992">
        <ele>264.39</ele>
        <time>2017-09-27T08:03:46Z</time>
      </trkpt>
      <trkpt lat="47.71436" lon="6.06999">
        <ele>264.46</ele>
        <time>2017-09-27T08:03:47Z</time>
      </trkpt>
      <trkpt lat="47.71435" lon="6.07006">
        <ele>264.52</ele>
        <time>2017-09-27T08:03:48Z</time>
      </trkpt>
      <trkpt lat="47.71434" lon="6.07013">
        <ele>264.59</ele>
        <time>2017-09-27T08:03:49Z</time>
      </trkpt>
      <trkpt lat="47.71433" lon="6.07024">
        <ele>264.73</ele>
        <time>2017-09-27T08:03:51Z</time>
      </trkpt>
      <trkpt lat="47.71431" lon="6.07036">
        <ele>264.84</ele>
        <time>2017-09-27T08:03:53Z</time>
      </trkpt>
      <trkpt lat="47.7143" lon="6.07049">
        <ele>265.01</ele>
        <time>2017-09-27T08:03:55Z</time>
      </trkpt>
      <trkpt lat="47.71428" lon="6.07062">
        <ele>265.17</ele>
        <time>2017-09-27T08:03:57Z</time>
      </trkpt>
      <trkpt lat="47.71426" lon="6.07074">
        <ele>265.28</ele>
        <time>2017-09-27T08:03:59Z</time>
      </trkpt>
      <trkpt lat="47.71425" lon="6.07086">
        <ele>265.35</ele>
        <time>2017-09-27T08:04:01Z</time>
      </trkpt>
      <trkpt lat="47.71425" lon="6.07096">
        <ele>265.37</ele>
        <time>2017-09-27T08:04:03Z</time>
      </trkpt>
      <trkpt lat="47.71424" lon="6.07104">
        <ele>265.4</ele>
        <time>2017-09-27T08:04:05Z</time>
      </trkpt>
      <trkpt lat="47.71423" lon="6.07112">
        <ele>265.42</ele>
        <time>2017-09-27T08:04:07Z</time>
      </trkpt>
      <trkpt lat="47.71423" lon="6.0712">
        <ele>265.45</ele>
        <time>2017-09-27T08:04:09Z</time>
      </trkpt>
      <trkpt lat="47.71422" lon="6.07128">
        <ele>265.49</ele>
        <time>2017-09-27T08:04:11Z</time>
      </trkpt>
      <trkpt lat="47.71421" lon="6.07136">
        <ele>265.53</ele>
        <time>2017-09-27T08:04:13Z</time>
      </trkpt>
      <trkpt lat="47.7142" lon="6.07144">
        <ele>265.58</ele>
        <time>2017-09-27T08:04:15Z</time>
      </trkpt>
      <trkpt lat="47.7142" lon="6.07152">
        <ele>265.63</ele>
        <time>2017-09-27T08:04:17Z</time>
      </trkpt>
      <trkpt lat="47.71419" lon="6.07159">
        <ele>265.68</ele>
        <time>2017-09-27T08:04:19Z</time>
      </trkpt>
      <trkpt lat="47.71418" lon="6.07166">
        <ele>265.74</ele>
        <time>2017-09-27T08:04:21Z</time>
      </trkpt>
      <trkpt lat="47.71417" lon="6.07173">
        <ele>265.8</ele>
        <time>2017-09-27T08:04:23Z</time>
      </trkpt>
      <trkpt lat="47.71417" lon="6.07182">
        <ele>265.88</ele>
        <time>2017-09-27T08:04:25Z</time>
      </trkpt>
      <trkpt lat="47.71417" lon="6.07191">
        <ele>265.96</ele>
        <time>2017-09-27T08:04:27Z</time>
      </trkpt>
      <trkpt lat="47.71417" lon="6.07199">
        <ele>266.05</ele>
        <time>2017-09-27T08:04:29Z</time>
      </trkpt>
      <trkpt lat="47.71418" lon="6.07206">
        <ele>266.15</ele>
        <time>2017-09-27T08:04:31Z</time>
      </trkpt>
      <trkpt lat="47.7142" lon="6.07212">
        <ele>266.26</ele>
        <time>2017-09-27T08:04:33Z</time>
      </trkpt>
      <trkpt lat="47.71422" lon="6.07219">
        <ele>266.36</ele>
        <time>2017-09-27T08:04:35Z</time>
      </trkpt>
      <trkpt lat="47.71423" lon="6.07227">
        <ele>266.48</ele>
        <time>2017-09-27T08:04:37Z</time>
      </trkpt>
      <trkpt lat="47.71424" lon="6.07235">
        <ele>266.61</ele>
        <time>2017-09-27T08:04:39Z</time>
      </trkpt>
      <trkpt lat="47.71425" lon="6.07243">
        <ele>266.75</ele>
        <time>2017-09-27T08:04:41Z</time>
      </trkpt>
      <trkpt lat="47.71427" lon="6.0725">
        <ele>266.88</ele>
        <time>2017-09-27T08:04:43Z</time>
      </trkpt>
      <trkpt lat="47.7143" lon="6.07258">
        <ele>267.01</ele>
        <time>2017-09-27T08:04:45Z</time>
      </trkpt>
      <trkpt lat="47.71432" lon="6.07266">
        <ele>267.15</ele>
        <time>2017-09-27T08:04:47Z</time>
      </trkpt>
      <trkpt lat="47.71434" lon="6.07273">
        <ele>267.3</ele>
        <time>2017-09-27T08:04:49Z</time>
      </trkpt>
      <trkpt lat="47.71436" lon="6.07281">
        <ele>267.45</ele>
        <time>2017-09-27T08:04:51Z</time>
      </trkpt>
      <trkpt lat="47.71437" lon="6.07289">
        <ele>267.6</ele>
        <time>2017-09-27T08:04:53Z</time>
      </trkpt>
      <trkpt lat="47.71438" lon="6.07297">
        <ele>267.75</ele>
        <time>2017-09-27T08:04:55Z</time>
      </trkpt>
      <trkpt lat="47.71438" lon="6.07305">
        <ele>267.91</ele>
        <time>2017-09-27T08:04:57Z</time>
      </trkpt>
      <trkpt lat="47.71436" lon="6.07313">
        <ele>268.14</ele>
        <time>2017-09-27T08:05:00Z</time>
      </trkpt>
      <trkpt lat="47.71434" lon="6.07322">
        <ele>268.39</ele>
        <time>2017-09-27T08:05:03Z</time>
      </trkpt>
      <trkpt lat="47.71432" lon="6.07328">
        <ele>268.56</ele>
        <time>2017-09-27T08:05:05Z</time>
      </trkpt>
      <trkpt lat="47.71429" lon="6.07334">
        <ele>268.73</ele>
        <time>2017-09-27T08:05:07Z</time>
      </trkpt>
      <trkpt lat="47.71426" lon="6.07338">
        <ele>268.91</ele>
        <time>2017-09-27T08:05:09Z</time>
      </trkpt>
      <trkpt lat="47.71422" lon="6.07344">
        <ele>269.09</ele>
        <time>2017-09-27T08:05:11Z</time>
      </trkpt>
      <trkpt lat="47.7142" lon="6.0735">
        <ele>269.27</ele>
        <time>2017-09-27T08:05:13Z</time>
      </trkpt>
      <trkpt lat="47.7142" lon="6.07357">
        <ele>269.44</ele>
        <time>2017-09-27T08:05:15Z</time>
      </trkpt>
      <trkpt lat="47.71421" lon="6.07366">
        <ele>269.61</ele>
        <time>2017-09-27T08:05:17Z</time>
      </trkpt>
      <trkpt lat="47.71423" lon="6.07373">
        <ele>269.77</ele>
        <time>2017-09-27T08:05:19Z</time>
      </trkpt>
      <trkpt lat="47.71424" lon="6.0738">
        <ele>269.93</ele>
        <time>2017-09-27T08:05:21Z</time>
      </trkpt>
      <trkpt lat="47.71426" lon="6.07389">
        <ele>270.15</ele>
        <time>2017-09-27T08:05:24Z</time>
      </trkpt>
      <trkpt lat="47.71428" lon="6.07396">
        <ele>270.28</ele>
        <time>2017-09-27T08:05:26Z</time>
      </trkpt>
      <trkpt lat="47.71428" lon="6.07404">
        <ele>270.41</ele>
        <time>2017-09-27T08:05:28Z</time>
      </trkpt>
      <trkpt lat="47.71428" lon="6.07412">
        <ele>270.54</ele>
        <time>2017-09-27T08:05:30Z</time>
      </trkpt>
      <trkpt lat="47.7143" lon="6.07421">
        <ele>270.76</ele>
        <time>2017-09-27T08:05:33Z</time>
      </trkpt>
      <trkpt lat="47.71432" lon="6.0743">
        <ele>270.93</ele>
        <time>2017-09-27T08:05:35Z</time>
      </trkpt>
      <trkpt lat="47.71435" lon="6.07439">
        <ele>271.1</ele>
        <time>2017-09-27T08:05:37Z</time>
      </trkpt>
      <trkpt lat="47.71438" lon="6.07447">
        <ele>271.26</ele>
        <time>2017-09-27T08:05:39Z</time>
      </trkpt>
      <trkpt lat="47.7144" lon="6.07455">
        <ele>271.42</ele>
        <time>2017-09-27T08:05:41Z</time>
      </trkpt>
      <trkpt lat="47.71441" lon="6.07463">
        <ele>271.58</ele>
        <time>2017-09-27T08:05:43Z</time>
      </trkpt>
      <trkpt lat="47.71442" lon="6.07472">
        <ele>271.73</ele>
        <time>2017-09-27T08:05:45Z</time>
      </trkpt>
      <trkpt lat="47.71443" lon="6.07481">
        <ele>271.89</ele>
        <time>2017-09-27T08:05:47Z</time>
      </trkpt>
      <trkpt lat="47.71444" lon="6.07491">
        <ele>272.04</ele>
        <time>2017-09-27T08:05:49Z</time>
      </trkpt>
      <trkpt lat="47.71445" lon="6.07501">
        <ele>272.67</ele>
        <time>2017-09-27T08:05:51Z</time>
      </trkpt>
      <trkpt lat="47.71447" lon="6.07514">
        <ele>273.82</ele>
        <time>2017-09-27T08:05:53Z</time>
      </trkpt>
      <trkpt lat="47.71447" lon="6.07522">
        <ele>274.1</ele>
        <time>2017-09-27T08:05:55Z</time>
      </trkpt>
      <trkpt lat="47.71449" lon="6.07529">
        <ele>274.22</ele>
        <time>2017-09-27T08:05:57Z</time>
      </trkpt>
      <trkpt lat="47.71451" lon="6.07537">
        <ele>274.32</ele>
        <time>2017-09-27T08:05:59Z</time>
      </trkpt>
      <trkpt lat="47.71453" lon="6.07545">
        <ele>274.43</ele>
        <time>2017-09-27T08:06:01Z</time>
      </trkpt>
      <trkpt lat="47.71453" lon="6.07553">
        <ele>274.54</ele>
        <time>2017-09-27T08:06:03Z</time>
      </trkpt>
      <trkpt lat="47.71453" lon="6.0756">
        <ele>274.64</ele>
        <time>2017-09-27T08:06:05Z</time>
      </trkpt>
      <trkpt lat="47.71454" lon="6.07568">
        <ele>274.74</ele>
        <time>2017-09-27T08:06:07Z</time>
      </trkpt>
      <trkpt lat="47.71456" lon="6.07574">
        <ele>274.85</ele>
        <time>2017-09-27T08:06:09Z</time>
      </trkpt>
      <trkpt lat="47.71457" lon="6.07581">
        <ele>274.95</ele>
        <time>2017-09-27T08:06:11Z</time>
      </trkpt>
      <trkpt lat="47.71459" lon="6.07588">
        <ele>275.05</ele>
        <time>2017-09-27T08:06:13Z</time>
      </trkpt>
      <trkpt lat="47.71461" lon="6.07595">
        <ele>275.14</ele>
        <time>2017-09-27T08:06:15Z</time>
      </trkpt>
      <trkpt lat="47.71461" lon="6.07603">
        <ele>275.23</ele>
        <time>2017-09-27T08:06:17Z</time>
      </trkpt>
      <trkpt lat="47.71459" lon="6.0761">
        <ele>275.32</ele>
        <time>2017-09-27T08:06:19Z</time>
      </trkpt>
      <trkpt lat="47.71455" lon="6.07615">
        <ele>275.4</ele>
        <time>2017-09-27T08:06:21Z</time>
      </trkpt>
      <trkpt lat="47.7145" lon="6.0762">
        <ele>275.5</ele>
        <time>2017-09-27T08:06:23Z</time>
      </trkpt>
      <trkpt lat="47.71445" lon="6.07624">
        <ele>275.61</ele>
        <time>2017-09-27T08:06:25Z</time>
      </trkpt>
      <trkpt lat="47.71439" lon="6.07628">
        <ele>275.73</ele>
        <time>2017-09-27T08:06:27Z</time>
      </trkpt>
      <trkpt lat="47.71434" lon="6.07632">
        <ele>275.86</ele>
        <time>2017-09-27T08:06:29Z</time>
      </trkpt>
      <trkpt lat="47.7143" lon="6.07635">
        <ele>275.99</ele>
        <time>2017-09-27T08:06:31Z</time>
      </trkpt>
      <trkpt lat="47.71425" lon="6.07638">
        <ele>276.12</ele>
        <time>2017-09-27T08:06:33Z</time>
      </trkpt>
      <trkpt lat="47.71421" lon="6.07642">
        <ele>276.24</ele>
        <time>2017-09-27T08:06:35Z</time>
      </trkpt>
      <trkpt lat="47.71416" lon="6.07645">
        <ele>276.34</ele>
        <time>2017-09-27T08:06:37Z</time>
      </trkpt>
      <trkpt lat="47.71411" lon="6.07649">
        <ele>276.44</ele>
        <time>2017-09-27T08:06:39Z</time>
      </trkpt>
      <trkpt lat="47.71405" lon="6.07654">
        <ele>276.52</ele>
        <time>2017-09-27T08:06:41Z</time>
      </trkpt>
      <trkpt lat="47.71399" lon="6.07659">
        <ele>276.61</ele>
        <time>2017-09-27T08:06:43Z</time>
      </trkpt>
      <trkpt lat="47.71393" lon="6.07663">
        <ele>276.68</ele>
        <time>2017-09-27T08:06:45Z</time>
      </trkpt>
      <trkpt lat="47.71387" lon="6.07667">
        <ele>276.75</ele>
        <time>2017-09-27T08:06:47Z</time>
      </trkpt>
      <trkpt lat="47.71381" lon="6.0767">
        <ele>276.82</ele>
        <time>2017-09-27T08:06:49Z</time>
      </trkpt>
      <trkpt lat="47.71375" lon="6.07672">
        <ele>276.88</ele>
        <time>2017-09-27T08:06:51Z</time>
      </trkpt>
      <trkpt lat="47.7137" lon="6.07673">
        <ele>276.94</ele>
        <time>2017-09-27T08:06:53Z</time>
      </trkpt>
      <trkpt lat="47.71364" lon="6.07674">
        <ele>277.01</ele>
        <time>2017-09-27T08:06:55Z</time>
      </trkpt>
      <trkpt lat="47.71358" lon="6.07674">
        <ele>277.07</ele>
        <time>2017-09-27T08:06:57Z</time>
      </trkpt>
      <trkpt lat="47.71353" lon="6.07674">
        <ele>277.13</ele>
        <time>2017-09-27T08:06:59Z</time>
      </trkpt>
      <trkpt lat="47.71347" lon="6.07675">
        <ele>277.21</ele>
        <time>2017-09-27T08:07:01Z</time>
      </trkpt>
      <trkpt lat="47.71342" lon="6.07675">
        <ele>277.28</ele>
        <time>2017-09-27T08:07:03Z</time>
      </trkpt>
      <trkpt lat="47.71337" lon="6.07675">
        <ele>277.37</ele>
        <time>2017-09-27T08:07:05Z</time>
      </trkpt>
      <trkpt lat="47.71332" lon="6.07675">
        <ele>277.45</ele>
        <time>2017-09-27T08:07:07Z</time>
      </trkpt>
      <trkpt lat="47.71326" lon="6.07674">
        <ele>277.54</ele>
        <time>2017-09-27T08:07:09Z</time>
      </trkpt>
      <trkpt lat="47.71321" lon="6.07674">
        <ele>277.64</ele>
        <time>2017-09-27T08:07:11Z</time>
      </trkpt>
      <trkpt lat="47.71316" lon="6.07673">
        <ele>277.75</ele>
        <time>2017-09-27T08:07:13Z</time>
      </trkpt>
      <trkpt lat="47.7131" lon="6.07672">
        <ele>277.85</ele>
        <time>2017-09-27T08:07:15Z</time>
      </trkpt>
      <trkpt lat="47.71304" lon="6.07672">
        <ele>277.96</ele>
        <time>2017-09-27T08:07:17Z</time>
      </trkpt>
      <trkpt lat="47.71298" lon="6.07672">
        <ele>278.07</ele>
        <time>2017-09-27T08:07:19Z</time>
      </trkpt>
      <trkpt lat="47.71293" lon="6.07673">
        <ele>278.18</ele>
        <time>2017-09-27T08:07:21Z</time>
      </trkpt>
      <trkpt lat="47.71287" lon="6.07673">
        <ele>278.31</ele>
        <time>2017-09-27T08:07:23Z</time>
      </trkpt>
      <trkpt lat="47.71281" lon="6.07673">
        <ele>278.43</ele>
        <time>2017-09-27T08:07:25Z</time>
      </trkpt>
      <trkpt lat="47.71276" lon="6.07674">
        <ele>278.56</ele>
        <time>2017-09-27T08:07:27Z</time>
      </trkpt>
      <trkpt lat="47.71271" lon="6.07676">
        <ele>278.69</ele>
        <time>2017-09-27T08:07:29Z</time>
      </trkpt>
      <trkpt lat="47.71265" lon="6.07678">
        <ele>278.82</ele>
        <time>2017-09-27T08:07:31Z</time>
      </trkpt>
      <trkpt lat="47.7126" lon="6.07681">
        <ele>278.95</ele>
        <time>2017-09-27T08:07:33Z</time>
      </trkpt>
      <trkpt lat="47.71256" lon="6.07684">
        <ele>279.09</ele>
        <time>2017-09-27T08:07:35Z</time>
      </trkpt>
      <trkpt lat="47.71251" lon="6.07686">
        <ele>279.22</ele>
        <time>2017-09-27T08:07:37Z</time>
      </trkpt>
      <trkpt lat="47.71245" lon="6.07687">
        <ele>279.36</ele>
        <time>2017-09-27T08:07:39Z</time>
      </trkpt>
      <trkpt lat="47.7124" lon="6.07691">
        <ele>279.57</ele>
        <time>2017-09-27T08:07:42Z</time>
      </trkpt>
      <trkpt lat="47.71238" lon="6.07699">
        <ele>279.79</ele>
        <time>2017-09-27T08:07:45Z</time>
      </trkpt>
      <trkpt lat="47.71232" lon="6.07703">
        <ele>280.01</ele>
        <time>2017-09-27T08:07:48Z</time>
      </trkpt>
      <trkpt lat="47.71227" lon="6.07704">
        <ele>280.16</ele>
        <time>2017-09-27T08:07:50Z</time>
      </trkpt>
      <trkpt lat="47.71221" lon="6.07707">
        <ele>280.41</ele>
        <time>2017-09-27T08:07:53Z</time>
      </trkpt>
      <trkpt lat="47.71215" lon="6.07709">
        <ele>280.66</ele>
        <time>2017-09-27T08:07:56Z</time>
      </trkpt>
      <trkpt lat="47.71209" lon="6.07711">
        <ele>280.91</ele>
        <time>2017-09-27T08:07:59Z</time>
      </trkpt>
      <trkpt lat="47.71203" lon="6.07713">
        <ele>281.16</ele>
        <time>2017-09-27T08:08:02Z</time>
      </trkpt>
      <trkpt lat="47.71197" lon="6.07717">
        <ele>281.43</ele>
        <time>2017-09-27T08:08:05Z</time>
      </trkpt>
      <trkpt lat="47.71192" lon="6.07721">
        <ele>281.73</ele>
        <time>2017-09-27T08:08:08Z</time>
      </trkpt>
      <trkpt lat="47.71187" lon="6.07725">
        <ele>281.94</ele>
        <time>2017-09-27T08:08:10Z</time>
      </trkpt>
      <trkpt lat="47.71184" lon="6.07729">
        <ele>282.14</ele>
        <time>2017-09-27T08:08:12Z</time>
      </trkpt>
      <trkpt lat="47.71181" lon="6.07735">
        <ele>282.34</ele>
        <time>2017-09-27T08:08:14Z</time>
      </trkpt>
      <trkpt lat="47.71178" lon="6.0774">
        <ele>282.53</ele>
        <time>2017-09-27T08:08:16Z</time>
      </trkpt>
      <trkpt lat="47.71174" lon="6.07746">
        <ele>282.81</ele>
        <time>2017-09-27T08:08:19Z</time>
      </trkpt>
      <trkpt lat="47.71171" lon="6.07751">
        <ele>282.99</ele>
        <time>2017-09-27T08:08:21Z</time>
      </trkpt>
      <trkpt lat="47.71166" lon="6.07757">
        <ele>283.28</ele>
        <time>2017-09-27T08:08:24Z</time>
      </trkpt>
      <trkpt lat="47.71162" lon="6.07763">
        <ele>283.57</ele>
        <time>2017-09-27T08:08:27Z</time>
      </trkpt>
      <trkpt lat="47.71159" lon="6.07769">
        <ele>283.78</ele>
        <time>2017-09-27T08:08:29Z</time>
      </trkpt>
      <trkpt lat="47.71156" lon="6.07774">
        <ele>283.98</ele>
        <time>2017-09-27T08:08:31Z</time>
      </trkpt>
      <trkpt lat="47.71152" lon="6.0778">
        <ele>284.18</ele>
        <time>2017-09-27T08:08:33Z</time>
      </trkpt>
      <trkpt lat="47.71149" lon="6.07788">
        <ele>284.48</ele>
        <time>2017-09-27T08:08:36Z</time>
      </trkpt>
      <trkpt lat="47.71146" lon="6.07795">
        <ele>284.78</ele>
        <time>2017-09-27T08:08:39Z</time>
      </trkpt>
      <trkpt lat="47.71144" lon="6.07801">
        <ele>284.97</ele>
        <time>2017-09-27T08:08:41Z</time>
      </trkpt>
      <trkpt lat="47.71142" lon="6.07808">
        <ele>285.16</ele>
        <time>2017-09-27T08:08:43Z</time>
      </trkpt>
      <trkpt lat="47.71139" lon="6.07814">
        <ele>285.35</ele>
        <time>2017-09-27T08:08:45Z</time>
      </trkpt>
      <trkpt lat="47.71135" lon="6.0782">
        <ele>285.53</ele>
        <time>2017-09-27T08:08:47Z</time>
      </trkpt>
      <trkpt lat="47.71132" lon="6.07826">
        <ele>285.71</ele>
        <time>2017-09-27T08:08:49Z</time>
      </trkpt>
      <trkpt lat="47.71127" lon="6.07833">
        <ele>285.98</ele>
        <time>2017-09-27T08:08:52Z</time>
      </trkpt>
      <trkpt lat="47.71123" lon="6.07837">
        <ele>286.24</ele>
        <time>2017-09-27T08:08:55Z</time>
      </trkpt>
      <trkpt lat="47.71119" lon="6.07844">
        <ele>286.49</ele>
        <time>2017-09-27T08:08:58Z</time>
      </trkpt>
      <trkpt lat="47.71116" lon="6.0785">
        <ele>286.73</ele>
        <time>2017-09-27T08:09:01Z</time>
      </trkpt>
      <trkpt lat="47.71114" lon="6.07858">
        <ele>286.96</ele>
        <time>2017-09-27T08:09:04Z</time>
      </trkpt>
      <trkpt lat="47.71111" lon="6.07865">
        <ele>287.18</ele>
        <time>2017-09-27T08:09:07Z</time>
      </trkpt>
      <trkpt lat="47.71109" lon="6.07873">
        <ele>287.39</ele>
        <time>2017-09-27T08:09:10Z</time>
      </trkpt>
      <trkpt lat="47.71107" lon="6.0788">
        <ele>287.6</ele>
        <time>2017-09-27T08:09:13Z</time>
      </trkpt>
      <trkpt lat="47.71106" lon="6.07888">
        <ele>287.79</ele>
        <time>2017-09-27T08:09:16Z</time>
      </trkpt>
      <trkpt lat="47.71105" lon="6.07897">
        <ele>287.98</ele>
        <time>2017-09-27T08:09:19Z</time>
      </trkpt>
      <trkpt lat="47.71104" lon="6.07904">
        <ele>288.1</ele>
        <time>2017-09-27T08:09:21Z</time>
      </trkpt>
      <trkpt lat="47.71103" lon="6.07912">
        <ele>288.21</ele>
        <time>2017-09-27T08:09:23Z</time>
      </trkpt>
      <trkpt lat="47.71102" lon="6.07919">
        <ele>288.33</ele>
        <time>2017-09-27T08:09:25Z</time>
      </trkpt>
      <trkpt lat="47.711" lon="6.07927">
        <ele>288.44</ele>
        <time>2017-09-27T08:09:27Z</time>
      </trkpt>
      <trkpt lat="47.71099" lon="6.07934">
        <ele>288.55</ele>
        <time>2017-09-27T08:09:29Z</time>
      </trkpt>
      <trkpt lat="47.71098" lon="6.07942">
        <ele>288.66</ele>
        <time>2017-09-27T08:09:31Z</time>
      </trkpt>
      <trkpt lat="47.71096" lon="6.07948">
        <ele>288.77</ele>
        <time>2017-09-27T08:09:33Z</time>
      </trkpt>
      <trkpt lat="47.71094" lon="6.07954">
        <ele>288.87</ele>
        <time>2017-09-27T08:09:35Z</time>
      </trkpt>
      <trkpt lat="47.71092" lon="6.0796">
        <ele>288.97</ele>
        <time>2017-09-27T08:09:37Z</time>
      </trkpt>
      <trkpt lat="47.71089" lon="6.07967">
        <ele>289.07</ele>
        <time>2017-09-27T08:09:39Z</time>
      </trkpt>
      <trkpt lat="47.71087" lon="6.07973">
        <ele>289.17</ele>
        <time>2017-09-27T08:09:41Z</time>
      </trkpt>
      <trkpt lat="47.71084" lon="6.07982">
        <ele>289.26</ele>
        <time>2017-09-27T08:09:43Z</time>
      </trkpt>
      <trkpt lat="47.71081" lon="6.0799">
        <ele>289.36</ele>
        <time>2017-09-27T08:09:45Z</time>
      </trkpt>
      <trkpt lat="47.71078" lon="6.07998">
        <ele>289.45</ele>
        <time>2017-09-27T08:09:47Z</time>
      </trkpt>
      <trkpt lat="47.71075" lon="6.08004">
        <ele>289.55</ele>
        <time>2017-09-27T08:09:49Z</time>
      </trkpt>
      <trkpt lat="47.71073" lon="6.08012">
        <ele>289.64</ele>
        <time>2017-09-27T08:09:51Z</time>
      </trkpt>
      <trkpt lat="47.7107" lon="6.08019">
        <ele>289.74</ele>
        <time>2017-09-27T08:09:53Z</time>
      </trkpt>
      <trkpt lat="47.71067" lon="6.08026">
        <ele>289.83</ele>
        <time>2017-09-27T08:09:55Z</time>
      </trkpt>
      <trkpt lat="47.71065" lon="6.08033">
        <ele>289.92</ele>
        <time>2017-09-27T08:09:57Z</time>
      </trkpt>
      <trkpt lat="47.71062" lon="6.0804">
        <ele>290.01</ele>
        <time>2017-09-27T08:09:59Z</time>
      </trkpt>
      <trkpt lat="47.7106" lon="6.08046">
        <ele>290.09</ele>
        <time>2017-09-27T08:10:01Z</time>
      </trkpt>
      <trkpt lat="47.71057" lon="6.08052">
        <ele>290.18</ele>
        <time>2017-09-27T08:10:03Z</time>
      </trkpt>
      <trkpt lat="47.71054" lon="6.08059">
        <ele>290.27</ele>
        <time>2017-09-27T08:10:05Z</time>
      </trkpt>
      <trkpt lat="47.71052" lon="6.08066">
        <ele>290.35</ele>
        <time>2017-09-27T08:10:07Z</time>
      </trkpt>
      <trkpt lat="47.71048" lon="6.08073">
        <ele>290.49</ele>
        <time>2017-09-27T08:10:10Z</time>
      </trkpt>
      <trkpt lat="47.71045" lon="6.08081">
        <ele>290.62</ele>
        <time>2017-09-27T08:10:13Z</time>
      </trkpt>
      <trkpt lat="47.71041" lon="6.08089">
        <ele>290.75</ele>
        <time>2017-09-27T08:10:16Z</time>
      </trkpt>
      <trkpt lat="47.71036" lon="6.08097">
        <ele>290.89</ele>
        <time>2017-09-27T08:10:19Z</time>
      </trkpt>
      <trkpt lat="47.71034" lon="6.08104">
        <ele>290.98</ele>
        <time>2017-09-27T08:10:21Z</time>
      </trkpt>
      <trkpt lat="47.71031" lon="6.08112">
        <ele>291.08</ele>
        <time>2017-09-27T08:10:23Z</time>
      </trkpt>
      <trkpt lat="47.71029" lon="6.08119">
        <ele>291.18</ele>
        <time>2017-09-27T08:10:25Z</time>
      </trkpt>
      <trkpt lat="47.71025" lon="6.08127">
        <ele>291.33</ele>
        <time>2017-09-27T08:10:28Z</time>
      </trkpt>
      <trkpt lat="47.71022" lon="6.08135">
        <ele>291.43</ele>
        <time>2017-09-27T08:10:30Z</time>
      </trkpt>
      <trkpt lat="47.7102" lon="6.08143">
        <ele>291.53</ele>
        <time>2017-09-27T08:10:32Z</time>
      </trkpt>
      <trkpt lat="47.71017" lon="6.08151">
        <ele>291.63</ele>
        <time>2017-09-27T08:10:34Z</time>
      </trkpt>
      <trkpt lat="47.71015" lon="6.08159">
        <ele>291.78</ele>
        <time>2017-09-27T08:10:37Z</time>
      </trkpt>
      <trkpt lat="47.71012" lon="6.08165">
        <ele>291.89</ele>
        <time>2017-09-27T08:10:39Z</time>
      </trkpt>
      <trkpt lat="47.71009" lon="6.08173">
        <ele>292.04</ele>
        <time>2017-09-27T08:10:42Z</time>
      </trkpt>
      <trkpt lat="47.71007" lon="6.08179">
        <ele>292.15</ele>
        <time>2017-09-27T08:10:44Z</time>
      </trkpt>
      <trkpt lat="47.71004" lon="6.08186">
        <ele>292.26</ele>
        <time>2017-09-27T08:10:46Z</time>
      </trkpt>
      <trkpt lat="47.71002" lon="6.08193">
        <ele>292.36</ele>
        <time>2017-09-27T08:10:48Z</time>
      </trkpt>
      <trkpt lat="47.71" lon="6.08199">
        <ele>292.47</ele>
        <time>2017-09-27T08:10:50Z</time>
      </trkpt>
      <trkpt lat="47.70999" lon="6.08206">
        <ele>292.58</ele>
        <time>2017-09-27T08:10:52Z</time>
      </trkpt>
      <trkpt lat="47.70999" lon="6.08214">
        <ele>292.69</ele>
        <time>2017-09-27T08:10:54Z</time>
      </trkpt>
      <trkpt lat="47.70998" lon="6.08222">
        <ele>292.79</ele>
        <time>2017-09-27T08:10:56Z</time>
      </trkpt>
      <trkpt lat="47.70997" lon="6.08231">
        <ele>292.9</ele>
        <time>2017-09-27T08:10:58Z</time>
      </trkpt>
      <trkpt lat="47.70996" lon="6.08238">
        <ele>293.02</ele>
        <time>2017-09-27T08:11:00Z</time>
      </trkpt>
      <trkpt lat="47.70995" lon="6.08246">
        <ele>293.19</ele>
        <time>2017-09-27T08:11:03Z</time>
      </trkpt>
      <trkpt lat="47.70993" lon="6.08254">
        <ele>293.36</ele>
        <time>2017-09-27T08:11:06Z</time>
      </trkpt>
      <trkpt lat="47.70992" lon="6.08264">
        <ele>293.48</ele>
        <time>2017-09-27T08:11:08Z</time>
      </trkpt>
      <trkpt lat="47.70991" lon="6.08271">
        <ele>293.59</ele>
        <time>2017-09-27T08:11:10Z</time>
      </trkpt>
      <trkpt lat="47.70988" lon="6.0828">
        <ele>293.71</ele>
        <time>2017-09-27T08:11:12Z</time>
      </trkpt>
      <trkpt lat="47.70986" lon="6.08287">
        <ele>293.83</ele>
        <time>2017-09-27T08:11:14Z</time>
      </trkpt>
      <trkpt lat="47.70982" lon="6.08293">
        <ele>294.01</ele>
        <time>2017-09-27T08:11:17Z</time>
      </trkpt>
      <trkpt lat="47.70978" lon="6.083">
        <ele>294.14</ele>
        <time>2017-09-27T08:11:19Z</time>
      </trkpt>
      <trkpt lat="47.70976" lon="6.08307">
        <ele>294.33</ele>
        <time>2017-09-27T08:11:22Z</time>
      </trkpt>
      <trkpt lat="47.70975" lon="6.08314">
        <ele>294.46</ele>
        <time>2017-09-27T08:11:24Z</time>
      </trkpt>
      <trkpt lat="47.70974" lon="6.08323">
        <ele>294.65</ele>
        <time>2017-09-27T08:11:27Z</time>
      </trkpt>
      <trkpt lat="47.70973" lon="6.08329">
        <ele>294.77</ele>
        <time>2017-09-27T08:11:29Z</time>
      </trkpt>
      <trkpt lat="47.70972" lon="6.08339">
        <ele>294.89</ele>
        <time>2017-09-27T08:11:31Z</time>
      </trkpt>
      <trkpt lat="47.70972" lon="6.08347">
        <ele>294.95</ele>
        <time>2017-09-27T08:11:32Z</time>
      </trkpt>
      <trkpt lat="47.70973" lon="6.08358">
        <ele>295.06</ele>
        <time>2017-09-27T08:11:34Z</time>
      </trkpt>
      <trkpt lat="47.70973" lon="6.08369">
        <ele>295.17</ele>
        <time>2017-09-27T08:11:36Z</time>
      </trkpt>
      <trkpt lat="47.70973" lon="6.08376">
        <ele>295.23</ele>
        <time>2017-09-27T08:11:37Z</time>
      </trkpt>
      <trkpt lat="47.70972" lon="6.08383">
        <ele>295.28</ele>
        <time>2017-09-27T08:11:38Z</time>
      </trkpt>
      <trkpt lat="47.7097" lon="6.08391">
        <ele>295.33</ele>
        <time>2017-09-27T08:11:39Z</time>
      </trkpt>
      <trkpt lat="47.70969" lon="6.08404">
        <ele>295.43</ele>
        <time>2017-09-27T08:11:41Z</time>
      </trkpt>
      <trkpt lat="47.70968" lon="6.08414">
        <ele>295.79</ele>
        <time>2017-09-27T08:11:42Z</time>
      </trkpt>
      <trkpt lat="47.70967" lon="6.08422">
        <ele>296.17</ele>
        <time>2017-09-27T08:11:43Z</time>
      </trkpt>
      <trkpt lat="47.70966" lon="6.08434">
        <ele>296.3</ele>
        <time>2017-09-27T08:11:44Z</time>
      </trkpt>
      <trkpt lat="47.70966" lon="6.08441">
        <ele>296.36</ele>
        <time>2017-09-27T08:11:45Z</time>
      </trkpt>
      <trkpt lat="47.70965" lon="6.0845">
        <ele>296.59</ele>
        <time>2017-09-27T08:11:46Z</time>
      </trkpt>
      <trkpt lat="47.70965" lon="6.0846">
        <ele>296.83</ele>
        <time>2017-09-27T08:11:47Z</time>
      </trkpt>
      <trkpt lat="47.70965" lon="6.08473">
        <ele>297.04</ele>
        <time>2017-09-27T08:11:48Z</time>
      </trkpt>
      <trkpt lat="47.70966" lon="6.08485">
        <ele>297.22</ele>
        <time>2017-09-27T08:11:49Z</time>
      </trkpt>
      <trkpt lat="47.70966" lon="6.08495">
        <ele>297.36</ele>
        <time>2017-09-27T08:11:50Z</time>
      </trkpt>
      <trkpt lat="47.70965" lon="6.08504">
        <ele>297.49</ele>
        <time>2017-09-27T08:11:51Z</time>
      </trkpt>
      <trkpt lat="47.70967" lon="6.08516">
        <ele>297.61</ele>
        <time>2017-09-27T08:11:52Z</time>
      </trkpt>
      <trkpt lat="47.70968" lon="6.08525">
        <ele>297.73</ele>
        <time>2017-09-27T08:11:53Z</time>
      </trkpt>
      <trkpt lat="47.7097" lon="6.08537">
        <ele>297.85</ele>
        <time>2017-09-27T08:11:54Z</time>
      </trkpt>
      <trkpt lat="47.70972" lon="6.08548">
        <ele>297.99</ele>
        <time>2017-09-27T08:11:55Z</time>
      </trkpt>
      <trkpt lat="47.70974" lon="6.08558">
        <ele>298.14</ele>
        <time>2017-09-27T08:11:56Z</time>
      </trkpt>
      <trkpt lat="47.70976" lon="6.08566">
        <ele>298.3</ele>
        <time>2017-09-27T08:11:57Z</time>
      </trkpt>
      <trkpt lat="47.70978" lon="6.08574">
        <ele>298.47</ele>
        <time>2017-09-27T08:11:58Z</time>
      </trkpt>
      <trkpt lat="47.7098" lon="6.08583">
        <ele>298.63</ele>
        <time>2017-09-27T08:11:59Z</time>
      </trkpt>
      <trkpt lat="47.70983" lon="6.08591">
        <ele>298.77</ele>
        <time>2017-09-27T08:12:00Z</time>
      </trkpt>
      <trkpt lat="47.70985" lon="6.08599">
        <ele>298.89</ele>
        <time>2017-09-27T08:12:01Z</time>
      </trkpt>
      <trkpt lat="47.70988" lon="6.08606">
        <ele>299</ele>
        <time>2017-09-27T08:12:02Z</time>
      </trkpt>
      <trkpt lat="47.7099" lon="6.08613">
        <ele>299.12</ele>
        <time>2017-09-27T08:12:03Z</time>
      </trkpt>
      <trkpt lat="47.70993" lon="6.08623">
        <ele>299.24</ele>
        <time>2017-09-27T08:12:04Z</time>
      </trkpt>
      <trkpt lat="47.70996" lon="6.08632">
        <ele>299.34</ele>
        <time>2017-09-27T08:12:05Z</time>
      </trkpt>
      <trkpt lat="47.70999" lon="6.0864">
        <ele>299.43</ele>
        <time>2017-09-27T08:12:06Z</time>
      </trkpt>
      <trkpt lat="47.71001" lon="6.08647">
        <ele>299.51</ele>
        <time>2017-09-27T08:12:07Z</time>
      </trkpt>
      <trkpt lat="47.71004" lon="6.08659">
        <ele>299.73</ele>
        <time>2017-09-27T08:12:09Z</time>
      </trkpt>
      <trkpt lat="47.71006" lon="6.08665">
        <ele>299.84</ele>
        <time>2017-09-27T08:12:10Z</time>
      </trkpt>
      <trkpt lat="47.71008" lon="6.08673">
        <ele>299.93</ele>
        <time>2017-09-27T08:12:11Z</time>
      </trkpt>
      <trkpt lat="47.7101" lon="6.0868">
        <ele>300.01</ele>
        <time>2017-09-27T08:12:12Z</time>
      </trkpt>
      <trkpt lat="47.71012" lon="6.08693">
        <ele>300.2</ele>
        <time>2017-09-27T08:12:14Z</time>
      </trkpt>
      <trkpt lat="47.71013" lon="6.087">
        <ele>300.3</ele>
        <time>2017-09-27T08:12:15Z</time>
      </trkpt>
      <trkpt lat="47.71014" lon="6.0871">
        <ele>300.4</ele>
        <time>2017-09-27T08:12:16Z</time>
      </trkpt>
      <trkpt lat="47.71016" lon="6.08719">
        <ele>300.5</ele>
        <time>2017-09-27T08:12:17Z</time>
      </trkpt>
      <trkpt lat="47.71019" lon="6.08729">
        <ele>300.59</ele>
        <time>2017-09-27T08:12:18Z</time>
      </trkpt>
      <trkpt lat="47.71022" lon="6.08738">
        <ele>300.67</ele>
        <time>2017-09-27T08:12:19Z</time>
      </trkpt>
      <trkpt lat="47.71025" lon="6.08747">
        <ele>300.75</ele>
        <time>2017-09-27T08:12:20Z</time>
      </trkpt>
      <trkpt lat="47.71028" lon="6.08756">
        <ele>300.82</ele>
        <time>2017-09-27T08:12:21Z</time>
      </trkpt>
      <trkpt lat="47.7103" lon="6.08764">
        <ele>300.9</ele>
        <time>2017-09-27T08:12:22Z</time>
      </trkpt>
      <trkpt lat="47.71032" lon="6.08773">
        <ele>300.98</ele>
        <time>2017-09-27T08:12:23Z</time>
      </trkpt>
      <trkpt lat="47.71035" lon="6.08782">
        <ele>301.03</ele>
        <time>2017-09-27T08:12:24Z</time>
      </trkpt>
      <trkpt lat="47.71037" lon="6.08793">
        <ele>301.07</ele>
        <time>2017-09-27T08:12:25Z</time>
      </trkpt>
      <trkpt lat="47.71038" lon="6.08802">
        <ele>301.08</ele>
        <time>2017-09-27T08:12:26Z</time>
      </trkpt>
      <trkpt lat="47.7104" lon="6.0881">
        <ele>301.08</ele>
        <time>2017-09-27T08:12:27Z</time>
      </trkpt>
      <trkpt lat="47.71041" lon="6.08817">
        <ele>301.1</ele>
        <time>2017-09-27T08:12:28Z</time>
      </trkpt>
      <trkpt lat="47.71042" lon="6.08825">
        <ele>301.11</ele>
        <time>2017-09-27T08:12:29Z</time>
      </trkpt>
      <trkpt lat="47.71042" lon="6.08834">
        <ele>301.12</ele>
        <time>2017-09-27T08:12:30Z</time>
      </trkpt>
      <trkpt lat="47.71042" lon="6.08843">
        <ele>301.12</ele>
        <time>2017-09-27T08:12:31Z</time>
      </trkpt>
      <trkpt lat="47.71043" lon="6.08852">
        <ele>301.11</ele>
        <time>2017-09-27T08:12:32Z</time>
      </trkpt>
      <trkpt lat="47.71044" lon="6.08862">
        <ele>301.09</ele>
        <time>2017-09-27T08:12:33Z</time>
      </trkpt>
      <trkpt lat="47.71046" lon="6.08871">
        <ele>301.05</ele>
        <time>2017-09-27T08:12:34Z</time>
      </trkpt>
      <trkpt lat="47.71048" lon="6.0888">
        <ele>301</ele>
        <time>2017-09-27T08:12:35Z</time>
      </trkpt>
      <trkpt lat="47.7105" lon="6.08888">
        <ele>300.94</ele>
        <time>2017-09-27T08:12:36Z</time>
      </trkpt>
      <trkpt lat="47.71052" lon="6.08895">
        <ele>300.89</ele>
        <time>2017-09-27T08:12:37Z</time>
      </trkpt>
      <trkpt lat="47.71053" lon="6.08902">
        <ele>300.84</ele>
        <time>2017-09-27T08:12:38Z</time>
      </trkpt>
      <trkpt lat="47.71054" lon="6.0891">
        <ele>300.79</ele>
        <time>2017-09-27T08:12:39Z</time>
      </trkpt>
      <trkpt lat="47.71056" lon="6.08917">
        <ele>300.74</ele>
        <time>2017-09-27T08:12:40Z</time>
      </trkpt>
      <trkpt lat="47.71058" lon="6.08929">
        <ele>300.72</ele>
        <time>2017-09-27T08:12:42Z</time>
      </trkpt>
      <trkpt lat="47.7106" lon="6.08939">
        <ele>300.7</ele>
        <time>2017-09-27T08:12:44Z</time>
      </trkpt>
      <trkpt lat="47.7106" lon="6.08948">
        <ele>300.7</ele>
        <time>2017-09-27T08:12:46Z</time>
      </trkpt>
      <trkpt lat="47.7106" lon="6.08955">
        <ele>300.69</ele>
        <time>2017-09-27T08:12:48Z</time>
      </trkpt>
      <trkpt lat="47.71058" lon="6.08962">
        <ele>300.69</ele>
        <time>2017-09-27T08:12:50Z</time>
      </trkpt>
      <trkpt lat="47.71057" lon="6.0897">
        <ele>300.69</ele>
        <time>2017-09-27T08:12:52Z</time>
      </trkpt>
      <trkpt lat="47.71056" lon="6.08978">
        <ele>300.71</ele>
        <time>2017-09-27T08:12:54Z</time>
      </trkpt>
      <trkpt lat="47.71053" lon="6.08991">
        <ele>300.74</ele>
        <time>2017-09-27T08:12:56Z</time>
      </trkpt>
      <trkpt lat="47.7105" lon="6.08998">
        <ele>300.79</ele>
        <time>2017-09-27T08:12:58Z</time>
      </trkpt>
      <trkpt lat="47.71047" lon="6.09004">
        <ele>300.85</ele>
        <time>2017-09-27T08:13:00Z</time>
      </trkpt>
      <trkpt lat="47.71045" lon="6.09011">
        <ele>300.91</ele>
        <time>2017-09-27T08:13:02Z</time>
      </trkpt>
      <trkpt lat="47.71043" lon="6.09018">
        <ele>300.98</ele>
        <time>2017-09-27T08:13:04Z</time>
      </trkpt>
      <trkpt lat="47.7104" lon="6.09025">
        <ele>301.06</ele>
        <time>2017-09-27T08:13:06Z</time>
      </trkpt>
      <trkpt lat="47.71035" lon="6.09034">
        <ele>301.15</ele>
        <time>2017-09-27T08:13:08Z</time>
      </trkpt>
      <trkpt lat="47.71031" lon="6.09042">
        <ele>301.26</ele>
        <time>2017-09-27T08:13:10Z</time>
      </trkpt>
      <trkpt lat="47.71028" lon="6.09051">
        <ele>301.4</ele>
        <time>2017-09-27T08:13:12Z</time>
      </trkpt>
      <trkpt lat="47.71024" lon="6.09058">
        <ele>301.56</ele>
        <time>2017-09-27T08:13:14Z</time>
      </trkpt>
      <trkpt lat="47.71023" lon="6.09069">
        <ele>301.65</ele>
        <time>2017-09-27T08:13:15Z</time>
      </trkpt>
      <trkpt lat="47.71021" lon="6.09076">
        <ele>301.74</ele>
        <time>2017-09-27T08:13:16Z</time>
      </trkpt>
      <trkpt lat="47.71019" lon="6.09084">
        <ele>301.93</ele>
        <time>2017-09-27T08:13:18Z</time>
      </trkpt>
      <trkpt lat="47.71016" lon="6.0909">
        <ele>302.41</ele>
        <time>2017-09-27T08:13:23Z</time>
      </trkpt>
      <trkpt lat="47.71012" lon="6.09096">
        <ele>302.75</ele>
        <time>2017-09-27T08:13:27Z</time>
      </trkpt>
      <trkpt lat="47.7101" lon="6.09102">
        <ele>302.83</ele>
        <time>2017-09-27T08:13:28Z</time>
      </trkpt>
      <trkpt lat="47.71005" lon="6.0911">
        <ele>303.07</ele>
        <time>2017-09-27T08:13:31Z</time>
      </trkpt>
      <trkpt lat="47.71002" lon="6.09117">
        <ele>303.24</ele>
        <time>2017-09-27T08:13:33Z</time>
      </trkpt>
      <trkpt lat="47.71" lon="6.09123">
        <ele>303.43</ele>
        <time>2017-09-27T08:13:35Z</time>
      </trkpt>
      <trkpt lat="47.70998" lon="6.0913">
        <ele>303.73</ele>
        <time>2017-09-27T08:13:38Z</time>
      </trkpt>
      <trkpt lat="47.70995" lon="6.09136">
        <ele>304.28</ele>
        <time>2017-09-27T08:13:43Z</time>
      </trkpt>
      <trkpt lat="47.70992" lon="6.0914">
        <ele>304.75</ele>
        <time>2017-09-27T08:13:47Z</time>
      </trkpt>
      <trkpt lat="47.70988" lon="6.09145">
        <ele>305.46</ele>
        <time>2017-09-27T08:13:53Z</time>
      </trkpt>
      <trkpt lat="47.70987" lon="6.09152">
        <ele>305.93</ele>
        <time>2017-09-27T08:13:58Z</time>
      </trkpt>
      <trkpt lat="47.70987" lon="6.09145">
        <ele>306.85</ele>
        <time>2017-09-27T08:14:07Z</time>
      </trkpt>
      <trkpt lat="47.70982" lon="6.09142">
        <ele>307.32</ele>
        <time>2017-09-27T08:14:12Z</time>
      </trkpt>
      <trkpt lat="47.70978" lon="6.09142">
        <ele>307.61</ele>
        <time>2017-09-27T08:14:15Z</time>
      </trkpt>
      <trkpt lat="47.70973" lon="6.0914">
        <ele>307.91</ele>
        <time>2017-09-27T08:14:18Z</time>
      </trkpt>
      <trkpt lat="47.7097" lon="6.09133">
        <ele>308.19</ele>
        <time>2017-09-27T08:14:21Z</time>
      </trkpt>
      <trkpt lat="47.70968" lon="6.09126">
        <ele>308.45</ele>
        <time>2017-09-27T08:14:24Z</time>
      </trkpt>
      <trkpt lat="47.70968" lon="6.09117">
        <ele>308.85</ele>
        <time>2017-09-27T08:14:29Z</time>
      </trkpt>
      <trkpt lat="47.7097" lon="6.0911">
        <ele>308.99</ele>
        <time>2017-09-27T08:14:31Z</time>
      </trkpt>
      <trkpt lat="47.7097" lon="6.09102">
        <ele>309.2</ele>
        <time>2017-09-27T08:14:34Z</time>
      </trkpt>
      <trkpt lat="47.70968" lon="6.09095">
        <ele>309.32</ele>
        <time>2017-09-27T08:14:36Z</time>
      </trkpt>
      <trkpt lat="47.70966" lon="6.09087">
        <ele>309.45</ele>
        <time>2017-09-27T08:14:38Z</time>
      </trkpt>
      <trkpt lat="47.70964" lon="6.09079">
        <ele>309.57</ele>
        <time>2017-09-27T08:14:40Z</time>
      </trkpt>
      <trkpt lat="47.7096" lon="6.09073">
        <ele>309.75</ele>
        <time>2017-09-27T08:14:43Z</time>
      </trkpt>
      <trkpt lat="47.70959" lon="6.09067">
        <ele>310.08</ele>
        <time>2017-09-27T08:15:08Z</time>
      </trkpt>
      <trkpt lat="47.70956" lon="6.0906">
        <ele>310.66</ele>
        <time>2017-09-27T08:15:25Z</time>
      </trkpt>
      <trkpt lat="47.70954" lon="6.09053">
        <ele>310.89</ele>
        <time>2017-09-27T08:15:28Z</time>
      </trkpt>
      <trkpt lat="47.70951" lon="6.09047">
        <ele>311.11</ele>
        <time>2017-09-27T08:15:31Z</time>
      </trkpt>
      <trkpt lat="47.70947" lon="6.09041">
        <ele>311.32</ele>
        <time>2017-09-27T08:15:34Z</time>
      </trkpt>
      <trkpt lat="47.70943" lon="6.09037">
        <ele>311.45</ele>
        <time>2017-09-27T08:15:36Z</time>
      </trkpt>
      <trkpt lat="47.70937" lon="6.09032">
        <ele>311.64</ele>
        <time>2017-09-27T08:15:39Z</time>
      </trkpt>
      <trkpt lat="47.70932" lon="6.09028">
        <ele>311.88</ele>
        <time>2017-09-27T08:15:43Z</time>
      </trkpt>
      <trkpt lat="47.70928" lon="6.09025">
        <ele>312</ele>
        <time>2017-09-27T08:15:45Z</time>
      </trkpt>
      <trkpt lat="47.70924" lon="6.09021">
        <ele>312.16</ele>
        <time>2017-09-27T08:15:48Z</time>
      </trkpt>
      <trkpt lat="47.70919" lon="6.09018">
        <ele>312.27</ele>
        <time>2017-09-27T08:15:50Z</time>
      </trkpt>
      <trkpt lat="47.70915" lon="6.09015">
        <ele>312.38</ele>
        <time>2017-09-27T08:15:52Z</time>
      </trkpt>
      <trkpt lat="47.7091" lon="6.09013">
        <ele>312.48</ele>
        <time>2017-09-27T08:15:54Z</time>
      </trkpt>
      <trkpt lat="47.70905" lon="6.09008">
        <ele>312.62</ele>
        <time>2017-09-27T08:15:57Z</time>
      </trkpt>
      <trkpt lat="47.709" lon="6.09004">
        <ele>312.77</ele>
        <time>2017-09-27T08:16:00Z</time>
      </trkpt>
      <trkpt lat="47.70895" lon="6.09002">
        <ele>312.9</ele>
        <time>2017-09-27T08:16:03Z</time>
      </trkpt>
      <trkpt lat="47.7089" lon="6.08998">
        <ele>313.07</ele>
        <time>2017-09-27T08:16:07Z</time>
      </trkpt>
      <trkpt lat="47.70885" lon="6.08997">
        <ele>313.19</ele>
        <time>2017-09-27T08:16:10Z</time>
      </trkpt>
      <trkpt lat="47.70878" lon="6.08996">
        <ele>313.31</ele>
        <time>2017-09-27T08:16:13Z</time>
      </trkpt>
      <trkpt lat="47.70874" lon="6.08996">
        <ele>313.38</ele>
        <time>2017-09-27T08:16:15Z</time>
      </trkpt>
      <trkpt lat="47.70867" lon="6.08996">
        <ele>313.48</ele>
        <time>2017-09-27T08:16:18Z</time>
      </trkpt>
      <trkpt lat="47.70861" lon="6.08994">
        <ele>313.58</ele>
        <time>2017-09-27T08:16:21Z</time>
      </trkpt>
      <trkpt lat="47.70854" lon="6.08989">
        <ele>313.67</ele>
        <time>2017-09-27T08:16:24Z</time>
      </trkpt>
      <trkpt lat="47.70848" lon="6.08984">
        <ele>313.73</ele>
        <time>2017-09-27T08:16:26Z</time>
      </trkpt>
      <trkpt lat="47.70845" lon="6.08979">
        <ele>313.78</ele>
        <time>2017-09-27T08:16:28Z</time>
      </trkpt>
      <trkpt lat="47.70839" lon="6.08977">
        <ele>313.86</ele>
        <time>2017-09-27T08:16:31Z</time>
      </trkpt>
      <trkpt lat="47.70835" lon="6.08974">
        <ele>313.93</ele>
        <time>2017-09-27T08:16:34Z</time>
      </trkpt>
      <trkpt lat="47.7083" lon="6.08968">
        <ele>314</ele>
        <time>2017-09-27T08:16:37Z</time>
      </trkpt>
      <trkpt lat="47.70824" lon="6.08964">
        <ele>314.04</ele>
        <time>2017-09-27T08:16:39Z</time>
      </trkpt>
      <trkpt lat="47.70819" lon="6.08961">
        <ele>314.08</ele>
        <time>2017-09-27T08:16:41Z</time>
      </trkpt>
      <trkpt lat="47.70814" lon="6.08957">
        <ele>314.15</ele>
        <time>2017-09-27T08:16:44Z</time>
      </trkpt>
      <trkpt lat="47.70809" lon="6.08955">
        <ele>314.22</ele>
        <time>2017-09-27T08:16:47Z</time>
      </trkpt>
      <trkpt lat="47.70804" lon="6.08955">
        <ele>314.28</ele>
        <time>2017-09-27T08:16:50Z</time>
      </trkpt>
      <trkpt lat="47.70799" lon="6.08955">
        <ele>314.34</ele>
        <time>2017-09-27T08:16:53Z</time>
      </trkpt>
      <trkpt lat="47.70794" lon="6.08957">
        <ele>314.39</ele>
        <time>2017-09-27T08:16:56Z</time>
      </trkpt>
      <trkpt lat="47.70788" lon="6.08954">
        <ele>314.44</ele>
        <time>2017-09-27T08:16:59Z</time>
      </trkpt>
      <trkpt lat="47.70782" lon="6.08954">
        <ele>314.5</ele>
        <time>2017-09-27T08:17:03Z</time>
      </trkpt>
      <trkpt lat="47.70778" lon="6.08959">
        <ele>314.52</ele>
        <time>2017-09-27T08:17:05Z</time>
      </trkpt>
      <trkpt lat="47.70773" lon="6.0896">
        <ele>314.54</ele>
        <time>2017-09-27T08:17:07Z</time>
      </trkpt>
      <trkpt lat="47.70768" lon="6.08958">
        <ele>314.56</ele>
        <time>2017-09-27T08:17:09Z</time>
      </trkpt>
      <trkpt lat="47.70761" lon="6.08958">
        <ele>314.58</ele>
        <time>2017-09-27T08:17:12Z</time>
      </trkpt>
      <trkpt lat="47.70755" lon="6.08955">
        <ele>314.59</ele>
        <time>2017-09-27T08:17:15Z</time>
      </trkpt>
      <trkpt lat="47.70751" lon="6.08951">
        <ele>314.6</ele>
        <time>2017-09-27T08:17:18Z</time>
      </trkpt>
      <trkpt lat="47.70746" lon="6.08946">
        <ele>314.62</ele>
        <time>2017-09-27T08:17:22Z</time>
      </trkpt>
      <trkpt lat="47.7074" lon="6.08942">
        <ele>314.62</ele>
        <time>2017-09-27T08:17:24Z</time>
      </trkpt>
      <trkpt lat="47.70736" lon="6.08943">
        <ele>314.63</ele>
        <time>2017-09-27T08:17:26Z</time>
      </trkpt>
      <trkpt lat="47.70731" lon="6.08943">
        <ele>314.63</ele>
        <time>2017-09-27T08:17:28Z</time>
      </trkpt>
      <trkpt lat="47.70725" lon="6.08942">
        <ele>314.64</ele>
        <time>2017-09-27T08:17:30Z</time>
      </trkpt>
      <trkpt lat="47.7072" lon="6.08944">
        <ele>314.7</ele>
        <time>2017-09-27T08:17:37Z</time>
      </trkpt>
      <trkpt lat="47.70714" lon="6.08945">
        <ele>314.72</ele>
        <time>2017-09-27T08:17:40Z</time>
      </trkpt>
      <trkpt lat="47.70709" lon="6.08941">
        <ele>314.75</ele>
        <time>2017-09-27T08:17:43Z</time>
      </trkpt>
      <trkpt lat="47.70704" lon="6.0894">
        <ele>314.76</ele>
        <time>2017-09-27T08:17:45Z</time>
      </trkpt>
      <trkpt lat="47.70698" lon="6.08939">
        <ele>314.76</ele>
        <time>2017-09-27T08:17:47Z</time>
      </trkpt>
      <trkpt lat="47.70694" lon="6.08935">
        <ele>314.76</ele>
        <time>2017-09-27T08:17:49Z</time>
      </trkpt>
      <trkpt lat="47.70688" lon="6.08931">
        <ele>314.76</ele>
        <time>2017-09-27T08:17:51Z</time>
      </trkpt>
      <trkpt lat="47.70681" lon="6.08926">
        <ele>314.75</ele>
        <time>2017-09-27T08:17:53Z</time>
      </trkpt>
      <trkpt lat="47.70674" lon="6.0892">
        <ele>314.74</ele>
        <time>2017-09-27T08:17:55Z</time>
      </trkpt>
      <trkpt lat="47.70667" lon="6.08914">
        <ele>314.72</ele>
        <time>2017-09-27T08:17:57Z</time>
      </trkpt>
      <trkpt lat="47.70662" lon="6.08906">
        <ele>314.7</ele>
        <time>2017-09-27T08:17:59Z</time>
      </trkpt>
      <trkpt lat="47.70657" lon="6.08896">
        <ele>314.67</ele>
        <time>2017-09-27T08:18:01Z</time>
      </trkpt>
      <trkpt lat="47.70651" lon="6.08887">
        <ele>314.64</ele>
        <time>2017-09-27T08:18:03Z</time>
      </trkpt>
      <trkpt lat="47.70644" lon="6.08883">
        <ele>314.61</ele>
        <time>2017-09-27T08:18:05Z</time>
      </trkpt>
      <trkpt lat="47.70639" lon="6.08879">
        <ele>314.59</ele>
        <time>2017-09-27T08:18:07Z</time>
      </trkpt>
      <trkpt lat="47.70633" lon="6.08874">
        <ele>314.57</ele>
        <time>2017-09-27T08:18:09Z</time>
      </trkpt>
      <trkpt lat="47.70629" lon="6.08867">
        <ele>314.55</ele>
        <time>2017-09-27T08:18:11Z</time>
      </trkpt>
      <trkpt lat="47.70626" lon="6.08861">
        <ele>314.54</ele>
        <time>2017-09-27T08:18:13Z</time>
      </trkpt>
      <trkpt lat="47.7062" lon="6.0886">
        <ele>314.53</ele>
        <time>2017-09-27T08:18:16Z</time>
      </trkpt>
      <trkpt lat="47.70615" lon="6.0886">
        <ele>314.53</ele>
        <time>2017-09-27T08:18:19Z</time>
      </trkpt>
      <trkpt lat="47.70609" lon="6.08859">
        <ele>314.53</ele>
        <time>2017-09-27T08:18:22Z</time>
      </trkpt>
      <trkpt lat="47.70603" lon="6.08861">
        <ele>314.53</ele>
        <time>2017-09-27T08:18:25Z</time>
      </trkpt>
      <trkpt lat="47.70598" lon="6.08861">
        <ele>314.51</ele>
        <time>2017-09-27T08:18:45Z</time>
      </trkpt>
      <trkpt lat="47.70594" lon="6.08867">
        <ele>314.49</ele>
        <time>2017-09-27T08:18:49Z</time>
      </trkpt>
      <trkpt lat="47.70587" lon="6.08873">
        <ele>314.47</ele>
        <time>2017-09-27T08:18:52Z</time>
      </trkpt>
      <trkpt lat="47.70581" lon="6.08878">
        <ele>314.46</ele>
        <time>2017-09-27T08:18:54Z</time>
      </trkpt>
      <trkpt lat="47.70574" lon="6.08884">
        <ele>314.44</ele>
        <time>2017-09-27T08:18:56Z</time>
      </trkpt>
      <trkpt lat="47.7057" lon="6.08887">
        <ele>314.43</ele>
        <time>2017-09-27T08:18:57Z</time>
      </trkpt>
      <trkpt lat="47.70562" lon="6.08892">
        <ele>314.42</ele>
        <time>2017-09-27T08:18:58Z</time>
      </trkpt>
      <trkpt lat="47.70556" lon="6.08896">
        <ele>314.41</ele>
        <time>2017-09-27T08:18:59Z</time>
      </trkpt>
      <trkpt lat="47.7055" lon="6.08899">
        <ele>314.4</ele>
        <time>2017-09-27T08:19:00Z</time>
      </trkpt>
      <trkpt lat="47.70545" lon="6.08904">
        <ele>314.38</ele>
        <time>2017-09-27T08:19:02Z</time>
      </trkpt>
      <trkpt lat="47.70538" lon="6.08913">
        <ele>314.36</ele>
        <time>2017-09-27T08:19:04Z</time>
      </trkpt>
      <trkpt lat="47.70533" lon="6.08914">
        <ele>314.34</ele>
        <time>2017-09-27T08:19:06Z</time>
      </trkpt>
      <trkpt lat="47.70527" lon="6.08916">
        <ele>314.31</ele>
        <time>2017-09-27T08:19:09Z</time>
      </trkpt>
      <trkpt lat="47.70523" lon="6.0892">
        <ele>314.29</ele>
        <time>2017-09-27T08:19:11Z</time>
      </trkpt>
      <trkpt lat="47.70518" lon="6.08923">
        <ele>314.26</ele>
        <time>2017-09-27T08:19:14Z</time>
      </trkpt>
      <trkpt lat="47.70513" lon="6.08924">
        <ele>314.23</ele>
        <time>2017-09-27T08:19:17Z</time>
      </trkpt>
      <trkpt lat="47.70509" lon="6.08928">
        <ele>314.19</ele>
        <time>2017-09-27T08:19:22Z</time>
      </trkpt>
      <trkpt lat="47.70504" lon="6.08931">
        <ele>314.16</ele>
        <time>2017-09-27T08:19:24Z</time>
      </trkpt>
      <trkpt lat="47.70498" lon="6.08933">
        <ele>314.13</ele>
        <time>2017-09-27T08:19:27Z</time>
      </trkpt>
      <trkpt lat="47.70492" lon="6.08934">
        <ele>314.09</ele>
        <time>2017-09-27T08:19:30Z</time>
      </trkpt>
      <trkpt lat="47.70486" lon="6.08935">
        <ele>314.05</ele>
        <time>2017-09-27T08:19:33Z</time>
      </trkpt>
      <trkpt lat="47.70481" lon="6.08937">
        <ele>314.01</ele>
        <time>2017-09-27T08:19:36Z</time>
      </trkpt>
      <trkpt lat="47.70476" lon="6.08939">
        <ele>313.98</ele>
        <time>2017-09-27T08:19:39Z</time>
      </trkpt>
      <trkpt lat="47.7047" lon="6.08941">
        <ele>313.94</ele>
        <time>2017-09-27T08:19:42Z</time>
      </trkpt>
      <trkpt lat="47.70466" lon="6.08945">
        <ele>313.9</ele>
        <time>2017-09-27T08:19:45Z</time>
      </trkpt>
      <trkpt lat="47.70464" lon="6.08951">
        <ele>313.84</ele>
        <time>2017-09-27T08:19:49Z</time>
      </trkpt>
      <trkpt lat="47.7046" lon="6.08959">
        <ele>313.8</ele>
        <time>2017-09-27T08:19:52Z</time>
      </trkpt>
      <trkpt lat="47.70457" lon="6.08965">
        <ele>313.77</ele>
        <time>2017-09-27T08:19:54Z</time>
      </trkpt>
      <trkpt lat="47.70452" lon="6.08971">
        <ele>313.73</ele>
        <time>2017-09-27T08:19:57Z</time>
      </trkpt>
      <trkpt lat="47.70446" lon="6.08976">
        <ele>313.69</ele>
        <time>2017-09-27T08:20:00Z</time>
      </trkpt>
      <trkpt lat="47.70442" lon="6.08982">
        <ele>313.67</ele>
        <time>2017-09-27T08:20:02Z</time>
      </trkpt>
      <trkpt lat="47.70438" lon="6.0899">
        <ele>313.65</ele>
        <time>2017-09-27T08:20:04Z</time>
      </trkpt>
      <trkpt lat="47.70435" lon="6.08996">
        <ele>313.63</ele>
        <time>2017-09-27T08:20:06Z</time>
      </trkpt>
      <trkpt lat="47.70431" lon="6.09">
        <ele>313.6</ele>
        <time>2017-09-27T08:20:09Z</time>
      </trkpt>
      <trkpt lat="47.70427" lon="6.09005">
        <ele>313.57</ele>
        <time>2017-09-27T08:20:13Z</time>
      </trkpt>
      <trkpt lat="47.70422" lon="6.09005">
        <ele>313.53</ele>
        <time>2017-09-27T08:20:19Z</time>
      </trkpt>
      <trkpt lat="47.70418" lon="6.09">
        <ele>313.51</ele>
        <time>2017-09-27T08:20:23Z</time>
      </trkpt>
      <trkpt lat="47.70413" lon="6.09002">
        <ele>313.5</ele>
        <time>2017-09-27T08:20:31Z</time>
      </trkpt>
      <trkpt lat="47.70407" lon="6.09001">
        <ele>313.5</ele>
        <time>2017-09-27T08:20:34Z</time>
      </trkpt>
      <trkpt lat="47.70402" lon="6.09001">
        <ele>313.5</ele>
        <time>2017-09-27T08:20:36Z</time>
      </trkpt>
      <trkpt lat="47.70395" lon="6.08999">
        <ele>313.49</ele>
        <time>2017-09-27T08:20:38Z</time>
      </trkpt>
      <trkpt lat="47.70389" lon="6.08998">
        <ele>313.49</ele>
        <time>2017-09-27T08:20:40Z</time>
      </trkpt>
      <trkpt lat="47.70381" lon="6.09">
        <ele>313.48</ele>
        <time>2017-09-27T08:20:42Z</time>
      </trkpt>
      <trkpt lat="47.70372" lon="6.09004">
        <ele>313.48</ele>
        <time>2017-09-27T08:20:43Z</time>
      </trkpt>
      <trkpt lat="47.70365" lon="6.09006">
        <ele>313.48</ele>
        <time>2017-09-27T08:20:44Z</time>
      </trkpt>
      <trkpt lat="47.70358" lon="6.09006">
        <ele>313.48</ele>
        <time>2017-09-27T08:20:45Z</time>
      </trkpt>
      <trkpt lat="47.70353" lon="6.09003">
        <ele>313.48</ele>
        <time>2017-09-27T08:20:46Z</time>
      </trkpt>
      <trkpt lat="47.70347" lon="6.08999">
        <ele>313.48</ele>
        <time>2017-09-27T08:20:48Z</time>
      </trkpt>
      <trkpt lat="47.70341" lon="6.08998">
        <ele>313.48</ele>
        <time>2017-09-27T08:20:51Z</time>
      </trkpt>
      <trkpt lat="47.70333" lon="6.08996">
        <ele>313.48</ele>
        <time>2017-09-27T08:20:54Z</time>
      </trkpt>
      <trkpt lat="47.70327" lon="6.08994">
        <ele>313.47</ele>
        <time>2017-09-27T08:20:57Z</time>
      </trkpt>
      <trkpt lat="47.70321" lon="6.08995">
        <ele>313.47</ele>
        <time>2017-09-27T08:21:00Z</time>
      </trkpt>
      <trkpt lat="47.70315" lon="6.08993">
        <ele>313.47</ele>
        <time>2017-09-27T08:21:03Z</time>
      </trkpt>
      <trkpt lat="47.7031" lon="6.08995">
        <ele>313.47</ele>
        <time>2017-09-27T08:21:06Z</time>
      </trkpt>
      <trkpt lat="47.70304" lon="6.08998">
        <ele>313.47</ele>
        <time>2017-09-27T08:21:08Z</time>
      </trkpt>
      <trkpt lat="47.70299" lon="6.09">
        <ele>313.47</ele>
        <time>2017-09-27T08:21:10Z</time>
      </trkpt>
      <trkpt lat="47.70292" lon="6.09002">
        <ele>313.47</ele>
        <time>2017-09-27T08:21:12Z</time>
      </trkpt>
      <trkpt lat="47.70287" lon="6.09004">
        <ele>313.46</ele>
        <time>2017-09-27T08:21:14Z</time>
      </trkpt>
      <trkpt lat="47.70282" lon="6.09007">
        <ele>313.46</ele>
        <time>2017-09-27T08:21:16Z</time>
      </trkpt>
      <trkpt lat="47.70278" lon="6.09012">
        <ele>313.45</ele>
        <time>2017-09-27T08:21:18Z</time>
      </trkpt>
      <trkpt lat="47.70274" lon="6.09017">
        <ele>313.45</ele>
        <time>2017-09-27T08:21:21Z</time>
      </trkpt>
      <trkpt lat="47.70269" lon="6.09021">
        <ele>313.44</ele>
        <time>2017-09-27T08:21:24Z</time>
      </trkpt>
      <trkpt lat="47.70265" lon="6.09024">
        <ele>313.43</ele>
        <time>2017-09-27T08:21:27Z</time>
      </trkpt>
      <trkpt lat="47.70259" lon="6.0903">
        <ele>313.43</ele>
        <time>2017-09-27T08:21:30Z</time>
      </trkpt>
      <trkpt lat="47.70255" lon="6.09037">
        <ele>313.43</ele>
        <time>2017-09-27T08:21:32Z</time>
      </trkpt>
      <trkpt lat="47.70251" lon="6.09041">
        <ele>313.42</ele>
        <time>2017-09-27T08:21:34Z</time>
      </trkpt>
      <trkpt lat="47.70246" lon="6.09044">
        <ele>313.42</ele>
        <time>2017-09-27T08:21:37Z</time>
      </trkpt>
      <trkpt lat="47.70241" lon="6.09048">
        <ele>313.43</ele>
        <time>2017-09-27T08:21:40Z</time>
      </trkpt>
      <trkpt lat="47.70237" lon="6.09053">
        <ele>313.43</ele>
        <time>2017-09-27T08:21:43Z</time>
      </trkpt>
      <trkpt lat="47.70232" lon="6.09056">
        <ele>313.43</ele>
        <time>2017-09-27T08:21:45Z</time>
      </trkpt>
      <trkpt lat="47.70229" lon="6.09062">
        <ele>313.43</ele>
        <time>2017-09-27T08:21:47Z</time>
      </trkpt>
      <trkpt lat="47.70226" lon="6.09068">
        <ele>313.43</ele>
        <time>2017-09-27T08:21:48Z</time>
      </trkpt>
      <trkpt lat="47.70221" lon="6.09078">
        <ele>313.44</ele>
        <time>2017-09-27T08:21:50Z</time>
      </trkpt>
      <trkpt lat="47.70218" lon="6.09083">
        <ele>313.44</ele>
        <time>2017-09-27T08:21:51Z</time>
      </trkpt>
      <trkpt lat="47.70213" lon="6.09091">
        <ele>313.45</ele>
        <time>2017-09-27T08:21:53Z</time>
      </trkpt>
      <trkpt lat="47.70209" lon="6.091">
        <ele>313.46</ele>
        <time>2017-09-27T08:21:55Z</time>
      </trkpt>
      <trkpt lat="47.70206" lon="6.09109">
        <ele>313.48</ele>
        <time>2017-09-27T08:21:57Z</time>
      </trkpt>
      <trkpt lat="47.70204" lon="6.09122">
        <ele>313.49</ele>
        <time>2017-09-27T08:21:59Z</time>
      </trkpt>
      <trkpt lat="47.70203" lon="6.09129">
        <ele>313.5</ele>
        <time>2017-09-27T08:22:00Z</time>
      </trkpt>
      <trkpt lat="47.70202" lon="6.09135">
        <ele>313.5</ele>
        <time>2017-09-27T08:22:01Z</time>
      </trkpt>
      <trkpt lat="47.70201" lon="6.09143">
        <ele>313.5</ele>
        <time>2017-09-27T08:22:02Z</time>
      </trkpt>
      <trkpt lat="47.70201" lon="6.09151">
        <ele>313.52</ele>
        <time>2017-09-27T08:22:03Z</time>
      </trkpt>
      <trkpt lat="47.702" lon="6.0916">
        <ele>313.53</ele>
        <time>2017-09-27T08:22:04Z</time>
      </trkpt>
      <trkpt lat="47.70198" lon="6.09169">
        <ele>313.54</ele>
        <time>2017-09-27T08:22:05Z</time>
      </trkpt>
      <trkpt lat="47.70195" lon="6.09178">
        <ele>313.54</ele>
        <time>2017-09-27T08:22:06Z</time>
      </trkpt>
      <trkpt lat="47.70191" lon="6.09188">
        <ele>313.52</ele>
        <time>2017-09-27T08:22:07Z</time>
      </trkpt>
      <trkpt lat="47.70189" lon="6.09198">
        <ele>313.5</ele>
        <time>2017-09-27T08:22:08Z</time>
      </trkpt>
      <trkpt lat="47.70186" lon="6.09207">
        <ele>313.45</ele>
        <time>2017-09-27T08:22:09Z</time>
      </trkpt>
      <trkpt lat="47.70182" lon="6.09216">
        <ele>313.4</ele>
        <time>2017-09-27T08:22:10Z</time>
      </trkpt>
      <trkpt lat="47.7018" lon="6.09225">
        <ele>313.35</ele>
        <time>2017-09-27T08:22:11Z</time>
      </trkpt>
      <trkpt lat="47.70177" lon="6.09233">
        <ele>313.28</ele>
        <time>2017-09-27T08:22:12Z</time>
      </trkpt>
      <trkpt lat="47.70175" lon="6.09241">
        <ele>313.19</ele>
        <time>2017-09-27T08:22:13Z</time>
      </trkpt>
      <trkpt lat="47.70172" lon="6.0925">
        <ele>313.09</ele>
        <time>2017-09-27T08:22:14Z</time>
      </trkpt>
      <trkpt lat="47.70169" lon="6.09258">
        <ele>312.98</ele>
        <time>2017-09-27T08:22:15Z</time>
      </trkpt>
      <trkpt lat="47.70166" lon="6.09266">
        <ele>312.84</ele>
        <time>2017-09-27T08:22:16Z</time>
      </trkpt>
      <trkpt lat="47.70163" lon="6.09274">
        <ele>312.68</ele>
        <time>2017-09-27T08:22:17Z</time>
      </trkpt>
      <trkpt lat="47.70159" lon="6.09283">
        <ele>312.49</ele>
        <time>2017-09-27T08:22:18Z</time>
      </trkpt>
      <trkpt lat="47.70156" lon="6.09292">
        <ele>312.28</ele>
        <time>2017-09-27T08:22:19Z</time>
      </trkpt>
      <trkpt lat="47.70153" lon="6.09301">
        <ele>312.05</ele>
        <time>2017-09-27T08:22:20Z</time>
      </trkpt>
      <trkpt lat="47.7015" lon="6.0931">
        <ele>311.82</ele>
        <time>2017-09-27T08:22:21Z</time>
      </trkpt>
      <trkpt lat="47.70147" lon="6.09319">
        <ele>311.56</ele>
        <time>2017-09-27T08:22:22Z</time>
      </trkpt>
      <trkpt lat="47.70144" lon="6.09328">
        <ele>311.29</ele>
        <time>2017-09-27T08:22:23Z</time>
      </trkpt>
      <trkpt lat="47.70142" lon="6.09338">
        <ele>311.03</ele>
        <time>2017-09-27T08:22:24Z</time>
      </trkpt>
      <trkpt lat="47.70139" lon="6.09347">
        <ele>310.74</ele>
        <time>2017-09-27T08:22:25Z</time>
      </trkpt>
      <trkpt lat="47.70138" lon="6.09357">
        <ele>310.37</ele>
        <time>2017-09-27T08:22:26Z</time>
      </trkpt>
      <trkpt lat="47.70136" lon="6.09367">
        <ele>310.02</ele>
        <time>2017-09-27T08:22:27Z</time>
      </trkpt>
      <trkpt lat="47.70134" lon="6.09376">
        <ele>309.66</ele>
        <time>2017-09-27T08:22:28Z</time>
      </trkpt>
      <trkpt lat="47.70132" lon="6.09386">
        <ele>309.26</ele>
        <time>2017-09-27T08:22:29Z</time>
      </trkpt>
      <trkpt lat="47.7013" lon="6.09395">
        <ele>308.82</ele>
        <time>2017-09-27T08:22:30Z</time>
      </trkpt>
      <trkpt lat="47.70129" lon="6.09404">
        <ele>308.38</ele>
        <time>2017-09-27T08:22:31Z</time>
      </trkpt>
      <trkpt lat="47.70126" lon="6.09414">
        <ele>307.97</ele>
        <time>2017-09-27T08:22:32Z</time>
      </trkpt>
      <trkpt lat="47.70125" lon="6.09423">
        <ele>307.57</ele>
        <time>2017-09-27T08:22:33Z</time>
      </trkpt>
      <trkpt lat="47.70123" lon="6.09432">
        <ele>307.15</ele>
        <time>2017-09-27T08:22:34Z</time>
      </trkpt>
      <trkpt lat="47.7012" lon="6.09441">
        <ele>306.74</ele>
        <time>2017-09-27T08:22:35Z</time>
      </trkpt>
      <trkpt lat="47.70119" lon="6.0945">
        <ele>306.36</ele>
        <time>2017-09-27T08:22:36Z</time>
      </trkpt>
      <trkpt lat="47.70116" lon="6.09459">
        <ele>305.98</ele>
        <time>2017-09-27T08:22:37Z</time>
      </trkpt>
      <trkpt lat="47.70115" lon="6.09468">
        <ele>305.6</ele>
        <time>2017-09-27T08:22:38Z</time>
      </trkpt>
      <trkpt lat="47.70113" lon="6.09477">
        <ele>305.18</ele>
        <time>2017-09-27T08:22:39Z</time>
      </trkpt>
      <trkpt lat="47.7011" lon="6.09484">
        <ele>304.77</ele>
        <time>2017-09-27T08:22:40Z</time>
      </trkpt>
      <trkpt lat="47.70108" lon="6.09493">
        <ele>304.33</ele>
        <time>2017-09-27T08:22:41Z</time>
      </trkpt>
      <trkpt lat="47.70106" lon="6.09501">
        <ele>303.96</ele>
        <time>2017-09-27T08:22:42Z</time>
      </trkpt>
      <trkpt lat="47.70104" lon="6.09509">
        <ele>303.6</ele>
        <time>2017-09-27T08:22:43Z</time>
      </trkpt>
      <trkpt lat="47.70102" lon="6.09519">
        <ele>303.23</ele>
        <time>2017-09-27T08:22:44Z</time>
      </trkpt>
      <trkpt lat="47.701" lon="6.09527">
        <ele>302.9</ele>
        <time>2017-09-27T08:22:45Z</time>
      </trkpt>
      <trkpt lat="47.70098" lon="6.09535">
        <ele>302.6</ele>
        <time>2017-09-27T08:22:46Z</time>
      </trkpt>
      <trkpt lat="47.70096" lon="6.09544">
        <ele>302.29</ele>
        <time>2017-09-27T08:22:47Z</time>
      </trkpt>
      <trkpt lat="47.70094" lon="6.09553">
        <ele>301.95</ele>
        <time>2017-09-27T08:22:48Z</time>
      </trkpt>
      <trkpt lat="47.70091" lon="6.0956">
        <ele>301.57</ele>
        <time>2017-09-27T08:22:49Z</time>
      </trkpt>
      <trkpt lat="47.70088" lon="6.09566">
        <ele>301.21</ele>
        <time>2017-09-27T08:22:50Z</time>
      </trkpt>
      <trkpt lat="47.70084" lon="6.09576">
        <ele>300.42</ele>
        <time>2017-09-27T08:22:52Z</time>
      </trkpt>
      <trkpt lat="47.70079" lon="6.09584">
        <ele>300.22</ele>
        <time>2017-09-27T08:22:54Z</time>
      </trkpt>
      <trkpt lat="47.70074" lon="6.0959">
        <ele>300.15</ele>
        <time>2017-09-27T08:22:56Z</time>
      </trkpt>
      <trkpt lat="47.70068" lon="6.09596">
        <ele>300.14</ele>
        <time>2017-09-27T08:22:58Z</time>
      </trkpt>
      <trkpt lat="47.70061" lon="6.09598">
        <ele>300.14</ele>
        <time>2017-09-27T08:23:00Z</time>
      </trkpt>
      <trkpt lat="47.70054" lon="6.09598">
        <ele>300.13</ele>
        <time>2017-09-27T08:23:02Z</time>
      </trkpt>
      <trkpt lat="47.70048" lon="6.09598">
        <ele>300.09</ele>
        <time>2017-09-27T08:23:04Z</time>
      </trkpt>
      <trkpt lat="47.70041" lon="6.09598">
        <ele>300.02</ele>
        <time>2017-09-27T08:23:06Z</time>
      </trkpt>
      <trkpt lat="47.70035" lon="6.09598">
        <ele>299.93</ele>
        <time>2017-09-27T08:23:08Z</time>
      </trkpt>
      <trkpt lat="47.7003" lon="6.09598">
        <ele>299.86</ele>
        <time>2017-09-27T08:23:10Z</time>
      </trkpt>
      <trkpt lat="47.70025" lon="6.09596">
        <ele>299.76</ele>
        <time>2017-09-27T08:23:12Z</time>
      </trkpt>
      <trkpt lat="47.7002" lon="6.09594">
        <ele>299.63</ele>
        <time>2017-09-27T08:23:14Z</time>
      </trkpt>
      <trkpt lat="47.70015" lon="6.09592">
        <ele>299.46</ele>
        <time>2017-09-27T08:23:16Z</time>
      </trkpt>
      <trkpt lat="47.70009" lon="6.09589">
        <ele>299.14</ele>
        <time>2017-09-27T08:23:19Z</time>
      </trkpt>
      <trkpt lat="47.70003" lon="6.09587">
        <ele>298.9</ele>
        <time>2017-09-27T08:23:21Z</time>
      </trkpt>
      <trkpt lat="47.69997" lon="6.09585">
        <ele>298.66</ele>
        <time>2017-09-27T08:23:23Z</time>
      </trkpt>
      <trkpt lat="47.6999" lon="6.09583">
        <ele>297.58</ele>
        <time>2017-09-27T08:23:25Z</time>
      </trkpt>
      <trkpt lat="47.69982" lon="6.09581">
        <ele>295.56</ele>
        <time>2017-09-27T08:23:27Z</time>
      </trkpt>
      <trkpt lat="47.69978" lon="6.09579">
        <ele>294.7</ele>
        <time>2017-09-27T08:23:28Z</time>
      </trkpt>
      <trkpt lat="47.69973" lon="6.09577">
        <ele>293.95</ele>
        <time>2017-09-27T08:23:29Z</time>
      </trkpt>
      <trkpt lat="47.69968" lon="6.09576">
        <ele>293.28</ele>
        <time>2017-09-27T08:23:30Z</time>
      </trkpt>
      <trkpt lat="47.69963" lon="6.09575">
        <ele>293.05</ele>
        <time>2017-09-27T08:23:31Z</time>
      </trkpt>
      <trkpt lat="47.69955" lon="6.09575">
        <ele>292.45</ele>
        <time>2017-09-27T08:23:33Z</time>
      </trkpt>
      <trkpt lat="47.69947" lon="6.09578">
        <ele>291.44</ele>
        <time>2017-09-27T08:23:35Z</time>
      </trkpt>
      <trkpt lat="47.69943" lon="6.09582">
        <ele>291</ele>
        <time>2017-09-27T08:23:36Z</time>
      </trkpt>
      <trkpt lat="47.69938" lon="6.09588">
        <ele>290.6</ele>
        <time>2017-09-27T08:23:37Z</time>
      </trkpt>
      <trkpt lat="47.69934" lon="6.09594">
        <ele>290.24</ele>
        <time>2017-09-27T08:23:38Z</time>
      </trkpt>
      <trkpt lat="47.6993" lon="6.09602">
        <ele>289.9</ele>
        <time>2017-09-27T08:23:39Z</time>
      </trkpt>
      <trkpt lat="47.69924" lon="6.09609">
        <ele>289.58</ele>
        <time>2017-09-27T08:23:40Z</time>
      </trkpt>
      <trkpt lat="47.6992" lon="6.09617">
        <ele>289.26</ele>
        <time>2017-09-27T08:23:41Z</time>
      </trkpt>
      <trkpt lat="47.69916" lon="6.09625">
        <ele>288.94</ele>
        <time>2017-09-27T08:23:42Z</time>
      </trkpt>
      <trkpt lat="47.69913" lon="6.09633">
        <ele>288.57</ele>
        <time>2017-09-27T08:23:43Z</time>
      </trkpt>
      <trkpt lat="47.69909" lon="6.09641">
        <ele>288.19</ele>
        <time>2017-09-27T08:23:44Z</time>
      </trkpt>
      <trkpt lat="47.69906" lon="6.0965">
        <ele>287.78</ele>
        <time>2017-09-27T08:23:45Z</time>
      </trkpt>
      <trkpt lat="47.69903" lon="6.0966">
        <ele>287.33</ele>
        <time>2017-09-27T08:23:46Z</time>
      </trkpt>
      <trkpt lat="47.69899" lon="6.0967">
        <ele>286.84</ele>
        <time>2017-09-27T08:23:47Z</time>
      </trkpt>
      <trkpt lat="47.69894" lon="6.09679">
        <ele>286.33</ele>
        <time>2017-09-27T08:23:48Z</time>
      </trkpt>
      <trkpt lat="47.69888" lon="6.09686">
        <ele>285.81</ele>
        <time>2017-09-27T08:23:49Z</time>
      </trkpt>
      <trkpt lat="47.69882" lon="6.09693">
        <ele>285.38</ele>
        <time>2017-09-27T08:23:50Z</time>
      </trkpt>
      <trkpt lat="47.69877" lon="6.097">
        <ele>284.95</ele>
        <time>2017-09-27T08:23:51Z</time>
      </trkpt>
      <trkpt lat="47.69872" lon="6.09706">
        <ele>284.54</ele>
        <time>2017-09-27T08:23:52Z</time>
      </trkpt>
      <trkpt lat="47.69868" lon="6.09712">
        <ele>284.13</ele>
        <time>2017-09-27T08:23:53Z</time>
      </trkpt>
      <trkpt lat="47.69863" lon="6.09717">
        <ele>283.74</ele>
        <time>2017-09-27T08:23:54Z</time>
      </trkpt>
      <trkpt lat="47.69859" lon="6.09722">
        <ele>283.32</ele>
        <time>2017-09-27T08:23:55Z</time>
      </trkpt>
      <trkpt lat="47.69855" lon="6.09728">
        <ele>282.9</ele>
        <time>2017-09-27T08:23:56Z</time>
      </trkpt>
      <trkpt lat="47.6985" lon="6.09733">
        <ele>282.46</ele>
        <time>2017-09-27T08:23:57Z</time>
      </trkpt>
      <trkpt lat="47.69847" lon="6.09737">
        <ele>282.04</ele>
        <time>2017-09-27T08:23:58Z</time>
      </trkpt>
      <trkpt lat="47.6984" lon="6.09744">
        <ele>281.51</ele>
        <time>2017-09-27T08:24:00Z</time>
      </trkpt>
      <trkpt lat="47.69833" lon="6.0975">
        <ele>281.03</ele>
        <time>2017-09-27T08:24:02Z</time>
      </trkpt>
      <trkpt lat="47.69827" lon="6.09755">
        <ele>280.9</ele>
        <time>2017-09-27T08:24:04Z</time>
      </trkpt>
      <trkpt lat="47.69822" lon="6.09761">
        <ele>280.39</ele>
        <time>2017-09-27T08:24:06Z</time>
      </trkpt>
      <trkpt lat="47.69815" lon="6.09768">
        <ele>279.28</ele>
        <time>2017-09-27T08:24:08Z</time>
      </trkpt>
      <trkpt lat="47.69808" lon="6.09775">
        <ele>278.24</ele>
        <time>2017-09-27T08:24:10Z</time>
      </trkpt>
      <trkpt lat="47.69804" lon="6.09779">
        <ele>277.75</ele>
        <time>2017-09-27T08:24:11Z</time>
      </trkpt>
      <trkpt lat="47.698" lon="6.09783">
        <ele>277.3</ele>
        <time>2017-09-27T08:24:12Z</time>
      </trkpt>
      <trkpt lat="47.69796" lon="6.09787">
        <ele>276.86</ele>
        <time>2017-09-27T08:24:13Z</time>
      </trkpt>
      <trkpt lat="47.69791" lon="6.09792">
        <ele>276.41</ele>
        <time>2017-09-27T08:24:14Z</time>
      </trkpt>
      <trkpt lat="47.69786" lon="6.09797">
        <ele>275.98</ele>
        <time>2017-09-27T08:24:15Z</time>
      </trkpt>
      <trkpt lat="47.69782" lon="6.09801">
        <ele>275.57</ele>
        <time>2017-09-27T08:24:16Z</time>
      </trkpt>
      <trkpt lat="47.69778" lon="6.09805">
        <ele>275.18</ele>
        <time>2017-09-27T08:24:17Z</time>
      </trkpt>
      <trkpt lat="47.69774" lon="6.09811">
        <ele>274.78</ele>
        <time>2017-09-27T08:24:18Z</time>
      </trkpt>
      <trkpt lat="47.69771" lon="6.09816">
        <ele>274.38</ele>
        <time>2017-09-27T08:24:19Z</time>
      </trkpt>
      <trkpt lat="47.69767" lon="6.09822">
        <ele>273.99</ele>
        <time>2017-09-27T08:24:20Z</time>
      </trkpt>
      <trkpt lat="47.69763" lon="6.09827">
        <ele>273.65</ele>
        <time>2017-09-27T08:24:21Z</time>
      </trkpt>
      <trkpt lat="47.69759" lon="6.09835">
        <ele>273.34</ele>
        <time>2017-09-27T08:24:22Z</time>
      </trkpt>
      <trkpt lat="47.69755" lon="6.09843">
        <ele>273.02</ele>
        <time>2017-09-27T08:24:23Z</time>
      </trkpt>
      <trkpt lat="47.69751" lon="6.0985">
        <ele>272.68</ele>
        <time>2017-09-27T08:24:24Z</time>
      </trkpt>
      <trkpt lat="47.69747" lon="6.09857">
        <ele>272.33</ele>
        <time>2017-09-27T08:24:25Z</time>
      </trkpt>
      <trkpt lat="47.69743" lon="6.09865">
        <ele>271.98</ele>
        <time>2017-09-27T08:24:26Z</time>
      </trkpt>
      <trkpt lat="47.69739" lon="6.09872">
        <ele>271.66</ele>
        <time>2017-09-27T08:24:27Z</time>
      </trkpt>
      <trkpt lat="47.69735" lon="6.0988">
        <ele>271.32</ele>
        <time>2017-09-27T08:24:28Z</time>
      </trkpt>
      <trkpt lat="47.69731" lon="6.09887">
        <ele>270.98</ele>
        <time>2017-09-27T08:24:29Z</time>
      </trkpt>
      <trkpt lat="47.69727" lon="6.09895">
        <ele>270.66</ele>
        <time>2017-09-27T08:24:30Z</time>
      </trkpt>
      <trkpt lat="47.69723" lon="6.09902">
        <ele>270.32</ele>
        <time>2017-09-27T08:24:31Z</time>
      </trkpt>
      <trkpt lat="47.69718" lon="6.09909">
        <ele>270</ele>
        <time>2017-09-27T08:24:32Z</time>
      </trkpt>
      <trkpt lat="47.69714" lon="6.09917">
        <ele>269.69</ele>
        <time>2017-09-27T08:24:33Z</time>
      </trkpt>
      <trkpt lat="47.69708" lon="6.09924">
        <ele>269.37</ele>
        <time>2017-09-27T08:24:34Z</time>
      </trkpt>
      <trkpt lat="47.69703" lon="6.09932">
        <ele>269.04</ele>
        <time>2017-09-27T08:24:35Z</time>
      </trkpt>
      <trkpt lat="47.69697" lon="6.0994">
        <ele>268.73</ele>
        <time>2017-09-27T08:24:36Z</time>
      </trkpt>
      <trkpt lat="47.69692" lon="6.09947">
        <ele>268.43</ele>
        <time>2017-09-27T08:24:37Z</time>
      </trkpt>
      <trkpt lat="47.69685" lon="6.09953">
        <ele>268.1</ele>
        <time>2017-09-27T08:24:38Z</time>
      </trkpt>
      <trkpt lat="47.69678" lon="6.09958">
        <ele>267.73</ele>
        <time>2017-09-27T08:24:39Z</time>
      </trkpt>
      <trkpt lat="47.69671" lon="6.09965">
        <ele>267.34</ele>
        <time>2017-09-27T08:24:40Z</time>
      </trkpt>
      <trkpt lat="47.69665" lon="6.09972">
        <ele>267.02</ele>
        <time>2017-09-27T08:24:41Z</time>
      </trkpt>
      <trkpt lat="47.6966" lon="6.09979">
        <ele>266.68</ele>
        <time>2017-09-27T08:24:42Z</time>
      </trkpt>
      <trkpt lat="47.69654" lon="6.09987">
        <ele>266.22</ele>
        <time>2017-09-27T08:24:43Z</time>
      </trkpt>
      <trkpt lat="47.69648" lon="6.09993">
        <ele>265.77</ele>
        <time>2017-09-27T08:24:44Z</time>
      </trkpt>
      <trkpt lat="47.69641" lon="6.10001">
        <ele>265.38</ele>
        <time>2017-09-27T08:24:45Z</time>
      </trkpt>
      <trkpt lat="47.69636" lon="6.1001">
        <ele>265.02</ele>
        <time>2017-09-27T08:24:46Z</time>
      </trkpt>
      <trkpt lat="47.69631" lon="6.10018">
        <ele>264.57</ele>
        <time>2017-09-27T08:24:47Z</time>
      </trkpt>
      <trkpt lat="47.69626" lon="6.10026">
        <ele>264.1</ele>
        <time>2017-09-27T08:24:48Z</time>
      </trkpt>
      <trkpt lat="47.6962" lon="6.10035">
        <ele>263.62</ele>
        <time>2017-09-27T08:24:49Z</time>
      </trkpt>
      <trkpt lat="47.69614" lon="6.10046">
        <ele>263.18</ele>
        <time>2017-09-27T08:24:50Z</time>
      </trkpt>
      <trkpt lat="47.69608" lon="6.10058">
        <ele>262.82</ele>
        <time>2017-09-27T08:24:51Z</time>
      </trkpt>
      <trkpt lat="47.69603" lon="6.1007">
        <ele>262.59</ele>
        <time>2017-09-27T08:24:52Z</time>
      </trkpt>
      <trkpt lat="47.69597" lon="6.10081">
        <ele>262.56</ele>
        <time>2017-09-27T08:24:53Z</time>
      </trkpt>
      <trkpt lat="47.69592" lon="6.10093">
        <ele>262.52</ele>
        <time>2017-09-27T08:24:54Z</time>
      </trkpt>
      <trkpt lat="47.69588" lon="6.10105">
        <ele>262.46</ele>
        <time>2017-09-27T08:24:55Z</time>
      </trkpt>
      <trkpt lat="47.69586" lon="6.10117">
        <ele>262.43</ele>
        <time>2017-09-27T08:24:56Z</time>
      </trkpt>
      <trkpt lat="47.69585" lon="6.10129">
        <ele>262.42</ele>
        <time>2017-09-27T08:24:57Z</time>
      </trkpt>
      <trkpt lat="47.69584" lon="6.1014">
        <ele>262.42</ele>
        <time>2017-09-27T08:24:58Z</time>
      </trkpt>
      <trkpt lat="47.69582" lon="6.10151">
        <ele>262.36</ele>
        <time>2017-09-27T08:24:59Z</time>
      </trkpt>
      <trkpt lat="47.6958" lon="6.10162">
        <ele>262.29</ele>
        <time>2017-09-27T08:25:00Z</time>
      </trkpt>
      <trkpt lat="47.69578" lon="6.10173">
        <ele>262.21</ele>
        <time>2017-09-27T08:25:01Z</time>
      </trkpt>
      <trkpt lat="47.69575" lon="6.10182">
        <ele>262.07</ele>
        <time>2017-09-27T08:25:02Z</time>
      </trkpt>
      <trkpt lat="47.6957" lon="6.1019">
        <ele>261.88</ele>
        <time>2017-09-27T08:25:03Z</time>
      </trkpt>
      <trkpt lat="47.69567" lon="6.10199">
        <ele>261.68</ele>
        <time>2017-09-27T08:25:04Z</time>
      </trkpt>
      <trkpt lat="47.69564" lon="6.10208">
        <ele>261.45</ele>
        <time>2017-09-27T08:25:05Z</time>
      </trkpt>
      <trkpt lat="47.6956" lon="6.10217">
        <ele>261.3</ele>
        <time>2017-09-27T08:25:06Z</time>
      </trkpt>
      <trkpt lat="47.69558" lon="6.10226">
        <ele>261.14</ele>
        <time>2017-09-27T08:25:07Z</time>
      </trkpt>
      <trkpt lat="47.69555" lon="6.10234">
        <ele>261.05</ele>
        <time>2017-09-27T08:25:08Z</time>
      </trkpt>
      <trkpt lat="47.69553" lon="6.10241">
        <ele>261</ele>
        <time>2017-09-27T08:25:09Z</time>
      </trkpt>
      <trkpt lat="47.69552" lon="6.10249">
        <ele>260.95</ele>
        <time>2017-09-27T08:25:10Z</time>
      </trkpt>
      <trkpt lat="47.69551" lon="6.10256">
        <ele>260.89</ele>
        <time>2017-09-27T08:25:11Z</time>
      </trkpt>
      <trkpt lat="47.69549" lon="6.10262">
        <ele>260.83</ele>
        <time>2017-09-27T08:25:12Z</time>
      </trkpt>
      <trkpt lat="47.69547" lon="6.10275">
        <ele>260.65</ele>
        <time>2017-09-27T08:25:14Z</time>
      </trkpt>
      <trkpt lat="47.69544" lon="6.10287">
        <ele>260.5</ele>
        <time>2017-09-27T08:25:16Z</time>
      </trkpt>
      <trkpt lat="47.69541" lon="6.10299">
        <ele>260.3</ele>
        <time>2017-09-27T08:25:18Z</time>
      </trkpt>
      <trkpt lat="47.69538" lon="6.10309">
        <ele>260.12</ele>
        <time>2017-09-27T08:25:20Z</time>
      </trkpt>
      <trkpt lat="47.69534" lon="6.10317">
        <ele>260.07</ele>
        <time>2017-09-27T08:25:22Z</time>
      </trkpt>
      <trkpt lat="47.69531" lon="6.10325">
        <ele>260.01</ele>
        <time>2017-09-27T08:25:24Z</time>
      </trkpt>
      <trkpt lat="47.69528" lon="6.10332">
        <ele>259.94</ele>
        <time>2017-09-27T08:25:26Z</time>
      </trkpt>
      <trkpt lat="47.69524" lon="6.10338">
        <ele>259.86</ele>
        <time>2017-09-27T08:25:28Z</time>
      </trkpt>
      <trkpt lat="47.69519" lon="6.10345">
        <ele>259.76</ele>
        <time>2017-09-27T08:25:30Z</time>
      </trkpt>
      <trkpt lat="47.69513" lon="6.10352">
        <ele>259.65</ele>
        <time>2017-09-27T08:25:32Z</time>
      </trkpt>
      <trkpt lat="47.69508" lon="6.10359">
        <ele>259.51</ele>
        <time>2017-09-27T08:25:34Z</time>
      </trkpt>
      <trkpt lat="47.69503" lon="6.10364">
        <ele>259.37</ele>
        <time>2017-09-27T08:25:36Z</time>
      </trkpt>
      <trkpt lat="47.69499" lon="6.10369">
        <ele>259.21</ele>
        <time>2017-09-27T08:25:38Z</time>
      </trkpt>
      <trkpt lat="47.69494" lon="6.10374">
        <ele>259.04</ele>
        <time>2017-09-27T08:25:40Z</time>
      </trkpt>
      <trkpt lat="47.6949" lon="6.10379">
        <ele>258.74</ele>
        <time>2017-09-27T08:25:43Z</time>
      </trkpt>
      <trkpt lat="47.69486" lon="6.10382">
        <ele>258.41</ele>
        <time>2017-09-27T08:25:46Z</time>
      </trkpt>
      <trkpt lat="47.69482" lon="6.10386">
        <ele>258.08</ele>
        <time>2017-09-27T08:25:49Z</time>
      </trkpt>
      <trkpt lat="47.69477" lon="6.1039">
        <ele>257.74</ele>
        <time>2017-09-27T08:25:52Z</time>
      </trkpt>
      <trkpt lat="47.69472" lon="6.10392">
        <ele>257.4</ele>
        <time>2017-09-27T08:25:55Z</time>
      </trkpt>
      <trkpt lat="47.69467" lon="6.10395">
        <ele>256.94</ele>
        <time>2017-09-27T08:25:59Z</time>
      </trkpt>
      <trkpt lat="47.69462" lon="6.104">
        <ele>256.47</ele>
        <time>2017-09-27T08:26:03Z</time>
      </trkpt>
      <trkpt lat="47.69458" lon="6.10404">
        <ele>256.01</ele>
        <time>2017-09-27T08:26:07Z</time>
      </trkpt>
      <trkpt lat="47.69454" lon="6.10407">
        <ele>255.68</ele>
        <time>2017-09-27T08:26:10Z</time>
      </trkpt>
      <trkpt lat="47.6945" lon="6.1041">
        <ele>255.38</ele>
        <time>2017-09-27T08:26:13Z</time>
      </trkpt>
      <trkpt lat="47.69445" lon="6.10413">
        <ele>255.01</ele>
        <time>2017-09-27T08:26:17Z</time>
      </trkpt>
      <trkpt lat="47.69442" lon="6.10417">
        <ele>254.67</ele>
        <time>2017-09-27T08:26:21Z</time>
      </trkpt>
      <trkpt lat="47.69437" lon="6.10422">
        <ele>254.37</ele>
        <time>2017-09-27T08:26:25Z</time>
      </trkpt>
      <trkpt lat="47.69433" lon="6.10427">
        <ele>254.1</ele>
        <time>2017-09-27T08:26:29Z</time>
      </trkpt>
      <trkpt lat="47.69429" lon="6.10432">
        <ele>253.93</ele>
        <time>2017-09-27T08:26:32Z</time>
      </trkpt>
      <trkpt lat="47.69425" lon="6.10438">
        <ele>253.78</ele>
        <time>2017-09-27T08:26:35Z</time>
      </trkpt>
      <trkpt lat="47.69421" lon="6.10442">
        <ele>253.65</ele>
        <time>2017-09-27T08:26:38Z</time>
      </trkpt>
      <trkpt lat="47.69417" lon="6.10446">
        <ele>253.56</ele>
        <time>2017-09-27T08:26:41Z</time>
      </trkpt>
      <trkpt lat="47.69412" lon="6.1045">
        <ele>253.49</ele>
        <time>2017-09-27T08:26:44Z</time>
      </trkpt>
      <trkpt lat="47.69408" lon="6.10454">
        <ele>253.43</ele>
        <time>2017-09-27T08:26:47Z</time>
      </trkpt>
      <trkpt lat="47.69403" lon="6.10457">
        <ele>253.37</ele>
        <time>2017-09-27T08:26:50Z</time>
      </trkpt>
      <trkpt lat="47.69398" lon="6.10459">
        <ele>253.31</ele>
        <time>2017-09-27T08:26:53Z</time>
      </trkpt>
      <trkpt lat="47.69393" lon="6.1046">
        <ele>253.25</ele>
        <time>2017-09-27T08:26:56Z</time>
      </trkpt>
      <trkpt lat="47.69386" lon="6.10463">
        <ele>253.17</ele>
        <time>2017-09-27T08:26:59Z</time>
      </trkpt>
      <trkpt lat="47.6938" lon="6.10464">
        <ele>253.12</ele>
        <time>2017-09-27T08:27:01Z</time>
      </trkpt>
      <trkpt lat="47.69374" lon="6.10468">
        <ele>253.05</ele>
        <time>2017-09-27T08:27:04Z</time>
      </trkpt>
      <trkpt lat="47.6937" lon="6.10472">
        <ele>253.02</ele>
        <time>2017-09-27T08:27:06Z</time>
      </trkpt>
      <trkpt lat="47.69366" lon="6.10476">
        <ele>253</ele>
        <time>2017-09-27T08:27:08Z</time>
      </trkpt>
      <trkpt lat="47.69363" lon="6.1048">
        <ele>252.97</ele>
        <time>2017-09-27T08:27:10Z</time>
      </trkpt>
      <trkpt lat="47.69358" lon="6.10487">
        <ele>252.96</ele>
        <time>2017-09-27T08:27:13Z</time>
      </trkpt>
      <trkpt lat="47.69353" lon="6.10494">
        <ele>252.95</ele>
        <time>2017-09-27T08:27:16Z</time>
      </trkpt>
      <trkpt lat="47.69349" lon="6.10502">
        <ele>252.96</ele>
        <time>2017-09-27T08:27:19Z</time>
      </trkpt>
      <trkpt lat="47.69346" lon="6.10508">
        <ele>252.98</ele>
        <time>2017-09-27T08:27:22Z</time>
      </trkpt>
      <trkpt lat="47.69344" lon="6.10514">
        <ele>253.01</ele>
        <time>2017-09-27T08:27:24Z</time>
      </trkpt>
      <trkpt lat="47.6934" lon="6.10521">
        <ele>253.07</ele>
        <time>2017-09-27T08:27:27Z</time>
      </trkpt>
      <trkpt lat="47.69337" lon="6.10526">
        <ele>253.12</ele>
        <time>2017-09-27T08:27:29Z</time>
      </trkpt>
      <trkpt lat="47.69334" lon="6.10533">
        <ele>253.21</ele>
        <time>2017-09-27T08:27:32Z</time>
      </trkpt>
      <trkpt lat="47.6933" lon="6.1054">
        <ele>253.3</ele>
        <time>2017-09-27T08:27:35Z</time>
      </trkpt>
      <trkpt lat="47.69327" lon="6.10546">
        <ele>253.39</ele>
        <time>2017-09-27T08:27:38Z</time>
      </trkpt>
      <trkpt lat="47.69323" lon="6.10551">
        <ele>253.53</ele>
        <time>2017-09-27T08:27:42Z</time>
      </trkpt>
      <trkpt lat="47.69318" lon="6.10552">
        <ele>254.59</ele>
        <time>2017-09-27T08:29:07Z</time>
      </trkpt>
      <trkpt lat="47.69314" lon="6.10556">
        <ele>254.93</ele>
        <time>2017-09-27T08:29:10Z</time>
      </trkpt>
      <trkpt lat="47.6931" lon="6.10561">
        <ele>255.15</ele>
        <time>2017-09-27T08:29:12Z</time>
      </trkpt>
      <trkpt lat="47.69307" lon="6.10568">
        <ele>255.37</ele>
        <time>2017-09-27T08:29:14Z</time>
      </trkpt>
      <trkpt lat="47.69307" lon="6.10577">
        <ele>255.7</ele>
        <time>2017-09-27T08:29:17Z</time>
      </trkpt>
      <trkpt lat="47.69305" lon="6.10585">
        <ele>256.01</ele>
        <time>2017-09-27T08:29:20Z</time>
      </trkpt>
      <trkpt lat="47.69303" lon="6.10592">
        <ele>256.31</ele>
        <time>2017-09-27T08:29:23Z</time>
      </trkpt>
      <trkpt lat="47.69301" lon="6.10601">
        <ele>256.59</ele>
        <time>2017-09-27T08:29:26Z</time>
      </trkpt>
      <trkpt lat="47.69299" lon="6.1061">
        <ele>256.86</ele>
        <time>2017-09-27T08:29:29Z</time>
      </trkpt>
      <trkpt lat="47.69298" lon="6.10618">
        <ele>257.03</ele>
        <time>2017-09-27T08:29:31Z</time>
      </trkpt>
      <trkpt lat="47.69296" lon="6.10626">
        <ele>257.28</ele>
        <time>2017-09-27T08:29:34Z</time>
      </trkpt>
      <trkpt lat="47.69293" lon="6.10635">
        <ele>257.51</ele>
        <time>2017-09-27T08:29:37Z</time>
      </trkpt>
      <trkpt lat="47.69291" lon="6.10643">
        <ele>257.73</ele>
        <time>2017-09-27T08:29:40Z</time>
      </trkpt>
      <trkpt lat="47.6929" lon="6.1065">
        <ele>257.94</ele>
        <time>2017-09-27T08:29:43Z</time>
      </trkpt>
      <trkpt lat="47.69288" lon="6.10659">
        <ele>258.21</ele>
        <time>2017-09-27T08:29:47Z</time>
      </trkpt>
      <trkpt lat="47.69285" lon="6.10665">
        <ele>258.42</ele>
        <time>2017-09-27T08:29:50Z</time>
      </trkpt>
      <trkpt lat="47.69284" lon="6.10671">
        <ele>258.64</ele>
        <time>2017-09-27T08:29:53Z</time>
      </trkpt>
      <trkpt lat="47.69281" lon="6.10678">
        <ele>258.87</ele>
        <time>2017-09-27T08:29:56Z</time>
      </trkpt>
      <trkpt lat="47.69279" lon="6.10685">
        <ele>259.19</ele>
        <time>2017-09-27T08:30:00Z</time>
      </trkpt>
      <trkpt lat="47.69275" lon="6.1069">
        <ele>259.44</ele>
        <time>2017-09-27T08:30:03Z</time>
      </trkpt>
      <trkpt lat="47.69272" lon="6.10697">
        <ele>259.68</ele>
        <time>2017-09-27T08:30:06Z</time>
      </trkpt>
      <trkpt lat="47.69271" lon="6.10704">
        <ele>260.02</ele>
        <time>2017-09-27T08:30:10Z</time>
      </trkpt>
      <trkpt lat="47.6927" lon="6.10711">
        <ele>260.28</ele>
        <time>2017-09-27T08:30:13Z</time>
      </trkpt>
      <trkpt lat="47.69267" lon="6.10719">
        <ele>260.53</ele>
        <time>2017-09-27T08:30:16Z</time>
      </trkpt>
      <trkpt lat="47.69264" lon="6.10725">
        <ele>260.77</ele>
        <time>2017-09-27T08:30:19Z</time>
      </trkpt>
      <trkpt lat="47.69261" lon="6.10732">
        <ele>261.01</ele>
        <time>2017-09-27T08:30:22Z</time>
      </trkpt>
      <trkpt lat="47.69259" lon="6.1074">
        <ele>261.24</ele>
        <time>2017-09-27T08:30:25Z</time>
      </trkpt>
      <trkpt lat="47.69258" lon="6.10747">
        <ele>261.55</ele>
        <time>2017-09-27T08:30:29Z</time>
      </trkpt>
      <trkpt lat="47.69258" lon="6.10756">
        <ele>261.84</ele>
        <time>2017-09-27T08:30:33Z</time>
      </trkpt>
      <trkpt lat="47.69256" lon="6.10765">
        <ele>262.07</ele>
        <time>2017-09-27T08:30:36Z</time>
      </trkpt>
      <trkpt lat="47.69254" lon="6.10771">
        <ele>262.3</ele>
        <time>2017-09-27T08:30:39Z</time>
      </trkpt>
      <trkpt lat="47.69252" lon="6.10777">
        <ele>262.53</ele>
        <time>2017-09-27T08:30:42Z</time>
      </trkpt>
      <trkpt lat="47.6925" lon="6.10783">
        <ele>262.75</ele>
        <time>2017-09-27T08:30:45Z</time>
      </trkpt>
      <trkpt lat="47.69247" lon="6.10789">
        <ele>262.96</ele>
        <time>2017-09-27T08:30:48Z</time>
      </trkpt>
      <trkpt lat="47.69242" lon="6.10793">
        <ele>263.18</ele>
        <time>2017-09-27T08:30:51Z</time>
      </trkpt>
      <trkpt lat="47.69237" lon="6.10796">
        <ele>263.31</ele>
        <time>2017-09-27T08:30:53Z</time>
      </trkpt>
      <trkpt lat="47.69231" lon="6.108">
        <ele>263.45</ele>
        <time>2017-09-27T08:30:55Z</time>
      </trkpt>
      <trkpt lat="47.69225" lon="6.10806">
        <ele>263.58</ele>
        <time>2017-09-27T08:30:57Z</time>
      </trkpt>
      <trkpt lat="47.69217" lon="6.10806">
        <ele>264.6</ele>
        <time>2017-09-27T08:30:59Z</time>
      </trkpt>
      <trkpt lat="47.69208" lon="6.10807">
        <ele>265.46</ele>
        <time>2017-09-27T08:31:01Z</time>
      </trkpt>
      <trkpt lat="47.692" lon="6.10809">
        <ele>266.06</ele>
        <time>2017-09-27T08:31:03Z</time>
      </trkpt>
      <trkpt lat="47.69191" lon="6.10812">
        <ele>266.47</ele>
        <time>2017-09-27T08:31:05Z</time>
      </trkpt>
      <trkpt lat="47.69185" lon="6.10812">
        <ele>266.63</ele>
        <time>2017-09-27T08:31:06Z</time>
      </trkpt>
      <trkpt lat="47.6918" lon="6.10813">
        <ele>266.76</ele>
        <time>2017-09-27T08:31:07Z</time>
      </trkpt>
      <trkpt lat="47.69175" lon="6.10814">
        <ele>266.87</ele>
        <time>2017-09-27T08:31:08Z</time>
      </trkpt>
      <trkpt lat="47.6917" lon="6.10815">
        <ele>266.96</ele>
        <time>2017-09-27T08:31:09Z</time>
      </trkpt>
      <trkpt lat="47.69162" lon="6.10817">
        <ele>267.08</ele>
        <time>2017-09-27T08:31:11Z</time>
      </trkpt>
      <trkpt lat="47.69154" lon="6.10818">
        <ele>267.11</ele>
        <time>2017-09-27T08:31:13Z</time>
      </trkpt>
      <trkpt lat="47.69148" lon="6.10818">
        <ele>267.12</ele>
        <time>2017-09-27T08:31:15Z</time>
      </trkpt>
      <trkpt lat="47.69143" lon="6.10819">
        <ele>267.13</ele>
        <time>2017-09-27T08:31:17Z</time>
      </trkpt>
      <trkpt lat="47.69137" lon="6.10819">
        <ele>267.15</ele>
        <time>2017-09-27T08:31:19Z</time>
      </trkpt>
      <trkpt lat="47.69132" lon="6.1082">
        <ele>267.17</ele>
        <time>2017-09-27T08:31:21Z</time>
      </trkpt>
      <trkpt lat="47.69126" lon="6.1082">
        <ele>267.19</ele>
        <time>2017-09-27T08:31:23Z</time>
      </trkpt>
      <trkpt lat="47.69121" lon="6.10821">
        <ele>267.22</ele>
        <time>2017-09-27T08:31:25Z</time>
      </trkpt>
      <trkpt lat="47.69116" lon="6.10821">
        <ele>267.25</ele>
        <time>2017-09-27T08:31:27Z</time>
      </trkpt>
      <trkpt lat="47.69111" lon="6.1082">
        <ele>267.28</ele>
        <time>2017-09-27T08:31:29Z</time>
      </trkpt>
      <trkpt lat="47.69105" lon="6.10821">
        <ele>267.32</ele>
        <time>2017-09-27T08:31:31Z</time>
      </trkpt>
      <trkpt lat="47.69099" lon="6.10821">
        <ele>267.37</ele>
        <time>2017-09-27T08:31:33Z</time>
      </trkpt>
      <trkpt lat="47.69094" lon="6.1082">
        <ele>267.41</ele>
        <time>2017-09-27T08:31:35Z</time>
      </trkpt>
      <trkpt lat="47.69089" lon="6.10818">
        <ele>267.46</ele>
        <time>2017-09-27T08:31:37Z</time>
      </trkpt>
      <trkpt lat="47.69083" lon="6.10816">
        <ele>267.51</ele>
        <time>2017-09-27T08:31:39Z</time>
      </trkpt>
      <trkpt lat="47.69076" lon="6.10813">
        <ele>267.74</ele>
        <time>2017-09-27T08:31:41Z</time>
      </trkpt>
      <trkpt lat="47.69068" lon="6.10808">
        <ele>268.17</ele>
        <time>2017-09-27T08:31:43Z</time>
      </trkpt>
      <trkpt lat="47.69062" lon="6.10804">
        <ele>268.28</ele>
        <time>2017-09-27T08:31:45Z</time>
      </trkpt>
      <trkpt lat="47.69056" lon="6.10801">
        <ele>268.33</ele>
        <time>2017-09-27T08:31:47Z</time>
      </trkpt>
      <trkpt lat="47.69051" lon="6.10799">
        <ele>268.37</ele>
        <time>2017-09-27T08:31:49Z</time>
      </trkpt>
      <trkpt lat="47.69046" lon="6.10796">
        <ele>268.42</ele>
        <time>2017-09-27T08:31:51Z</time>
      </trkpt>
      <trkpt lat="47.69041" lon="6.10793">
        <ele>268.47</ele>
        <time>2017-09-27T08:31:53Z</time>
      </trkpt>
      <trkpt lat="47.69036" lon="6.1079">
        <ele>268.52</ele>
        <time>2017-09-27T08:31:55Z</time>
      </trkpt>
      <trkpt lat="47.69032" lon="6.10788">
        <ele>268.57</ele>
        <time>2017-09-27T08:31:57Z</time>
      </trkpt>
      <trkpt lat="47.69027" lon="6.10786">
        <ele>268.63</ele>
        <time>2017-09-27T08:31:59Z</time>
      </trkpt>
      <trkpt lat="47.69021" lon="6.10784">
        <ele>268.73</ele>
        <time>2017-09-27T08:32:02Z</time>
      </trkpt>
      <trkpt lat="47.69017" lon="6.10781">
        <ele>268.8</ele>
        <time>2017-09-27T08:32:04Z</time>
      </trkpt>
      <trkpt lat="47.69012" lon="6.10778">
        <ele>268.87</ele>
        <time>2017-09-27T08:32:06Z</time>
      </trkpt>
      <trkpt lat="47.69008" lon="6.10776">
        <ele>268.95</ele>
        <time>2017-09-27T08:32:08Z</time>
      </trkpt>
      <trkpt lat="47.69002" lon="6.10775">
        <ele>269.03</ele>
        <time>2017-09-27T08:32:10Z</time>
      </trkpt>
      <trkpt lat="47.68996" lon="6.10774">
        <ele>269.11</ele>
        <time>2017-09-27T08:32:12Z</time>
      </trkpt>
      <trkpt lat="47.68992" lon="6.10773">
        <ele>269.19</ele>
        <time>2017-09-27T08:32:14Z</time>
      </trkpt>
      <trkpt lat="47.68987" lon="6.10772">
        <ele>269.28</ele>
        <time>2017-09-27T08:32:16Z</time>
      </trkpt>
      <trkpt lat="47.68982" lon="6.10771">
        <ele>269.37</ele>
        <time>2017-09-27T08:32:18Z</time>
      </trkpt>
      <trkpt lat="47.68978" lon="6.10768">
        <ele>269.46</ele>
        <time>2017-09-27T08:32:20Z</time>
      </trkpt>
      <trkpt lat="47.68973" lon="6.10763">
        <ele>269.55</ele>
        <time>2017-09-27T08:32:22Z</time>
      </trkpt>
      <trkpt lat="47.68969" lon="6.10758">
        <ele>269.64</ele>
        <time>2017-09-27T08:32:24Z</time>
      </trkpt>
      <trkpt lat="47.68964" lon="6.10752">
        <ele>269.74</ele>
        <time>2017-09-27T08:32:26Z</time>
      </trkpt>
      <trkpt lat="47.68959" lon="6.10747">
        <ele>269.83</ele>
        <time>2017-09-27T08:32:28Z</time>
      </trkpt>
      <trkpt lat="47.68954" lon="6.10741">
        <ele>269.93</ele>
        <time>2017-09-27T08:32:30Z</time>
      </trkpt>
      <trkpt lat="47.68947" lon="6.10739">
        <ele>270.02</ele>
        <time>2017-09-27T08:32:32Z</time>
      </trkpt>
      <trkpt lat="47.68941" lon="6.10736">
        <ele>270.12</ele>
        <time>2017-09-27T08:32:34Z</time>
      </trkpt>
      <trkpt lat="47.68939" lon="6.10729">
        <ele>270.21</ele>
        <time>2017-09-27T08:32:36Z</time>
      </trkpt>
      <trkpt lat="47.68936" lon="6.10722">
        <ele>270.31</ele>
        <time>2017-09-27T08:32:38Z</time>
      </trkpt>
      <trkpt lat="47.6893" lon="6.10721">
        <ele>270.47</ele>
        <time>2017-09-27T08:32:41Z</time>
      </trkpt>
      <trkpt lat="47.68925" lon="6.10719">
        <ele>270.62</ele>
        <time>2017-09-27T08:32:44Z</time>
      </trkpt>
      <trkpt lat="47.68921" lon="6.10716">
        <ele>271.07</ele>
        <time>2017-09-27T08:33:03Z</time>
      </trkpt>
      <trkpt lat="47.68926" lon="6.10722">
        <ele>271.58</ele>
        <time>2017-09-27T08:33:15Z</time>
      </trkpt>
      <trkpt lat="47.6893" lon="6.10726">
        <ele>271.71</ele>
        <time>2017-09-27T08:33:17Z</time>
      </trkpt>
      <trkpt lat="47.68934" lon="6.10731">
        <ele>271.84</ele>
        <time>2017-09-27T08:33:19Z</time>
      </trkpt>
      <trkpt lat="47.68938" lon="6.10735">
        <ele>271.97</ele>
        <time>2017-09-27T08:33:21Z</time>
      </trkpt>
      <trkpt lat="47.68943" lon="6.1074">
        <ele>272.16</ele>
        <time>2017-09-27T08:33:24Z</time>
      </trkpt>
      <trkpt lat="47.68947" lon="6.10742">
        <ele>272.42</ele>
        <time>2017-09-27T08:33:28Z</time>
      </trkpt>
      <trkpt lat="47.68944" lon="6.10737">
        <ele>273.04</ele>
        <time>2017-09-27T08:33:42Z</time>
      </trkpt>
      <trkpt lat="47.68939" lon="6.10732">
        <ele>273.29</ele>
        <time>2017-09-27T08:33:46Z</time>
      </trkpt>
      <trkpt lat="47.68934" lon="6.10729">
        <ele>273.46</ele>
        <time>2017-09-27T08:33:49Z</time>
      </trkpt>
      <trkpt lat="47.68931" lon="6.10724">
        <ele>273.64</ele>
        <time>2017-09-27T08:33:52Z</time>
      </trkpt>
      <trkpt lat="47.68926" lon="6.10719">
        <ele>273.81</ele>
        <time>2017-09-27T08:33:55Z</time>
      </trkpt>
      <trkpt lat="47.6892" lon="6.10714">
        <ele>273.98</ele>
        <time>2017-09-27T08:33:58Z</time>
      </trkpt>
      <trkpt lat="47.68917" lon="6.1071">
        <ele>274.1</ele>
        <time>2017-09-27T08:34:00Z</time>
      </trkpt>
      <trkpt lat="47.68912" lon="6.10704">
        <ele>274.21</ele>
        <time>2017-09-27T08:34:02Z</time>
      </trkpt>
      <trkpt lat="47.68908" lon="6.10698">
        <ele>274.31</ele>
        <time>2017-09-27T08:34:04Z</time>
      </trkpt>
      <trkpt lat="47.68902" lon="6.1069">
        <ele>274.42</ele>
        <time>2017-09-27T08:34:06Z</time>
      </trkpt>
      <trkpt lat="47.68897" lon="6.10683">
        <ele>275.19</ele>
        <time>2017-09-27T08:34:08Z</time>
      </trkpt>
      <trkpt lat="47.68891" lon="6.10673">
        <ele>275.85</ele>
        <time>2017-09-27T08:34:10Z</time>
      </trkpt>
      <trkpt lat="47.68884" lon="6.10664">
        <ele>276.31</ele>
        <time>2017-09-27T08:34:12Z</time>
      </trkpt>
      <trkpt lat="47.6888" lon="6.10658">
        <ele>276.41</ele>
        <time>2017-09-27T08:34:14Z</time>
      </trkpt>
      <trkpt lat="47.68876" lon="6.10653">
        <ele>276.45</ele>
        <time>2017-09-27T08:34:16Z</time>
      </trkpt>
      <trkpt lat="47.68872" lon="6.10647">
        <ele>276.48</ele>
        <time>2017-09-27T08:34:18Z</time>
      </trkpt>
      <trkpt lat="47.68869" lon="6.1064">
        <ele>276.51</ele>
        <time>2017-09-27T08:34:20Z</time>
      </trkpt>
      <trkpt lat="47.68866" lon="6.10633">
        <ele>276.54</ele>
        <time>2017-09-27T08:34:22Z</time>
      </trkpt>
      <trkpt lat="47.68863" lon="6.10626">
        <ele>276.57</ele>
        <time>2017-09-27T08:34:24Z</time>
      </trkpt>
      <trkpt lat="47.68859" lon="6.10618">
        <ele>276.61</ele>
        <time>2017-09-27T08:34:26Z</time>
      </trkpt>
      <trkpt lat="47.68855" lon="6.10612">
        <ele>276.64</ele>
        <time>2017-09-27T08:34:28Z</time>
      </trkpt>
      <trkpt lat="47.68851" lon="6.10608">
        <ele>276.67</ele>
        <time>2017-09-27T08:34:30Z</time>
      </trkpt>
      <trkpt lat="47.68847" lon="6.10602">
        <ele>276.7</ele>
        <time>2017-09-27T08:34:32Z</time>
      </trkpt>
      <trkpt lat="47.68843" lon="6.10595">
        <ele>276.82</ele>
        <time>2017-09-27T08:34:34Z</time>
      </trkpt>
      <trkpt lat="47.6884" lon="6.1059">
        <ele>276.93</ele>
        <time>2017-09-27T08:34:35Z</time>
      </trkpt>
      <trkpt lat="47.68836" lon="6.10586">
        <ele>277.02</ele>
        <time>2017-09-27T08:34:36Z</time>
      </trkpt>
      <trkpt lat="47.68829" lon="6.10578">
        <ele>277.14</ele>
        <time>2017-09-27T08:34:38Z</time>
      </trkpt>
      <trkpt lat="47.68823" lon="6.10569">
        <ele>277.19</ele>
        <time>2017-09-27T08:34:40Z</time>
      </trkpt>
      <trkpt lat="47.68817" lon="6.10559">
        <ele>277.22</ele>
        <time>2017-09-27T08:34:42Z</time>
      </trkpt>
      <trkpt lat="47.68813" lon="6.10554">
        <ele>277.23</ele>
        <time>2017-09-27T08:34:43Z</time>
      </trkpt>
      <trkpt lat="47.68809" lon="6.10548">
        <ele>277.24</ele>
        <time>2017-09-27T08:34:44Z</time>
      </trkpt>
      <trkpt lat="47.68806" lon="6.10544">
        <ele>277.26</ele>
        <time>2017-09-27T08:34:45Z</time>
      </trkpt>
      <trkpt lat="47.68802" lon="6.10538">
        <ele>277.27</ele>
        <time>2017-09-27T08:34:46Z</time>
      </trkpt>
      <trkpt lat="47.68798" lon="6.10533">
        <ele>277.27</ele>
        <time>2017-09-27T08:34:47Z</time>
      </trkpt>
      <trkpt lat="47.68794" lon="6.10527">
        <ele>277.27</ele>
        <time>2017-09-27T08:34:48Z</time>
      </trkpt>
      <trkpt lat="47.68791" lon="6.10521">
        <ele>277.27</ele>
        <time>2017-09-27T08:34:49Z</time>
      </trkpt>
      <trkpt lat="47.68787" lon="6.10516">
        <ele>277.26</ele>
        <time>2017-09-27T08:34:50Z</time>
      </trkpt>
      <trkpt lat="47.68783" lon="6.1051">
        <ele>277.26</ele>
        <time>2017-09-27T08:34:51Z</time>
      </trkpt>
      <trkpt lat="47.68778" lon="6.10503">
        <ele>277.24</ele>
        <time>2017-09-27T08:34:52Z</time>
      </trkpt>
      <trkpt lat="47.68773" lon="6.10497">
        <ele>277.22</ele>
        <time>2017-09-27T08:34:53Z</time>
      </trkpt>
      <trkpt lat="47.68768" lon="6.10491">
        <ele>277.19</ele>
        <time>2017-09-27T08:34:54Z</time>
      </trkpt>
      <trkpt lat="47.68763" lon="6.10484">
        <ele>277.15</ele>
        <time>2017-09-27T08:34:55Z</time>
      </trkpt>
      <trkpt lat="47.68757" lon="6.10478">
        <ele>277.11</ele>
        <time>2017-09-27T08:34:56Z</time>
      </trkpt>
      <trkpt lat="47.68752" lon="6.10471">
        <ele>277.08</ele>
        <time>2017-09-27T08:34:57Z</time>
      </trkpt>
      <trkpt lat="47.68746" lon="6.10465">
        <ele>277.04</ele>
        <time>2017-09-27T08:34:58Z</time>
      </trkpt>
      <trkpt lat="47.68741" lon="6.10459">
        <ele>276.99</ele>
        <time>2017-09-27T08:34:59Z</time>
      </trkpt>
      <trkpt lat="47.68736" lon="6.10452">
        <ele>276.92</ele>
        <time>2017-09-27T08:35:00Z</time>
      </trkpt>
      <trkpt lat="47.68731" lon="6.10446">
        <ele>276.85</ele>
        <time>2017-09-27T08:35:01Z</time>
      </trkpt>
      <trkpt lat="47.68725" lon="6.1044">
        <ele>276.77</ele>
        <time>2017-09-27T08:35:02Z</time>
      </trkpt>
      <trkpt lat="47.6872" lon="6.10434">
        <ele>276.67</ele>
        <time>2017-09-27T08:35:03Z</time>
      </trkpt>
      <trkpt lat="47.68714" lon="6.10427">
        <ele>276.58</ele>
        <time>2017-09-27T08:35:04Z</time>
      </trkpt>
      <trkpt lat="47.68709" lon="6.10421">
        <ele>276.5</ele>
        <time>2017-09-27T08:35:05Z</time>
      </trkpt>
      <trkpt lat="47.68704" lon="6.10414">
        <ele>276.41</ele>
        <time>2017-09-27T08:35:06Z</time>
      </trkpt>
      <trkpt lat="47.68698" lon="6.10407">
        <ele>276.29</ele>
        <time>2017-09-27T08:35:07Z</time>
      </trkpt>
      <trkpt lat="47.68694" lon="6.10399">
        <ele>276.15</ele>
        <time>2017-09-27T08:35:08Z</time>
      </trkpt>
      <trkpt lat="47.68689" lon="6.1039">
        <ele>276</ele>
        <time>2017-09-27T08:35:09Z</time>
      </trkpt>
      <trkpt lat="47.68685" lon="6.10382">
        <ele>275.83</ele>
        <time>2017-09-27T08:35:10Z</time>
      </trkpt>
      <trkpt lat="47.68681" lon="6.10373">
        <ele>275.65</ele>
        <time>2017-09-27T08:35:11Z</time>
      </trkpt>
      <trkpt lat="47.68676" lon="6.10363">
        <ele>275.46</ele>
        <time>2017-09-27T08:35:12Z</time>
      </trkpt>
      <trkpt lat="47.68672" lon="6.10352">
        <ele>275.25</ele>
        <time>2017-09-27T08:35:13Z</time>
      </trkpt>
      <trkpt lat="47.68667" lon="6.10342">
        <ele>275.02</ele>
        <time>2017-09-27T08:35:14Z</time>
      </trkpt>
      <trkpt lat="47.68663" lon="6.10331">
        <ele>274.77</ele>
        <time>2017-09-27T08:35:15Z</time>
      </trkpt>
      <trkpt lat="47.68658" lon="6.1032">
        <ele>274.5</ele>
        <time>2017-09-27T08:35:16Z</time>
      </trkpt>
      <trkpt lat="47.68654" lon="6.10309">
        <ele>274.21</ele>
        <time>2017-09-27T08:35:17Z</time>
      </trkpt>
      <trkpt lat="47.68649" lon="6.10298">
        <ele>273.97</ele>
        <time>2017-09-27T08:35:18Z</time>
      </trkpt>
      <trkpt lat="47.68643" lon="6.10287">
        <ele>273.71</ele>
        <time>2017-09-27T08:35:19Z</time>
      </trkpt>
      <trkpt lat="47.68638" lon="6.10276">
        <ele>273.42</ele>
        <time>2017-09-27T08:35:20Z</time>
      </trkpt>
      <trkpt lat="47.68633" lon="6.10265">
        <ele>273.1</ele>
        <time>2017-09-27T08:35:21Z</time>
      </trkpt>
      <trkpt lat="47.68628" lon="6.10254">
        <ele>272.9</ele>
        <time>2017-09-27T08:35:22Z</time>
      </trkpt>
      <trkpt lat="47.68623" lon="6.10243">
        <ele>272.72</ele>
        <time>2017-09-27T08:35:23Z</time>
      </trkpt>
      <trkpt lat="47.68618" lon="6.10231">
        <ele>272.51</ele>
        <time>2017-09-27T08:35:24Z</time>
      </trkpt>
      <trkpt lat="47.68613" lon="6.1022">
        <ele>272.28</ele>
        <time>2017-09-27T08:35:25Z</time>
      </trkpt>
      <trkpt lat="47.68608" lon="6.1021">
        <ele>272.07</ele>
        <time>2017-09-27T08:35:26Z</time>
      </trkpt>
      <trkpt lat="47.68604" lon="6.10198">
        <ele>271.85</ele>
        <time>2017-09-27T08:35:27Z</time>
      </trkpt>
      <trkpt lat="47.68599" lon="6.10188">
        <ele>271.62</ele>
        <time>2017-09-27T08:35:28Z</time>
      </trkpt>
      <trkpt lat="47.68594" lon="6.10178">
        <ele>271.39</ele>
        <time>2017-09-27T08:35:29Z</time>
      </trkpt>
      <trkpt lat="47.6859" lon="6.10168">
        <ele>271.16</ele>
        <time>2017-09-27T08:35:30Z</time>
      </trkpt>
      <trkpt lat="47.68585" lon="6.10159">
        <ele>270.91</ele>
        <time>2017-09-27T08:35:31Z</time>
      </trkpt>
      <trkpt lat="47.68579" lon="6.1015">
        <ele>270.67</ele>
        <time>2017-09-27T08:35:32Z</time>
      </trkpt>
      <trkpt lat="47.68574" lon="6.10142">
        <ele>270.49</ele>
        <time>2017-09-27T08:35:33Z</time>
      </trkpt>
      <trkpt lat="47.68568" lon="6.10136">
        <ele>270.31</ele>
        <time>2017-09-27T08:35:34Z</time>
      </trkpt>
      <trkpt lat="47.68562" lon="6.10128">
        <ele>270.12</ele>
        <time>2017-09-27T08:35:35Z</time>
      </trkpt>
      <trkpt lat="47.68556" lon="6.10123">
        <ele>269.93</ele>
        <time>2017-09-27T08:35:36Z</time>
      </trkpt>
      <trkpt lat="47.6855" lon="6.10119">
        <ele>269.72</ele>
        <time>2017-09-27T08:35:37Z</time>
      </trkpt>
      <trkpt lat="47.68544" lon="6.10115">
        <ele>269.5</ele>
        <time>2017-09-27T08:35:38Z</time>
      </trkpt>
      <trkpt lat="47.68538" lon="6.10111">
        <ele>269.32</ele>
        <time>2017-09-27T08:35:39Z</time>
      </trkpt>
      <trkpt lat="47.68533" lon="6.10108">
        <ele>269.15</ele>
        <time>2017-09-27T08:35:40Z</time>
      </trkpt>
      <trkpt lat="47.68528" lon="6.10104">
        <ele>268.99</ele>
        <time>2017-09-27T08:35:41Z</time>
      </trkpt>
      <trkpt lat="47.68523" lon="6.10101">
        <ele>268.83</ele>
        <time>2017-09-27T08:35:42Z</time>
      </trkpt>
      <trkpt lat="47.68519" lon="6.10098">
        <ele>268.68</ele>
        <time>2017-09-27T08:35:43Z</time>
      </trkpt>
      <trkpt lat="47.68514" lon="6.10096">
        <ele>268.57</ele>
        <time>2017-09-27T08:35:44Z</time>
      </trkpt>
      <trkpt lat="47.68507" lon="6.10091">
        <ele>268.38</ele>
        <time>2017-09-27T08:35:46Z</time>
      </trkpt>
      <trkpt lat="47.685" lon="6.10087">
        <ele>268.32</ele>
        <time>2017-09-27T08:35:48Z</time>
      </trkpt>
      <trkpt lat="47.68494" lon="6.10083">
        <ele>268.29</ele>
        <time>2017-09-27T08:35:50Z</time>
      </trkpt>
      <trkpt lat="47.68488" lon="6.10078">
        <ele>268.25</ele>
        <time>2017-09-27T08:35:52Z</time>
      </trkpt>
      <trkpt lat="47.68483" lon="6.10075">
        <ele>268.22</ele>
        <time>2017-09-27T08:35:54Z</time>
      </trkpt>
      <trkpt lat="47.68477" lon="6.10071">
        <ele>268.18</ele>
        <time>2017-09-27T08:35:56Z</time>
      </trkpt>
      <trkpt lat="47.68471" lon="6.10068">
        <ele>268.13</ele>
        <time>2017-09-27T08:35:58Z</time>
      </trkpt>
      <trkpt lat="47.68466" lon="6.10064">
        <ele>268.07</ele>
        <time>2017-09-27T08:36:00Z</time>
      </trkpt>
      <trkpt lat="47.68461" lon="6.10061">
        <ele>268</ele>
        <time>2017-09-27T08:36:02Z</time>
      </trkpt>
      <trkpt lat="47.68455" lon="6.10057">
        <ele>267.91</ele>
        <time>2017-09-27T08:36:04Z</time>
      </trkpt>
      <trkpt lat="47.6845" lon="6.10053">
        <ele>267.81</ele>
        <time>2017-09-27T08:36:06Z</time>
      </trkpt>
      <trkpt lat="47.68444" lon="6.10049">
        <ele>267.71</ele>
        <time>2017-09-27T08:36:08Z</time>
      </trkpt>
      <trkpt lat="47.68438" lon="6.10044">
        <ele>267.6</ele>
        <time>2017-09-27T08:36:10Z</time>
      </trkpt>
      <trkpt lat="47.68433" lon="6.10038">
        <ele>267.48</ele>
        <time>2017-09-27T08:36:12Z</time>
      </trkpt>
      <trkpt lat="47.68427" lon="6.10032">
        <ele>267.35</ele>
        <time>2017-09-27T08:36:14Z</time>
      </trkpt>
      <trkpt lat="47.68422" lon="6.10025">
        <ele>267.23</ele>
        <time>2017-09-27T08:36:16Z</time>
      </trkpt>
      <trkpt lat="47.68416" lon="6.10019">
        <ele>267.1</ele>
        <time>2017-09-27T08:36:18Z</time>
      </trkpt>
      <trkpt lat="47.6841" lon="6.10013">
        <ele>266.97</ele>
        <time>2017-09-27T08:36:20Z</time>
      </trkpt>
      <trkpt lat="47.68405" lon="6.10006">
        <ele>266.83</ele>
        <time>2017-09-27T08:36:22Z</time>
      </trkpt>
      <trkpt lat="47.68399" lon="6.1">
        <ele>266.69</ele>
        <time>2017-09-27T08:36:24Z</time>
      </trkpt>
      <trkpt lat="47.68394" lon="6.09993">
        <ele>266.54</ele>
        <time>2017-09-27T08:36:26Z</time>
      </trkpt>
      <trkpt lat="47.68388" lon="6.09987">
        <ele>265.91</ele>
        <time>2017-09-27T08:36:28Z</time>
      </trkpt>
      <trkpt lat="47.68383" lon="6.09979">
        <ele>264.72</ele>
        <time>2017-09-27T08:36:30Z</time>
      </trkpt>
      <trkpt lat="47.68378" lon="6.09972">
        <ele>264.43</ele>
        <time>2017-09-27T08:36:32Z</time>
      </trkpt>
      <trkpt lat="47.68373" lon="6.09964">
        <ele>264.32</ele>
        <time>2017-09-27T08:36:34Z</time>
      </trkpt>
      <trkpt lat="47.68369" lon="6.09956">
        <ele>263.89</ele>
        <time>2017-09-27T08:36:36Z</time>
      </trkpt>
      <trkpt lat="47.68364" lon="6.09947">
        <ele>263.11</ele>
        <time>2017-09-27T08:36:38Z</time>
      </trkpt>
      <trkpt lat="47.68359" lon="6.09938">
        <ele>262.58</ele>
        <time>2017-09-27T08:36:40Z</time>
      </trkpt>
      <trkpt lat="47.68353" lon="6.09928">
        <ele>262.26</ele>
        <time>2017-09-27T08:36:42Z</time>
      </trkpt>
      <trkpt lat="47.68348" lon="6.09919">
        <ele>262.04</ele>
        <time>2017-09-27T08:36:44Z</time>
      </trkpt>
      <trkpt lat="47.68342" lon="6.09909">
        <ele>261.9</ele>
        <time>2017-09-27T08:36:46Z</time>
      </trkpt>
      <trkpt lat="47.68336" lon="6.09899">
        <ele>261.81</ele>
        <time>2017-09-27T08:36:48Z</time>
      </trkpt>
      <trkpt lat="47.68331" lon="6.09889">
        <ele>261.64</ele>
        <time>2017-09-27T08:36:50Z</time>
      </trkpt>
      <trkpt lat="47.68327" lon="6.09884">
        <ele>261.56</ele>
        <time>2017-09-27T08:36:51Z</time>
      </trkpt>
      <trkpt lat="47.68324" lon="6.09878">
        <ele>261.49</ele>
        <time>2017-09-27T08:36:52Z</time>
      </trkpt>
      <trkpt lat="47.6832" lon="6.09872">
        <ele>261.4</ele>
        <time>2017-09-27T08:36:53Z</time>
      </trkpt>
      <trkpt lat="47.68317" lon="6.09865">
        <ele>261.31</ele>
        <time>2017-09-27T08:36:54Z</time>
      </trkpt>
      <trkpt lat="47.68313" lon="6.09859">
        <ele>261.23</ele>
        <time>2017-09-27T08:36:55Z</time>
      </trkpt>
      <trkpt lat="47.68308" lon="6.09851">
        <ele>261.15</ele>
        <time>2017-09-27T08:36:56Z</time>
      </trkpt>
      <trkpt lat="47.68304" lon="6.09845">
        <ele>261.01</ele>
        <time>2017-09-27T08:36:57Z</time>
      </trkpt>
      <trkpt lat="47.68299" lon="6.09838">
        <ele>260.84</ele>
        <time>2017-09-27T08:36:58Z</time>
      </trkpt>
      <trkpt lat="47.68294" lon="6.0983">
        <ele>260.65</ele>
        <time>2017-09-27T08:36:59Z</time>
      </trkpt>
      <trkpt lat="47.68289" lon="6.09822">
        <ele>260.44</ele>
        <time>2017-09-27T08:37:00Z</time>
      </trkpt>
      <trkpt lat="47.68284" lon="6.09814">
        <ele>260.22</ele>
        <time>2017-09-27T08:37:01Z</time>
      </trkpt>
      <trkpt lat="47.68278" lon="6.09806">
        <ele>260.03</ele>
        <time>2017-09-27T08:37:02Z</time>
      </trkpt>
      <trkpt lat="47.68272" lon="6.09798">
        <ele>259.83</ele>
        <time>2017-09-27T08:37:03Z</time>
      </trkpt>
      <trkpt lat="47.68266" lon="6.09789">
        <ele>259.52</ele>
        <time>2017-09-27T08:37:04Z</time>
      </trkpt>
      <trkpt lat="47.6826" lon="6.0978">
        <ele>259.2</ele>
        <time>2017-09-27T08:37:05Z</time>
      </trkpt>
      <trkpt lat="47.68254" lon="6.0977">
        <ele>258.85</ele>
        <time>2017-09-27T08:37:06Z</time>
      </trkpt>
      <trkpt lat="47.68248" lon="6.09759">
        <ele>258.5</ele>
        <time>2017-09-27T08:37:07Z</time>
      </trkpt>
      <trkpt lat="47.68242" lon="6.09749">
        <ele>258.16</ele>
        <time>2017-09-27T08:37:08Z</time>
      </trkpt>
      <trkpt lat="47.68236" lon="6.09739">
        <ele>257.83</ele>
        <time>2017-09-27T08:37:09Z</time>
      </trkpt>
      <trkpt lat="47.6823" lon="6.09729">
        <ele>257.52</ele>
        <time>2017-09-27T08:37:10Z</time>
      </trkpt>
      <trkpt lat="47.68224" lon="6.0972">
        <ele>257.22</ele>
        <time>2017-09-27T08:37:11Z</time>
      </trkpt>
      <trkpt lat="47.68218" lon="6.09711">
        <ele>257.01</ele>
        <time>2017-09-27T08:37:12Z</time>
      </trkpt>
      <trkpt lat="47.68213" lon="6.09703">
        <ele>256.8</ele>
        <time>2017-09-27T08:37:13Z</time>
      </trkpt>
      <trkpt lat="47.68207" lon="6.09695">
        <ele>256.61</ele>
        <time>2017-09-27T08:37:14Z</time>
      </trkpt>
      <trkpt lat="47.68203" lon="6.09686">
        <ele>256.4</ele>
        <time>2017-09-27T08:37:15Z</time>
      </trkpt>
      <trkpt lat="47.68198" lon="6.09678">
        <ele>256.16</ele>
        <time>2017-09-27T08:37:16Z</time>
      </trkpt>
      <trkpt lat="47.68194" lon="6.0967">
        <ele>255.97</ele>
        <time>2017-09-27T08:37:17Z</time>
      </trkpt>
      <trkpt lat="47.68189" lon="6.09663">
        <ele>255.8</ele>
        <time>2017-09-27T08:37:18Z</time>
      </trkpt>
      <trkpt lat="47.68184" lon="6.09653">
        <ele>255.67</ele>
        <time>2017-09-27T08:37:19Z</time>
      </trkpt>
      <trkpt lat="47.68179" lon="6.09646">
        <ele>255.56</ele>
        <time>2017-09-27T08:37:20Z</time>
      </trkpt>
      <trkpt lat="47.68173" lon="6.0964">
        <ele>255.52</ele>
        <time>2017-09-27T08:37:21Z</time>
      </trkpt>
      <trkpt lat="47.68167" lon="6.09635">
        <ele>255.53</ele>
        <time>2017-09-27T08:37:22Z</time>
      </trkpt>
      <trkpt lat="47.68161" lon="6.09634">
        <ele>255.62</ele>
        <time>2017-09-27T08:37:23Z</time>
      </trkpt>
      <trkpt lat="47.68154" lon="6.09632">
        <ele>255.68</ele>
        <time>2017-09-27T08:37:24Z</time>
      </trkpt>
      <trkpt lat="47.68149" lon="6.09631">
        <ele>255.69</ele>
        <time>2017-09-27T08:37:25Z</time>
      </trkpt>
      <trkpt lat="47.68144" lon="6.09629">
        <ele>255.77</ele>
        <time>2017-09-27T08:37:26Z</time>
      </trkpt>
      <trkpt lat="47.68139" lon="6.09627">
        <ele>255.82</ele>
        <time>2017-09-27T08:37:27Z</time>
      </trkpt>
      <trkpt lat="47.68134" lon="6.09624">
        <ele>255.86</ele>
        <time>2017-09-27T08:37:28Z</time>
      </trkpt>
      <trkpt lat="47.6813" lon="6.09623">
        <ele>255.91</ele>
        <time>2017-09-27T08:37:29Z</time>
      </trkpt>
      <trkpt lat="47.68123" lon="6.0962">
        <ele>255.94</ele>
        <time>2017-09-27T08:37:31Z</time>
      </trkpt>
      <trkpt lat="47.68117" lon="6.09619">
        <ele>255.94</ele>
        <time>2017-09-27T08:37:33Z</time>
      </trkpt>
      <trkpt lat="47.68113" lon="6.09617">
        <ele>255.95</ele>
        <time>2017-09-27T08:37:35Z</time>
      </trkpt>
      <trkpt lat="47.68107" lon="6.09614">
        <ele>255.95</ele>
        <time>2017-09-27T08:37:37Z</time>
      </trkpt>
      <trkpt lat="47.68102" lon="6.09611">
        <ele>255.96</ele>
        <time>2017-09-27T08:37:39Z</time>
      </trkpt>
      <trkpt lat="47.68097" lon="6.09607">
        <ele>255.98</ele>
        <time>2017-09-27T08:37:41Z</time>
      </trkpt>
      <trkpt lat="47.68091" lon="6.09603">
        <ele>256.01</ele>
        <time>2017-09-27T08:37:43Z</time>
      </trkpt>
      <trkpt lat="47.68085" lon="6.09598">
        <ele>256.03</ele>
        <time>2017-09-27T08:37:45Z</time>
      </trkpt>
      <trkpt lat="47.68079" lon="6.09593">
        <ele>256.04</ele>
        <time>2017-09-27T08:37:47Z</time>
      </trkpt>
      <trkpt lat="47.68073" lon="6.09589">
        <ele>256.08</ele>
        <time>2017-09-27T08:37:49Z</time>
      </trkpt>
      <trkpt lat="47.68068" lon="6.09584">
        <ele>256.11</ele>
        <time>2017-09-27T08:37:51Z</time>
      </trkpt>
      <trkpt lat="47.68063" lon="6.09579">
        <ele>256.14</ele>
        <time>2017-09-27T08:37:53Z</time>
      </trkpt>
      <trkpt lat="47.68058" lon="6.09574">
        <ele>256.16</ele>
        <time>2017-09-27T08:37:55Z</time>
      </trkpt>
      <trkpt lat="47.68053" lon="6.09571">
        <ele>256.16</ele>
        <time>2017-09-27T08:37:57Z</time>
      </trkpt>
      <trkpt lat="47.68048" lon="6.09567">
        <ele>256.15</ele>
        <time>2017-09-27T08:37:59Z</time>
      </trkpt>
      <trkpt lat="47.68042" lon="6.09564">
        <ele>256.13</ele>
        <time>2017-09-27T08:38:01Z</time>
      </trkpt>
      <trkpt lat="47.68036" lon="6.0956">
        <ele>256.11</ele>
        <time>2017-09-27T08:38:03Z</time>
      </trkpt>
      <trkpt lat="47.6803" lon="6.09557">
        <ele>256.08</ele>
        <time>2017-09-27T08:38:05Z</time>
      </trkpt>
      <trkpt lat="47.68024" lon="6.09555">
        <ele>256.05</ele>
        <time>2017-09-27T08:38:07Z</time>
      </trkpt>
      <trkpt lat="47.68018" lon="6.09553">
        <ele>256.02</ele>
        <time>2017-09-27T08:38:09Z</time>
      </trkpt>
      <trkpt lat="47.68012" lon="6.09551">
        <ele>256</ele>
        <time>2017-09-27T08:38:11Z</time>
      </trkpt>
      <trkpt lat="47.68007" lon="6.0955">
        <ele>255.98</ele>
        <time>2017-09-27T08:38:13Z</time>
      </trkpt>
      <trkpt lat="47.68002" lon="6.0955">
        <ele>255.96</ele>
        <time>2017-09-27T08:38:15Z</time>
      </trkpt>
      <trkpt lat="47.67997" lon="6.09549">
        <ele>255.95</ele>
        <time>2017-09-27T08:38:17Z</time>
      </trkpt>
      <trkpt lat="47.67992" lon="6.09548">
        <ele>255.93</ele>
        <time>2017-09-27T08:38:19Z</time>
      </trkpt>
      <trkpt lat="47.67986" lon="6.09548">
        <ele>255.9</ele>
        <time>2017-09-27T08:38:21Z</time>
      </trkpt>
      <trkpt lat="47.67981" lon="6.09547">
        <ele>255.86</ele>
        <time>2017-09-27T08:38:23Z</time>
      </trkpt>
      <trkpt lat="47.67975" lon="6.09546">
        <ele>255.81</ele>
        <time>2017-09-27T08:38:25Z</time>
      </trkpt>
      <trkpt lat="47.6797" lon="6.09545">
        <ele>255.76</ele>
        <time>2017-09-27T08:38:27Z</time>
      </trkpt>
      <trkpt lat="47.67964" lon="6.09544">
        <ele>255.7</ele>
        <time>2017-09-27T08:38:29Z</time>
      </trkpt>
      <trkpt lat="47.67958" lon="6.09543">
        <ele>255.64</ele>
        <time>2017-09-27T08:38:31Z</time>
      </trkpt>
      <trkpt lat="47.67953" lon="6.09541">
        <ele>255.58</ele>
        <time>2017-09-27T08:38:33Z</time>
      </trkpt>
      <trkpt lat="47.67947" lon="6.09539">
        <ele>255.52</ele>
        <time>2017-09-27T08:38:35Z</time>
      </trkpt>
      <trkpt lat="47.67942" lon="6.09538">
        <ele>255.45</ele>
        <time>2017-09-27T08:38:37Z</time>
      </trkpt>
      <trkpt lat="47.67937" lon="6.09537">
        <ele>255.39</ele>
        <time>2017-09-27T08:38:39Z</time>
      </trkpt>
      <trkpt lat="47.67931" lon="6.09535">
        <ele>255.32</ele>
        <time>2017-09-27T08:38:41Z</time>
      </trkpt>
      <trkpt lat="47.67926" lon="6.09534">
        <ele>255.27</ele>
        <time>2017-09-27T08:38:43Z</time>
      </trkpt>
      <trkpt lat="47.6792" lon="6.09532">
        <ele>255.22</ele>
        <time>2017-09-27T08:38:45Z</time>
      </trkpt>
      <trkpt lat="47.67916" lon="6.09531">
        <ele>255.17</ele>
        <time>2017-09-27T08:38:47Z</time>
      </trkpt>
      <trkpt lat="47.6791" lon="6.09529">
        <ele>255.13</ele>
        <time>2017-09-27T08:38:49Z</time>
      </trkpt>
      <trkpt lat="47.67905" lon="6.09528">
        <ele>255.08</ele>
        <time>2017-09-27T08:38:51Z</time>
      </trkpt>
      <trkpt lat="47.679" lon="6.09526">
        <ele>255.05</ele>
        <time>2017-09-27T08:38:53Z</time>
      </trkpt>
      <trkpt lat="47.67895" lon="6.09524">
        <ele>255.02</ele>
        <time>2017-09-27T08:38:55Z</time>
      </trkpt>
      <trkpt lat="47.6789" lon="6.09522">
        <ele>254.99</ele>
        <time>2017-09-27T08:38:57Z</time>
      </trkpt>
      <trkpt lat="47.67886" lon="6.09519">
        <ele>254.96</ele>
        <time>2017-09-27T08:38:59Z</time>
      </trkpt>
      <trkpt lat="47.67881" lon="6.09516">
        <ele>254.93</ele>
        <time>2017-09-27T08:39:01Z</time>
      </trkpt>
      <trkpt lat="47.67876" lon="6.09513">
        <ele>254.91</ele>
        <time>2017-09-27T08:39:03Z</time>
      </trkpt>
      <trkpt lat="47.67871" lon="6.09509">
        <ele>254.88</ele>
        <time>2017-09-27T08:39:05Z</time>
      </trkpt>
      <trkpt lat="47.67867" lon="6.09505">
        <ele>254.86</ele>
        <time>2017-09-27T08:39:07Z</time>
      </trkpt>
      <trkpt lat="47.67863" lon="6.095">
        <ele>254.84</ele>
        <time>2017-09-27T08:39:09Z</time>
      </trkpt>
      <trkpt lat="47.6786" lon="6.09494">
        <ele>254.83</ele>
        <time>2017-09-27T08:39:11Z</time>
      </trkpt>
      <trkpt lat="47.67857" lon="6.09488">
        <ele>254.82</ele>
        <time>2017-09-27T08:39:13Z</time>
      </trkpt>
      <trkpt lat="47.67855" lon="6.09482">
        <ele>254.81</ele>
        <time>2017-09-27T08:39:15Z</time>
      </trkpt>
      <trkpt lat="47.67853" lon="6.09474">
        <ele>254.81</ele>
        <time>2017-09-27T08:39:17Z</time>
      </trkpt>
      <trkpt lat="47.67849" lon="6.09466">
        <ele>254.81</ele>
        <time>2017-09-27T08:39:20Z</time>
      </trkpt>
      <trkpt lat="47.67847" lon="6.0946">
        <ele>254.82</ele>
        <time>2017-09-27T08:39:22Z</time>
      </trkpt>
      <trkpt lat="47.67844" lon="6.09453">
        <ele>254.84</ele>
        <time>2017-09-27T08:39:24Z</time>
      </trkpt>
      <trkpt lat="47.67841" lon="6.09448">
        <ele>254.86</ele>
        <time>2017-09-27T08:39:26Z</time>
      </trkpt>
      <trkpt lat="47.67837" lon="6.09443">
        <ele>254.9</ele>
        <time>2017-09-27T08:39:28Z</time>
      </trkpt>
      <trkpt lat="47.67834" lon="6.09438">
        <ele>254.94</ele>
        <time>2017-09-27T08:39:30Z</time>
      </trkpt>
      <trkpt lat="47.67831" lon="6.09433">
        <ele>254.99</ele>
        <time>2017-09-27T08:39:32Z</time>
      </trkpt>
      <trkpt lat="47.67827" lon="6.09428">
        <ele>255.04</ele>
        <time>2017-09-27T08:39:34Z</time>
      </trkpt>
      <trkpt lat="47.67822" lon="6.09423">
        <ele>255.14</ele>
        <time>2017-09-27T08:39:37Z</time>
      </trkpt>
      <trkpt lat="47.67817" lon="6.09418">
        <ele>255.25</ele>
        <time>2017-09-27T08:39:40Z</time>
      </trkpt>
      <trkpt lat="47.67811" lon="6.09412">
        <ele>255.36</ele>
        <time>2017-09-27T08:39:43Z</time>
      </trkpt>
      <trkpt lat="47.67807" lon="6.09409">
        <ele>255.44</ele>
        <time>2017-09-27T08:39:45Z</time>
      </trkpt>
      <trkpt lat="47.67803" lon="6.09405">
        <ele>255.51</ele>
        <time>2017-09-27T08:39:47Z</time>
      </trkpt>
      <trkpt lat="47.67799" lon="6.09401">
        <ele>255.58</ele>
        <time>2017-09-27T08:39:49Z</time>
      </trkpt>
      <trkpt lat="47.67795" lon="6.09397">
        <ele>255.65</ele>
        <time>2017-09-27T08:39:51Z</time>
      </trkpt>
      <trkpt lat="47.6779" lon="6.09393">
        <ele>255.72</ele>
        <time>2017-09-27T08:39:53Z</time>
      </trkpt>
      <trkpt lat="47.67785" lon="6.09388">
        <ele>255.78</ele>
        <time>2017-09-27T08:39:55Z</time>
      </trkpt>
      <trkpt lat="47.6778" lon="6.09384">
        <ele>255.84</ele>
        <time>2017-09-27T08:39:57Z</time>
      </trkpt>
      <trkpt lat="47.67775" lon="6.09379">
        <ele>255.91</ele>
        <time>2017-09-27T08:39:59Z</time>
      </trkpt>
      <trkpt lat="47.6777" lon="6.09375">
        <ele>255.98</ele>
        <time>2017-09-27T08:40:01Z</time>
      </trkpt>
      <trkpt lat="47.67764" lon="6.0937">
        <ele>256.04</ele>
        <time>2017-09-27T08:40:03Z</time>
      </trkpt>
      <trkpt lat="47.67758" lon="6.09365">
        <ele>256.1</ele>
        <time>2017-09-27T08:40:05Z</time>
      </trkpt>
      <trkpt lat="47.67753" lon="6.09361">
        <ele>256.17</ele>
        <time>2017-09-27T08:40:07Z</time>
      </trkpt>
      <trkpt lat="47.67749" lon="6.09357">
        <ele>256.24</ele>
        <time>2017-09-27T08:40:09Z</time>
      </trkpt>
      <trkpt lat="47.67744" lon="6.09354">
        <ele>256.31</ele>
        <time>2017-09-27T08:40:11Z</time>
      </trkpt>
      <trkpt lat="47.6774" lon="6.0935">
        <ele>256.39</ele>
        <time>2017-09-27T08:40:13Z</time>
      </trkpt>
      <trkpt lat="47.67736" lon="6.09347">
        <ele>256.47</ele>
        <time>2017-09-27T08:40:15Z</time>
      </trkpt>
      <trkpt lat="47.67731" lon="6.09344">
        <ele>256.55</ele>
        <time>2017-09-27T08:40:17Z</time>
      </trkpt>
      <trkpt lat="47.67726" lon="6.0934">
        <ele>256.62</ele>
        <time>2017-09-27T08:40:19Z</time>
      </trkpt>
      <trkpt lat="47.67722" lon="6.09337">
        <ele>256.7</ele>
        <time>2017-09-27T08:40:21Z</time>
      </trkpt>
      <trkpt lat="47.67717" lon="6.09334">
        <ele>256.78</ele>
        <time>2017-09-27T08:40:23Z</time>
      </trkpt>
      <trkpt lat="47.67712" lon="6.0933">
        <ele>256.85</ele>
        <time>2017-09-27T08:40:25Z</time>
      </trkpt>
      <trkpt lat="47.67707" lon="6.09326">
        <ele>256.92</ele>
        <time>2017-09-27T08:40:27Z</time>
      </trkpt>
      <trkpt lat="47.67703" lon="6.09324">
        <ele>256.99</ele>
        <time>2017-09-27T08:40:29Z</time>
      </trkpt>
      <trkpt lat="47.67698" lon="6.0932">
        <ele>257.06</ele>
        <time>2017-09-27T08:40:31Z</time>
      </trkpt>
      <trkpt lat="47.67693" lon="6.09316">
        <ele>257.13</ele>
        <time>2017-09-27T08:40:33Z</time>
      </trkpt>
      <trkpt lat="47.67689" lon="6.09313">
        <ele>257.22</ele>
        <time>2017-09-27T08:40:35Z</time>
      </trkpt>
      <trkpt lat="47.67684" lon="6.09308">
        <ele>257.3</ele>
        <time>2017-09-27T08:40:37Z</time>
      </trkpt>
      <trkpt lat="47.6768" lon="6.09301">
        <ele>257.43</ele>
        <time>2017-09-27T08:40:40Z</time>
      </trkpt>
      <trkpt lat="47.67676" lon="6.09296">
        <ele>257.52</ele>
        <time>2017-09-27T08:40:42Z</time>
      </trkpt>
      <trkpt lat="47.67672" lon="6.09288">
        <ele>257.66</ele>
        <time>2017-09-27T08:40:45Z</time>
      </trkpt>
      <trkpt lat="47.67668" lon="6.0928">
        <ele>257.82</ele>
        <time>2017-09-27T08:40:48Z</time>
      </trkpt>
      <trkpt lat="47.67665" lon="6.09274">
        <ele>257.93</ele>
        <time>2017-09-27T08:40:50Z</time>
      </trkpt>
      <trkpt lat="47.67661" lon="6.09266">
        <ele>258.11</ele>
        <time>2017-09-27T08:40:53Z</time>
      </trkpt>
      <trkpt lat="47.67657" lon="6.09261">
        <ele>258.23</ele>
        <time>2017-09-27T08:40:55Z</time>
      </trkpt>
      <trkpt lat="47.67653" lon="6.09255">
        <ele>258.41</ele>
        <time>2017-09-27T08:40:58Z</time>
      </trkpt>
      <trkpt lat="47.67647" lon="6.09249">
        <ele>258.59</ele>
        <time>2017-09-27T08:41:01Z</time>
      </trkpt>
      <trkpt lat="47.67643" lon="6.09245">
        <ele>258.72</ele>
        <time>2017-09-27T08:41:03Z</time>
      </trkpt>
      <trkpt lat="47.67639" lon="6.09242">
        <ele>258.85</ele>
        <time>2017-09-27T08:41:05Z</time>
      </trkpt>
      <trkpt lat="47.67633" lon="6.09237">
        <ele>259.05</ele>
        <time>2017-09-27T08:41:08Z</time>
      </trkpt>
      <trkpt lat="47.67629" lon="6.09233">
        <ele>259.18</ele>
        <time>2017-09-27T08:41:10Z</time>
      </trkpt>
      <trkpt lat="47.67625" lon="6.09227">
        <ele>259.37</ele>
        <time>2017-09-27T08:41:13Z</time>
      </trkpt>
      <trkpt lat="47.67627" lon="6.09219">
        <ele>259.57</ele>
        <time>2017-09-27T08:41:16Z</time>
      </trkpt>
      <trkpt lat="47.6763" lon="6.09212">
        <ele>259.76</ele>
        <time>2017-09-27T08:41:19Z</time>
      </trkpt>
      <trkpt lat="47.67634" lon="6.09204">
        <ele>259.95</ele>
        <time>2017-09-27T08:41:22Z</time>
      </trkpt>
      <trkpt lat="47.67638" lon="6.09198">
        <ele>260.07</ele>
        <time>2017-09-27T08:41:24Z</time>
      </trkpt>
      <trkpt lat="47.67642" lon="6.09192">
        <ele>260.19</ele>
        <time>2017-09-27T08:41:26Z</time>
      </trkpt>
      <trkpt lat="47.67645" lon="6.09186">
        <ele>260.3</ele>
        <time>2017-09-27T08:41:28Z</time>
      </trkpt>
      <trkpt lat="47.67647" lon="6.0918">
        <ele>260.47</ele>
        <time>2017-09-27T08:41:31Z</time>
      </trkpt>
      <trkpt lat="47.67647" lon="6.09173">
        <ele>260.7</ele>
        <time>2017-09-27T08:41:35Z</time>
      </trkpt>
      <trkpt lat="47.6764" lon="6.0917">
        <ele>260.87</ele>
        <time>2017-09-27T08:41:38Z</time>
      </trkpt>
      <trkpt lat="47.67634" lon="6.09168">
        <ele>260.99</ele>
        <time>2017-09-27T08:41:40Z</time>
      </trkpt>
      <trkpt lat="47.67629" lon="6.09174">
        <ele>261.16</ele>
        <time>2017-09-27T08:41:43Z</time>
      </trkpt>
      <trkpt lat="47.67625" lon="6.09178">
        <ele>261.33</ele>
        <time>2017-09-27T08:41:46Z</time>
      </trkpt>
      <trkpt lat="47.6762" lon="6.09182">
        <ele>261.44</ele>
        <time>2017-09-27T08:41:48Z</time>
      </trkpt>
      <trkpt lat="47.67616" lon="6.09185">
        <ele>261.54</ele>
        <time>2017-09-27T08:41:50Z</time>
      </trkpt>
      <trkpt lat="47.67612" lon="6.09188">
        <ele>261.7</ele>
        <time>2017-09-27T08:41:53Z</time>
      </trkpt>
      <trkpt lat="47.67605" lon="6.09193">
        <ele>261.84</ele>
        <time>2017-09-27T08:41:56Z</time>
      </trkpt>
      <trkpt lat="47.676" lon="6.09196">
        <ele>261.92</ele>
        <time>2017-09-27T08:41:58Z</time>
      </trkpt>
      <trkpt lat="47.67594" lon="6.09199">
        <ele>262.01</ele>
        <time>2017-09-27T08:42:00Z</time>
      </trkpt>
      <trkpt lat="47.67588" lon="6.09198">
        <ele>262.1</ele>
        <time>2017-09-27T08:42:02Z</time>
      </trkpt>
      <trkpt lat="47.67584" lon="6.09196">
        <ele>262.19</ele>
        <time>2017-09-27T08:42:04Z</time>
      </trkpt>
      <trkpt lat="47.67578" lon="6.09191">
        <ele>262.33</ele>
        <time>2017-09-27T08:42:07Z</time>
      </trkpt>
      <trkpt lat="47.67573" lon="6.09186">
        <ele>262.48</ele>
        <time>2017-09-27T08:42:10Z</time>
      </trkpt>
      <trkpt lat="47.67568" lon="6.09181">
        <ele>262.63</ele>
        <time>2017-09-27T08:42:13Z</time>
      </trkpt>
      <trkpt lat="47.67564" lon="6.09175">
        <ele>262.79</ele>
        <time>2017-09-27T08:42:16Z</time>
      </trkpt>
      <trkpt lat="47.67561" lon="6.0917">
        <ele>262.89</ele>
        <time>2017-09-27T08:42:18Z</time>
      </trkpt>
      <trkpt lat="47.67557" lon="6.09165">
        <ele>262.99</ele>
        <time>2017-09-27T08:42:20Z</time>
      </trkpt>
      <trkpt lat="47.67553" lon="6.09161">
        <ele>263.15</ele>
        <time>2017-09-27T08:42:23Z</time>
      </trkpt>
      <trkpt lat="47.67547" lon="6.09158">
        <ele>263.3</ele>
        <time>2017-09-27T08:42:26Z</time>
      </trkpt>
      <trkpt lat="47.67542" lon="6.09154">
        <ele>263.45</ele>
        <time>2017-09-27T08:42:29Z</time>
      </trkpt>
      <trkpt lat="47.67535" lon="6.0915">
        <ele>263.6</ele>
        <time>2017-09-27T08:42:32Z</time>
      </trkpt>
      <trkpt lat="47.67531" lon="6.09147">
        <ele>263.71</ele>
        <time>2017-09-27T08:42:34Z</time>
      </trkpt>
      <trkpt lat="47.67527" lon="6.09141">
        <ele>263.87</ele>
        <time>2017-09-27T08:42:37Z</time>
      </trkpt>
      <trkpt lat="47.67522" lon="6.09134">
        <ele>263.99</ele>
        <time>2017-09-27T08:42:39Z</time>
      </trkpt>
      <trkpt lat="47.67517" lon="6.09125">
        <ele>264.11</ele>
        <time>2017-09-27T08:42:41Z</time>
      </trkpt>
      <trkpt lat="47.67514" lon="6.0912">
        <ele>264.24</ele>
        <time>2017-09-27T08:42:43Z</time>
      </trkpt>
      <trkpt lat="47.67511" lon="6.09115">
        <ele>264.44</ele>
        <time>2017-09-27T08:42:46Z</time>
      </trkpt>
      <trkpt lat="47.67508" lon="6.09108">
        <ele>264.73</ele>
        <time>2017-09-27T08:42:50Z</time>
      </trkpt>
      <trkpt lat="47.67506" lon="6.09102">
        <ele>264.94</ele>
        <time>2017-09-27T08:42:53Z</time>
      </trkpt>
      <trkpt lat="47.67505" lon="6.09093">
        <ele>265.15</ele>
        <time>2017-09-27T08:42:56Z</time>
      </trkpt>
      <trkpt lat="47.67501" lon="6.09087">
        <ele>265.36</ele>
        <time>2017-09-27T08:42:59Z</time>
      </trkpt>
      <trkpt lat="47.67497" lon="6.0908">
        <ele>265.5</ele>
        <time>2017-09-27T08:43:01Z</time>
      </trkpt>
      <trkpt lat="47.67496" lon="6.0907">
        <ele>265.57</ele>
        <time>2017-09-27T08:43:02Z</time>
      </trkpt>
      <trkpt lat="47.67492" lon="6.09058">
        <ele>265.63</ele>
        <time>2017-09-27T08:43:03Z</time>
      </trkpt>
      <trkpt lat="47.67486" lon="6.0905">
        <ele>265.7</ele>
        <time>2017-09-27T08:43:04Z</time>
      </trkpt>
      <trkpt lat="47.67482" lon="6.09043">
        <ele>265.76</ele>
        <time>2017-09-27T08:43:05Z</time>
      </trkpt>
      <trkpt lat="47.67477" lon="6.09038">
        <ele>265.83</ele>
        <time>2017-09-27T08:43:06Z</time>
      </trkpt>
      <trkpt lat="47.67473" lon="6.09032">
        <ele>265.89</ele>
        <time>2017-09-27T08:43:07Z</time>
      </trkpt>
      <trkpt lat="47.67467" lon="6.09025">
        <ele>266.02</ele>
        <time>2017-09-27T08:43:09Z</time>
      </trkpt>
      <trkpt lat="47.67463" lon="6.0902">
        <ele>266.08</ele>
        <time>2017-09-27T08:43:10Z</time>
      </trkpt>
      <trkpt lat="47.67459" lon="6.09017">
        <ele>266.14</ele>
        <time>2017-09-27T08:43:11Z</time>
      </trkpt>
      <trkpt lat="47.67453" lon="6.09008">
        <ele>266.26</ele>
        <time>2017-09-27T08:43:13Z</time>
      </trkpt>
      <trkpt lat="47.67447" lon="6.09002">
        <ele>266.38</ele>
        <time>2017-09-27T08:43:15Z</time>
      </trkpt>
      <trkpt lat="47.67441" lon="6.08995">
        <ele>266.5</ele>
        <time>2017-09-27T08:43:17Z</time>
      </trkpt>
      <trkpt lat="47.67434" lon="6.0899">
        <ele>266.61</ele>
        <time>2017-09-27T08:43:19Z</time>
      </trkpt>
      <trkpt lat="47.67428" lon="6.08985">
        <ele>266.73</ele>
        <time>2017-09-27T08:43:21Z</time>
      </trkpt>
      <trkpt lat="47.67423" lon="6.08981">
        <ele>266.84</ele>
        <time>2017-09-27T08:43:23Z</time>
      </trkpt>
      <trkpt lat="47.67418" lon="6.08975">
        <ele>266.96</ele>
        <time>2017-09-27T08:43:25Z</time>
      </trkpt>
      <trkpt lat="47.67415" lon="6.08971">
        <ele>267.01</ele>
        <time>2017-09-27T08:43:26Z</time>
      </trkpt>
      <trkpt lat="47.67408" lon="6.08963">
        <ele>267.13</ele>
        <time>2017-09-27T08:43:28Z</time>
      </trkpt>
      <trkpt lat="47.67402" lon="6.08956">
        <ele>267.24</ele>
        <time>2017-09-27T08:43:30Z</time>
      </trkpt>
      <trkpt lat="47.67396" lon="6.08948">
        <ele>268.07</ele>
        <time>2017-09-27T08:43:32Z</time>
      </trkpt>
      <trkpt lat="47.67392" lon="6.08944">
        <ele>268.44</ele>
        <time>2017-09-27T08:43:33Z</time>
      </trkpt>
      <trkpt lat="47.67388" lon="6.08938">
        <ele>268.76</ele>
        <time>2017-09-27T08:43:34Z</time>
      </trkpt>
      <trkpt lat="47.67383" lon="6.08931">
        <ele>269.03</ele>
        <time>2017-09-27T08:43:35Z</time>
      </trkpt>
      <trkpt lat="47.6738" lon="6.08926">
        <ele>269.12</ele>
        <time>2017-09-27T08:43:36Z</time>
      </trkpt>
      <trkpt lat="47.67376" lon="6.0892">
        <ele>269.19</ele>
        <time>2017-09-27T08:43:38Z</time>
      </trkpt>
      <trkpt lat="47.67371" lon="6.08914">
        <ele>269.27</ele>
        <time>2017-09-27T08:43:41Z</time>
      </trkpt>
      <trkpt lat="47.67367" lon="6.08908">
        <ele>269.37</ele>
        <time>2017-09-27T08:43:47Z</time>
      </trkpt>
      <trkpt lat="47.67367" lon="6.08901">
        <ele>269.51</ele>
        <time>2017-09-27T08:43:55Z</time>
      </trkpt>
      <trkpt lat="47.67372" lon="6.08899">
        <ele>269.53</ele>
        <time>2017-09-27T08:44:27Z</time>
      </trkpt>
      <trkpt lat="47.67367" lon="6.08901">
        <ele>269.14</ele>
        <time>2017-09-27T08:45:47Z</time>
      </trkpt>
      <trkpt lat="47.67362" lon="6.089">
        <ele>269.2</ele>
        <time>2017-09-27T08:46:12Z</time>
      </trkpt>
      <trkpt lat="47.6736" lon="6.08894">
        <ele>269.25</ele>
        <time>2017-09-27T08:46:14Z</time>
      </trkpt>
      <trkpt lat="47.67356" lon="6.08887">
        <ele>269.29</ele>
        <time>2017-09-27T08:46:16Z</time>
      </trkpt>
      <trkpt lat="47.67351" lon="6.0888">
        <ele>269.34</ele>
        <time>2017-09-27T08:46:18Z</time>
      </trkpt>
      <trkpt lat="47.67348" lon="6.08873">
        <ele>269.39</ele>
        <time>2017-09-27T08:46:20Z</time>
      </trkpt>
      <trkpt lat="47.67344" lon="6.08864">
        <ele>269.44</ele>
        <time>2017-09-27T08:46:22Z</time>
      </trkpt>
      <trkpt lat="47.6734" lon="6.08858">
        <ele>269.47</ele>
        <time>2017-09-27T08:46:23Z</time>
      </trkpt>
      <trkpt lat="47.67337" lon="6.08851">
        <ele>269.52</ele>
        <time>2017-09-27T08:46:25Z</time>
      </trkpt>
      <trkpt lat="47.67335" lon="6.08844">
        <ele>269.84</ele>
        <time>2017-09-27T08:46:48Z</time>
      </trkpt>
      <trkpt lat="47.67332" lon="6.08837">
        <ele>269.95</ele>
        <time>2017-09-27T08:46:51Z</time>
      </trkpt>
      <trkpt lat="47.67329" lon="6.0883">
        <ele>270.07</ele>
        <time>2017-09-27T08:46:54Z</time>
      </trkpt>
      <trkpt lat="47.67326" lon="6.08823">
        <ele>270.29</ele>
        <time>2017-09-27T08:47:00Z</time>
      </trkpt>
      <trkpt lat="47.67323" lon="6.08818">
        <ele>270.51</ele>
        <time>2017-09-27T08:47:14Z</time>
      </trkpt>
      <trkpt lat="47.67319" lon="6.08814">
        <ele>271.07</ele>
        <time>2017-09-27T08:47:43Z</time>
      </trkpt>
      <trkpt lat="47.67322" lon="6.08819">
        <ele>271.74</ele>
        <time>2017-09-27T08:49:40Z</time>
      </trkpt>
      <trkpt lat="47.67326" lon="6.08822">
        <ele>272.04</ele>
        <time>2017-09-27T08:50:32Z</time>
      </trkpt>
      <trkpt lat="47.67322" lon="6.08819">
        <ele>272.94</ele>
        <time>2017-09-27T08:53:33Z</time>
      </trkpt>
      <trkpt lat="47.67326" lon="6.08822">
        <ele>273.42</ele>
        <time>2017-09-27T08:55:30Z</time>
      </trkpt>
      <trkpt lat="47.67323" lon="6.08816">
        <ele>273.99</ele>
        <time>2017-09-27T08:57:37Z</time>
      </trkpt>
      <trkpt lat="47.67316" lon="6.08811">
        <ele>275</ele>
        <time>2017-09-27T09:00:13Z</time>
      </trkpt>
      <trkpt lat="47.67312" lon="6.08807">
        <ele>275.21</ele>
        <time>2017-09-27T09:00:14Z</time>
      </trkpt>
      <trkpt lat="47.67304" lon="6.08799">
        <ele>275.54</ele>
        <time>2017-09-27T09:00:16Z</time>
      </trkpt>
      <trkpt lat="47.67298" lon="6.08795">
        <ele>275.66</ele>
        <time>2017-09-27T09:00:17Z</time>
      </trkpt>
      <trkpt lat="47.67291" lon="6.08789">
        <ele>275.75</ele>
        <time>2017-09-27T09:00:18Z</time>
      </trkpt>
      <trkpt lat="47.67284" lon="6.08784">
        <ele>275.82</ele>
        <time>2017-09-27T09:00:19Z</time>
      </trkpt>
      <trkpt lat="47.67276" lon="6.08778">
        <ele>275.87</ele>
        <time>2017-09-27T09:00:20Z</time>
      </trkpt>
      <trkpt lat="47.67268" lon="6.08772">
        <ele>275.91</ele>
        <time>2017-09-27T09:00:21Z</time>
      </trkpt>
      <trkpt lat="47.6726" lon="6.08766">
        <ele>275.94</ele>
        <time>2017-09-27T09:00:22Z</time>
      </trkpt>
      <trkpt lat="47.67251" lon="6.08761">
        <ele>275.95</ele>
        <time>2017-09-27T09:00:23Z</time>
      </trkpt>
      <trkpt lat="47.67242" lon="6.08756">
        <ele>275.96</ele>
        <time>2017-09-27T09:00:24Z</time>
      </trkpt>
      <trkpt lat="47.67234" lon="6.0875">
        <ele>275.96</ele>
        <time>2017-09-27T09:00:25Z</time>
      </trkpt>
      <trkpt lat="47.67225" lon="6.08746">
        <ele>275.93</ele>
        <time>2017-09-27T09:00:26Z</time>
      </trkpt>
      <trkpt lat="47.67216" lon="6.0874">
        <ele>275.89</ele>
        <time>2017-09-27T09:00:27Z</time>
      </trkpt>
      <trkpt lat="47.67209" lon="6.08732">
        <ele>275.84</ele>
        <time>2017-09-27T09:00:28Z</time>
      </trkpt>
      <trkpt lat="47.67202" lon="6.08725">
        <ele>275.76</ele>
        <time>2017-09-27T09:00:29Z</time>
      </trkpt>
      <trkpt lat="47.67196" lon="6.08715">
        <ele>275.65</ele>
        <time>2017-09-27T09:00:30Z</time>
      </trkpt>
      <trkpt lat="47.67191" lon="6.08704">
        <ele>275.5</ele>
        <time>2017-09-27T09:00:31Z</time>
      </trkpt>
      <trkpt lat="47.67188" lon="6.08692">
        <ele>275.33</ele>
        <time>2017-09-27T09:00:32Z</time>
      </trkpt>
      <trkpt lat="47.67185" lon="6.0868">
        <ele>275.16</ele>
        <time>2017-09-27T09:00:33Z</time>
      </trkpt>
      <trkpt lat="47.67181" lon="6.08669">
        <ele>274.99</ele>
        <time>2017-09-27T09:00:34Z</time>
      </trkpt>
      <trkpt lat="47.67177" lon="6.08659">
        <ele>274.8</ele>
        <time>2017-09-27T09:00:35Z</time>
      </trkpt>
      <trkpt lat="47.67176" lon="6.08648">
        <ele>274.66</ele>
        <time>2017-09-27T09:00:36Z</time>
      </trkpt>
      <trkpt lat="47.67175" lon="6.08636">
        <ele>274.45</ele>
        <time>2017-09-27T09:00:37Z</time>
      </trkpt>
      <trkpt lat="47.67173" lon="6.08624">
        <ele>274.14</ele>
        <time>2017-09-27T09:00:38Z</time>
      </trkpt>
      <trkpt lat="47.67172" lon="6.08611">
        <ele>273.74</ele>
        <time>2017-09-27T09:00:39Z</time>
      </trkpt>
      <trkpt lat="47.67172" lon="6.08598">
        <ele>273.27</ele>
        <time>2017-09-27T09:00:40Z</time>
      </trkpt>
      <trkpt lat="47.67172" lon="6.08584">
        <ele>272.77</ele>
        <time>2017-09-27T09:00:41Z</time>
      </trkpt>
      <trkpt lat="47.67173" lon="6.0857">
        <ele>272.2</ele>
        <time>2017-09-27T09:00:42Z</time>
      </trkpt>
      <trkpt lat="47.67176" lon="6.08555">
        <ele>271.54</ele>
        <time>2017-09-27T09:00:43Z</time>
      </trkpt>
      <trkpt lat="47.67177" lon="6.08539">
        <ele>270.91</ele>
        <time>2017-09-27T09:00:44Z</time>
      </trkpt>
      <trkpt lat="47.67177" lon="6.08524">
        <ele>270.33</ele>
        <time>2017-09-27T09:00:45Z</time>
      </trkpt>
      <trkpt lat="47.67178" lon="6.08508">
        <ele>269.77</ele>
        <time>2017-09-27T09:00:46Z</time>
      </trkpt>
      <trkpt lat="47.67178" lon="6.08493">
        <ele>269.3</ele>
        <time>2017-09-27T09:00:47Z</time>
      </trkpt>
      <trkpt lat="47.67178" lon="6.08478">
        <ele>268.86</ele>
        <time>2017-09-27T09:00:48Z</time>
      </trkpt>
      <trkpt lat="47.67179" lon="6.08465">
        <ele>268.4</ele>
        <time>2017-09-27T09:00:49Z</time>
      </trkpt>
      <trkpt lat="47.67178" lon="6.08453">
        <ele>267.86</ele>
        <time>2017-09-27T09:00:50Z</time>
      </trkpt>
      <trkpt lat="47.67175" lon="6.08441">
        <ele>267.3</ele>
        <time>2017-09-27T09:00:51Z</time>
      </trkpt>
      <trkpt lat="47.67173" lon="6.0843">
        <ele>266.83</ele>
        <time>2017-09-27T09:00:52Z</time>
      </trkpt>
      <trkpt lat="47.67171" lon="6.08418">
        <ele>266.38</ele>
        <time>2017-09-27T09:00:53Z</time>
      </trkpt>
      <trkpt lat="47.67169" lon="6.08407">
        <ele>265.93</ele>
        <time>2017-09-27T09:00:54Z</time>
      </trkpt>
      <trkpt lat="47.67167" lon="6.08396">
        <ele>265.45</ele>
        <time>2017-09-27T09:00:55Z</time>
      </trkpt>
      <trkpt lat="47.67164" lon="6.08386">
        <ele>264.99</ele>
        <time>2017-09-27T09:00:56Z</time>
      </trkpt>
      <trkpt lat="47.67162" lon="6.08376">
        <ele>264.75</ele>
        <time>2017-09-27T09:00:57Z</time>
      </trkpt>
      <trkpt lat="47.67158" lon="6.08367">
        <ele>264.53</ele>
        <time>2017-09-27T09:00:58Z</time>
      </trkpt>
      <trkpt lat="47.67159" lon="6.08358">
        <ele>264.77</ele>
        <time>2017-09-27T09:00:59Z</time>
      </trkpt>
      <trkpt lat="47.67158" lon="6.08348">
        <ele>265.03</ele>
        <time>2017-09-27T09:01:00Z</time>
      </trkpt>
      <trkpt lat="47.67157" lon="6.08338">
        <ele>265.25</ele>
        <time>2017-09-27T09:01:01Z</time>
      </trkpt>
      <trkpt lat="47.67155" lon="6.08328">
        <ele>265.32</ele>
        <time>2017-09-27T09:01:02Z</time>
      </trkpt>
      <trkpt lat="47.67156" lon="6.08319">
        <ele>265.39</ele>
        <time>2017-09-27T09:01:03Z</time>
      </trkpt>
      <trkpt lat="47.67155" lon="6.0831">
        <ele>265.35</ele>
        <time>2017-09-27T09:01:04Z</time>
      </trkpt>
      <trkpt lat="47.67154" lon="6.08301">
        <ele>265.16</ele>
        <time>2017-09-27T09:01:05Z</time>
      </trkpt>
      <trkpt lat="47.67154" lon="6.08292">
        <ele>264.92</ele>
        <time>2017-09-27T09:01:06Z</time>
      </trkpt>
      <trkpt lat="47.67153" lon="6.08285">
        <ele>264.67</ele>
        <time>2017-09-27T09:01:07Z</time>
      </trkpt>
      <trkpt lat="47.67155" lon="6.08278">
        <ele>264.3</ele>
        <time>2017-09-27T09:01:08Z</time>
      </trkpt>
      <trkpt lat="47.67159" lon="6.08271">
        <ele>263.85</ele>
        <time>2017-09-27T09:01:09Z</time>
      </trkpt>
      <trkpt lat="47.67161" lon="6.08262">
        <ele>263.35</ele>
        <time>2017-09-27T09:01:10Z</time>
      </trkpt>
      <trkpt lat="47.67164" lon="6.08255">
        <ele>262.74</ele>
        <time>2017-09-27T09:01:11Z</time>
      </trkpt>
      <trkpt lat="47.67168" lon="6.08247">
        <ele>262.09</ele>
        <time>2017-09-27T09:01:12Z</time>
      </trkpt>
      <trkpt lat="47.6717" lon="6.0824">
        <ele>261.51</ele>
        <time>2017-09-27T09:01:13Z</time>
      </trkpt>
      <trkpt lat="47.67172" lon="6.08233">
        <ele>260.87</ele>
        <time>2017-09-27T09:01:14Z</time>
      </trkpt>
      <trkpt lat="47.67173" lon="6.08226">
        <ele>260.64</ele>
        <time>2017-09-27T09:01:15Z</time>
      </trkpt>
      <trkpt lat="47.67172" lon="6.08215">
        <ele>259.37</ele>
        <time>2017-09-27T09:01:17Z</time>
      </trkpt>
      <trkpt lat="47.67169" lon="6.08203">
        <ele>258</ele>
        <time>2017-09-27T09:01:19Z</time>
      </trkpt>
      <trkpt lat="47.67165" lon="6.08193">
        <ele>257.67</ele>
        <time>2017-09-27T09:01:21Z</time>
      </trkpt>
      <trkpt lat="47.6716" lon="6.08186">
        <ele>257.58</ele>
        <time>2017-09-27T09:01:23Z</time>
      </trkpt>
      <trkpt lat="47.67155" lon="6.08182">
        <ele>257.64</ele>
        <time>2017-09-27T09:01:25Z</time>
      </trkpt>
      <trkpt lat="47.67149" lon="6.08182">
        <ele>257.81</ele>
        <time>2017-09-27T09:01:28Z</time>
      </trkpt>
      <trkpt lat="47.67144" lon="6.0818">
        <ele>257.99</ele>
        <time>2017-09-27T09:01:31Z</time>
      </trkpt>
      <trkpt lat="47.67137" lon="6.08176">
        <ele>258.13</ele>
        <time>2017-09-27T09:01:34Z</time>
      </trkpt>
      <trkpt lat="47.67132" lon="6.08172">
        <ele>258.16</ele>
        <time>2017-09-27T09:01:37Z</time>
      </trkpt>
      <trkpt lat="47.67129" lon="6.08164">
        <ele>258.04</ele>
        <time>2017-09-27T09:01:40Z</time>
      </trkpt>
      <trkpt lat="47.67126" lon="6.08156">
        <ele>257.79</ele>
        <time>2017-09-27T09:01:43Z</time>
      </trkpt>
      <trkpt lat="47.67124" lon="6.08149">
        <ele>257.56</ele>
        <time>2017-09-27T09:01:45Z</time>
      </trkpt>
      <trkpt lat="47.67121" lon="6.0814">
        <ele>257.07</ele>
        <time>2017-09-27T09:01:48Z</time>
      </trkpt>
      <trkpt lat="47.67117" lon="6.08136">
        <ele>256.69</ele>
        <time>2017-09-27T09:01:50Z</time>
      </trkpt>
      <trkpt lat="47.67111" lon="6.08132">
        <ele>256.26</ele>
        <time>2017-09-27T09:01:52Z</time>
      </trkpt>
      <trkpt lat="47.67104" lon="6.08129">
        <ele>252.68</ele>
        <time>2017-09-27T09:01:54Z</time>
      </trkpt>
      <trkpt lat="47.67094" lon="6.08124">
        <ele>249.25</ele>
        <time>2017-09-27T09:01:56Z</time>
      </trkpt>
      <trkpt lat="47.67089" lon="6.0812">
        <ele>247.8</ele>
        <time>2017-09-27T09:01:57Z</time>
      </trkpt>
      <trkpt lat="47.67085" lon="6.08117">
        <ele>246.5</ele>
        <time>2017-09-27T09:01:58Z</time>
      </trkpt>
      <trkpt lat="47.6708" lon="6.08114">
        <ele>245.35</ele>
        <time>2017-09-27T09:01:59Z</time>
      </trkpt>
      <trkpt lat="47.67075" lon="6.08112">
        <ele>244.31</ele>
        <time>2017-09-27T09:02:00Z</time>
      </trkpt>
      <trkpt lat="47.67069" lon="6.08111">
        <ele>243.36</ele>
        <time>2017-09-27T09:02:01Z</time>
      </trkpt>
      <trkpt lat="47.67064" lon="6.0811">
        <ele>242.52</ele>
        <time>2017-09-27T09:02:02Z</time>
      </trkpt>
      <trkpt lat="47.67059" lon="6.0811">
        <ele>241.78</ele>
        <time>2017-09-27T09:02:03Z</time>
      </trkpt>
      <trkpt lat="47.67054" lon="6.0811">
        <ele>241.1</ele>
        <time>2017-09-27T09:02:04Z</time>
      </trkpt>
      <trkpt lat="47.67049" lon="6.0811">
        <ele>240.49</ele>
        <time>2017-09-27T09:02:05Z</time>
      </trkpt>
      <trkpt lat="47.67044" lon="6.08109">
        <ele>240.04</ele>
        <time>2017-09-27T09:02:06Z</time>
      </trkpt>
      <trkpt lat="47.67039" lon="6.08108">
        <ele>239.65</ele>
        <time>2017-09-27T09:02:07Z</time>
      </trkpt>
      <trkpt lat="47.67034" lon="6.08108">
        <ele>239.32</ele>
        <time>2017-09-27T09:02:08Z</time>
      </trkpt>
      <trkpt lat="47.67029" lon="6.08108">
        <ele>239.03</ele>
        <time>2017-09-27T09:02:09Z</time>
      </trkpt>
      <trkpt lat="47.67023" lon="6.08109">
        <ele>238.76</ele>
        <time>2017-09-27T09:02:10Z</time>
      </trkpt>
      <trkpt lat="47.67018" lon="6.0811">
        <ele>238.47</ele>
        <time>2017-09-27T09:02:11Z</time>
      </trkpt>
      <trkpt lat="47.67013" lon="6.08109">
        <ele>238.18</ele>
        <time>2017-09-27T09:02:12Z</time>
      </trkpt>
      <trkpt lat="47.67008" lon="6.08109">
        <ele>237.88</ele>
        <time>2017-09-27T09:02:13Z</time>
      </trkpt>
      <trkpt lat="47.67003" lon="6.08109">
        <ele>237.58</ele>
        <time>2017-09-27T09:02:14Z</time>
      </trkpt>
      <trkpt lat="47.66997" lon="6.08106">
        <ele>237.27</ele>
        <time>2017-09-27T09:02:15Z</time>
      </trkpt>
      <trkpt lat="47.66992" lon="6.08104">
        <ele>236.97</ele>
        <time>2017-09-27T09:02:16Z</time>
      </trkpt>
      <trkpt lat="47.66987" lon="6.08103">
        <ele>236.7</ele>
        <time>2017-09-27T09:02:17Z</time>
      </trkpt>
      <trkpt lat="47.66982" lon="6.081">
        <ele>236.47</ele>
        <time>2017-09-27T09:02:18Z</time>
      </trkpt>
      <trkpt lat="47.66978" lon="6.08097">
        <ele>236.29</ele>
        <time>2017-09-27T09:02:19Z</time>
      </trkpt>
      <trkpt lat="47.66974" lon="6.08093">
        <ele>236.11</ele>
        <time>2017-09-27T09:02:20Z</time>
      </trkpt>
      <trkpt lat="47.6697" lon="6.08089">
        <ele>235.92</ele>
        <time>2017-09-27T09:02:21Z</time>
      </trkpt>
      <trkpt lat="47.66966" lon="6.08085">
        <ele>235.72</ele>
        <time>2017-09-27T09:02:22Z</time>
      </trkpt>
      <trkpt lat="47.6696" lon="6.08078">
        <ele>235.59</ele>
        <time>2017-09-27T09:02:24Z</time>
      </trkpt>
      <trkpt lat="47.66954" lon="6.08071">
        <ele>234.98</ele>
        <time>2017-09-27T09:02:26Z</time>
      </trkpt>
      <trkpt lat="47.66947" lon="6.08063">
        <ele>234.53</ele>
        <time>2017-09-27T09:02:28Z</time>
      </trkpt>
      <trkpt lat="47.66941" lon="6.08055">
        <ele>234.42</ele>
        <time>2017-09-27T09:02:30Z</time>
      </trkpt>
      <trkpt lat="47.66935" lon="6.08047">
        <ele>234.34</ele>
        <time>2017-09-27T09:02:32Z</time>
      </trkpt>
      <trkpt lat="47.6693" lon="6.08042">
        <ele>234.26</ele>
        <time>2017-09-27T09:02:34Z</time>
      </trkpt>
      <trkpt lat="47.66925" lon="6.08044">
        <ele>234.17</ele>
        <time>2017-09-27T09:02:36Z</time>
      </trkpt>
      <trkpt lat="47.66922" lon="6.08051">
        <ele>234.03</ele>
        <time>2017-09-27T09:02:39Z</time>
      </trkpt>
      <trkpt lat="47.66921" lon="6.0806">
        <ele>233.89</ele>
        <time>2017-09-27T09:02:42Z</time>
      </trkpt>
      <trkpt lat="47.66917" lon="6.08065">
        <ele>233.7</ele>
        <time>2017-09-27T09:02:46Z</time>
      </trkpt>
      <trkpt lat="47.66913" lon="6.08069">
        <ele>233.51</ele>
        <time>2017-09-27T09:02:50Z</time>
      </trkpt>
      <trkpt lat="47.66909" lon="6.08074">
        <ele>233.33</ele>
        <time>2017-09-27T09:02:54Z</time>
      </trkpt>
      <trkpt lat="47.66906" lon="6.0808">
        <ele>233.2</ele>
        <time>2017-09-27T09:02:57Z</time>
      </trkpt>
      <trkpt lat="47.66903" lon="6.08087">
        <ele>233.04</ele>
        <time>2017-09-27T09:03:01Z</time>
      </trkpt>
      <trkpt lat="47.669" lon="6.08092">
        <ele>232.93</ele>
        <time>2017-09-27T09:03:04Z</time>
      </trkpt>
      <trkpt lat="47.66896" lon="6.08098">
        <ele>232.8</ele>
        <time>2017-09-27T09:03:08Z</time>
      </trkpt>
      <trkpt lat="47.66893" lon="6.08103">
        <ele>232.66</ele>
        <time>2017-09-27T09:03:12Z</time>
      </trkpt>
      <trkpt lat="47.66889" lon="6.08108">
        <ele>232.51</ele>
        <time>2017-09-27T09:03:17Z</time>
      </trkpt>
      <trkpt lat="47.66887" lon="6.08114">
        <ele>232.41</ele>
        <time>2017-09-27T09:03:20Z</time>
      </trkpt>
      <trkpt lat="47.66884" lon="6.0812">
        <ele>232.3</ele>
        <time>2017-09-27T09:03:24Z</time>
      </trkpt>
      <trkpt lat="47.66883" lon="6.08127">
        <ele>232.22</ele>
        <time>2017-09-27T09:03:27Z</time>
      </trkpt>
      <trkpt lat="47.66883" lon="6.08134">
        <ele>232.14</ele>
        <time>2017-09-27T09:03:30Z</time>
      </trkpt>
      <trkpt lat="47.66884" lon="6.08141">
        <ele>232.07</ele>
        <time>2017-09-27T09:03:33Z</time>
      </trkpt>
      <trkpt lat="47.66886" lon="6.08149">
        <ele>231.99</ele>
        <time>2017-09-27T09:03:37Z</time>
      </trkpt>
      <trkpt lat="47.66887" lon="6.08157">
        <ele>231.91</ele>
        <time>2017-09-27T09:03:41Z</time>
      </trkpt>
      <trkpt lat="47.6689" lon="6.08164">
        <ele>231.86</ele>
        <time>2017-09-27T09:03:44Z</time>
      </trkpt>
      <trkpt lat="47.66893" lon="6.08171">
        <ele>231.8</ele>
        <time>2017-09-27T09:03:48Z</time>
      </trkpt>
      <trkpt lat="47.66895" lon="6.08178">
        <ele>231.76</ele>
        <time>2017-09-27T09:03:51Z</time>
      </trkpt>
      <trkpt lat="47.66897" lon="6.08184">
        <ele>231.72</ele>
        <time>2017-09-27T09:03:54Z</time>
      </trkpt>
      <trkpt lat="47.669" lon="6.08192">
        <ele>231.67</ele>
        <time>2017-09-27T09:03:58Z</time>
      </trkpt>
      <trkpt lat="47.66902" lon="6.082">
        <ele>231.63</ele>
        <time>2017-09-27T09:04:02Z</time>
      </trkpt>
      <trkpt lat="47.66904" lon="6.08206">
        <ele>231.62</ele>
        <time>2017-09-27T09:04:05Z</time>
      </trkpt>
      <trkpt lat="47.66905" lon="6.08214">
        <ele>231.61</ele>
        <time>2017-09-27T09:04:09Z</time>
      </trkpt>
      <trkpt lat="47.66905" lon="6.08221">
        <ele>231.61</ele>
        <time>2017-09-27T09:04:12Z</time>
      </trkpt>
      <trkpt lat="47.66904" lon="6.08227">
        <ele>231.6</ele>
        <time>2017-09-27T09:04:15Z</time>
      </trkpt>
      <trkpt lat="47.669" lon="6.08234">
        <ele>231.61</ele>
        <time>2017-09-27T09:04:18Z</time>
      </trkpt>
      <trkpt lat="47.66896" lon="6.08239">
        <ele>231.62</ele>
        <time>2017-09-27T09:04:21Z</time>
      </trkpt>
      <trkpt lat="47.6689" lon="6.08239">
        <ele>231.63</ele>
        <time>2017-09-27T09:04:24Z</time>
      </trkpt>
      <trkpt lat="47.66886" lon="6.08242">
        <ele>231.65</ele>
        <time>2017-09-27T09:04:27Z</time>
      </trkpt>
      <trkpt lat="47.66881" lon="6.0824">
        <ele>231.7</ele>
        <time>2017-09-27T09:04:32Z</time>
      </trkpt>
      <trkpt lat="47.6688" lon="6.08232">
        <ele>231.74</ele>
        <time>2017-09-27T09:04:36Z</time>
      </trkpt>
      <trkpt lat="47.66874" lon="6.08229">
        <ele>231.81</ele>
        <time>2017-09-27T09:04:41Z</time>
      </trkpt>
      <trkpt lat="47.6687" lon="6.08228">
        <ele>231.86</ele>
        <time>2017-09-27T09:04:44Z</time>
      </trkpt>
      <trkpt lat="47.66864" lon="6.08223">
        <ele>231.91</ele>
        <time>2017-09-27T09:04:47Z</time>
      </trkpt>
      <trkpt lat="47.66859" lon="6.0822">
        <ele>231.97</ele>
        <time>2017-09-27T09:04:50Z</time>
      </trkpt>
      <trkpt lat="47.66854" lon="6.08217">
        <ele>232.03</ele>
        <time>2017-09-27T09:04:53Z</time>
      </trkpt>
      <trkpt lat="47.66848" lon="6.08214">
        <ele>232.1</ele>
        <time>2017-09-27T09:04:56Z</time>
      </trkpt>
      <trkpt lat="47.66843" lon="6.08213">
        <ele>232.17</ele>
        <time>2017-09-27T09:04:59Z</time>
      </trkpt>
      <trkpt lat="47.66837" lon="6.08211">
        <ele>232.25</ele>
        <time>2017-09-27T09:05:02Z</time>
      </trkpt>
      <trkpt lat="47.66831" lon="6.08208">
        <ele>232.33</ele>
        <time>2017-09-27T09:05:05Z</time>
      </trkpt>
      <trkpt lat="47.66827" lon="6.08206">
        <ele>232.39</ele>
        <time>2017-09-27T09:05:07Z</time>
      </trkpt>
      <trkpt lat="47.6682" lon="6.08204">
        <ele>232.48</ele>
        <time>2017-09-27T09:05:10Z</time>
      </trkpt>
      <trkpt lat="47.66816" lon="6.08204">
        <ele>232.54</ele>
        <time>2017-09-27T09:05:12Z</time>
      </trkpt>
      <trkpt lat="47.66811" lon="6.08203">
        <ele>232.6</ele>
        <time>2017-09-27T09:05:14Z</time>
      </trkpt>
      <trkpt lat="47.66806" lon="6.08204">
        <ele>232.66</ele>
        <time>2017-09-27T09:05:16Z</time>
      </trkpt>
      <trkpt lat="47.66802" lon="6.08203">
        <ele>232.73</ele>
        <time>2017-09-27T09:05:18Z</time>
      </trkpt>
      <trkpt lat="47.66797" lon="6.08204">
        <ele>232.8</ele>
        <time>2017-09-27T09:05:20Z</time>
      </trkpt>
      <trkpt lat="47.6679" lon="6.08205">
        <ele>232.9</ele>
        <time>2017-09-27T09:05:23Z</time>
      </trkpt>
      <trkpt lat="47.66786" lon="6.08207">
        <ele>232.96</ele>
        <time>2017-09-27T09:05:25Z</time>
      </trkpt>
      <trkpt lat="47.6678" lon="6.08209">
        <ele>233.07</ele>
        <time>2017-09-27T09:05:28Z</time>
      </trkpt>
      <trkpt lat="47.66774" lon="6.08212">
        <ele>233.17</ele>
        <time>2017-09-27T09:05:31Z</time>
      </trkpt>
      <trkpt lat="47.66768" lon="6.08215">
        <ele>233.27</ele>
        <time>2017-09-27T09:05:34Z</time>
      </trkpt>
      <trkpt lat="47.66763" lon="6.0822">
        <ele>233.38</ele>
        <time>2017-09-27T09:05:37Z</time>
      </trkpt>
      <trkpt lat="47.66759" lon="6.08224">
        <ele>233.48</ele>
        <time>2017-09-27T09:05:40Z</time>
      </trkpt>
      <trkpt lat="47.66754" lon="6.08229">
        <ele>233.58</ele>
        <time>2017-09-27T09:05:43Z</time>
      </trkpt>
      <trkpt lat="47.6675" lon="6.08234">
        <ele>233.69</ele>
        <time>2017-09-27T09:05:46Z</time>
      </trkpt>
      <trkpt lat="47.66746" lon="6.08239">
        <ele>233.79</ele>
        <time>2017-09-27T09:05:49Z</time>
      </trkpt>
      <trkpt lat="47.66742" lon="6.08244">
        <ele>233.9</ele>
        <time>2017-09-27T09:05:52Z</time>
      </trkpt>
      <trkpt lat="47.66738" lon="6.08248">
        <ele>234</ele>
        <time>2017-09-27T09:05:55Z</time>
      </trkpt>
      <trkpt lat="47.66734" lon="6.08254">
        <ele>234.1</ele>
        <time>2017-09-27T09:05:58Z</time>
      </trkpt>
      <trkpt lat="47.66731" lon="6.08259">
        <ele>234.21</ele>
        <time>2017-09-27T09:06:01Z</time>
      </trkpt>
      <trkpt lat="47.66727" lon="6.08265">
        <ele>234.31</ele>
        <time>2017-09-27T09:06:04Z</time>
      </trkpt>
      <trkpt lat="47.66723" lon="6.08269">
        <ele>234.42</ele>
        <time>2017-09-27T09:06:07Z</time>
      </trkpt>
      <trkpt lat="47.6672" lon="6.08274">
        <ele>234.53</ele>
        <time>2017-09-27T09:06:10Z</time>
      </trkpt>
      <trkpt lat="47.66716" lon="6.08281">
        <ele>234.63</ele>
        <time>2017-09-27T09:06:13Z</time>
      </trkpt>
      <trkpt lat="47.66712" lon="6.08286">
        <ele>234.74</ele>
        <time>2017-09-27T09:06:16Z</time>
      </trkpt>
      <trkpt lat="47.66708" lon="6.08292">
        <ele>234.84</ele>
        <time>2017-09-27T09:06:19Z</time>
      </trkpt>
      <trkpt lat="47.66703" lon="6.08298">
        <ele>234.94</ele>
        <time>2017-09-27T09:06:22Z</time>
      </trkpt>
      <trkpt lat="47.66701" lon="6.08304">
        <ele>235.01</ele>
        <time>2017-09-27T09:06:24Z</time>
      </trkpt>
      <trkpt lat="47.66697" lon="6.08311">
        <ele>235.12</ele>
        <time>2017-09-27T09:06:27Z</time>
      </trkpt>
      <trkpt lat="47.66694" lon="6.08317">
        <ele>235.19</ele>
        <time>2017-09-27T09:06:29Z</time>
      </trkpt>
      <trkpt lat="47.6669" lon="6.08323">
        <ele>235.26</ele>
        <time>2017-09-27T09:06:31Z</time>
      </trkpt>
      <trkpt lat="47.66687" lon="6.08329">
        <ele>235.32</ele>
        <time>2017-09-27T09:06:33Z</time>
      </trkpt>
      <trkpt lat="47.66683" lon="6.08335">
        <ele>235.39</ele>
        <time>2017-09-27T09:06:35Z</time>
      </trkpt>
      <trkpt lat="47.66678" lon="6.08342">
        <ele>235.46</ele>
        <time>2017-09-27T09:06:37Z</time>
      </trkpt>
      <trkpt lat="47.66674" lon="6.08348">
        <ele>235.52</ele>
        <time>2017-09-27T09:06:39Z</time>
      </trkpt>
      <trkpt lat="47.66669" lon="6.08354">
        <ele>235.59</ele>
        <time>2017-09-27T09:06:41Z</time>
      </trkpt>
      <trkpt lat="47.66665" lon="6.08359">
        <ele>235.65</ele>
        <time>2017-09-27T09:06:43Z</time>
      </trkpt>
      <trkpt lat="47.6666" lon="6.08365">
        <ele>235.72</ele>
        <time>2017-09-27T09:06:45Z</time>
      </trkpt>
      <trkpt lat="47.66654" lon="6.08371">
        <ele>235.78</ele>
        <time>2017-09-27T09:06:47Z</time>
      </trkpt>
      <trkpt lat="47.6665" lon="6.08376">
        <ele>235.84</ele>
        <time>2017-09-27T09:06:49Z</time>
      </trkpt>
      <trkpt lat="47.66645" lon="6.08382">
        <ele>235.91</ele>
        <time>2017-09-27T09:06:51Z</time>
      </trkpt>
      <trkpt lat="47.66639" lon="6.08387">
        <ele>235.97</ele>
        <time>2017-09-27T09:06:53Z</time>
      </trkpt>
      <trkpt lat="47.66634" lon="6.08393">
        <ele>236.03</ele>
        <time>2017-09-27T09:06:55Z</time>
      </trkpt>
      <trkpt lat="47.66628" lon="6.08397">
        <ele>236.1</ele>
        <time>2017-09-27T09:06:57Z</time>
      </trkpt>
      <trkpt lat="47.66622" lon="6.084">
        <ele>236.17</ele>
        <time>2017-09-27T09:06:59Z</time>
      </trkpt>
      <trkpt lat="47.66616" lon="6.08404">
        <ele>236.23</ele>
        <time>2017-09-27T09:07:01Z</time>
      </trkpt>
      <trkpt lat="47.66611" lon="6.08406">
        <ele>236.3</ele>
        <time>2017-09-27T09:07:03Z</time>
      </trkpt>
      <trkpt lat="47.66605" lon="6.08408">
        <ele>236.37</ele>
        <time>2017-09-27T09:07:05Z</time>
      </trkpt>
      <trkpt lat="47.666" lon="6.08408">
        <ele>236.44</ele>
        <time>2017-09-27T09:07:07Z</time>
      </trkpt>
      <trkpt lat="47.66594" lon="6.08409">
        <ele>236.54</ele>
        <time>2017-09-27T09:07:10Z</time>
      </trkpt>
      <trkpt lat="47.66589" lon="6.0841">
        <ele>236.61</ele>
        <time>2017-09-27T09:07:12Z</time>
      </trkpt>
      <trkpt lat="47.66584" lon="6.0841">
        <ele>236.69</ele>
        <time>2017-09-27T09:07:14Z</time>
      </trkpt>
      <trkpt lat="47.66579" lon="6.08408">
        <ele>236.78</ele>
        <time>2017-09-27T09:07:16Z</time>
      </trkpt>
      <trkpt lat="47.66573" lon="6.08407">
        <ele>236.87</ele>
        <time>2017-09-27T09:07:18Z</time>
      </trkpt>
      <trkpt lat="47.66568" lon="6.08406">
        <ele>236.96</ele>
        <time>2017-09-27T09:07:20Z</time>
      </trkpt>
      <trkpt lat="47.66564" lon="6.08405">
        <ele>237.07</ele>
        <time>2017-09-27T09:07:22Z</time>
      </trkpt>
      <trkpt lat="47.66559" lon="6.08404">
        <ele>237.17</ele>
        <time>2017-09-27T09:07:24Z</time>
      </trkpt>
      <trkpt lat="47.66553" lon="6.08401">
        <ele>237.34</ele>
        <time>2017-09-27T09:07:27Z</time>
      </trkpt>
      <trkpt lat="47.66548" lon="6.08398">
        <ele>237.46</ele>
        <time>2017-09-27T09:07:29Z</time>
      </trkpt>
      <trkpt lat="47.66544" lon="6.08395">
        <ele>237.58</ele>
        <time>2017-09-27T09:07:31Z</time>
      </trkpt>
      <trkpt lat="47.66538" lon="6.08392">
        <ele>237.71</ele>
        <time>2017-09-27T09:07:33Z</time>
      </trkpt>
      <trkpt lat="47.66533" lon="6.0839">
        <ele>237.83</ele>
        <time>2017-09-27T09:07:35Z</time>
      </trkpt>
      <trkpt lat="47.66529" lon="6.08387">
        <ele>237.96</ele>
        <time>2017-09-27T09:07:37Z</time>
      </trkpt>
      <trkpt lat="47.66524" lon="6.08384">
        <ele>238.1</ele>
        <time>2017-09-27T09:07:39Z</time>
      </trkpt>
      <trkpt lat="47.66518" lon="6.0838">
        <ele>238.3</ele>
        <time>2017-09-27T09:07:42Z</time>
      </trkpt>
      <trkpt lat="47.66514" lon="6.08378">
        <ele>238.5</ele>
        <time>2017-09-27T09:07:45Z</time>
      </trkpt>
      <trkpt lat="47.66508" lon="6.08375">
        <ele>238.7</ele>
        <time>2017-09-27T09:07:48Z</time>
      </trkpt>
      <trkpt lat="47.66503" lon="6.08374">
        <ele>238.91</ele>
        <time>2017-09-27T09:07:51Z</time>
      </trkpt>
      <trkpt lat="47.66498" lon="6.08372">
        <ele>240.04</ele>
        <time>2017-09-27T09:08:51Z</time>
      </trkpt>
      <trkpt lat="47.66493" lon="6.08369">
        <ele>240.25</ele>
        <time>2017-09-27T09:08:53Z</time>
      </trkpt>
      <trkpt lat="47.66488" lon="6.08368">
        <ele>240.46</ele>
        <time>2017-09-27T09:08:55Z</time>
      </trkpt>
      <trkpt lat="47.66482" lon="6.08366">
        <ele>240.66</ele>
        <time>2017-09-27T09:08:57Z</time>
      </trkpt>
      <trkpt lat="47.66477" lon="6.08364">
        <ele>241.79</ele>
        <time>2017-09-27T09:09:27Z</time>
      </trkpt>
      <trkpt lat="47.66472" lon="6.08362">
        <ele>242.09</ele>
        <time>2017-09-27T09:09:30Z</time>
      </trkpt>
      <trkpt lat="47.66468" lon="6.0836">
        <ele>242.29</ele>
        <time>2017-09-27T09:09:32Z</time>
      </trkpt>
      <trkpt lat="47.66463" lon="6.08359">
        <ele>242.48</ele>
        <time>2017-09-27T09:09:34Z</time>
      </trkpt>
      <trkpt lat="47.66458" lon="6.08359">
        <ele>242.67</ele>
        <time>2017-09-27T09:09:36Z</time>
      </trkpt>
      <trkpt lat="47.66452" lon="6.08359">
        <ele>242.85</ele>
        <time>2017-09-27T09:09:38Z</time>
      </trkpt>
      <trkpt lat="47.66448" lon="6.08359">
        <ele>243.03</ele>
        <time>2017-09-27T09:09:40Z</time>
      </trkpt>
      <trkpt lat="47.66443" lon="6.08361">
        <ele>247.9</ele>
        <time>2017-09-27T09:13:23Z</time>
      </trkpt>
      <trkpt lat="47.66439" lon="6.08363">
        <ele>248.74</ele>
        <time>2017-09-27T09:13:57Z</time>
      </trkpt>
      <trkpt lat="47.66432" lon="6.08362">
        <ele>249.14</ele>
        <time>2017-09-27T09:14:00Z</time>
      </trkpt>
      <trkpt lat="47.66425" lon="6.08362">
        <ele>249.4</ele>
        <time>2017-09-27T09:14:02Z</time>
      </trkpt>
      <trkpt lat="47.66416" lon="6.08361">
        <ele>250.45</ele>
        <time>2017-09-27T09:14:04Z</time>
      </trkpt>
      <trkpt lat="47.66411" lon="6.08361">
        <ele>251.43</ele>
        <time>2017-09-27T09:14:05Z</time>
      </trkpt>
      <trkpt lat="47.66407" lon="6.08361">
        <ele>252.3</ele>
        <time>2017-09-27T09:14:06Z</time>
      </trkpt>
      <trkpt lat="47.66397" lon="6.08362">
        <ele>253.6</ele>
        <time>2017-09-27T09:14:08Z</time>
      </trkpt>
      <trkpt lat="47.66393" lon="6.08363">
        <ele>254.08</ele>
        <time>2017-09-27T09:14:09Z</time>
      </trkpt>
      <trkpt lat="47.66387" lon="6.08364">
        <ele>254.46</ele>
        <time>2017-09-27T09:14:10Z</time>
      </trkpt>
      <trkpt lat="47.66381" lon="6.08364">
        <ele>254.77</ele>
        <time>2017-09-27T09:14:11Z</time>
      </trkpt>
      <trkpt lat="47.66376" lon="6.08366">
        <ele>255.03</ele>
        <time>2017-09-27T09:14:12Z</time>
      </trkpt>
      <trkpt lat="47.66371" lon="6.08369">
        <ele>255.23</ele>
        <time>2017-09-27T09:14:13Z</time>
      </trkpt>
      <trkpt lat="47.66366" lon="6.08375">
        <ele>255.39</ele>
        <time>2017-09-27T09:14:14Z</time>
      </trkpt>
      <trkpt lat="47.66361" lon="6.08382">
        <ele>255.52</ele>
        <time>2017-09-27T09:14:15Z</time>
      </trkpt>
      <trkpt lat="47.66357" lon="6.0839">
        <ele>255.63</ele>
        <time>2017-09-27T09:14:16Z</time>
      </trkpt>
      <trkpt lat="47.66354" lon="6.08398">
        <ele>255.71</ele>
        <time>2017-09-27T09:14:17Z</time>
      </trkpt>
      <trkpt lat="47.66352" lon="6.08409">
        <ele>255.77</ele>
        <time>2017-09-27T09:14:18Z</time>
      </trkpt>
      <trkpt lat="47.66351" lon="6.0842">
        <ele>255.82</ele>
        <time>2017-09-27T09:14:19Z</time>
      </trkpt>
      <trkpt lat="47.66349" lon="6.0843">
        <ele>255.86</ele>
        <time>2017-09-27T09:14:20Z</time>
      </trkpt>
      <trkpt lat="47.66345" lon="6.08437">
        <ele>255.9</ele>
        <time>2017-09-27T09:14:21Z</time>
      </trkpt>
      <trkpt lat="47.66342" lon="6.08448">
        <ele>255.93</ele>
        <time>2017-09-27T09:14:22Z</time>
      </trkpt>
      <trkpt lat="47.66338" lon="6.08458">
        <ele>255.9</ele>
        <time>2017-09-27T09:14:23Z</time>
      </trkpt>
      <trkpt lat="47.66334" lon="6.08467">
        <ele>255.86</ele>
        <time>2017-09-27T09:14:24Z</time>
      </trkpt>
      <trkpt lat="47.66329" lon="6.08474">
        <ele>255.75</ele>
        <time>2017-09-27T09:14:25Z</time>
      </trkpt>
      <trkpt lat="47.66326" lon="6.0848">
        <ele>255.63</ele>
        <time>2017-09-27T09:14:26Z</time>
      </trkpt>
      <trkpt lat="47.66322" lon="6.08484">
        <ele>255.54</ele>
        <time>2017-09-27T09:14:27Z</time>
      </trkpt>
      <trkpt lat="47.66317" lon="6.08487">
        <ele>255.45</ele>
        <time>2017-09-27T09:14:28Z</time>
      </trkpt>
      <trkpt lat="47.66311" lon="6.08487">
        <ele>255.35</ele>
        <time>2017-09-27T09:14:30Z</time>
      </trkpt>
      <trkpt lat="47.66306" lon="6.08484">
        <ele>255.32</ele>
        <time>2017-09-27T09:14:32Z</time>
      </trkpt>
      <trkpt lat="47.66301" lon="6.08478">
        <ele>255.28</ele>
        <time>2017-09-27T09:14:37Z</time>
      </trkpt>
      <trkpt lat="47.66297" lon="6.08472">
        <ele>255.27</ele>
        <time>2017-09-27T09:14:39Z</time>
      </trkpt>
      <trkpt lat="47.66293" lon="6.08466">
        <ele>255.27</ele>
        <time>2017-09-27T09:14:41Z</time>
      </trkpt>
      <trkpt lat="47.6629" lon="6.0846">
        <ele>255.28</ele>
        <time>2017-09-27T09:14:43Z</time>
      </trkpt>
      <trkpt lat="47.66287" lon="6.08454">
        <ele>255.28</ele>
        <time>2017-09-27T09:14:45Z</time>
      </trkpt>
      <trkpt lat="47.66283" lon="6.08449">
        <ele>255.3</ele>
        <time>2017-09-27T09:14:47Z</time>
      </trkpt>
      <trkpt lat="47.6628" lon="6.08444">
        <ele>255.31</ele>
        <time>2017-09-27T09:14:49Z</time>
      </trkpt>
      <trkpt lat="47.66277" lon="6.08439">
        <ele>255.32</ele>
        <time>2017-09-27T09:14:51Z</time>
      </trkpt>
      <trkpt lat="47.66274" lon="6.08432">
        <ele>255.33</ele>
        <time>2017-09-27T09:14:53Z</time>
      </trkpt>
      <trkpt lat="47.66272" lon="6.08425">
        <ele>255.34</ele>
        <time>2017-09-27T09:14:55Z</time>
      </trkpt>
      <trkpt lat="47.6627" lon="6.08416">
        <ele>255.37</ele>
        <time>2017-09-27T09:14:57Z</time>
      </trkpt>
      <trkpt lat="47.6627" lon="6.08409">
        <ele>255.39</ele>
        <time>2017-09-27T09:14:59Z</time>
      </trkpt>
      <trkpt lat="47.6627" lon="6.08402">
        <ele>255.41</ele>
        <time>2017-09-27T09:15:01Z</time>
      </trkpt>
      <trkpt lat="47.66269" lon="6.08395">
        <ele>255.42</ele>
        <time>2017-09-27T09:15:03Z</time>
      </trkpt>
      <trkpt lat="47.66269" lon="6.08388">
        <ele>255.42</ele>
        <time>2017-09-27T09:15:05Z</time>
      </trkpt>
      <trkpt lat="47.66271" lon="6.08379">
        <ele>255.42</ele>
        <time>2017-09-27T09:15:07Z</time>
      </trkpt>
      <trkpt lat="47.66275" lon="6.08368">
        <ele>255.4</ele>
        <time>2017-09-27T09:15:09Z</time>
      </trkpt>
      <trkpt lat="47.66279" lon="6.08357">
        <ele>255.37</ele>
        <time>2017-09-27T09:15:11Z</time>
      </trkpt>
      <trkpt lat="47.66282" lon="6.08348">
        <ele>255.33</ele>
        <time>2017-09-27T09:15:13Z</time>
      </trkpt>
      <trkpt lat="47.66285" lon="6.08339">
        <ele>255.29</ele>
        <time>2017-09-27T09:15:15Z</time>
      </trkpt>
      <trkpt lat="47.66288" lon="6.08331">
        <ele>255.26</ele>
        <time>2017-09-27T09:15:17Z</time>
      </trkpt>
      <trkpt lat="47.6629" lon="6.08325">
        <ele>255.22</ele>
        <time>2017-09-27T09:15:19Z</time>
      </trkpt>
      <trkpt lat="47.66291" lon="6.08318">
        <ele>255.17</ele>
        <time>2017-09-27T09:15:21Z</time>
      </trkpt>
      <trkpt lat="47.66296" lon="6.0831">
        <ele>255.13</ele>
        <time>2017-09-27T09:15:23Z</time>
      </trkpt>
      <trkpt lat="47.66301" lon="6.08305">
        <ele>255.1</ele>
        <time>2017-09-27T09:15:25Z</time>
      </trkpt>
      <trkpt lat="47.66305" lon="6.08299">
        <ele>255.05</ele>
        <time>2017-09-27T09:15:28Z</time>
      </trkpt>
      <trkpt lat="47.66309" lon="6.08294">
        <ele>255.02</ele>
        <time>2017-09-27T09:15:30Z</time>
      </trkpt>
      <trkpt lat="47.66313" lon="6.08288">
        <ele>254.99</ele>
        <time>2017-09-27T09:15:32Z</time>
      </trkpt>
      <trkpt lat="47.66313" lon="6.08277">
        <ele>254.97</ele>
        <time>2017-09-27T09:15:34Z</time>
      </trkpt>
      <trkpt lat="47.66312" lon="6.08268">
        <ele>254.96</ele>
        <time>2017-09-27T09:15:36Z</time>
      </trkpt>
      <trkpt lat="47.66314" lon="6.0826">
        <ele>254.95</ele>
        <time>2017-09-27T09:15:38Z</time>
      </trkpt>
      <trkpt lat="47.66318" lon="6.0825">
        <ele>254.95</ele>
        <time>2017-09-27T09:15:40Z</time>
      </trkpt>
      <trkpt lat="47.66322" lon="6.08242">
        <ele>254.96</ele>
        <time>2017-09-27T09:15:42Z</time>
      </trkpt>
      <trkpt lat="47.66323" lon="6.08235">
        <ele>254.99</ele>
        <time>2017-09-27T09:15:44Z</time>
      </trkpt>
      <trkpt lat="47.66325" lon="6.08228">
        <ele>255.02</ele>
        <time>2017-09-27T09:15:46Z</time>
      </trkpt>
      <trkpt lat="47.66327" lon="6.08221">
        <ele>255.05</ele>
        <time>2017-09-27T09:15:48Z</time>
      </trkpt>
      <trkpt lat="47.66329" lon="6.08211">
        <ele>255.1</ele>
        <time>2017-09-27T09:15:50Z</time>
      </trkpt>
      <trkpt lat="47.6633" lon="6.08202">
        <ele>255.22</ele>
        <time>2017-09-27T09:15:54Z</time>
      </trkpt>
      <trkpt lat="47.66334" lon="6.08192">
        <ele>255.27</ele>
        <time>2017-09-27T09:15:56Z</time>
      </trkpt>
      <trkpt lat="47.66338" lon="6.08183">
        <ele>255.33</ele>
        <time>2017-09-27T09:15:58Z</time>
      </trkpt>
      <trkpt lat="47.6634" lon="6.08175">
        <ele>255.38</ele>
        <time>2017-09-27T09:16:00Z</time>
      </trkpt>
      <trkpt lat="47.66342" lon="6.08169">
        <ele>255.43</ele>
        <time>2017-09-27T09:16:02Z</time>
      </trkpt>
      <trkpt lat="47.66345" lon="6.08163">
        <ele>255.45</ele>
        <time>2017-09-27T09:16:03Z</time>
      </trkpt>
      <trkpt lat="47.66347" lon="6.08157">
        <ele>255.5</ele>
        <time>2017-09-27T09:16:05Z</time>
      </trkpt>
      <trkpt lat="47.66349" lon="6.08148">
        <ele>255.54</ele>
        <time>2017-09-27T09:16:07Z</time>
      </trkpt>
      <trkpt lat="47.6635" lon="6.0814">
        <ele>255.61</ele>
        <time>2017-09-27T09:16:10Z</time>
      </trkpt>
      <trkpt lat="47.6635" lon="6.08133">
        <ele>255.67</ele>
        <time>2017-09-27T09:16:13Z</time>
      </trkpt>
      <trkpt lat="47.66346" lon="6.08124">
        <ele>255.76</ele>
        <time>2017-09-27T09:16:17Z</time>
      </trkpt>
      <trkpt lat="47.66344" lon="6.08116">
        <ele>255.8</ele>
        <time>2017-09-27T09:16:19Z</time>
      </trkpt>
      <trkpt lat="47.66341" lon="6.08107">
        <ele>255.86</ele>
        <time>2017-09-27T09:16:22Z</time>
      </trkpt>
      <trkpt lat="47.66339" lon="6.081">
        <ele>255.9</ele>
        <time>2017-09-27T09:16:24Z</time>
      </trkpt>
      <trkpt lat="47.66334" lon="6.08089">
        <ele>255.95</ele>
        <time>2017-09-27T09:16:26Z</time>
      </trkpt>
      <trkpt lat="47.66331" lon="6.0808">
        <ele>256.01</ele>
        <time>2017-09-27T09:16:29Z</time>
      </trkpt>
      <trkpt lat="47.66328" lon="6.08071">
        <ele>256.06</ele>
        <time>2017-09-27T09:16:31Z</time>
      </trkpt>
      <trkpt lat="47.66325" lon="6.08064">
        <ele>256.11</ele>
        <time>2017-09-27T09:16:33Z</time>
      </trkpt>
      <trkpt lat="47.66323" lon="6.08058">
        <ele>256.16</ele>
        <time>2017-09-27T09:16:35Z</time>
      </trkpt>
      <trkpt lat="47.6632" lon="6.08049">
        <ele>256.24</ele>
        <time>2017-09-27T09:16:38Z</time>
      </trkpt>
      <trkpt lat="47.66317" lon="6.08042">
        <ele>256.3</ele>
        <time>2017-09-27T09:16:40Z</time>
      </trkpt>
      <trkpt lat="47.66315" lon="6.08035">
        <ele>256.36</ele>
        <time>2017-09-27T09:16:42Z</time>
      </trkpt>
      <trkpt lat="47.66313" lon="6.08028">
        <ele>256.44</ele>
        <time>2017-09-27T09:16:44Z</time>
      </trkpt>
      <trkpt lat="47.6631" lon="6.08021">
        <ele>256.51</ele>
        <time>2017-09-27T09:16:46Z</time>
      </trkpt>
      <trkpt lat="47.66309" lon="6.08012">
        <ele>256.62</ele>
        <time>2017-09-27T09:16:49Z</time>
      </trkpt>
      <trkpt lat="47.66307" lon="6.08005">
        <ele>256.74</ele>
        <time>2017-09-27T09:16:52Z</time>
      </trkpt>
      <trkpt lat="47.66303" lon="6.07993">
        <ele>256.81</ele>
        <time>2017-09-27T09:16:54Z</time>
      </trkpt>
      <trkpt lat="47.663" lon="6.07986">
        <ele>256.94</ele>
        <time>2017-09-27T09:16:57Z</time>
      </trkpt>
      <trkpt lat="47.66298" lon="6.07977">
        <ele>257.02</ele>
        <time>2017-09-27T09:16:59Z</time>
      </trkpt>
      <trkpt lat="47.66297" lon="6.0797">
        <ele>257.09</ele>
        <time>2017-09-27T09:17:01Z</time>
      </trkpt>
      <trkpt lat="47.66296" lon="6.07963">
        <ele>257.19</ele>
        <time>2017-09-27T09:17:04Z</time>
      </trkpt>
      <trkpt lat="47.66294" lon="6.07951">
        <ele>257.28</ele>
        <time>2017-09-27T09:17:07Z</time>
      </trkpt>
      <trkpt lat="47.66297" lon="6.07944">
        <ele>257.31</ele>
        <time>2017-09-27T09:17:08Z</time>
      </trkpt>
      <trkpt lat="47.66292" lon="6.07937">
        <ele>257.34</ele>
        <time>2017-09-27T09:17:09Z</time>
      </trkpt>
      <trkpt lat="47.6629" lon="6.07922">
        <ele>257.4</ele>
        <time>2017-09-27T09:17:11Z</time>
      </trkpt>
      <trkpt lat="47.66287" lon="6.0791">
        <ele>257.46</ele>
        <time>2017-09-27T09:17:13Z</time>
      </trkpt>
      <trkpt lat="47.66285" lon="6.07902">
        <ele>257.48</ele>
        <time>2017-09-27T09:17:14Z</time>
      </trkpt>
      <trkpt lat="47.66282" lon="6.07887">
        <ele>257.53</ele>
        <time>2017-09-27T09:17:16Z</time>
      </trkpt>
      <trkpt lat="47.6628" lon="6.07874">
        <ele>257.58</ele>
        <time>2017-09-27T09:17:18Z</time>
      </trkpt>
      <trkpt lat="47.66278" lon="6.07863">
        <ele>257.63</ele>
        <time>2017-09-27T09:17:20Z</time>
      </trkpt>
      <trkpt lat="47.66277" lon="6.07856">
        <ele>257.68</ele>
        <time>2017-09-27T09:17:22Z</time>
      </trkpt>
      <trkpt lat="47.66275" lon="6.07846">
        <ele>257.73</ele>
        <time>2017-09-27T09:17:24Z</time>
      </trkpt>
      <trkpt lat="47.66273" lon="6.07839">
        <ele>257.75</ele>
        <time>2017-09-27T09:17:25Z</time>
      </trkpt>
      <trkpt lat="47.66271" lon="6.0783">
        <ele>257.79</ele>
        <time>2017-09-27T09:17:27Z</time>
      </trkpt>
      <trkpt lat="47.6627" lon="6.07822">
        <ele>257.83</ele>
        <time>2017-09-27T09:17:29Z</time>
      </trkpt>
      <trkpt lat="47.66269" lon="6.07815">
        <ele>257.87</ele>
        <time>2017-09-27T09:17:31Z</time>
      </trkpt>
      <trkpt lat="47.66267" lon="6.07804">
        <ele>257.9</ele>
        <time>2017-09-27T09:17:33Z</time>
      </trkpt>
      <trkpt lat="47.66266" lon="6.07797">
        <ele>257.92</ele>
        <time>2017-09-27T09:17:35Z</time>
      </trkpt>
      <trkpt lat="47.66264" lon="6.0779">
        <ele>257.95</ele>
        <time>2017-09-27T09:17:37Z</time>
      </trkpt>
      <trkpt lat="47.66262" lon="6.07782">
        <ele>257.97</ele>
        <time>2017-09-27T09:17:40Z</time>
      </trkpt>
      <trkpt lat="47.6626" lon="6.07774">
        <ele>257.98</ele>
        <time>2017-09-27T09:17:42Z</time>
      </trkpt>
      <trkpt lat="47.66257" lon="6.07764">
        <ele>257.99</ele>
        <time>2017-09-27T09:17:44Z</time>
      </trkpt>
      <trkpt lat="47.66254" lon="6.07753">
        <ele>257.99</ele>
        <time>2017-09-27T09:17:46Z</time>
      </trkpt>
      <trkpt lat="47.66251" lon="6.07743">
        <ele>257.99</ele>
        <time>2017-09-27T09:17:48Z</time>
      </trkpt>
      <trkpt lat="47.66249" lon="6.07734">
        <ele>257.98</ele>
        <time>2017-09-27T09:17:50Z</time>
      </trkpt>
      <trkpt lat="47.66247" lon="6.07726">
        <ele>257.96</ele>
        <time>2017-09-27T09:17:52Z</time>
      </trkpt>
      <trkpt lat="47.66244" lon="6.07716">
        <ele>257.95</ele>
        <time>2017-09-27T09:17:54Z</time>
      </trkpt>
      <trkpt lat="47.66242" lon="6.07707">
        <ele>257.93</ele>
        <time>2017-09-27T09:17:56Z</time>
      </trkpt>
      <trkpt lat="47.6624" lon="6.07699">
        <ele>257.91</ele>
        <time>2017-09-27T09:17:58Z</time>
      </trkpt>
      <trkpt lat="47.66238" lon="6.07691">
        <ele>257.89</ele>
        <time>2017-09-27T09:18:00Z</time>
      </trkpt>
      <trkpt lat="47.66235" lon="6.07683">
        <ele>257.87</ele>
        <time>2017-09-27T09:18:02Z</time>
      </trkpt>
      <trkpt lat="47.66233" lon="6.07675">
        <ele>257.84</ele>
        <time>2017-09-27T09:18:04Z</time>
      </trkpt>
      <trkpt lat="47.6623" lon="6.07667">
        <ele>257.81</ele>
        <time>2017-09-27T09:18:06Z</time>
      </trkpt>
      <trkpt lat="47.66228" lon="6.0766">
        <ele>257.79</ele>
        <time>2017-09-27T09:18:08Z</time>
      </trkpt>
      <trkpt lat="47.66226" lon="6.07652">
        <ele>257.75</ele>
        <time>2017-09-27T09:18:10Z</time>
      </trkpt>
      <trkpt lat="47.66223" lon="6.07643">
        <ele>257.72</ele>
        <time>2017-09-27T09:18:12Z</time>
      </trkpt>
      <trkpt lat="47.66221" lon="6.07634">
        <ele>257.69</ele>
        <time>2017-09-27T09:18:14Z</time>
      </trkpt>
      <trkpt lat="47.66219" lon="6.07624">
        <ele>257.65</ele>
        <time>2017-09-27T09:18:16Z</time>
      </trkpt>
      <trkpt lat="47.66217" lon="6.07613">
        <ele>257.61</ele>
        <time>2017-09-27T09:18:18Z</time>
      </trkpt>
      <trkpt lat="47.66215" lon="6.07604">
        <ele>257.58</ele>
        <time>2017-09-27T09:18:20Z</time>
      </trkpt>
      <trkpt lat="47.66214" lon="6.07596">
        <ele>257.54</ele>
        <time>2017-09-27T09:18:22Z</time>
      </trkpt>
      <trkpt lat="47.66212" lon="6.07587">
        <ele>257.5</ele>
        <time>2017-09-27T09:18:24Z</time>
      </trkpt>
      <trkpt lat="47.66212" lon="6.07577">
        <ele>257.46</ele>
        <time>2017-09-27T09:18:26Z</time>
      </trkpt>
      <trkpt lat="47.6621" lon="6.07568">
        <ele>257.42</ele>
        <time>2017-09-27T09:18:28Z</time>
      </trkpt>
      <trkpt lat="47.66208" lon="6.07558">
        <ele>257.37</ele>
        <time>2017-09-27T09:18:30Z</time>
      </trkpt>
      <trkpt lat="47.66207" lon="6.07548">
        <ele>257.33</ele>
        <time>2017-09-27T09:18:32Z</time>
      </trkpt>
      <trkpt lat="47.66205" lon="6.07537">
        <ele>257.29</ele>
        <time>2017-09-27T09:18:34Z</time>
      </trkpt>
      <trkpt lat="47.66203" lon="6.07527">
        <ele>257.24</ele>
        <time>2017-09-27T09:18:36Z</time>
      </trkpt>
      <trkpt lat="47.66201" lon="6.07517">
        <ele>257.2</ele>
        <time>2017-09-27T09:18:38Z</time>
      </trkpt>
      <trkpt lat="47.662" lon="6.07508">
        <ele>257.16</ele>
        <time>2017-09-27T09:18:40Z</time>
      </trkpt>
      <trkpt lat="47.66198" lon="6.07499">
        <ele>257.12</ele>
        <time>2017-09-27T09:18:42Z</time>
      </trkpt>
      <trkpt lat="47.66196" lon="6.07489">
        <ele>257.07</ele>
        <time>2017-09-27T09:18:44Z</time>
      </trkpt>
      <trkpt lat="47.66194" lon="6.0748">
        <ele>257.03</ele>
        <time>2017-09-27T09:18:46Z</time>
      </trkpt>
      <trkpt lat="47.66193" lon="6.07472">
        <ele>256.99</ele>
        <time>2017-09-27T09:18:48Z</time>
      </trkpt>
      <trkpt lat="47.6619" lon="6.07464">
        <ele>256.95</ele>
        <time>2017-09-27T09:18:50Z</time>
      </trkpt>
      <trkpt lat="47.66189" lon="6.07456">
        <ele>256.91</ele>
        <time>2017-09-27T09:18:52Z</time>
      </trkpt>
      <trkpt lat="47.66188" lon="6.07449">
        <ele>256.86</ele>
        <time>2017-09-27T09:18:54Z</time>
      </trkpt>
      <trkpt lat="47.66185" lon="6.07441">
        <ele>256.79</ele>
        <time>2017-09-27T09:18:57Z</time>
      </trkpt>
      <trkpt lat="47.66184" lon="6.07434">
        <ele>256.72</ele>
        <time>2017-09-27T09:19:00Z</time>
      </trkpt>
      <trkpt lat="47.66182" lon="6.07428">
        <ele>256.64</ele>
        <time>2017-09-27T09:19:03Z</time>
      </trkpt>
      <trkpt lat="47.66176" lon="6.07423">
        <ele>256.59</ele>
        <time>2017-09-27T09:19:05Z</time>
      </trkpt>
      <trkpt lat="47.66171" lon="6.0742">
        <ele>256.54</ele>
        <time>2017-09-27T09:19:07Z</time>
      </trkpt>
      <trkpt lat="47.66165" lon="6.07419">
        <ele>256.49</ele>
        <time>2017-09-27T09:19:09Z</time>
      </trkpt>
      <trkpt lat="47.66161" lon="6.07418">
        <ele>256.43</ele>
        <time>2017-09-27T09:19:11Z</time>
      </trkpt>
      <trkpt lat="47.66156" lon="6.07417">
        <ele>256.37</ele>
        <time>2017-09-27T09:19:13Z</time>
      </trkpt>
      <trkpt lat="47.66151" lon="6.07416">
        <ele>256.31</ele>
        <time>2017-09-27T09:19:15Z</time>
      </trkpt>
      <trkpt lat="47.66146" lon="6.07415">
        <ele>256.24</ele>
        <time>2017-09-27T09:19:17Z</time>
      </trkpt>
      <trkpt lat="47.66139" lon="6.07414">
        <ele>256.14</ele>
        <time>2017-09-27T09:19:20Z</time>
      </trkpt>
      <trkpt lat="47.66135" lon="6.07414">
        <ele>256.08</ele>
        <time>2017-09-27T09:19:22Z</time>
      </trkpt>
      <trkpt lat="47.66128" lon="6.07414">
        <ele>255.97</ele>
        <time>2017-09-27T09:19:25Z</time>
      </trkpt>
      <trkpt lat="47.66123" lon="6.07414">
        <ele>255.9</ele>
        <time>2017-09-27T09:19:27Z</time>
      </trkpt>
      <trkpt lat="47.66118" lon="6.07415">
        <ele>255.83</ele>
        <time>2017-09-27T09:19:29Z</time>
      </trkpt>
      <trkpt lat="47.66112" lon="6.07415">
        <ele>255.76</ele>
        <time>2017-09-27T09:19:31Z</time>
      </trkpt>
      <trkpt lat="47.66107" lon="6.07416">
        <ele>255.69</ele>
        <time>2017-09-27T09:19:33Z</time>
      </trkpt>
      <trkpt lat="47.66102" lon="6.07416">
        <ele>255.62</ele>
        <time>2017-09-27T09:19:35Z</time>
      </trkpt>
      <trkpt lat="47.66096" lon="6.07416">
        <ele>255.55</ele>
        <time>2017-09-27T09:19:37Z</time>
      </trkpt>
      <trkpt lat="47.66091" lon="6.07416">
        <ele>255.47</ele>
        <time>2017-09-27T09:19:39Z</time>
      </trkpt>
      <trkpt lat="47.66085" lon="6.07415">
        <ele>255.4</ele>
        <time>2017-09-27T09:19:41Z</time>
      </trkpt>
      <trkpt lat="47.6608" lon="6.07416">
        <ele>255.32</ele>
        <time>2017-09-27T09:19:43Z</time>
      </trkpt>
      <trkpt lat="47.66075" lon="6.07416">
        <ele>255.24</ele>
        <time>2017-09-27T09:19:45Z</time>
      </trkpt>
      <trkpt lat="47.66069" lon="6.07416">
        <ele>255.16</ele>
        <time>2017-09-27T09:19:47Z</time>
      </trkpt>
      <trkpt lat="47.66063" lon="6.07417">
        <ele>255.08</ele>
        <time>2017-09-27T09:19:49Z</time>
      </trkpt>
      <trkpt lat="47.66058" lon="6.07416">
        <ele>255</ele>
        <time>2017-09-27T09:19:51Z</time>
      </trkpt>
      <trkpt lat="47.66053" lon="6.07415">
        <ele>254.92</ele>
        <time>2017-09-27T09:19:53Z</time>
      </trkpt>
      <trkpt lat="47.66048" lon="6.07414">
        <ele>254.85</ele>
        <time>2017-09-27T09:19:55Z</time>
      </trkpt>
      <trkpt lat="47.66043" lon="6.07414">
        <ele>254.77</ele>
        <time>2017-09-27T09:19:57Z</time>
      </trkpt>
      <trkpt lat="47.66038" lon="6.07412">
        <ele>254.7</ele>
        <time>2017-09-27T09:19:59Z</time>
      </trkpt>
      <trkpt lat="47.66033" lon="6.07411">
        <ele>254.63</ele>
        <time>2017-09-27T09:20:01Z</time>
      </trkpt>
      <trkpt lat="47.66029" lon="6.07409">
        <ele>254.56</ele>
        <time>2017-09-27T09:20:03Z</time>
      </trkpt>
      <trkpt lat="47.66024" lon="6.07408">
        <ele>254.49</ele>
        <time>2017-09-27T09:20:05Z</time>
      </trkpt>
      <trkpt lat="47.66017" lon="6.07407">
        <ele>254.39</ele>
        <time>2017-09-27T09:20:08Z</time>
      </trkpt>
      <trkpt lat="47.66013" lon="6.07406">
        <ele>254.33</ele>
        <time>2017-09-27T09:20:10Z</time>
      </trkpt>
      <trkpt lat="47.66007" lon="6.07406">
        <ele>254.24</ele>
        <time>2017-09-27T09:20:13Z</time>
      </trkpt>
      <trkpt lat="47.66001" lon="6.07405">
        <ele>254.15</ele>
        <time>2017-09-27T09:20:16Z</time>
      </trkpt>
      <trkpt lat="47.65995" lon="6.07406">
        <ele>254.08</ele>
        <time>2017-09-27T09:20:19Z</time>
      </trkpt>
      <trkpt lat="47.65989" lon="6.07407">
        <ele>254.01</ele>
        <time>2017-09-27T09:20:22Z</time>
      </trkpt>
      <trkpt lat="47.65983" lon="6.07408">
        <ele>253.94</ele>
        <time>2017-09-27T09:20:25Z</time>
      </trkpt>
      <trkpt lat="47.65976" lon="6.07409">
        <ele>253.89</ele>
        <time>2017-09-27T09:20:28Z</time>
      </trkpt>
      <trkpt lat="47.6597" lon="6.0741">
        <ele>253.84</ele>
        <time>2017-09-27T09:20:31Z</time>
      </trkpt>
      <trkpt lat="47.65964" lon="6.07411">
        <ele>253.79</ele>
        <time>2017-09-27T09:20:34Z</time>
      </trkpt>
      <trkpt lat="47.65958" lon="6.07411">
        <ele>253.75</ele>
        <time>2017-09-27T09:20:37Z</time>
      </trkpt>
      <trkpt lat="47.65951" lon="6.07411">
        <ele>253.71</ele>
        <time>2017-09-27T09:20:40Z</time>
      </trkpt>
      <trkpt lat="47.65946" lon="6.07411">
        <ele>253.69</ele>
        <time>2017-09-27T09:20:42Z</time>
      </trkpt>
      <trkpt lat="47.65942" lon="6.07411">
        <ele>253.66</ele>
        <time>2017-09-27T09:20:44Z</time>
      </trkpt>
      <trkpt lat="47.65937" lon="6.07411">
        <ele>253.64</ele>
        <time>2017-09-27T09:20:46Z</time>
      </trkpt>
      <trkpt lat="47.65931" lon="6.0741">
        <ele>253.61</ele>
        <time>2017-09-27T09:20:49Z</time>
      </trkpt>
      <trkpt lat="47.65926" lon="6.07411">
        <ele>253.59</ele>
        <time>2017-09-27T09:20:51Z</time>
      </trkpt>
      <trkpt lat="47.65921" lon="6.07411">
        <ele>253.58</ele>
        <time>2017-09-27T09:20:53Z</time>
      </trkpt>
      <trkpt lat="47.65915" lon="6.07411">
        <ele>253.56</ele>
        <time>2017-09-27T09:20:55Z</time>
      </trkpt>
      <trkpt lat="47.6591" lon="6.0741">
        <ele>253.54</ele>
        <time>2017-09-27T09:20:57Z</time>
      </trkpt>
      <trkpt lat="47.65904" lon="6.0741">
        <ele>253.52</ele>
        <time>2017-09-27T09:20:59Z</time>
      </trkpt>
      <trkpt lat="47.65898" lon="6.07409">
        <ele>253.51</ele>
        <time>2017-09-27T09:21:01Z</time>
      </trkpt>
      <trkpt lat="47.65892" lon="6.07408">
        <ele>253.49</ele>
        <time>2017-09-27T09:21:03Z</time>
      </trkpt>
      <trkpt lat="47.65887" lon="6.07407">
        <ele>253.48</ele>
        <time>2017-09-27T09:21:05Z</time>
      </trkpt>
      <trkpt lat="47.65881" lon="6.07405">
        <ele>253.47</ele>
        <time>2017-09-27T09:21:07Z</time>
      </trkpt>
      <trkpt lat="47.65875" lon="6.07403">
        <ele>253.45</ele>
        <time>2017-09-27T09:21:09Z</time>
      </trkpt>
      <trkpt lat="47.6587" lon="6.074">
        <ele>253.44</ele>
        <time>2017-09-27T09:21:11Z</time>
      </trkpt>
      <trkpt lat="47.65864" lon="6.07399">
        <ele>253.42</ele>
        <time>2017-09-27T09:21:14Z</time>
      </trkpt>
      <trkpt lat="47.65858" lon="6.07399">
        <ele>253.4</ele>
        <time>2017-09-27T09:21:17Z</time>
      </trkpt>
      <trkpt lat="47.65853" lon="6.07399">
        <ele>253.37</ele>
        <time>2017-09-27T09:21:20Z</time>
      </trkpt>
      <trkpt lat="47.65848" lon="6.07399">
        <ele>253.36</ele>
        <time>2017-09-27T09:21:22Z</time>
      </trkpt>
      <trkpt lat="47.65842" lon="6.07399">
        <ele>253.35</ele>
        <time>2017-09-27T09:21:24Z</time>
      </trkpt>
      <trkpt lat="47.65837" lon="6.07398">
        <ele>253.34</ele>
        <time>2017-09-27T09:21:26Z</time>
      </trkpt>
      <trkpt lat="47.65831" lon="6.07398">
        <ele>253.33</ele>
        <time>2017-09-27T09:21:28Z</time>
      </trkpt>
      <trkpt lat="47.65825" lon="6.07398">
        <ele>253.32</ele>
        <time>2017-09-27T09:21:30Z</time>
      </trkpt>
      <trkpt lat="47.65818" lon="6.07398">
        <ele>253.31</ele>
        <time>2017-09-27T09:21:32Z</time>
      </trkpt>
      <trkpt lat="47.65812" lon="6.07397">
        <ele>253.3</ele>
        <time>2017-09-27T09:21:34Z</time>
      </trkpt>
      <trkpt lat="47.65805" lon="6.07397">
        <ele>253.29</ele>
        <time>2017-09-27T09:21:36Z</time>
      </trkpt>
      <trkpt lat="47.65799" lon="6.07397">
        <ele>253.28</ele>
        <time>2017-09-27T09:21:38Z</time>
      </trkpt>
      <trkpt lat="47.65791" lon="6.07397">
        <ele>253.27</ele>
        <time>2017-09-27T09:21:40Z</time>
      </trkpt>
      <trkpt lat="47.65784" lon="6.07397">
        <ele>253.23</ele>
        <time>2017-09-27T09:21:42Z</time>
      </trkpt>
      <trkpt lat="47.65776" lon="6.07397">
        <ele>253.17</ele>
        <time>2017-09-27T09:21:44Z</time>
      </trkpt>
      <trkpt lat="47.65768" lon="6.07397">
        <ele>253.11</ele>
        <time>2017-09-27T09:21:46Z</time>
      </trkpt>
      <trkpt lat="47.6576" lon="6.07397">
        <ele>253.08</ele>
        <time>2017-09-27T09:21:48Z</time>
      </trkpt>
      <trkpt lat="47.65753" lon="6.07397">
        <ele>253.06</ele>
        <time>2017-09-27T09:21:50Z</time>
      </trkpt>
      <trkpt lat="47.65745" lon="6.07397">
        <ele>253.06</ele>
        <time>2017-09-27T09:21:52Z</time>
      </trkpt>
      <trkpt lat="47.65737" lon="6.07397">
        <ele>253.03</ele>
        <time>2017-09-27T09:21:54Z</time>
      </trkpt>
      <trkpt lat="47.65729" lon="6.07397">
        <ele>253.01</ele>
        <time>2017-09-27T09:21:56Z</time>
      </trkpt>
      <trkpt lat="47.6572" lon="6.07397">
        <ele>252.98</ele>
        <time>2017-09-27T09:21:58Z</time>
      </trkpt>
      <trkpt lat="47.65711" lon="6.07397">
        <ele>252.96</ele>
        <time>2017-09-27T09:22:00Z</time>
      </trkpt>
      <trkpt lat="47.65703" lon="6.07397">
        <ele>252.94</ele>
        <time>2017-09-27T09:22:02Z</time>
      </trkpt>
      <trkpt lat="47.65695" lon="6.07397">
        <ele>252.93</ele>
        <time>2017-09-27T09:22:04Z</time>
      </trkpt>
      <trkpt lat="47.65688" lon="6.07397">
        <ele>252.93</ele>
        <time>2017-09-27T09:22:06Z</time>
      </trkpt>
      <trkpt lat="47.65681" lon="6.07397">
        <ele>252.92</ele>
        <time>2017-09-27T09:22:08Z</time>
      </trkpt>
      <trkpt lat="47.65675" lon="6.07397">
        <ele>252.92</ele>
        <time>2017-09-27T09:22:10Z</time>
      </trkpt>
      <trkpt lat="47.65668" lon="6.07398">
        <ele>252.91</ele>
        <time>2017-09-27T09:22:12Z</time>
      </trkpt>
      <trkpt lat="47.65662" lon="6.07397">
        <ele>252.9</ele>
        <time>2017-09-27T09:22:14Z</time>
      </trkpt>
      <trkpt lat="47.65655" lon="6.07397">
        <ele>252.88</ele>
        <time>2017-09-27T09:22:16Z</time>
      </trkpt>
      <trkpt lat="47.65648" lon="6.07398">
        <ele>252.87</ele>
        <time>2017-09-27T09:22:18Z</time>
      </trkpt>
      <trkpt lat="47.6564" lon="6.07397">
        <ele>252.86</ele>
        <time>2017-09-27T09:22:20Z</time>
      </trkpt>
      <trkpt lat="47.65634" lon="6.07397">
        <ele>252.84</ele>
        <time>2017-09-27T09:22:22Z</time>
      </trkpt>
      <trkpt lat="47.65629" lon="6.07397">
        <ele>252.82</ele>
        <time>2017-09-27T09:22:24Z</time>
      </trkpt>
      <trkpt lat="47.65623" lon="6.07397">
        <ele>252.8</ele>
        <time>2017-09-27T09:22:26Z</time>
      </trkpt>
      <trkpt lat="47.65617" lon="6.07397">
        <ele>252.79</ele>
        <time>2017-09-27T09:22:28Z</time>
      </trkpt>
      <trkpt lat="47.65611" lon="6.07397">
        <ele>252.77</ele>
        <time>2017-09-27T09:22:30Z</time>
      </trkpt>
      <trkpt lat="47.65604" lon="6.07398">
        <ele>252.75</ele>
        <time>2017-09-27T09:22:32Z</time>
      </trkpt>
      <trkpt lat="47.65598" lon="6.07398">
        <ele>252.74</ele>
        <time>2017-09-27T09:22:34Z</time>
      </trkpt>
      <trkpt lat="47.65592" lon="6.07397">
        <ele>252.72</ele>
        <time>2017-09-27T09:22:36Z</time>
      </trkpt>
      <trkpt lat="47.65585" lon="6.07397">
        <ele>252.71</ele>
        <time>2017-09-27T09:22:38Z</time>
      </trkpt>
      <trkpt lat="47.65579" lon="6.07397">
        <ele>252.69</ele>
        <time>2017-09-27T09:22:40Z</time>
      </trkpt>
      <trkpt lat="47.65572" lon="6.07395">
        <ele>252.68</ele>
        <time>2017-09-27T09:22:42Z</time>
      </trkpt>
      <trkpt lat="47.65565" lon="6.07393">
        <ele>252.67</ele>
        <time>2017-09-27T09:22:44Z</time>
      </trkpt>
      <trkpt lat="47.65558" lon="6.07391">
        <ele>252.66</ele>
        <time>2017-09-27T09:22:46Z</time>
      </trkpt>
      <trkpt lat="47.65552" lon="6.0739">
        <ele>252.64</ele>
        <time>2017-09-27T09:22:48Z</time>
      </trkpt>
      <trkpt lat="47.65545" lon="6.07389">
        <ele>252.63</ele>
        <time>2017-09-27T09:22:50Z</time>
      </trkpt>
      <trkpt lat="47.65539" lon="6.07388">
        <ele>252.62</ele>
        <time>2017-09-27T09:22:52Z</time>
      </trkpt>
      <trkpt lat="47.65534" lon="6.07386">
        <ele>252.61</ele>
        <time>2017-09-27T09:22:54Z</time>
      </trkpt>
      <trkpt lat="47.65528" lon="6.07383">
        <ele>252.6</ele>
        <time>2017-09-27T09:22:56Z</time>
      </trkpt>
      <trkpt lat="47.65522" lon="6.07381">
        <ele>252.6</ele>
        <time>2017-09-27T09:22:58Z</time>
      </trkpt>
      <trkpt lat="47.65516" lon="6.07379">
        <ele>252.59</ele>
        <time>2017-09-27T09:23:00Z</time>
      </trkpt>
      <trkpt lat="47.6551" lon="6.07377">
        <ele>252.58</ele>
        <time>2017-09-27T09:23:02Z</time>
      </trkpt>
      <trkpt lat="47.65505" lon="6.07375">
        <ele>252.58</ele>
        <time>2017-09-27T09:23:04Z</time>
      </trkpt>
      <trkpt lat="47.65499" lon="6.07374">
        <ele>252.58</ele>
        <time>2017-09-27T09:23:06Z</time>
      </trkpt>
      <trkpt lat="47.65494" lon="6.07373">
        <ele>252.58</ele>
        <time>2017-09-27T09:23:08Z</time>
      </trkpt>
      <trkpt lat="47.65488" lon="6.07372">
        <ele>252.58</ele>
        <time>2017-09-27T09:23:10Z</time>
      </trkpt>
      <trkpt lat="47.65481" lon="6.07371">
        <ele>252.58</ele>
        <time>2017-09-27T09:23:12Z</time>
      </trkpt>
      <trkpt lat="47.65475" lon="6.0737">
        <ele>252.59</ele>
        <time>2017-09-27T09:23:14Z</time>
      </trkpt>
      <trkpt lat="47.65469" lon="6.07369">
        <ele>252.59</ele>
        <time>2017-09-27T09:23:16Z</time>
      </trkpt>
      <trkpt lat="47.65463" lon="6.07368">
        <ele>252.6</ele>
        <time>2017-09-27T09:23:18Z</time>
      </trkpt>
      <trkpt lat="47.65458" lon="6.07366">
        <ele>252.6</ele>
        <time>2017-09-27T09:23:20Z</time>
      </trkpt>
      <trkpt lat="47.65451" lon="6.07365">
        <ele>252.61</ele>
        <time>2017-09-27T09:23:22Z</time>
      </trkpt>
      <trkpt lat="47.65442" lon="6.07361">
        <ele>252.64</ele>
        <time>2017-09-27T09:23:24Z</time>
      </trkpt>
      <trkpt lat="47.65434" lon="6.07358">
        <ele>252.65</ele>
        <time>2017-09-27T09:23:26Z</time>
      </trkpt>
      <trkpt lat="47.65426" lon="6.07355">
        <ele>252.66</ele>
        <time>2017-09-27T09:23:28Z</time>
      </trkpt>
      <trkpt lat="47.65419" lon="6.07348">
        <ele>252.67</ele>
        <time>2017-09-27T09:23:30Z</time>
      </trkpt>
      <trkpt lat="47.65415" lon="6.07341">
        <ele>252.68</ele>
        <time>2017-09-27T09:23:31Z</time>
      </trkpt>
      <trkpt lat="47.65412" lon="6.07336">
        <ele>252.68</ele>
        <time>2017-09-27T09:23:32Z</time>
      </trkpt>
      <trkpt lat="47.6541" lon="6.0733">
        <ele>252.69</ele>
        <time>2017-09-27T09:23:33Z</time>
      </trkpt>
      <trkpt lat="47.65408" lon="6.07324">
        <ele>252.69</ele>
        <time>2017-09-27T09:23:34Z</time>
      </trkpt>
      <trkpt lat="47.65405" lon="6.07316">
        <ele>252.69</ele>
        <time>2017-09-27T09:23:35Z</time>
      </trkpt>
      <trkpt lat="47.65402" lon="6.07308">
        <ele>252.69</ele>
        <time>2017-09-27T09:23:36Z</time>
      </trkpt>
      <trkpt lat="47.65399" lon="6.07299">
        <ele>252.69</ele>
        <time>2017-09-27T09:23:37Z</time>
      </trkpt>
      <trkpt lat="47.65395" lon="6.07291">
        <ele>252.68</ele>
        <time>2017-09-27T09:23:38Z</time>
      </trkpt>
      <trkpt lat="47.65392" lon="6.07283">
        <ele>252.67</ele>
        <time>2017-09-27T09:23:39Z</time>
      </trkpt>
      <trkpt lat="47.65389" lon="6.07274">
        <ele>252.66</ele>
        <time>2017-09-27T09:23:40Z</time>
      </trkpt>
      <trkpt lat="47.65386" lon="6.07266">
        <ele>252.65</ele>
        <time>2017-09-27T09:23:41Z</time>
      </trkpt>
      <trkpt lat="47.65383" lon="6.07259">
        <ele>252.63</ele>
        <time>2017-09-27T09:23:42Z</time>
      </trkpt>
      <trkpt lat="47.65381" lon="6.07251">
        <ele>252.62</ele>
        <time>2017-09-27T09:23:43Z</time>
      </trkpt>
      <trkpt lat="47.65378" lon="6.07243">
        <ele>252.6</ele>
        <time>2017-09-27T09:23:44Z</time>
      </trkpt>
      <trkpt lat="47.65375" lon="6.07235">
        <ele>252.58</ele>
        <time>2017-09-27T09:23:45Z</time>
      </trkpt>
      <trkpt lat="47.65372" lon="6.07228">
        <ele>252.55</ele>
        <time>2017-09-27T09:23:46Z</time>
      </trkpt>
      <trkpt lat="47.65369" lon="6.07223">
        <ele>252.53</ele>
        <time>2017-09-27T09:23:47Z</time>
      </trkpt>
      <trkpt lat="47.65366" lon="6.07217">
        <ele>252.53</ele>
        <time>2017-09-27T09:23:48Z</time>
      </trkpt>
      <trkpt lat="47.65362" lon="6.07213">
        <ele>252.52</ele>
        <time>2017-09-27T09:23:49Z</time>
      </trkpt>
      <trkpt lat="47.65354" lon="6.07209">
        <ele>252.48</ele>
        <time>2017-09-27T09:23:51Z</time>
      </trkpt>
      <trkpt lat="47.65347" lon="6.07208">
        <ele>252.46</ele>
        <time>2017-09-27T09:23:53Z</time>
      </trkpt>
      <trkpt lat="47.6534" lon="6.0721">
        <ele>252.45</ele>
        <time>2017-09-27T09:23:55Z</time>
      </trkpt>
      <trkpt lat="47.65332" lon="6.07212">
        <ele>252.44</ele>
        <time>2017-09-27T09:23:57Z</time>
      </trkpt>
      <trkpt lat="47.65325" lon="6.07215">
        <ele>252.43</ele>
        <time>2017-09-27T09:23:59Z</time>
      </trkpt>
      <trkpt lat="47.65317" lon="6.07218">
        <ele>252.39</ele>
        <time>2017-09-27T09:24:01Z</time>
      </trkpt>
      <trkpt lat="47.65313" lon="6.07219">
        <ele>252.34</ele>
        <time>2017-09-27T09:24:02Z</time>
      </trkpt>
      <trkpt lat="47.65304" lon="6.0722">
        <ele>252.26</ele>
        <time>2017-09-27T09:24:04Z</time>
      </trkpt>
      <trkpt lat="47.65295" lon="6.0722">
        <ele>252.2</ele>
        <time>2017-09-27T09:24:06Z</time>
      </trkpt>
      <trkpt lat="47.65287" lon="6.07221">
        <ele>252.18</ele>
        <time>2017-09-27T09:24:08Z</time>
      </trkpt>
      <trkpt lat="47.6528" lon="6.07221">
        <ele>252.16</ele>
        <time>2017-09-27T09:24:10Z</time>
      </trkpt>
      <trkpt lat="47.65271" lon="6.07222">
        <ele>252.12</ele>
        <time>2017-09-27T09:24:12Z</time>
      </trkpt>
      <trkpt lat="47.65263" lon="6.07223">
        <ele>252.09</ele>
        <time>2017-09-27T09:24:14Z</time>
      </trkpt>
      <trkpt lat="47.65258" lon="6.07224">
        <ele>252.07</ele>
        <time>2017-09-27T09:24:15Z</time>
      </trkpt>
      <trkpt lat="47.65249" lon="6.07226">
        <ele>252.04</ele>
        <time>2017-09-27T09:24:17Z</time>
      </trkpt>
      <trkpt lat="47.65242" lon="6.07228">
        <ele>252.02</ele>
        <time>2017-09-27T09:24:19Z</time>
      </trkpt>
      <trkpt lat="47.65236" lon="6.07229">
        <ele>252.01</ele>
        <time>2017-09-27T09:24:21Z</time>
      </trkpt>
      <trkpt lat="47.6523" lon="6.07231">
        <ele>252.01</ele>
        <time>2017-09-27T09:24:23Z</time>
      </trkpt>
      <trkpt lat="47.65225" lon="6.07232">
        <ele>252</ele>
        <time>2017-09-27T09:24:25Z</time>
      </trkpt>
      <trkpt lat="47.6522" lon="6.07232">
        <ele>251.99</ele>
        <time>2017-09-27T09:24:27Z</time>
      </trkpt>
      <trkpt lat="47.65214" lon="6.07233">
        <ele>251.99</ele>
        <time>2017-09-27T09:24:29Z</time>
      </trkpt>
      <trkpt lat="47.65209" lon="6.07233">
        <ele>251.98</ele>
        <time>2017-09-27T09:24:31Z</time>
      </trkpt>
      <trkpt lat="47.65204" lon="6.07234">
        <ele>251.97</ele>
        <time>2017-09-27T09:24:33Z</time>
      </trkpt>
      <trkpt lat="47.65198" lon="6.07234">
        <ele>251.95</ele>
        <time>2017-09-27T09:24:35Z</time>
      </trkpt>
      <trkpt lat="47.65193" lon="6.07235">
        <ele>251.94</ele>
        <time>2017-09-27T09:24:37Z</time>
      </trkpt>
      <trkpt lat="47.65187" lon="6.07236">
        <ele>251.93</ele>
        <time>2017-09-27T09:24:39Z</time>
      </trkpt>
      <trkpt lat="47.65182" lon="6.07236">
        <ele>251.92</ele>
        <time>2017-09-27T09:24:41Z</time>
      </trkpt>
      <trkpt lat="47.65177" lon="6.07236">
        <ele>251.9</ele>
        <time>2017-09-27T09:24:43Z</time>
      </trkpt>
      <trkpt lat="47.65171" lon="6.07237">
        <ele>251.89</ele>
        <time>2017-09-27T09:24:45Z</time>
      </trkpt>
      <trkpt lat="47.65167" lon="6.07238">
        <ele>251.88</ele>
        <time>2017-09-27T09:24:47Z</time>
      </trkpt>
      <trkpt lat="47.65162" lon="6.07239">
        <ele>251.86</ele>
        <time>2017-09-27T09:24:49Z</time>
      </trkpt>
      <trkpt lat="47.65157" lon="6.0724">
        <ele>251.84</ele>
        <time>2017-09-27T09:24:51Z</time>
      </trkpt>
      <trkpt lat="47.65151" lon="6.07242">
        <ele>251.82</ele>
        <time>2017-09-27T09:24:54Z</time>
      </trkpt>
      <trkpt lat="47.65145" lon="6.07243">
        <ele>251.79</ele>
        <time>2017-09-27T09:24:57Z</time>
      </trkpt>
      <trkpt lat="47.65139" lon="6.0724">
        <ele>251.76</ele>
        <time>2017-09-27T09:25:01Z</time>
      </trkpt>
      <trkpt lat="47.65138" lon="6.07231">
        <ele>251.72</ele>
        <time>2017-09-27T09:25:04Z</time>
      </trkpt>
      <trkpt lat="47.65138" lon="6.07223">
        <ele>251.7</ele>
        <time>2017-09-27T09:25:06Z</time>
      </trkpt>
      <trkpt lat="47.65137" lon="6.07215">
        <ele>251.68</ele>
        <time>2017-09-27T09:25:08Z</time>
      </trkpt>
      <trkpt lat="47.65137" lon="6.07205">
        <ele>251.57</ele>
        <time>2017-09-27T09:25:10Z</time>
      </trkpt>
      <trkpt lat="47.65136" lon="6.07198">
        <ele>251.53</ele>
        <time>2017-09-27T09:25:11Z</time>
      </trkpt>
      <trkpt lat="47.65136" lon="6.07192">
        <ele>251.44</ele>
        <time>2017-09-27T09:25:12Z</time>
      </trkpt>
      <trkpt lat="47.65135" lon="6.07184">
        <ele>251.34</ele>
        <time>2017-09-27T09:25:13Z</time>
      </trkpt>
      <trkpt lat="47.65134" lon="6.07176">
        <ele>251.26</ele>
        <time>2017-09-27T09:25:14Z</time>
      </trkpt>
      <trkpt lat="47.65132" lon="6.07168">
        <ele>251.18</ele>
        <time>2017-09-27T09:25:15Z</time>
      </trkpt>
      <trkpt lat="47.6513" lon="6.07161">
        <ele>251.12</ele>
        <time>2017-09-27T09:25:16Z</time>
      </trkpt>
      <trkpt lat="47.65128" lon="6.07153">
        <ele>251.06</ele>
        <time>2017-09-27T09:25:17Z</time>
      </trkpt>
      <trkpt lat="47.65126" lon="6.07147">
        <ele>251.04</ele>
        <time>2017-09-27T09:25:18Z</time>
      </trkpt>
      <trkpt lat="47.65123" lon="6.07141">
        <ele>251.03</ele>
        <time>2017-09-27T09:25:20Z</time>
      </trkpt>
      <trkpt lat="47.65119" lon="6.07135">
        <ele>251.01</ele>
        <time>2017-09-27T09:25:23Z</time>
      </trkpt>
      <trkpt lat="47.65115" lon="6.07131">
        <ele>251</ele>
        <time>2017-09-27T09:25:26Z</time>
      </trkpt>
      <trkpt lat="47.65111" lon="6.07126">
        <ele>250.98</ele>
        <time>2017-09-27T09:25:29Z</time>
      </trkpt>
      <trkpt lat="47.65108" lon="6.0712">
        <ele>250.97</ele>
        <time>2017-09-27T09:25:32Z</time>
      </trkpt>
      <trkpt lat="47.65105" lon="6.07114">
        <ele>250.95</ele>
        <time>2017-09-27T09:25:36Z</time>
      </trkpt>
      <trkpt lat="47.65101" lon="6.07109">
        <ele>250.93</ele>
        <time>2017-09-27T09:25:40Z</time>
      </trkpt>
      <trkpt lat="47.65098" lon="6.07103">
        <ele>250.9</ele>
        <time>2017-09-27T09:25:47Z</time>
      </trkpt>
      <trkpt lat="47.65096" lon="6.07095">
        <ele>250.86</ele>
        <time>2017-09-27T09:25:53Z</time>
      </trkpt>
      <trkpt lat="47.65092" lon="6.07091">
        <ele>250.85</ele>
        <time>2017-09-27T09:25:55Z</time>
      </trkpt>
      <trkpt lat="47.65086" lon="6.07087">
        <ele>250.84</ele>
        <time>2017-09-27T09:25:57Z</time>
      </trkpt>
      <trkpt lat="47.65081" lon="6.07082">
        <ele>250.82</ele>
        <time>2017-09-27T09:26:01Z</time>
      </trkpt>
      <trkpt lat="47.65078" lon="6.07077">
        <ele>250.78</ele>
        <time>2017-09-27T09:26:11Z</time>
      </trkpt>
      <trkpt lat="47.65073" lon="6.07072">
        <ele>250.75</ele>
        <time>2017-09-27T09:26:14Z</time>
      </trkpt>
      <trkpt lat="47.6507" lon="6.07066">
        <ele>250.73</ele>
        <time>2017-09-27T09:26:17Z</time>
      </trkpt>
      <trkpt lat="47.65066" lon="6.0706">
        <ele>250.71</ele>
        <time>2017-09-27T09:26:20Z</time>
      </trkpt>
      <trkpt lat="47.65062" lon="6.07055">
        <ele>250.69</ele>
        <time>2017-09-27T09:26:23Z</time>
      </trkpt>
      <trkpt lat="47.65059" lon="6.07051">
        <ele>250.66</ele>
        <time>2017-09-27T09:26:26Z</time>
      </trkpt>
      <trkpt lat="47.65056" lon="6.07045">
        <ele>250.64</ele>
        <time>2017-09-27T09:26:29Z</time>
      </trkpt>
      <trkpt lat="47.65053" lon="6.07038">
        <ele>250.61</ele>
        <time>2017-09-27T09:26:33Z</time>
      </trkpt>
      <trkpt lat="47.65049" lon="6.07032">
        <ele>250.59</ele>
        <time>2017-09-27T09:26:36Z</time>
      </trkpt>
      <trkpt lat="47.65046" lon="6.07028">
        <ele>250.56</ele>
        <time>2017-09-27T09:26:39Z</time>
      </trkpt>
      <trkpt lat="47.65042" lon="6.07021">
        <ele>250.54</ele>
        <time>2017-09-27T09:26:42Z</time>
      </trkpt>
      <trkpt lat="47.65039" lon="6.07016">
        <ele>250.52</ele>
        <time>2017-09-27T09:26:45Z</time>
      </trkpt>
      <trkpt lat="47.65034" lon="6.0701">
        <ele>250.49</ele>
        <time>2017-09-27T09:26:49Z</time>
      </trkpt>
      <trkpt lat="47.65031" lon="6.07005">
        <ele>250.47</ele>
        <time>2017-09-27T09:26:52Z</time>
      </trkpt>
      <trkpt lat="47.65027" lon="6.07">
        <ele>250.45</ele>
        <time>2017-09-27T09:26:55Z</time>
      </trkpt>
      <trkpt lat="47.65024" lon="6.06995">
        <ele>250.43</ele>
        <time>2017-09-27T09:26:58Z</time>
      </trkpt>
      <trkpt lat="47.65021" lon="6.0699">
        <ele>250.42</ele>
        <time>2017-09-27T09:27:01Z</time>
      </trkpt>
      <trkpt lat="47.65017" lon="6.06985">
        <ele>250.4</ele>
        <time>2017-09-27T09:27:04Z</time>
      </trkpt>
      <trkpt lat="47.65014" lon="6.0698">
        <ele>250.38</ele>
        <time>2017-09-27T09:27:07Z</time>
      </trkpt>
      <trkpt lat="47.6501" lon="6.06974">
        <ele>250.37</ele>
        <time>2017-09-27T09:27:10Z</time>
      </trkpt>
      <trkpt lat="47.65006" lon="6.06969">
        <ele>250.35</ele>
        <time>2017-09-27T09:27:13Z</time>
      </trkpt>
      <trkpt lat="47.65002" lon="6.06964">
        <ele>250.34</ele>
        <time>2017-09-27T09:27:16Z</time>
      </trkpt>
      <trkpt lat="47.64998" lon="6.06958">
        <ele>250.33</ele>
        <time>2017-09-27T09:27:19Z</time>
      </trkpt>
      <trkpt lat="47.64994" lon="6.06954">
        <ele>250.32</ele>
        <time>2017-09-27T09:27:22Z</time>
      </trkpt>
      <trkpt lat="47.64991" lon="6.06947">
        <ele>250.31</ele>
        <time>2017-09-27T09:27:26Z</time>
      </trkpt>
      <trkpt lat="47.64987" lon="6.06941">
        <ele>250.3</ele>
        <time>2017-09-27T09:27:30Z</time>
      </trkpt>
      <trkpt lat="47.64982" lon="6.06935">
        <ele>250.29</ele>
        <time>2017-09-27T09:27:33Z</time>
      </trkpt>
      <trkpt lat="47.64978" lon="6.06931">
        <ele>250.29</ele>
        <time>2017-09-27T09:27:36Z</time>
      </trkpt>
      <trkpt lat="47.64974" lon="6.06925">
        <ele>250.29</ele>
        <time>2017-09-27T09:27:39Z</time>
      </trkpt>
      <trkpt lat="47.6497" lon="6.0692">
        <ele>250.29</ele>
        <time>2017-09-27T09:27:44Z</time>
      </trkpt>
      <trkpt lat="47.64966" lon="6.06913">
        <ele>250.29</ele>
        <time>2017-09-27T09:27:48Z</time>
      </trkpt>
      <trkpt lat="47.64962" lon="6.06911">
        <ele>250.28</ele>
        <time>2017-09-27T09:27:53Z</time>
      </trkpt>
      <trkpt lat="47.64957" lon="6.06906">
        <ele>250.27</ele>
        <time>2017-09-27T09:27:57Z</time>
      </trkpt>
      <trkpt lat="47.64953" lon="6.069">
        <ele>250.26</ele>
        <time>2017-09-27T09:28:01Z</time>
      </trkpt>
      <trkpt lat="47.64949" lon="6.06895">
        <ele>250.24</ele>
        <time>2017-09-27T09:28:05Z</time>
      </trkpt>
      <trkpt lat="47.64945" lon="6.06891">
        <ele>250.23</ele>
        <time>2017-09-27T09:28:08Z</time>
      </trkpt>
      <trkpt lat="47.64943" lon="6.06883">
        <ele>250.22</ele>
        <time>2017-09-27T09:28:12Z</time>
      </trkpt>
      <trkpt lat="47.64941" lon="6.06877">
        <ele>250.2</ele>
        <time>2017-09-27T09:28:15Z</time>
      </trkpt>
      <trkpt lat="47.64939" lon="6.06867">
        <ele>250.19</ele>
        <time>2017-09-27T09:28:18Z</time>
      </trkpt>
      <trkpt lat="47.64937" lon="6.0686">
        <ele>250.18</ele>
        <time>2017-09-27T09:28:20Z</time>
      </trkpt>
      <trkpt lat="47.64934" lon="6.06853">
        <ele>250.17</ele>
        <time>2017-09-27T09:28:22Z</time>
      </trkpt>
      <trkpt lat="47.64931" lon="6.06848">
        <ele>250.16</ele>
        <time>2017-09-27T09:28:24Z</time>
      </trkpt>
      <trkpt lat="47.64928" lon="6.06842">
        <ele>250.15</ele>
        <time>2017-09-27T09:28:26Z</time>
      </trkpt>
      <trkpt lat="47.64924" lon="6.06837">
        <ele>250.15</ele>
        <time>2017-09-27T09:28:28Z</time>
      </trkpt>
      <trkpt lat="47.64921" lon="6.06832">
        <ele>250.13</ele>
        <time>2017-09-27T09:28:31Z</time>
      </trkpt>
      <trkpt lat="47.64916" lon="6.06827">
        <ele>250.12</ele>
        <time>2017-09-27T09:28:35Z</time>
      </trkpt>
      <trkpt lat="47.64911" lon="6.06823">
        <ele>250.11</ele>
        <time>2017-09-27T09:28:38Z</time>
      </trkpt>
      <trkpt lat="47.64906" lon="6.06817">
        <ele>250.11</ele>
        <time>2017-09-27T09:28:41Z</time>
      </trkpt>
      <trkpt lat="47.64902" lon="6.06812">
        <ele>250.1</ele>
        <time>2017-09-27T09:28:43Z</time>
      </trkpt>
      <trkpt lat="47.64898" lon="6.06806">
        <ele>250.1</ele>
        <time>2017-09-27T09:28:45Z</time>
      </trkpt>
      <trkpt lat="47.64893" lon="6.06801">
        <ele>250.09</ele>
        <time>2017-09-27T09:28:47Z</time>
      </trkpt>
      <trkpt lat="47.64889" lon="6.06796">
        <ele>250.09</ele>
        <time>2017-09-27T09:28:49Z</time>
      </trkpt>
      <trkpt lat="47.64885" lon="6.06789">
        <ele>250.09</ele>
        <time>2017-09-27T09:28:51Z</time>
      </trkpt>
      <trkpt lat="47.64881" lon="6.06786">
        <ele>250.08</ele>
        <time>2017-09-27T09:28:53Z</time>
      </trkpt>
      <trkpt lat="47.64877" lon="6.06781">
        <ele>250.08</ele>
        <time>2017-09-27T09:28:55Z</time>
      </trkpt>
      <trkpt lat="47.64872" lon="6.06776">
        <ele>250.08</ele>
        <time>2017-09-27T09:28:57Z</time>
      </trkpt>
      <trkpt lat="47.64868" lon="6.0677">
        <ele>250.08</ele>
        <time>2017-09-27T09:28:59Z</time>
      </trkpt>
      <trkpt lat="47.64863" lon="6.06765">
        <ele>250.08</ele>
        <time>2017-09-27T09:29:01Z</time>
      </trkpt>
      <trkpt lat="47.64857" lon="6.06758">
        <ele>250.07</ele>
        <time>2017-09-27T09:29:03Z</time>
      </trkpt>
      <trkpt lat="47.64853" lon="6.06754">
        <ele>250.07</ele>
        <time>2017-09-27T09:29:04Z</time>
      </trkpt>
      <trkpt lat="47.64849" lon="6.06751">
        <ele>250.07</ele>
        <time>2017-09-27T09:29:05Z</time>
      </trkpt>
      <trkpt lat="47.64845" lon="6.06746">
        <ele>250.06</ele>
        <time>2017-09-27T09:29:06Z</time>
      </trkpt>
      <trkpt lat="47.64842" lon="6.0674">
        <ele>250.05</ele>
        <time>2017-09-27T09:29:07Z</time>
      </trkpt>
      <trkpt lat="47.64838" lon="6.06735">
        <ele>250.04</ele>
        <time>2017-09-27T09:29:08Z</time>
      </trkpt>
      <trkpt lat="47.64835" lon="6.0673">
        <ele>250.03</ele>
        <time>2017-09-27T09:29:09Z</time>
      </trkpt>
      <trkpt lat="47.64831" lon="6.06725">
        <ele>250.02</ele>
        <time>2017-09-27T09:29:10Z</time>
      </trkpt>
      <trkpt lat="47.64827" lon="6.06719">
        <ele>250.01</ele>
        <time>2017-09-27T09:29:11Z</time>
      </trkpt>
      <trkpt lat="47.64823" lon="6.06714">
        <ele>250</ele>
        <time>2017-09-27T09:29:12Z</time>
      </trkpt>
      <trkpt lat="47.6482" lon="6.06709">
        <ele>249.99</ele>
        <time>2017-09-27T09:29:13Z</time>
      </trkpt>
      <trkpt lat="47.64815" lon="6.06702">
        <ele>249.99</ele>
        <time>2017-09-27T09:29:14Z</time>
      </trkpt>
      <trkpt lat="47.64811" lon="6.06694">
        <ele>249.98</ele>
        <time>2017-09-27T09:29:15Z</time>
      </trkpt>
      <trkpt lat="47.64808" lon="6.06686">
        <ele>249.97</ele>
        <time>2017-09-27T09:29:16Z</time>
      </trkpt>
      <trkpt lat="47.64805" lon="6.06678">
        <ele>249.96</ele>
        <time>2017-09-27T09:29:17Z</time>
      </trkpt>
      <trkpt lat="47.64802" lon="6.0667">
        <ele>249.96</ele>
        <time>2017-09-27T09:29:18Z</time>
      </trkpt>
      <trkpt lat="47.64799" lon="6.06662">
        <ele>249.95</ele>
        <time>2017-09-27T09:29:19Z</time>
      </trkpt>
      <trkpt lat="47.64796" lon="6.06655">
        <ele>249.94</ele>
        <time>2017-09-27T09:29:20Z</time>
      </trkpt>
      <trkpt lat="47.64793" lon="6.06648">
        <ele>249.93</ele>
        <time>2017-09-27T09:29:21Z</time>
      </trkpt>
      <trkpt lat="47.6479" lon="6.06641">
        <ele>249.92</ele>
        <time>2017-09-27T09:29:22Z</time>
      </trkpt>
      <trkpt lat="47.64787" lon="6.06634">
        <ele>249.91</ele>
        <time>2017-09-27T09:29:23Z</time>
      </trkpt>
      <trkpt lat="47.64784" lon="6.06626">
        <ele>249.9</ele>
        <time>2017-09-27T09:29:24Z</time>
      </trkpt>
      <trkpt lat="47.6478" lon="6.0662">
        <ele>249.9</ele>
        <time>2017-09-27T09:29:25Z</time>
      </trkpt>
      <trkpt lat="47.64778" lon="6.06613">
        <ele>249.89</ele>
        <time>2017-09-27T09:29:26Z</time>
      </trkpt>
      <trkpt lat="47.64774" lon="6.06606">
        <ele>249.88</ele>
        <time>2017-09-27T09:29:27Z</time>
      </trkpt>
      <trkpt lat="47.64771" lon="6.066">
        <ele>249.87</ele>
        <time>2017-09-27T09:29:28Z</time>
      </trkpt>
      <trkpt lat="47.64768" lon="6.06593">
        <ele>249.86</ele>
        <time>2017-09-27T09:29:29Z</time>
      </trkpt>
      <trkpt lat="47.64765" lon="6.06586">
        <ele>249.84</ele>
        <time>2017-09-27T09:29:30Z</time>
      </trkpt>
      <trkpt lat="47.64761" lon="6.06579">
        <ele>249.83</ele>
        <time>2017-09-27T09:29:31Z</time>
      </trkpt>
      <trkpt lat="47.64758" lon="6.06572">
        <ele>249.82</ele>
        <time>2017-09-27T09:29:32Z</time>
      </trkpt>
      <trkpt lat="47.64754" lon="6.06564">
        <ele>249.8</ele>
        <time>2017-09-27T09:29:33Z</time>
      </trkpt>
      <trkpt lat="47.64751" lon="6.06556">
        <ele>249.79</ele>
        <time>2017-09-27T09:29:34Z</time>
      </trkpt>
      <trkpt lat="47.64747" lon="6.06549">
        <ele>249.78</ele>
        <time>2017-09-27T09:29:35Z</time>
      </trkpt>
      <trkpt lat="47.64743" lon="6.06541">
        <ele>249.77</ele>
        <time>2017-09-27T09:29:36Z</time>
      </trkpt>
      <trkpt lat="47.6474" lon="6.06533">
        <ele>249.76</ele>
        <time>2017-09-27T09:29:37Z</time>
      </trkpt>
      <trkpt lat="47.64737" lon="6.06524">
        <ele>249.75</ele>
        <time>2017-09-27T09:29:38Z</time>
      </trkpt>
      <trkpt lat="47.64733" lon="6.06515">
        <ele>249.75</ele>
        <time>2017-09-27T09:29:39Z</time>
      </trkpt>
      <trkpt lat="47.64729" lon="6.06507">
        <ele>249.74</ele>
        <time>2017-09-27T09:29:40Z</time>
      </trkpt>
      <trkpt lat="47.64725" lon="6.06499">
        <ele>249.72</ele>
        <time>2017-09-27T09:29:41Z</time>
      </trkpt>
      <trkpt lat="47.64722" lon="6.06491">
        <ele>249.71</ele>
        <time>2017-09-27T09:29:42Z</time>
      </trkpt>
      <trkpt lat="47.64718" lon="6.06484">
        <ele>249.69</ele>
        <time>2017-09-27T09:29:43Z</time>
      </trkpt>
      <trkpt lat="47.64715" lon="6.06478">
        <ele>249.68</ele>
        <time>2017-09-27T09:29:44Z</time>
      </trkpt>
      <trkpt lat="47.64713" lon="6.06472">
        <ele>249.67</ele>
        <time>2017-09-27T09:29:45Z</time>
      </trkpt>
      <trkpt lat="47.64707" lon="6.06465">
        <ele>249.66</ele>
        <time>2017-09-27T09:29:47Z</time>
      </trkpt>
      <trkpt lat="47.64701" lon="6.06463">
        <ele>249.66</ele>
        <time>2017-09-27T09:29:49Z</time>
      </trkpt>
      <trkpt lat="47.64697" lon="6.06462">
        <ele>249.66</ele>
        <time>2017-09-27T09:29:51Z</time>
      </trkpt>
      <trkpt lat="47.6469" lon="6.06464">
        <ele>249.67</ele>
        <time>2017-09-27T09:29:54Z</time>
      </trkpt>
      <trkpt lat="47.64686" lon="6.06467">
        <ele>249.67</ele>
        <time>2017-09-27T09:29:56Z</time>
      </trkpt>
      <trkpt lat="47.6468" lon="6.06471">
        <ele>249.67</ele>
        <time>2017-09-27T09:29:59Z</time>
      </trkpt>
      <trkpt lat="47.64674" lon="6.06474">
        <ele>249.67</ele>
        <time>2017-09-27T09:30:01Z</time>
      </trkpt>
      <trkpt lat="47.64669" lon="6.06477">
        <ele>249.67</ele>
        <time>2017-09-27T09:30:03Z</time>
      </trkpt>
      <trkpt lat="47.64664" lon="6.06481">
        <ele>249.67</ele>
        <time>2017-09-27T09:30:05Z</time>
      </trkpt>
      <trkpt lat="47.64658" lon="6.06484">
        <ele>249.67</ele>
        <time>2017-09-27T09:30:07Z</time>
      </trkpt>
      <trkpt lat="47.64653" lon="6.06488">
        <ele>249.68</ele>
        <time>2017-09-27T09:30:09Z</time>
      </trkpt>
      <trkpt lat="47.64648" lon="6.06491">
        <ele>249.68</ele>
        <time>2017-09-27T09:30:11Z</time>
      </trkpt>
      <trkpt lat="47.64642" lon="6.06494">
        <ele>249.69</ele>
        <time>2017-09-27T09:30:13Z</time>
      </trkpt>
      <trkpt lat="47.64637" lon="6.06497">
        <ele>249.7</ele>
        <time>2017-09-27T09:30:15Z</time>
      </trkpt>
      <trkpt lat="47.64632" lon="6.065">
        <ele>249.71</ele>
        <time>2017-09-27T09:30:17Z</time>
      </trkpt>
      <trkpt lat="47.64627" lon="6.06502">
        <ele>249.73</ele>
        <time>2017-09-27T09:30:19Z</time>
      </trkpt>
      <trkpt lat="47.64622" lon="6.06504">
        <ele>249.75</ele>
        <time>2017-09-27T09:30:21Z</time>
      </trkpt>
      <trkpt lat="47.64617" lon="6.06507">
        <ele>249.77</ele>
        <time>2017-09-27T09:30:23Z</time>
      </trkpt>
      <trkpt lat="47.64611" lon="6.0651">
        <ele>249.79</ele>
        <time>2017-09-27T09:30:25Z</time>
      </trkpt>
      <trkpt lat="47.64606" lon="6.06511">
        <ele>249.83</ele>
        <time>2017-09-27T09:30:27Z</time>
      </trkpt>
      <trkpt lat="47.64601" lon="6.06512">
        <ele>249.86</ele>
        <time>2017-09-27T09:30:29Z</time>
      </trkpt>
      <trkpt lat="47.64596" lon="6.06513">
        <ele>249.9</ele>
        <time>2017-09-27T09:30:31Z</time>
      </trkpt>
      <trkpt lat="47.64591" lon="6.06514">
        <ele>249.95</ele>
        <time>2017-09-27T09:30:33Z</time>
      </trkpt>
      <trkpt lat="47.64586" lon="6.06515">
        <ele>250</ele>
        <time>2017-09-27T09:30:35Z</time>
      </trkpt>
      <trkpt lat="47.64581" lon="6.06515">
        <ele>250.06</ele>
        <time>2017-09-27T09:30:37Z</time>
      </trkpt>
      <trkpt lat="47.64576" lon="6.06515">
        <ele>250.12</ele>
        <time>2017-09-27T09:30:39Z</time>
      </trkpt>
      <trkpt lat="47.6457" lon="6.06515">
        <ele>250.18</ele>
        <time>2017-09-27T09:30:41Z</time>
      </trkpt>
      <trkpt lat="47.64565" lon="6.06515">
        <ele>250.23</ele>
        <time>2017-09-27T09:30:43Z</time>
      </trkpt>
      <trkpt lat="47.6456" lon="6.06514">
        <ele>250.29</ele>
        <time>2017-09-27T09:30:45Z</time>
      </trkpt>
      <trkpt lat="47.64555" lon="6.06514">
        <ele>250.34</ele>
        <time>2017-09-27T09:30:47Z</time>
      </trkpt>
      <trkpt lat="47.64549" lon="6.06513">
        <ele>250.39</ele>
        <time>2017-09-27T09:30:49Z</time>
      </trkpt>
      <trkpt lat="47.64544" lon="6.06512">
        <ele>250.44</ele>
        <time>2017-09-27T09:30:51Z</time>
      </trkpt>
      <trkpt lat="47.64539" lon="6.06511">
        <ele>250.49</ele>
        <time>2017-09-27T09:30:53Z</time>
      </trkpt>
      <trkpt lat="47.64534" lon="6.0651">
        <ele>250.54</ele>
        <time>2017-09-27T09:30:55Z</time>
      </trkpt>
      <trkpt lat="47.64529" lon="6.06509">
        <ele>250.59</ele>
        <time>2017-09-27T09:30:57Z</time>
      </trkpt>
      <trkpt lat="47.64525" lon="6.06507">
        <ele>250.64</ele>
        <time>2017-09-27T09:30:59Z</time>
      </trkpt>
      <trkpt lat="47.6452" lon="6.06505">
        <ele>250.69</ele>
        <time>2017-09-27T09:31:01Z</time>
      </trkpt>
      <trkpt lat="47.64515" lon="6.06503">
        <ele>250.73</ele>
        <time>2017-09-27T09:31:03Z</time>
      </trkpt>
      <trkpt lat="47.6451" lon="6.065">
        <ele>250.78</ele>
        <time>2017-09-27T09:31:05Z</time>
      </trkpt>
      <trkpt lat="47.64506" lon="6.06498">
        <ele>250.83</ele>
        <time>2017-09-27T09:31:07Z</time>
      </trkpt>
      <trkpt lat="47.64501" lon="6.06496">
        <ele>250.88</ele>
        <time>2017-09-27T09:31:09Z</time>
      </trkpt>
      <trkpt lat="47.64496" lon="6.06493">
        <ele>250.93</ele>
        <time>2017-09-27T09:31:11Z</time>
      </trkpt>
      <trkpt lat="47.64492" lon="6.06489">
        <ele>250.99</ele>
        <time>2017-09-27T09:31:13Z</time>
      </trkpt>
      <trkpt lat="47.64486" lon="6.06486">
        <ele>251.04</ele>
        <time>2017-09-27T09:31:15Z</time>
      </trkpt>
      <trkpt lat="47.64481" lon="6.06481">
        <ele>251.11</ele>
        <time>2017-09-27T09:31:17Z</time>
      </trkpt>
      <trkpt lat="47.64476" lon="6.06477">
        <ele>251.17</ele>
        <time>2017-09-27T09:31:19Z</time>
      </trkpt>
      <trkpt lat="47.64471" lon="6.06472">
        <ele>251.23</ele>
        <time>2017-09-27T09:31:21Z</time>
      </trkpt>
      <trkpt lat="47.64465" lon="6.06467">
        <ele>251.3</ele>
        <time>2017-09-27T09:31:23Z</time>
      </trkpt>
      <trkpt lat="47.6446" lon="6.06463">
        <ele>251.38</ele>
        <time>2017-09-27T09:31:25Z</time>
      </trkpt>
      <trkpt lat="47.64455" lon="6.06459">
        <ele>251.46</ele>
        <time>2017-09-27T09:31:27Z</time>
      </trkpt>
      <trkpt lat="47.64449" lon="6.06455">
        <ele>251.54</ele>
        <time>2017-09-27T09:31:29Z</time>
      </trkpt>
      <trkpt lat="47.64444" lon="6.0645">
        <ele>251.62</ele>
        <time>2017-09-27T09:31:31Z</time>
      </trkpt>
      <trkpt lat="47.64439" lon="6.06447">
        <ele>251.71</ele>
        <time>2017-09-27T09:31:33Z</time>
      </trkpt>
      <trkpt lat="47.64431" lon="6.06443">
        <ele>252.39</ele>
        <time>2017-09-27T09:31:35Z</time>
      </trkpt>
      <trkpt lat="47.64427" lon="6.06441">
        <ele>252.71</ele>
        <time>2017-09-27T09:31:36Z</time>
      </trkpt>
      <trkpt lat="47.64419" lon="6.06437">
        <ele>253.26</ele>
        <time>2017-09-27T09:31:38Z</time>
      </trkpt>
      <trkpt lat="47.64412" lon="6.06434">
        <ele>253.58</ele>
        <time>2017-09-27T09:31:40Z</time>
      </trkpt>
      <trkpt lat="47.64406" lon="6.06432">
        <ele>253.65</ele>
        <time>2017-09-27T09:31:42Z</time>
      </trkpt>
      <trkpt lat="47.644" lon="6.06431">
        <ele>253.71</ele>
        <time>2017-09-27T09:31:44Z</time>
      </trkpt>
      <trkpt lat="47.64395" lon="6.06431">
        <ele>253.78</ele>
        <time>2017-09-27T09:31:46Z</time>
      </trkpt>
      <trkpt lat="47.6439" lon="6.06431">
        <ele>253.85</ele>
        <time>2017-09-27T09:31:48Z</time>
      </trkpt>
      <trkpt lat="47.64384" lon="6.06431">
        <ele>253.94</ele>
        <time>2017-09-27T09:31:50Z</time>
      </trkpt>
      <trkpt lat="47.64379" lon="6.06431">
        <ele>254.04</ele>
        <time>2017-09-27T09:31:52Z</time>
      </trkpt>
      <trkpt lat="47.64375" lon="6.06432">
        <ele>254.15</ele>
        <time>2017-09-27T09:31:54Z</time>
      </trkpt>
      <trkpt lat="47.6437" lon="6.06437">
        <ele>254.31</ele>
        <time>2017-09-27T09:31:57Z</time>
      </trkpt>
      <trkpt lat="47.64364" lon="6.06438">
        <ele>254.47</ele>
        <time>2017-09-27T09:32:00Z</time>
      </trkpt>
      <trkpt lat="47.64357" lon="6.0644">
        <ele>254.64</ele>
        <time>2017-09-27T09:32:03Z</time>
      </trkpt>
      <trkpt lat="47.64351" lon="6.06442">
        <ele>254.82</ele>
        <time>2017-09-27T09:32:06Z</time>
      </trkpt>
      <trkpt lat="47.64346" lon="6.06443">
        <ele>254.94</ele>
        <time>2017-09-27T09:32:08Z</time>
      </trkpt>
      <trkpt lat="47.64341" lon="6.06443">
        <ele>255.06</ele>
        <time>2017-09-27T09:32:10Z</time>
      </trkpt>
      <trkpt lat="47.64335" lon="6.06446">
        <ele>255.18</ele>
        <time>2017-09-27T09:32:12Z</time>
      </trkpt>
      <trkpt lat="47.64331" lon="6.06448">
        <ele>255.31</ele>
        <time>2017-09-27T09:32:14Z</time>
      </trkpt>
      <trkpt lat="47.64326" lon="6.0645">
        <ele>255.45</ele>
        <time>2017-09-27T09:32:16Z</time>
      </trkpt>
      <trkpt lat="47.6432" lon="6.06452">
        <ele>255.65</ele>
        <time>2017-09-27T09:32:19Z</time>
      </trkpt>
      <trkpt lat="47.64315" lon="6.06454">
        <ele>255.79</ele>
        <time>2017-09-27T09:32:21Z</time>
      </trkpt>
      <trkpt lat="47.6431" lon="6.06456">
        <ele>255.93</ele>
        <time>2017-09-27T09:32:23Z</time>
      </trkpt>
      <trkpt lat="47.64305" lon="6.06457">
        <ele>256.07</ele>
        <time>2017-09-27T09:32:25Z</time>
      </trkpt>
      <trkpt lat="47.643" lon="6.0646">
        <ele>256.21</ele>
        <time>2017-09-27T09:32:27Z</time>
      </trkpt>
      <trkpt lat="47.64295" lon="6.06463">
        <ele>256.36</ele>
        <time>2017-09-27T09:32:29Z</time>
      </trkpt>
      <trkpt lat="47.64291" lon="6.06465">
        <ele>256.51</ele>
        <time>2017-09-27T09:32:31Z</time>
      </trkpt>
      <trkpt lat="47.64285" lon="6.06468">
        <ele>256.67</ele>
        <time>2017-09-27T09:32:33Z</time>
      </trkpt>
      <trkpt lat="47.6428" lon="6.06471">
        <ele>256.83</ele>
        <time>2017-09-27T09:32:35Z</time>
      </trkpt>
      <trkpt lat="47.64275" lon="6.06473">
        <ele>256.99</ele>
        <time>2017-09-27T09:32:37Z</time>
      </trkpt>
      <trkpt lat="47.64269" lon="6.06474">
        <ele>257.15</ele>
        <time>2017-09-27T09:32:39Z</time>
      </trkpt>
      <trkpt lat="47.64263" lon="6.06477">
        <ele>257.31</ele>
        <time>2017-09-27T09:32:41Z</time>
      </trkpt>
      <trkpt lat="47.64258" lon="6.06481">
        <ele>257.47</ele>
        <time>2017-09-27T09:32:43Z</time>
      </trkpt>
      <trkpt lat="47.64252" lon="6.06484">
        <ele>257.63</ele>
        <time>2017-09-27T09:32:45Z</time>
      </trkpt>
      <trkpt lat="47.64246" lon="6.06487">
        <ele>258.27</ele>
        <time>2017-09-27T09:32:47Z</time>
      </trkpt>
      <trkpt lat="47.64237" lon="6.06492">
        <ele>259.38</ele>
        <time>2017-09-27T09:32:49Z</time>
      </trkpt>
      <trkpt lat="47.6423" lon="6.06497">
        <ele>260.16</ele>
        <time>2017-09-27T09:32:51Z</time>
      </trkpt>
      <trkpt lat="47.64222" lon="6.06503">
        <ele>260.68</ele>
        <time>2017-09-27T09:32:53Z</time>
      </trkpt>
      <trkpt lat="47.64214" lon="6.06508">
        <ele>261.02</ele>
        <time>2017-09-27T09:32:55Z</time>
      </trkpt>
      <trkpt lat="47.64207" lon="6.06513">
        <ele>261.25</ele>
        <time>2017-09-27T09:32:57Z</time>
      </trkpt>
      <trkpt lat="47.64199" lon="6.06516">
        <ele>261.31</ele>
        <time>2017-09-27T09:32:59Z</time>
      </trkpt>
      <trkpt lat="47.64192" lon="6.06519">
        <ele>261.5</ele>
        <time>2017-09-27T09:33:01Z</time>
      </trkpt>
      <trkpt lat="47.64184" lon="6.06524">
        <ele>261.66</ele>
        <time>2017-09-27T09:33:03Z</time>
      </trkpt>
      <trkpt lat="47.64177" lon="6.06529">
        <ele>261.7</ele>
        <time>2017-09-27T09:33:05Z</time>
      </trkpt>
      <trkpt lat="47.6417" lon="6.06533">
        <ele>261.71</ele>
        <time>2017-09-27T09:33:07Z</time>
      </trkpt>
      <trkpt lat="47.64163" lon="6.06537">
        <ele>261.73</ele>
        <time>2017-09-27T09:33:09Z</time>
      </trkpt>
      <trkpt lat="47.64157" lon="6.06542">
        <ele>261.75</ele>
        <time>2017-09-27T09:33:11Z</time>
      </trkpt>
      <trkpt lat="47.64151" lon="6.06545">
        <ele>261.77</ele>
        <time>2017-09-27T09:33:13Z</time>
      </trkpt>
      <trkpt lat="47.64144" lon="6.06548">
        <ele>261.8</ele>
        <time>2017-09-27T09:33:15Z</time>
      </trkpt>
      <trkpt lat="47.64138" lon="6.06551">
        <ele>261.84</ele>
        <time>2017-09-27T09:33:17Z</time>
      </trkpt>
      <trkpt lat="47.64132" lon="6.06554">
        <ele>261.89</ele>
        <time>2017-09-27T09:33:19Z</time>
      </trkpt>
      <trkpt lat="47.64126" lon="6.06556">
        <ele>261.94</ele>
        <time>2017-09-27T09:33:21Z</time>
      </trkpt>
      <trkpt lat="47.6412" lon="6.06557">
        <ele>261.98</ele>
        <time>2017-09-27T09:33:23Z</time>
      </trkpt>
      <trkpt lat="47.64113" lon="6.06556">
        <ele>262.04</ele>
        <time>2017-09-27T09:33:25Z</time>
      </trkpt>
      <trkpt lat="47.64107" lon="6.06556">
        <ele>262.1</ele>
        <time>2017-09-27T09:33:27Z</time>
      </trkpt>
      <trkpt lat="47.64101" lon="6.06556">
        <ele>262.16</ele>
        <time>2017-09-27T09:33:29Z</time>
      </trkpt>
      <trkpt lat="47.64096" lon="6.06555">
        <ele>262.24</ele>
        <time>2017-09-27T09:33:31Z</time>
      </trkpt>
      <trkpt lat="47.64089" lon="6.06553">
        <ele>262.31</ele>
        <time>2017-09-27T09:33:33Z</time>
      </trkpt>
      <trkpt lat="47.64083" lon="6.06551">
        <ele>262.38</ele>
        <time>2017-09-27T09:33:35Z</time>
      </trkpt>
      <trkpt lat="47.64076" lon="6.06549">
        <ele>262.46</ele>
        <time>2017-09-27T09:33:37Z</time>
      </trkpt>
      <trkpt lat="47.6407" lon="6.06548">
        <ele>262.54</ele>
        <time>2017-09-27T09:33:39Z</time>
      </trkpt>
      <trkpt lat="47.64064" lon="6.06546">
        <ele>262.62</ele>
        <time>2017-09-27T09:33:41Z</time>
      </trkpt>
      <trkpt lat="47.64057" lon="6.06545">
        <ele>262.71</ele>
        <time>2017-09-27T09:33:43Z</time>
      </trkpt>
      <trkpt lat="47.64051" lon="6.06545">
        <ele>262.79</ele>
        <time>2017-09-27T09:33:45Z</time>
      </trkpt>
      <trkpt lat="47.64046" lon="6.06545">
        <ele>262.87</ele>
        <time>2017-09-27T09:33:47Z</time>
      </trkpt>
      <trkpt lat="47.64041" lon="6.06544">
        <ele>262.94</ele>
        <time>2017-09-27T09:33:49Z</time>
      </trkpt>
      <trkpt lat="47.64038" lon="6.06539">
        <ele>263.01</ele>
        <time>2017-09-27T09:33:51Z</time>
      </trkpt>
      <trkpt lat="47.64038" lon="6.06531">
        <ele>263.09</ele>
        <time>2017-09-27T09:33:53Z</time>
      </trkpt>
      <trkpt lat="47.6404" lon="6.06524">
        <ele>263.16</ele>
        <time>2017-09-27T09:33:55Z</time>
      </trkpt>
      <trkpt lat="47.64044" lon="6.06515">
        <ele>263.22</ele>
        <time>2017-09-27T09:33:57Z</time>
      </trkpt>
      <trkpt lat="47.64049" lon="6.06505">
        <ele>263.59</ele>
        <time>2017-09-27T09:33:59Z</time>
      </trkpt>
      <trkpt lat="47.64052" lon="6.065">
        <ele>263.73</ele>
        <time>2017-09-27T09:34:00Z</time>
      </trkpt>
      <trkpt lat="47.64055" lon="6.06494">
        <ele>263.83</ele>
        <time>2017-09-27T09:34:01Z</time>
      </trkpt>
      <trkpt lat="47.64058" lon="6.06489">
        <ele>263.89</ele>
        <time>2017-09-27T09:34:02Z</time>
      </trkpt>
      <trkpt lat="47.64061" lon="6.06483">
        <ele>263.93</ele>
        <time>2017-09-27T09:34:03Z</time>
      </trkpt>
      <trkpt lat="47.64064" lon="6.06478">
        <ele>263.94</ele>
        <time>2017-09-27T09:34:04Z</time>
      </trkpt>
      <trkpt lat="47.64068" lon="6.06472">
        <ele>263.93</ele>
        <time>2017-09-27T09:34:05Z</time>
      </trkpt>
      <trkpt lat="47.64071" lon="6.06467">
        <ele>263.92</ele>
        <time>2017-09-27T09:34:06Z</time>
      </trkpt>
      <trkpt lat="47.64075" lon="6.06461">
        <ele>263.91</ele>
        <time>2017-09-27T09:34:07Z</time>
      </trkpt>
      <trkpt lat="47.64078" lon="6.06456">
        <ele>263.91</ele>
        <time>2017-09-27T09:34:08Z</time>
      </trkpt>
      <trkpt lat="47.64081" lon="6.06452">
        <ele>263.93</ele>
        <time>2017-09-27T09:34:09Z</time>
      </trkpt>
      <trkpt lat="47.64086" lon="6.06442">
        <ele>263.94</ele>
        <time>2017-09-27T09:34:11Z</time>
      </trkpt>
      <trkpt lat="47.64092" lon="6.06432">
        <ele>263.91</ele>
        <time>2017-09-27T09:34:13Z</time>
      </trkpt>
      <trkpt lat="47.64097" lon="6.06422">
        <ele>263.93</ele>
        <time>2017-09-27T09:34:15Z</time>
      </trkpt>
      <trkpt lat="47.64103" lon="6.06411">
        <ele>263.98</ele>
        <time>2017-09-27T09:34:17Z</time>
      </trkpt>
      <trkpt lat="47.64105" lon="6.06405">
        <ele>264.02</ele>
        <time>2017-09-27T09:34:18Z</time>
      </trkpt>
      <trkpt lat="47.64109" lon="6.06394">
        <ele>264.07</ele>
        <time>2017-09-27T09:34:20Z</time>
      </trkpt>
      <trkpt lat="47.64113" lon="6.06383">
        <ele>264.08</ele>
        <time>2017-09-27T09:34:22Z</time>
      </trkpt>
      <trkpt lat="47.64116" lon="6.06377">
        <ele>264.13</ele>
        <time>2017-09-27T09:34:23Z</time>
      </trkpt>
      <trkpt lat="47.64119" lon="6.06371">
        <ele>264.18</ele>
        <time>2017-09-27T09:34:24Z</time>
      </trkpt>
      <trkpt lat="47.64121" lon="6.06365">
        <ele>264.22</ele>
        <time>2017-09-27T09:34:25Z</time>
      </trkpt>
      <trkpt lat="47.64124" lon="6.06359">
        <ele>264.27</ele>
        <time>2017-09-27T09:34:26Z</time>
      </trkpt>
      <trkpt lat="47.64126" lon="6.06353">
        <ele>264.33</ele>
        <time>2017-09-27T09:34:27Z</time>
      </trkpt>
      <trkpt lat="47.64129" lon="6.06347">
        <ele>264.39</ele>
        <time>2017-09-27T09:34:28Z</time>
      </trkpt>
      <trkpt lat="47.64132" lon="6.06342">
        <ele>264.44</ele>
        <time>2017-09-27T09:34:29Z</time>
      </trkpt>
      <trkpt lat="47.64137" lon="6.06332">
        <ele>264.45</ele>
        <time>2017-09-27T09:34:31Z</time>
      </trkpt>
      <trkpt lat="47.64141" lon="6.06321">
        <ele>264.44</ele>
        <time>2017-09-27T09:34:33Z</time>
      </trkpt>
      <trkpt lat="47.64145" lon="6.0631">
        <ele>264.39</ele>
        <time>2017-09-27T09:34:35Z</time>
      </trkpt>
      <trkpt lat="47.64148" lon="6.06299">
        <ele>264.42</ele>
        <time>2017-09-27T09:34:37Z</time>
      </trkpt>
      <trkpt lat="47.64152" lon="6.06289">
        <ele>264.43</ele>
        <time>2017-09-27T09:34:39Z</time>
      </trkpt>
      <trkpt lat="47.64155" lon="6.06279">
        <ele>264.43</ele>
        <time>2017-09-27T09:34:41Z</time>
      </trkpt>
      <trkpt lat="47.64159" lon="6.0627">
        <ele>264.4</ele>
        <time>2017-09-27T09:34:43Z</time>
      </trkpt>
      <trkpt lat="47.64163" lon="6.0626">
        <ele>264.3</ele>
        <time>2017-09-27T09:34:45Z</time>
      </trkpt>
      <trkpt lat="47.64167" lon="6.0625">
        <ele>264.22</ele>
        <time>2017-09-27T09:34:47Z</time>
      </trkpt>
      <trkpt lat="47.64171" lon="6.06238">
        <ele>264.16</ele>
        <time>2017-09-27T09:34:49Z</time>
      </trkpt>
      <trkpt lat="47.64174" lon="6.06232">
        <ele>264.13</ele>
        <time>2017-09-27T09:34:50Z</time>
      </trkpt>
      <trkpt lat="47.64176" lon="6.06225">
        <ele>264.09</ele>
        <time>2017-09-27T09:34:51Z</time>
      </trkpt>
      <trkpt lat="47.64178" lon="6.06218">
        <ele>264.06</ele>
        <time>2017-09-27T09:34:52Z</time>
      </trkpt>
      <trkpt lat="47.64181" lon="6.06211">
        <ele>264.03</ele>
        <time>2017-09-27T09:34:53Z</time>
      </trkpt>
      <trkpt lat="47.64183" lon="6.06204">
        <ele>263.99</ele>
        <time>2017-09-27T09:34:54Z</time>
      </trkpt>
      <trkpt lat="47.64185" lon="6.06197">
        <ele>263.97</ele>
        <time>2017-09-27T09:34:55Z</time>
      </trkpt>
      <trkpt lat="47.64187" lon="6.0619">
        <ele>263.93</ele>
        <time>2017-09-27T09:34:56Z</time>
      </trkpt>
      <trkpt lat="47.64189" lon="6.06183">
        <ele>263.91</ele>
        <time>2017-09-27T09:34:57Z</time>
      </trkpt>
      <trkpt lat="47.64191" lon="6.06175">
        <ele>263.87</ele>
        <time>2017-09-27T09:34:58Z</time>
      </trkpt>
      <trkpt lat="47.64194" lon="6.06168">
        <ele>263.84</ele>
        <time>2017-09-27T09:34:59Z</time>
      </trkpt>
      <trkpt lat="47.64196" lon="6.0616">
        <ele>263.82</ele>
        <time>2017-09-27T09:35:00Z</time>
      </trkpt>
      <trkpt lat="47.64198" lon="6.06153">
        <ele>263.79</ele>
        <time>2017-09-27T09:35:01Z</time>
      </trkpt>
      <trkpt lat="47.642" lon="6.06145">
        <ele>263.74</ele>
        <time>2017-09-27T09:35:02Z</time>
      </trkpt>
      <trkpt lat="47.64203" lon="6.06137">
        <ele>263.69</ele>
        <time>2017-09-27T09:35:03Z</time>
      </trkpt>
      <trkpt lat="47.64205" lon="6.06128">
        <ele>263.64</ele>
        <time>2017-09-27T09:35:04Z</time>
      </trkpt>
      <trkpt lat="47.64208" lon="6.0612">
        <ele>263.6</ele>
        <time>2017-09-27T09:35:05Z</time>
      </trkpt>
      <trkpt lat="47.64211" lon="6.06111">
        <ele>263.54</ele>
        <time>2017-09-27T09:35:06Z</time>
      </trkpt>
      <trkpt lat="47.64215" lon="6.06102">
        <ele>263.48</ele>
        <time>2017-09-27T09:35:07Z</time>
      </trkpt>
      <trkpt lat="47.64219" lon="6.06092">
        <ele>263.4</ele>
        <time>2017-09-27T09:35:08Z</time>
      </trkpt>
      <trkpt lat="47.64223" lon="6.06083">
        <ele>263.3</ele>
        <time>2017-09-27T09:35:09Z</time>
      </trkpt>
      <trkpt lat="47.64228" lon="6.06074">
        <ele>263.2</ele>
        <time>2017-09-27T09:35:10Z</time>
      </trkpt>
      <trkpt lat="47.64233" lon="6.06064">
        <ele>263.1</ele>
        <time>2017-09-27T09:35:11Z</time>
      </trkpt>
      <trkpt lat="47.64237" lon="6.06054">
        <ele>262.98</ele>
        <time>2017-09-27T09:35:12Z</time>
      </trkpt>
      <trkpt lat="47.64241" lon="6.06043">
        <ele>262.87</ele>
        <time>2017-09-27T09:35:13Z</time>
      </trkpt>
      <trkpt lat="47.64245" lon="6.06033">
        <ele>262.76</ele>
        <time>2017-09-27T09:35:14Z</time>
      </trkpt>
      <trkpt lat="47.64249" lon="6.06021">
        <ele>262.65</ele>
        <time>2017-09-27T09:35:15Z</time>
      </trkpt>
      <trkpt lat="47.64252" lon="6.0601">
        <ele>262.55</ele>
        <time>2017-09-27T09:35:16Z</time>
      </trkpt>
      <trkpt lat="47.64255" lon="6.05998">
        <ele>262.47</ele>
        <time>2017-09-27T09:35:17Z</time>
      </trkpt>
      <trkpt lat="47.64258" lon="6.05987">
        <ele>262.39</ele>
        <time>2017-09-27T09:35:18Z</time>
      </trkpt>
      <trkpt lat="47.64261" lon="6.05975">
        <ele>262.29</ele>
        <time>2017-09-27T09:35:19Z</time>
      </trkpt>
      <trkpt lat="47.64264" lon="6.05963">
        <ele>262.18</ele>
        <time>2017-09-27T09:35:20Z</time>
      </trkpt>
      <trkpt lat="47.64267" lon="6.05951">
        <ele>262.09</ele>
        <time>2017-09-27T09:35:21Z</time>
      </trkpt>
      <trkpt lat="47.64269" lon="6.0594">
        <ele>261.99</ele>
        <time>2017-09-27T09:35:22Z</time>
      </trkpt>
      <trkpt lat="47.64271" lon="6.05928">
        <ele>261.91</ele>
        <time>2017-09-27T09:35:23Z</time>
      </trkpt>
      <trkpt lat="47.64273" lon="6.05916">
        <ele>261.81</ele>
        <time>2017-09-27T09:35:24Z</time>
      </trkpt>
      <trkpt lat="47.64275" lon="6.05904">
        <ele>261.72</ele>
        <time>2017-09-27T09:35:25Z</time>
      </trkpt>
      <trkpt lat="47.64276" lon="6.05891">
        <ele>261.61</ele>
        <time>2017-09-27T09:35:26Z</time>
      </trkpt>
      <trkpt lat="47.64277" lon="6.05879">
        <ele>261.49</ele>
        <time>2017-09-27T09:35:27Z</time>
      </trkpt>
      <trkpt lat="47.64277" lon="6.05867">
        <ele>261.34</ele>
        <time>2017-09-27T09:35:28Z</time>
      </trkpt>
      <trkpt lat="47.64278" lon="6.05854">
        <ele>261.19</ele>
        <time>2017-09-27T09:35:29Z</time>
      </trkpt>
      <trkpt lat="47.64278" lon="6.05841">
        <ele>261.06</ele>
        <time>2017-09-27T09:35:30Z</time>
      </trkpt>
      <trkpt lat="47.64277" lon="6.05829">
        <ele>260.94</ele>
        <time>2017-09-27T09:35:31Z</time>
      </trkpt>
      <trkpt lat="47.64277" lon="6.05816">
        <ele>260.82</ele>
        <time>2017-09-27T09:35:32Z</time>
      </trkpt>
      <trkpt lat="47.64277" lon="6.05804">
        <ele>260.68</ele>
        <time>2017-09-27T09:35:33Z</time>
      </trkpt>
      <trkpt lat="47.64277" lon="6.05791">
        <ele>260.52</ele>
        <time>2017-09-27T09:35:34Z</time>
      </trkpt>
      <trkpt lat="47.64276" lon="6.05778">
        <ele>260.36</ele>
        <time>2017-09-27T09:35:35Z</time>
      </trkpt>
      <trkpt lat="47.64276" lon="6.05765">
        <ele>260.19</ele>
        <time>2017-09-27T09:35:36Z</time>
      </trkpt>
      <trkpt lat="47.64275" lon="6.05752">
        <ele>260.02</ele>
        <time>2017-09-27T09:35:37Z</time>
      </trkpt>
      <trkpt lat="47.64275" lon="6.05738">
        <ele>259.84</ele>
        <time>2017-09-27T09:35:38Z</time>
      </trkpt>
      <trkpt lat="47.64275" lon="6.05724">
        <ele>259.69</ele>
        <time>2017-09-27T09:35:39Z</time>
      </trkpt>
      <trkpt lat="47.64275" lon="6.05711">
        <ele>259.56</ele>
        <time>2017-09-27T09:35:40Z</time>
      </trkpt>
      <trkpt lat="47.64274" lon="6.05697">
        <ele>259.44</ele>
        <time>2017-09-27T09:35:41Z</time>
      </trkpt>
      <trkpt lat="47.64274" lon="6.05683">
        <ele>259.34</ele>
        <time>2017-09-27T09:35:42Z</time>
      </trkpt>
      <trkpt lat="47.64274" lon="6.05669">
        <ele>259.27</ele>
        <time>2017-09-27T09:35:43Z</time>
      </trkpt>
      <trkpt lat="47.64274" lon="6.05655">
        <ele>259.21</ele>
        <time>2017-09-27T09:35:44Z</time>
      </trkpt>
      <trkpt lat="47.64276" lon="6.05642">
        <ele>259.15</ele>
        <time>2017-09-27T09:35:45Z</time>
      </trkpt>
      <trkpt lat="47.64277" lon="6.05629">
        <ele>259.09</ele>
        <time>2017-09-27T09:35:46Z</time>
      </trkpt>
      <trkpt lat="47.64279" lon="6.05616">
        <ele>259</ele>
        <time>2017-09-27T09:35:47Z</time>
      </trkpt>
      <trkpt lat="47.64279" lon="6.05604">
        <ele>258.92</ele>
        <time>2017-09-27T09:35:48Z</time>
      </trkpt>
      <trkpt lat="47.64279" lon="6.05591">
        <ele>258.86</ele>
        <time>2017-09-27T09:35:49Z</time>
      </trkpt>
      <trkpt lat="47.64279" lon="6.05579">
        <ele>258.8</ele>
        <time>2017-09-27T09:35:50Z</time>
      </trkpt>
      <trkpt lat="47.64279" lon="6.05567">
        <ele>258.75</ele>
        <time>2017-09-27T09:35:51Z</time>
      </trkpt>
      <trkpt lat="47.6428" lon="6.05555">
        <ele>258.7</ele>
        <time>2017-09-27T09:35:52Z</time>
      </trkpt>
      <trkpt lat="47.64281" lon="6.05543">
        <ele>258.64</ele>
        <time>2017-09-27T09:35:53Z</time>
      </trkpt>
      <trkpt lat="47.64282" lon="6.05532">
        <ele>258.56</ele>
        <time>2017-09-27T09:35:54Z</time>
      </trkpt>
      <trkpt lat="47.64284" lon="6.05521">
        <ele>258.45</ele>
        <time>2017-09-27T09:35:55Z</time>
      </trkpt>
      <trkpt lat="47.64285" lon="6.05509">
        <ele>258.35</ele>
        <time>2017-09-27T09:35:56Z</time>
      </trkpt>
      <trkpt lat="47.64286" lon="6.05498">
        <ele>258.25</ele>
        <time>2017-09-27T09:35:57Z</time>
      </trkpt>
      <trkpt lat="47.64288" lon="6.05487">
        <ele>258.14</ele>
        <time>2017-09-27T09:35:58Z</time>
      </trkpt>
      <trkpt lat="47.6429" lon="6.05475">
        <ele>258.02</ele>
        <time>2017-09-27T09:35:59Z</time>
      </trkpt>
      <trkpt lat="47.64291" lon="6.05463">
        <ele>257.88</ele>
        <time>2017-09-27T09:36:00Z</time>
      </trkpt>
      <trkpt lat="47.64293" lon="6.05452">
        <ele>257.75</ele>
        <time>2017-09-27T09:36:01Z</time>
      </trkpt>
      <trkpt lat="47.64295" lon="6.0544">
        <ele>257.63</ele>
        <time>2017-09-27T09:36:02Z</time>
      </trkpt>
      <trkpt lat="47.64297" lon="6.05428">
        <ele>257.51</ele>
        <time>2017-09-27T09:36:03Z</time>
      </trkpt>
      <trkpt lat="47.64298" lon="6.05416">
        <ele>257.39</ele>
        <time>2017-09-27T09:36:04Z</time>
      </trkpt>
      <trkpt lat="47.64299" lon="6.05405">
        <ele>257.27</ele>
        <time>2017-09-27T09:36:05Z</time>
      </trkpt>
      <trkpt lat="47.643" lon="6.05393">
        <ele>257.17</ele>
        <time>2017-09-27T09:36:06Z</time>
      </trkpt>
      <trkpt lat="47.64302" lon="6.05381">
        <ele>257.07</ele>
        <time>2017-09-27T09:36:07Z</time>
      </trkpt>
      <trkpt lat="47.64303" lon="6.0537">
        <ele>256.97</ele>
        <time>2017-09-27T09:36:08Z</time>
      </trkpt>
      <trkpt lat="47.64304" lon="6.05358">
        <ele>256.87</ele>
        <time>2017-09-27T09:36:09Z</time>
      </trkpt>
      <trkpt lat="47.64305" lon="6.05347">
        <ele>256.78</ele>
        <time>2017-09-27T09:36:10Z</time>
      </trkpt>
      <trkpt lat="47.64307" lon="6.05336">
        <ele>256.7</ele>
        <time>2017-09-27T09:36:11Z</time>
      </trkpt>
      <trkpt lat="47.64308" lon="6.05326">
        <ele>256.62</ele>
        <time>2017-09-27T09:36:12Z</time>
      </trkpt>
      <trkpt lat="47.64309" lon="6.05315">
        <ele>256.53</ele>
        <time>2017-09-27T09:36:13Z</time>
      </trkpt>
      <trkpt lat="47.6431" lon="6.05304">
        <ele>256.42</ele>
        <time>2017-09-27T09:36:14Z</time>
      </trkpt>
      <trkpt lat="47.64312" lon="6.05292">
        <ele>256.29</ele>
        <time>2017-09-27T09:36:15Z</time>
      </trkpt>
      <trkpt lat="47.64313" lon="6.05281">
        <ele>256.15</ele>
        <time>2017-09-27T09:36:16Z</time>
      </trkpt>
      <trkpt lat="47.64314" lon="6.0527">
        <ele>256</ele>
        <time>2017-09-27T09:36:17Z</time>
      </trkpt>
      <trkpt lat="47.64315" lon="6.05258">
        <ele>255.86</ele>
        <time>2017-09-27T09:36:18Z</time>
      </trkpt>
      <trkpt lat="47.64316" lon="6.05247">
        <ele>255.7</ele>
        <time>2017-09-27T09:36:19Z</time>
      </trkpt>
      <trkpt lat="47.64316" lon="6.05235">
        <ele>255.53</ele>
        <time>2017-09-27T09:36:20Z</time>
      </trkpt>
      <trkpt lat="47.64317" lon="6.05224">
        <ele>255.36</ele>
        <time>2017-09-27T09:36:21Z</time>
      </trkpt>
      <trkpt lat="47.64317" lon="6.05212">
        <ele>255.18</ele>
        <time>2017-09-27T09:36:22Z</time>
      </trkpt>
      <trkpt lat="47.64318" lon="6.052">
        <ele>255.01</ele>
        <time>2017-09-27T09:36:23Z</time>
      </trkpt>
      <trkpt lat="47.6432" lon="6.05188">
        <ele>254.84</ele>
        <time>2017-09-27T09:36:24Z</time>
      </trkpt>
      <trkpt lat="47.64321" lon="6.05177">
        <ele>254.67</ele>
        <time>2017-09-27T09:36:25Z</time>
      </trkpt>
      <trkpt lat="47.64322" lon="6.05165">
        <ele>254.51</ele>
        <time>2017-09-27T09:36:26Z</time>
      </trkpt>
      <trkpt lat="47.64324" lon="6.05154">
        <ele>254.39</ele>
        <time>2017-09-27T09:36:27Z</time>
      </trkpt>
      <trkpt lat="47.64325" lon="6.05142">
        <ele>254.27</ele>
        <time>2017-09-27T09:36:28Z</time>
      </trkpt>
      <trkpt lat="47.64325" lon="6.05131">
        <ele>254.14</ele>
        <time>2017-09-27T09:36:29Z</time>
      </trkpt>
      <trkpt lat="47.64326" lon="6.05121">
        <ele>254.01</ele>
        <time>2017-09-27T09:36:30Z</time>
      </trkpt>
      <trkpt lat="47.64328" lon="6.05111">
        <ele>253.89</ele>
        <time>2017-09-27T09:36:31Z</time>
      </trkpt>
      <trkpt lat="47.64329" lon="6.05101">
        <ele>253.79</ele>
        <time>2017-09-27T09:36:32Z</time>
      </trkpt>
      <trkpt lat="47.64331" lon="6.05091">
        <ele>253.7</ele>
        <time>2017-09-27T09:36:33Z</time>
      </trkpt>
      <trkpt lat="47.64332" lon="6.05081">
        <ele>253.61</ele>
        <time>2017-09-27T09:36:34Z</time>
      </trkpt>
      <trkpt lat="47.64333" lon="6.05072">
        <ele>253.52</ele>
        <time>2017-09-27T09:36:36Z</time>
      </trkpt>
      <trkpt lat="47.64334" lon="6.05062">
        <ele>253.42</ele>
        <time>2017-09-27T09:36:37Z</time>
      </trkpt>
      <trkpt lat="47.64335" lon="6.05053">
        <ele>253.32</ele>
        <time>2017-09-27T09:36:38Z</time>
      </trkpt>
      <trkpt lat="47.64337" lon="6.05044">
        <ele>253.22</ele>
        <time>2017-09-27T09:36:39Z</time>
      </trkpt>
      <trkpt lat="47.64338" lon="6.05035">
        <ele>253.09</ele>
        <time>2017-09-27T09:36:40Z</time>
      </trkpt>
      <trkpt lat="47.6434" lon="6.05026">
        <ele>252.99</ele>
        <time>2017-09-27T09:36:41Z</time>
      </trkpt>
      <trkpt lat="47.64342" lon="6.05018">
        <ele>252.87</ele>
        <time>2017-09-27T09:36:42Z</time>
      </trkpt>
      <trkpt lat="47.64343" lon="6.05009">
        <ele>252.74</ele>
        <time>2017-09-27T09:36:43Z</time>
      </trkpt>
      <trkpt lat="47.64344" lon="6.05">
        <ele>252.6</ele>
        <time>2017-09-27T09:36:44Z</time>
      </trkpt>
      <trkpt lat="47.64346" lon="6.04992">
        <ele>252.48</ele>
        <time>2017-09-27T09:36:45Z</time>
      </trkpt>
      <trkpt lat="47.64347" lon="6.04983">
        <ele>252.38</ele>
        <time>2017-09-27T09:36:46Z</time>
      </trkpt>
      <trkpt lat="47.64348" lon="6.04974">
        <ele>252.29</ele>
        <time>2017-09-27T09:36:47Z</time>
      </trkpt>
      <trkpt lat="47.64349" lon="6.04965">
        <ele>252.22</ele>
        <time>2017-09-27T09:36:48Z</time>
      </trkpt>
      <trkpt lat="47.6435" lon="6.04957">
        <ele>252.14</ele>
        <time>2017-09-27T09:36:49Z</time>
      </trkpt>
      <trkpt lat="47.64352" lon="6.04949">
        <ele>252.04</ele>
        <time>2017-09-27T09:36:50Z</time>
      </trkpt>
      <trkpt lat="47.64353" lon="6.04942">
        <ele>251.92</ele>
        <time>2017-09-27T09:36:51Z</time>
      </trkpt>
      <trkpt lat="47.64354" lon="6.04934">
        <ele>251.78</ele>
        <time>2017-09-27T09:36:52Z</time>
      </trkpt>
      <trkpt lat="47.64355" lon="6.04927">
        <ele>251.6</ele>
        <time>2017-09-27T09:36:53Z</time>
      </trkpt>
      <trkpt lat="47.64356" lon="6.0492">
        <ele>251.44</ele>
        <time>2017-09-27T09:36:54Z</time>
      </trkpt>
      <trkpt lat="47.64358" lon="6.04914">
        <ele>251.29</ele>
        <time>2017-09-27T09:36:55Z</time>
      </trkpt>
      <trkpt lat="47.64359" lon="6.04907">
        <ele>251.12</ele>
        <time>2017-09-27T09:36:56Z</time>
      </trkpt>
      <trkpt lat="47.6436" lon="6.049">
        <ele>250.89</ele>
        <time>2017-09-27T09:36:57Z</time>
      </trkpt>
      <trkpt lat="47.64361" lon="6.04892">
        <ele>250.66</ele>
        <time>2017-09-27T09:36:58Z</time>
      </trkpt>
      <trkpt lat="47.64362" lon="6.04885">
        <ele>250.42</ele>
        <time>2017-09-27T09:36:59Z</time>
      </trkpt>
      <trkpt lat="47.64362" lon="6.04877">
        <ele>250.22</ele>
        <time>2017-09-27T09:37:00Z</time>
      </trkpt>
      <trkpt lat="47.64363" lon="6.04868">
        <ele>250.04</ele>
        <time>2017-09-27T09:37:01Z</time>
      </trkpt>
      <trkpt lat="47.64364" lon="6.0486">
        <ele>249.85</ele>
        <time>2017-09-27T09:37:02Z</time>
      </trkpt>
      <trkpt lat="47.64365" lon="6.04852">
        <ele>249.66</ele>
        <time>2017-09-27T09:37:03Z</time>
      </trkpt>
      <trkpt lat="47.64366" lon="6.04844">
        <ele>249.49</ele>
        <time>2017-09-27T09:37:04Z</time>
      </trkpt>
      <trkpt lat="47.64368" lon="6.04835">
        <ele>249.35</ele>
        <time>2017-09-27T09:37:05Z</time>
      </trkpt>
      <trkpt lat="47.64369" lon="6.04827">
        <ele>249.21</ele>
        <time>2017-09-27T09:37:06Z</time>
      </trkpt>
      <trkpt lat="47.6437" lon="6.04819">
        <ele>249.1</ele>
        <time>2017-09-27T09:37:07Z</time>
      </trkpt>
      <trkpt lat="47.64372" lon="6.04809">
        <ele>248.99</ele>
        <time>2017-09-27T09:37:08Z</time>
      </trkpt>
      <trkpt lat="47.64373" lon="6.048">
        <ele>248.9</ele>
        <time>2017-09-27T09:37:09Z</time>
      </trkpt>
      <trkpt lat="47.64374" lon="6.0479">
        <ele>248.81</ele>
        <time>2017-09-27T09:37:10Z</time>
      </trkpt>
      <trkpt lat="47.64374" lon="6.0478">
        <ele>248.74</ele>
        <time>2017-09-27T09:37:11Z</time>
      </trkpt>
      <trkpt lat="47.64375" lon="6.04771">
        <ele>248.67</ele>
        <time>2017-09-27T09:37:12Z</time>
      </trkpt>
      <trkpt lat="47.64377" lon="6.04762">
        <ele>248.55</ele>
        <time>2017-09-27T09:37:13Z</time>
      </trkpt>
      <trkpt lat="47.64379" lon="6.04754">
        <ele>248.39</ele>
        <time>2017-09-27T09:37:14Z</time>
      </trkpt>
      <trkpt lat="47.64381" lon="6.04745">
        <ele>248.21</ele>
        <time>2017-09-27T09:37:15Z</time>
      </trkpt>
      <trkpt lat="47.64382" lon="6.04736">
        <ele>247.99</ele>
        <time>2017-09-27T09:37:16Z</time>
      </trkpt>
      <trkpt lat="47.64383" lon="6.04728">
        <ele>247.76</ele>
        <time>2017-09-27T09:37:17Z</time>
      </trkpt>
      <trkpt lat="47.64384" lon="6.0472">
        <ele>247.53</ele>
        <time>2017-09-27T09:37:18Z</time>
      </trkpt>
      <trkpt lat="47.64385" lon="6.04711">
        <ele>247.32</ele>
        <time>2017-09-27T09:37:19Z</time>
      </trkpt>
      <trkpt lat="47.64384" lon="6.04704">
        <ele>247.12</ele>
        <time>2017-09-27T09:37:20Z</time>
      </trkpt>
      <trkpt lat="47.64384" lon="6.04695">
        <ele>246.95</ele>
        <time>2017-09-27T09:37:21Z</time>
      </trkpt>
      <trkpt lat="47.64384" lon="6.04687">
        <ele>246.79</ele>
        <time>2017-09-27T09:37:22Z</time>
      </trkpt>
      <trkpt lat="47.64383" lon="6.04681">
        <ele>246.64</ele>
        <time>2017-09-27T09:37:23Z</time>
      </trkpt>
      <trkpt lat="47.64383" lon="6.04674">
        <ele>246.47</ele>
        <time>2017-09-27T09:37:24Z</time>
      </trkpt>
      <trkpt lat="47.64382" lon="6.04666">
        <ele>246.4</ele>
        <time>2017-09-27T09:37:25Z</time>
      </trkpt>
      <trkpt lat="47.64384" lon="6.04656">
        <ele>246.32</ele>
        <time>2017-09-27T09:37:27Z</time>
      </trkpt>
      <trkpt lat="47.64386" lon="6.04643">
        <ele>245.83</ele>
        <time>2017-09-27T09:37:29Z</time>
      </trkpt>
      <trkpt lat="47.64388" lon="6.04637">
        <ele>245.75</ele>
        <time>2017-09-27T09:37:30Z</time>
      </trkpt>
      <trkpt lat="47.64391" lon="6.04627">
        <ele>245.64</ele>
        <time>2017-09-27T09:37:32Z</time>
      </trkpt>
      <trkpt lat="47.64392" lon="6.04617">
        <ele>245.52</ele>
        <time>2017-09-27T09:37:34Z</time>
      </trkpt>
      <trkpt lat="47.64392" lon="6.0461">
        <ele>245.46</ele>
        <time>2017-09-27T09:37:35Z</time>
      </trkpt>
      <trkpt lat="47.64394" lon="6.04596">
        <ele>245.32</ele>
        <time>2017-09-27T09:37:37Z</time>
      </trkpt>
      <trkpt lat="47.64395" lon="6.04589">
        <ele>245.24</ele>
        <time>2017-09-27T09:37:38Z</time>
      </trkpt>
      <trkpt lat="47.64397" lon="6.04581">
        <ele>245.16</ele>
        <time>2017-09-27T09:37:39Z</time>
      </trkpt>
      <trkpt lat="47.64399" lon="6.0457">
        <ele>245.01</ele>
        <time>2017-09-27T09:37:41Z</time>
      </trkpt>
      <trkpt lat="47.64401" lon="6.04562">
        <ele>244.93</ele>
        <time>2017-09-27T09:37:42Z</time>
      </trkpt>
      <trkpt lat="47.64403" lon="6.04553">
        <ele>244.78</ele>
        <time>2017-09-27T09:37:44Z</time>
      </trkpt>
      <trkpt lat="47.64403" lon="6.0454">
        <ele>244.61</ele>
        <time>2017-09-27T09:37:46Z</time>
      </trkpt>
      <trkpt lat="47.64403" lon="6.04531">
        <ele>244.42</ele>
        <time>2017-09-27T09:37:48Z</time>
      </trkpt>
      <trkpt lat="47.64404" lon="6.04523">
        <ele>244.3</ele>
        <time>2017-09-27T09:37:49Z</time>
      </trkpt>
      <trkpt lat="47.64406" lon="6.04516">
        <ele>244.18</ele>
        <time>2017-09-27T09:37:50Z</time>
      </trkpt>
      <trkpt lat="47.64407" lon="6.04508">
        <ele>244.06</ele>
        <time>2017-09-27T09:37:51Z</time>
      </trkpt>
      <trkpt lat="47.64407" lon="6.04496">
        <ele>243.81</ele>
        <time>2017-09-27T09:37:53Z</time>
      </trkpt>
      <trkpt lat="47.64407" lon="6.04489">
        <ele>243.69</ele>
        <time>2017-09-27T09:37:54Z</time>
      </trkpt>
      <trkpt lat="47.64406" lon="6.04475">
        <ele>243.44</ele>
        <time>2017-09-27T09:37:56Z</time>
      </trkpt>
      <trkpt lat="47.64406" lon="6.04468">
        <ele>243.31</ele>
        <time>2017-09-27T09:37:57Z</time>
      </trkpt>
      <trkpt lat="47.64406" lon="6.04455">
        <ele>243.06</ele>
        <time>2017-09-27T09:37:59Z</time>
      </trkpt>
      <trkpt lat="47.64405" lon="6.04443">
        <ele>242.8</ele>
        <time>2017-09-27T09:38:01Z</time>
      </trkpt>
      <trkpt lat="47.64405" lon="6.04434">
        <ele>242.56</ele>
        <time>2017-09-27T09:38:03Z</time>
      </trkpt>
      <trkpt lat="47.64405" lon="6.04426">
        <ele>242.33</ele>
        <time>2017-09-27T09:38:05Z</time>
      </trkpt>
      <trkpt lat="47.64405" lon="6.04415">
        <ele>242.12</ele>
        <time>2017-09-27T09:38:07Z</time>
      </trkpt>
      <trkpt lat="47.64407" lon="6.04407">
        <ele>241.91</ele>
        <time>2017-09-27T09:38:09Z</time>
      </trkpt>
      <trkpt lat="47.64408" lon="6.04399">
        <ele>241.7</ele>
        <time>2017-09-27T09:38:11Z</time>
      </trkpt>
      <trkpt lat="47.6441" lon="6.04388">
        <ele>241.48</ele>
        <time>2017-09-27T09:38:13Z</time>
      </trkpt>
      <trkpt lat="47.64411" lon="6.04373">
        <ele>241.27</ele>
        <time>2017-09-27T09:38:15Z</time>
      </trkpt>
      <trkpt lat="47.64411" lon="6.04366">
        <ele>241.16</ele>
        <time>2017-09-27T09:38:16Z</time>
      </trkpt>
      <trkpt lat="47.6441" lon="6.04355">
        <ele>240.44</ele>
        <time>2017-09-27T09:38:17Z</time>
      </trkpt>
      <trkpt lat="47.64411" lon="6.04346">
        <ele>239.68</ele>
        <time>2017-09-27T09:38:18Z</time>
      </trkpt>
      <trkpt lat="47.64412" lon="6.04339">
        <ele>239.02</ele>
        <time>2017-09-27T09:38:19Z</time>
      </trkpt>
      <trkpt lat="47.64413" lon="6.04331">
        <ele>238.47</ele>
        <time>2017-09-27T09:38:20Z</time>
      </trkpt>
      <trkpt lat="47.64415" lon="6.04324">
        <ele>238.02</ele>
        <time>2017-09-27T09:38:21Z</time>
      </trkpt>
      <trkpt lat="47.64416" lon="6.04315">
        <ele>237.66</ele>
        <time>2017-09-27T09:38:22Z</time>
      </trkpt>
      <trkpt lat="47.64418" lon="6.04307">
        <ele>237.37</ele>
        <time>2017-09-27T09:38:23Z</time>
      </trkpt>
      <trkpt lat="47.64419" lon="6.04299">
        <ele>237.13</ele>
        <time>2017-09-27T09:38:24Z</time>
      </trkpt>
      <trkpt lat="47.6442" lon="6.04289">
        <ele>236.94</ele>
        <time>2017-09-27T09:38:25Z</time>
      </trkpt>
      <trkpt lat="47.64422" lon="6.04282">
        <ele>236.77</ele>
        <time>2017-09-27T09:38:26Z</time>
      </trkpt>
      <trkpt lat="47.64424" lon="6.04275">
        <ele>236.71</ele>
        <time>2017-09-27T09:38:27Z</time>
      </trkpt>
      <trkpt lat="47.64428" lon="6.0426">
        <ele>236.48</ele>
        <time>2017-09-27T09:38:29Z</time>
      </trkpt>
      <trkpt lat="47.64428" lon="6.04252">
        <ele>236.37</ele>
        <time>2017-09-27T09:38:30Z</time>
      </trkpt>
      <trkpt lat="47.6443" lon="6.04244">
        <ele>236.25</ele>
        <time>2017-09-27T09:38:31Z</time>
      </trkpt>
      <trkpt lat="47.64432" lon="6.04236">
        <ele>236.13</ele>
        <time>2017-09-27T09:38:32Z</time>
      </trkpt>
      <trkpt lat="47.64434" lon="6.04227">
        <ele>236.01</ele>
        <time>2017-09-27T09:38:33Z</time>
      </trkpt>
      <trkpt lat="47.64437" lon="6.04218">
        <ele>235.91</ele>
        <time>2017-09-27T09:38:34Z</time>
      </trkpt>
      <trkpt lat="47.6444" lon="6.04213">
        <ele>235.82</ele>
        <time>2017-09-27T09:38:35Z</time>
      </trkpt>
      <trkpt lat="47.64443" lon="6.04205">
        <ele>235.72</ele>
        <time>2017-09-27T09:38:36Z</time>
      </trkpt>
      <trkpt lat="47.64445" lon="6.04194">
        <ele>235.63</ele>
        <time>2017-09-27T09:38:37Z</time>
      </trkpt>
      <trkpt lat="47.64447" lon="6.04185">
        <ele>235.55</ele>
        <time>2017-09-27T09:38:38Z</time>
      </trkpt>
      <trkpt lat="47.6445" lon="6.04178">
        <ele>235.47</ele>
        <time>2017-09-27T09:38:39Z</time>
      </trkpt>
      <trkpt lat="47.64453" lon="6.04172">
        <ele>235.39</ele>
        <time>2017-09-27T09:38:40Z</time>
      </trkpt>
      <trkpt lat="47.64456" lon="6.04166">
        <ele>235.3</ele>
        <time>2017-09-27T09:38:41Z</time>
      </trkpt>
      <trkpt lat="47.64458" lon="6.0416">
        <ele>235.2</ele>
        <time>2017-09-27T09:38:42Z</time>
      </trkpt>
      <trkpt lat="47.64463" lon="6.04149">
        <ele>234.98</ele>
        <time>2017-09-27T09:38:44Z</time>
      </trkpt>
      <trkpt lat="47.64466" lon="6.04144">
        <ele>234.87</ele>
        <time>2017-09-27T09:38:45Z</time>
      </trkpt>
      <trkpt lat="47.64469" lon="6.04138">
        <ele>234.76</ele>
        <time>2017-09-27T09:38:46Z</time>
      </trkpt>
      <trkpt lat="47.64472" lon="6.04131">
        <ele>234.64</ele>
        <time>2017-09-27T09:38:47Z</time>
      </trkpt>
      <trkpt lat="47.64475" lon="6.04126">
        <ele>234.51</ele>
        <time>2017-09-27T09:38:48Z</time>
      </trkpt>
      <trkpt lat="47.64478" lon="6.0412">
        <ele>234.38</ele>
        <time>2017-09-27T09:38:49Z</time>
      </trkpt>
      <trkpt lat="47.64481" lon="6.04115">
        <ele>234.27</ele>
        <time>2017-09-27T09:38:50Z</time>
      </trkpt>
      <trkpt lat="47.64484" lon="6.04109">
        <ele>234.15</ele>
        <time>2017-09-27T09:38:51Z</time>
      </trkpt>
      <trkpt lat="47.64487" lon="6.04104">
        <ele>234.02</ele>
        <time>2017-09-27T09:38:52Z</time>
      </trkpt>
      <trkpt lat="47.6449" lon="6.04099">
        <ele>233.88</ele>
        <time>2017-09-27T09:38:53Z</time>
      </trkpt>
      <trkpt lat="47.64494" lon="6.04094">
        <ele>233.74</ele>
        <time>2017-09-27T09:38:54Z</time>
      </trkpt>
      <trkpt lat="47.64497" lon="6.04088">
        <ele>233.6</ele>
        <time>2017-09-27T09:38:55Z</time>
      </trkpt>
      <trkpt lat="47.64503" lon="6.0408">
        <ele>233.32</ele>
        <time>2017-09-27T09:38:57Z</time>
      </trkpt>
      <trkpt lat="47.64509" lon="6.04071">
        <ele>232.99</ele>
        <time>2017-09-27T09:38:59Z</time>
      </trkpt>
      <trkpt lat="47.64512" lon="6.04065">
        <ele>232.85</ele>
        <time>2017-09-27T09:39:00Z</time>
      </trkpt>
      <trkpt lat="47.64515" lon="6.04059">
        <ele>232.72</ele>
        <time>2017-09-27T09:39:01Z</time>
      </trkpt>
      <trkpt lat="47.64518" lon="6.04054">
        <ele>232.59</ele>
        <time>2017-09-27T09:39:02Z</time>
      </trkpt>
      <trkpt lat="47.64522" lon="6.04048">
        <ele>232.47</ele>
        <time>2017-09-27T09:39:03Z</time>
      </trkpt>
      <trkpt lat="47.64524" lon="6.04042">
        <ele>232.35</ele>
        <time>2017-09-27T09:39:04Z</time>
      </trkpt>
      <trkpt lat="47.6453" lon="6.04033">
        <ele>232.19</ele>
        <time>2017-09-27T09:39:06Z</time>
      </trkpt>
      <trkpt lat="47.64535" lon="6.04026">
        <ele>232.15</ele>
        <time>2017-09-27T09:39:08Z</time>
      </trkpt>
      <trkpt lat="47.6454" lon="6.04019">
        <ele>232.12</ele>
        <time>2017-09-27T09:39:10Z</time>
      </trkpt>
      <trkpt lat="47.64544" lon="6.04011">
        <ele>232.09</ele>
        <time>2017-09-27T09:39:12Z</time>
      </trkpt>
      <trkpt lat="47.64549" lon="6.04003">
        <ele>232.05</ele>
        <time>2017-09-27T09:39:14Z</time>
      </trkpt>
      <trkpt lat="47.64554" lon="6.03995">
        <ele>231.89</ele>
        <time>2017-09-27T09:39:16Z</time>
      </trkpt>
      <trkpt lat="47.64559" lon="6.03985">
        <ele>231.59</ele>
        <time>2017-09-27T09:39:18Z</time>
      </trkpt>
      <trkpt lat="47.64562" lon="6.0398">
        <ele>231.54</ele>
        <time>2017-09-27T09:39:19Z</time>
      </trkpt>
      <trkpt lat="47.64567" lon="6.03972">
        <ele>231.49</ele>
        <time>2017-09-27T09:39:21Z</time>
      </trkpt>
      <trkpt lat="47.64571" lon="6.03964">
        <ele>231.46</ele>
        <time>2017-09-27T09:39:23Z</time>
      </trkpt>
      <trkpt lat="47.64574" lon="6.03956">
        <ele>231.44</ele>
        <time>2017-09-27T09:39:25Z</time>
      </trkpt>
      <trkpt lat="47.64577" lon="6.03949">
        <ele>231.41</ele>
        <time>2017-09-27T09:39:27Z</time>
      </trkpt>
      <trkpt lat="47.64581" lon="6.03942">
        <ele>231.35</ele>
        <time>2017-09-27T09:39:30Z</time>
      </trkpt>
      <trkpt lat="47.64584" lon="6.03936">
        <ele>231.31</ele>
        <time>2017-09-27T09:39:32Z</time>
      </trkpt>
      <trkpt lat="47.64586" lon="6.0393">
        <ele>231.26</ele>
        <time>2017-09-27T09:39:34Z</time>
      </trkpt>
      <trkpt lat="47.64589" lon="6.03923">
        <ele>231.18</ele>
        <time>2017-09-27T09:39:37Z</time>
      </trkpt>
      <trkpt lat="47.64592" lon="6.03915">
        <ele>231.1</ele>
        <time>2017-09-27T09:39:40Z</time>
      </trkpt>
      <trkpt lat="47.64594" lon="6.03909">
        <ele>231.05</ele>
        <time>2017-09-27T09:39:42Z</time>
      </trkpt>
      <trkpt lat="47.64596" lon="6.03902">
        <ele>230.99</ele>
        <time>2017-09-27T09:39:44Z</time>
      </trkpt>
      <trkpt lat="47.646" lon="6.03895">
        <ele>230.9</ele>
        <time>2017-09-27T09:39:47Z</time>
      </trkpt>
      <trkpt lat="47.64604" lon="6.0389">
        <ele>230.85</ele>
        <time>2017-09-27T09:39:49Z</time>
      </trkpt>
      <trkpt lat="47.64608" lon="6.03885">
        <ele>230.79</ele>
        <time>2017-09-27T09:39:51Z</time>
      </trkpt>
      <trkpt lat="47.64613" lon="6.0388">
        <ele>230.73</ele>
        <time>2017-09-27T09:39:53Z</time>
      </trkpt>
      <trkpt lat="47.64616" lon="6.03874">
        <ele>230.67</ele>
        <time>2017-09-27T09:39:55Z</time>
      </trkpt>
      <trkpt lat="47.64619" lon="6.03869">
        <ele>230.61</ele>
        <time>2017-09-27T09:39:57Z</time>
      </trkpt>
      <trkpt lat="47.64624" lon="6.03861">
        <ele>230.55</ele>
        <time>2017-09-27T09:39:59Z</time>
      </trkpt>
      <trkpt lat="47.64629" lon="6.03854">
        <ele>230.48</ele>
        <time>2017-09-27T09:40:01Z</time>
      </trkpt>
      <trkpt lat="47.64635" lon="6.03847">
        <ele>230.41</ele>
        <time>2017-09-27T09:40:03Z</time>
      </trkpt>
      <trkpt lat="47.64641" lon="6.03841">
        <ele>230.34</ele>
        <time>2017-09-27T09:40:05Z</time>
      </trkpt>
      <trkpt lat="47.64647" lon="6.03834">
        <ele>230.26</ele>
        <time>2017-09-27T09:40:07Z</time>
      </trkpt>
      <trkpt lat="47.64654" lon="6.03826">
        <ele>229.65</ele>
        <time>2017-09-27T09:40:09Z</time>
      </trkpt>
      <trkpt lat="47.64661" lon="6.03819">
        <ele>229.11</ele>
        <time>2017-09-27T09:40:11Z</time>
      </trkpt>
      <trkpt lat="47.64668" lon="6.03811">
        <ele>228.72</ele>
        <time>2017-09-27T09:40:13Z</time>
      </trkpt>
      <trkpt lat="47.64674" lon="6.03804">
        <ele>228.62</ele>
        <time>2017-09-27T09:40:15Z</time>
      </trkpt>
      <trkpt lat="47.64679" lon="6.03798">
        <ele>228.58</ele>
        <time>2017-09-27T09:40:17Z</time>
      </trkpt>
      <trkpt lat="47.64684" lon="6.03793">
        <ele>228.54</ele>
        <time>2017-09-27T09:40:19Z</time>
      </trkpt>
      <trkpt lat="47.6469" lon="6.03786">
        <ele>228.51</ele>
        <time>2017-09-27T09:40:21Z</time>
      </trkpt>
      <trkpt lat="47.64695" lon="6.0378">
        <ele>228.48</ele>
        <time>2017-09-27T09:40:23Z</time>
      </trkpt>
      <trkpt lat="47.647" lon="6.03774">
        <ele>228.45</ele>
        <time>2017-09-27T09:40:25Z</time>
      </trkpt>
      <trkpt lat="47.64705" lon="6.03768">
        <ele>228.41</ele>
        <time>2017-09-27T09:40:27Z</time>
      </trkpt>
      <trkpt lat="47.6471" lon="6.03761">
        <ele>228.38</ele>
        <time>2017-09-27T09:40:29Z</time>
      </trkpt>
      <trkpt lat="47.64714" lon="6.03755">
        <ele>228.34</ele>
        <time>2017-09-27T09:40:31Z</time>
      </trkpt>
      <trkpt lat="47.64719" lon="6.0375">
        <ele>228.3</ele>
        <time>2017-09-27T09:40:33Z</time>
      </trkpt>
      <trkpt lat="47.64723" lon="6.03743">
        <ele>228.25</ele>
        <time>2017-09-27T09:40:35Z</time>
      </trkpt>
      <trkpt lat="47.64726" lon="6.03735">
        <ele>228.2</ele>
        <time>2017-09-27T09:40:37Z</time>
      </trkpt>
      <trkpt lat="47.64729" lon="6.03727">
        <ele>228.15</ele>
        <time>2017-09-27T09:40:39Z</time>
      </trkpt>
      <trkpt lat="47.64732" lon="6.03718">
        <ele>228.1</ele>
        <time>2017-09-27T09:40:41Z</time>
      </trkpt>
      <trkpt lat="47.64735" lon="6.0371">
        <ele>228.06</ele>
        <time>2017-09-27T09:40:43Z</time>
      </trkpt>
      <trkpt lat="47.64738" lon="6.03701">
        <ele>228.01</ele>
        <time>2017-09-27T09:40:45Z</time>
      </trkpt>
      <trkpt lat="47.6474" lon="6.03693">
        <ele>227.96</ele>
        <time>2017-09-27T09:40:47Z</time>
      </trkpt>
      <trkpt lat="47.64742" lon="6.03686">
        <ele>227.91</ele>
        <time>2017-09-27T09:40:49Z</time>
      </trkpt>
      <trkpt lat="47.64744" lon="6.0368">
        <ele>227.86</ele>
        <time>2017-09-27T09:40:51Z</time>
      </trkpt>
      <trkpt lat="47.64746" lon="6.03674">
        <ele>227.81</ele>
        <time>2017-09-27T09:40:53Z</time>
      </trkpt>
      <trkpt lat="47.64748" lon="6.03666">
        <ele>227.76</ele>
        <time>2017-09-27T09:40:55Z</time>
      </trkpt>
      <trkpt lat="47.64751" lon="6.03658">
        <ele>227.71</ele>
        <time>2017-09-27T09:40:57Z</time>
      </trkpt>
      <trkpt lat="47.64754" lon="6.03652">
        <ele>227.66</ele>
        <time>2017-09-27T09:40:59Z</time>
      </trkpt>
      <trkpt lat="47.64756" lon="6.03646">
        <ele>227.61</ele>
        <time>2017-09-27T09:41:01Z</time>
      </trkpt>
      <trkpt lat="47.6476" lon="6.03639">
        <ele>227.54</ele>
        <time>2017-09-27T09:41:04Z</time>
      </trkpt>
      <trkpt lat="47.64763" lon="6.03633">
        <ele>227.45</ele>
        <time>2017-09-27T09:41:07Z</time>
      </trkpt>
      <trkpt lat="47.64767" lon="6.03627">
        <ele>227.37</ele>
        <time>2017-09-27T09:41:10Z</time>
      </trkpt>
      <trkpt lat="47.64772" lon="6.03621">
        <ele>227.29</ele>
        <time>2017-09-27T09:41:13Z</time>
      </trkpt>
      <trkpt lat="47.64776" lon="6.03614">
        <ele>227.2</ele>
        <time>2017-09-27T09:41:16Z</time>
      </trkpt>
      <trkpt lat="47.64781" lon="6.03608">
        <ele>227.12</ele>
        <time>2017-09-27T09:41:19Z</time>
      </trkpt>
      <trkpt lat="47.64786" lon="6.03601">
        <ele>227.03</ele>
        <time>2017-09-27T09:41:22Z</time>
      </trkpt>
      <trkpt lat="47.6479" lon="6.03596">
        <ele>226.93</ele>
        <time>2017-09-27T09:41:25Z</time>
      </trkpt>
      <trkpt lat="47.64794" lon="6.03592">
        <ele>226.87</ele>
        <time>2017-09-27T09:41:27Z</time>
      </trkpt>
      <trkpt lat="47.64799" lon="6.03586">
        <ele>226.77</ele>
        <time>2017-09-27T09:41:30Z</time>
      </trkpt>
      <trkpt lat="47.64803" lon="6.03581">
        <ele>226.67</ele>
        <time>2017-09-27T09:41:33Z</time>
      </trkpt>
      <trkpt lat="47.64808" lon="6.03575">
        <ele>226.57</ele>
        <time>2017-09-27T09:41:36Z</time>
      </trkpt>
      <trkpt lat="47.64812" lon="6.03571">
        <ele>226.51</ele>
        <time>2017-09-27T09:41:38Z</time>
      </trkpt>
      <trkpt lat="47.64817" lon="6.03565">
        <ele>226.44</ele>
        <time>2017-09-27T09:41:40Z</time>
      </trkpt>
      <trkpt lat="47.64821" lon="6.0356">
        <ele>226.37</ele>
        <time>2017-09-27T09:41:42Z</time>
      </trkpt>
      <trkpt lat="47.64826" lon="6.03554">
        <ele>226.3</ele>
        <time>2017-09-27T09:41:44Z</time>
      </trkpt>
      <trkpt lat="47.64831" lon="6.0355">
        <ele>226.23</ele>
        <time>2017-09-27T09:41:46Z</time>
      </trkpt>
      <trkpt lat="47.64838" lon="6.03547">
        <ele>226.16</ele>
        <time>2017-09-27T09:41:48Z</time>
      </trkpt>
      <trkpt lat="47.64842" lon="6.03543">
        <ele>226.09</ele>
        <time>2017-09-27T09:41:50Z</time>
      </trkpt>
      <trkpt lat="47.64846" lon="6.03537">
        <ele>225.99</ele>
        <time>2017-09-27T09:41:53Z</time>
      </trkpt>
      <trkpt lat="47.6485" lon="6.03533">
        <ele>225.92</ele>
        <time>2017-09-27T09:41:55Z</time>
      </trkpt>
      <trkpt lat="47.64856" lon="6.03529">
        <ele>225.81</ele>
        <time>2017-09-27T09:41:58Z</time>
      </trkpt>
      <trkpt lat="47.6486" lon="6.03525">
        <ele>225.7</ele>
        <time>2017-09-27T09:42:01Z</time>
      </trkpt>
      <trkpt lat="47.64863" lon="6.03521">
        <ele>225.51</ele>
        <time>2017-09-27T09:42:15Z</time>
      </trkpt>
      <trkpt lat="47.64867" lon="6.03516">
        <ele>225.41</ele>
        <time>2017-09-27T09:42:49Z</time>
      </trkpt>
      <trkpt lat="47.64872" lon="6.03512">
        <ele>225.4</ele>
        <time>2017-09-27T09:42:52Z</time>
      </trkpt>
      <trkpt lat="47.64876" lon="6.03505">
        <ele>225.39</ele>
        <time>2017-09-27T09:42:55Z</time>
      </trkpt>
      <trkpt lat="47.6488" lon="6.035">
        <ele>225.39</ele>
        <time>2017-09-27T09:42:57Z</time>
      </trkpt>
      <trkpt lat="47.64884" lon="6.03495">
        <ele>225.39</ele>
        <time>2017-09-27T09:42:59Z</time>
      </trkpt>
      <trkpt lat="47.64887" lon="6.03489">
        <ele>225.39</ele>
        <time>2017-09-27T09:43:01Z</time>
      </trkpt>
      <trkpt lat="47.64892" lon="6.03483">
        <ele>225.39</ele>
        <time>2017-09-27T09:43:03Z</time>
      </trkpt>
      <trkpt lat="47.64896" lon="6.03475">
        <ele>225.38</ele>
        <time>2017-09-27T09:43:05Z</time>
      </trkpt>
      <trkpt lat="47.64901" lon="6.03465">
        <ele>225.39</ele>
        <time>2017-09-27T09:43:07Z</time>
      </trkpt>
      <trkpt lat="47.64903" lon="6.03458">
        <ele>225.38</ele>
        <time>2017-09-27T09:43:08Z</time>
      </trkpt>
      <trkpt lat="47.64906" lon="6.03451">
        <ele>225.37</ele>
        <time>2017-09-27T09:43:09Z</time>
      </trkpt>
      <trkpt lat="47.64909" lon="6.03445">
        <ele>225.37</ele>
        <time>2017-09-27T09:43:10Z</time>
      </trkpt>
      <trkpt lat="47.64912" lon="6.03436">
        <ele>225.37</ele>
        <time>2017-09-27T09:43:11Z</time>
      </trkpt>
      <trkpt lat="47.64915" lon="6.03429">
        <ele>225.36</ele>
        <time>2017-09-27T09:43:12Z</time>
      </trkpt>
      <trkpt lat="47.64918" lon="6.03422">
        <ele>225.36</ele>
        <time>2017-09-27T09:43:13Z</time>
      </trkpt>
      <trkpt lat="47.64921" lon="6.03415">
        <ele>225.35</ele>
        <time>2017-09-27T09:43:14Z</time>
      </trkpt>
      <trkpt lat="47.64923" lon="6.03408">
        <ele>225.34</ele>
        <time>2017-09-27T09:43:15Z</time>
      </trkpt>
      <trkpt lat="47.64926" lon="6.03402">
        <ele>225.32</ele>
        <time>2017-09-27T09:43:16Z</time>
      </trkpt>
      <trkpt lat="47.64928" lon="6.03395">
        <ele>225.29</ele>
        <time>2017-09-27T09:43:17Z</time>
      </trkpt>
      <trkpt lat="47.6493" lon="6.03389">
        <ele>225.27</ele>
        <time>2017-09-27T09:43:18Z</time>
      </trkpt>
      <trkpt lat="47.64934" lon="6.03378">
        <ele>225.21</ele>
        <time>2017-09-27T09:43:20Z</time>
      </trkpt>
      <trkpt lat="47.64936" lon="6.03371">
        <ele>225.17</ele>
        <time>2017-09-27T09:43:21Z</time>
      </trkpt>
      <trkpt lat="47.64938" lon="6.03365">
        <ele>225.13</ele>
        <time>2017-09-27T09:43:22Z</time>
      </trkpt>
      <trkpt lat="47.64942" lon="6.03355">
        <ele>225.1</ele>
        <time>2017-09-27T09:43:24Z</time>
      </trkpt>
      <trkpt lat="47.64946" lon="6.03347">
        <ele>225.09</ele>
        <time>2017-09-27T09:43:26Z</time>
      </trkpt>
      <trkpt lat="47.6495" lon="6.03342">
        <ele>225.02</ele>
        <time>2017-09-27T09:43:27Z</time>
      </trkpt>
      <trkpt lat="47.64956" lon="6.03331">
        <ele>224.87</ele>
        <time>2017-09-27T09:43:29Z</time>
      </trkpt>
      <trkpt lat="47.6496" lon="6.03325">
        <ele>224.79</ele>
        <time>2017-09-27T09:43:30Z</time>
      </trkpt>
      <trkpt lat="47.64965" lon="6.03318">
        <ele>224.73</ele>
        <time>2017-09-27T09:43:31Z</time>
      </trkpt>
      <trkpt lat="47.6497" lon="6.03311">
        <ele>224.66</ele>
        <time>2017-09-27T09:43:32Z</time>
      </trkpt>
      <trkpt lat="47.64975" lon="6.03304">
        <ele>224.59</ele>
        <time>2017-09-27T09:43:33Z</time>
      </trkpt>
      <trkpt lat="47.64981" lon="6.03297">
        <ele>224.52</ele>
        <time>2017-09-27T09:43:34Z</time>
      </trkpt>
      <trkpt lat="47.64989" lon="6.0329">
        <ele>224.5</ele>
        <time>2017-09-27T09:43:35Z</time>
      </trkpt>
      <trkpt lat="47.64994" lon="6.03284">
        <ele>224.49</ele>
        <time>2017-09-27T09:43:36Z</time>
      </trkpt>
      <trkpt lat="47.64998" lon="6.0328">
        <ele>224.49</ele>
        <time>2017-09-27T09:43:37Z</time>
      </trkpt>
      <trkpt lat="47.65005" lon="6.03273">
        <ele>224.49</ele>
        <time>2017-09-27T09:43:39Z</time>
      </trkpt>
      <trkpt lat="47.6501" lon="6.03265">
        <ele>224.48</ele>
        <time>2017-09-27T09:43:41Z</time>
      </trkpt>
      <trkpt lat="47.65013" lon="6.0326">
        <ele>224.44</ele>
        <time>2017-09-27T09:43:42Z</time>
      </trkpt>
      <trkpt lat="47.65016" lon="6.03253">
        <ele>224.39</ele>
        <time>2017-09-27T09:43:43Z</time>
      </trkpt>
      <trkpt lat="47.65019" lon="6.03245">
        <ele>224.33</ele>
        <time>2017-09-27T09:43:44Z</time>
      </trkpt>
      <trkpt lat="47.65022" lon="6.03236">
        <ele>224.23</ele>
        <time>2017-09-27T09:43:45Z</time>
      </trkpt>
      <trkpt lat="47.65025" lon="6.03227">
        <ele>224.12</ele>
        <time>2017-09-27T09:43:46Z</time>
      </trkpt>
      <trkpt lat="47.65029" lon="6.03218">
        <ele>224.02</ele>
        <time>2017-09-27T09:43:47Z</time>
      </trkpt>
      <trkpt lat="47.65034" lon="6.03209">
        <ele>223.9</ele>
        <time>2017-09-27T09:43:48Z</time>
      </trkpt>
      <trkpt lat="47.6504" lon="6.03202">
        <ele>223.77</ele>
        <time>2017-09-27T09:43:49Z</time>
      </trkpt>
      <trkpt lat="47.65045" lon="6.03194">
        <ele>223.65</ele>
        <time>2017-09-27T09:43:50Z</time>
      </trkpt>
      <trkpt lat="47.65051" lon="6.03186">
        <ele>223.53</ele>
        <time>2017-09-27T09:43:51Z</time>
      </trkpt>
      <trkpt lat="47.65056" lon="6.03178">
        <ele>223.44</ele>
        <time>2017-09-27T09:43:52Z</time>
      </trkpt>
      <trkpt lat="47.65061" lon="6.0317">
        <ele>223.35</ele>
        <time>2017-09-27T09:43:53Z</time>
      </trkpt>
      <trkpt lat="47.65066" lon="6.03162">
        <ele>223.25</ele>
        <time>2017-09-27T09:43:54Z</time>
      </trkpt>
      <trkpt lat="47.65071" lon="6.03153">
        <ele>223.15</ele>
        <time>2017-09-27T09:43:55Z</time>
      </trkpt>
      <trkpt lat="47.65075" lon="6.03145">
        <ele>223.05</ele>
        <time>2017-09-27T09:43:56Z</time>
      </trkpt>
      <trkpt lat="47.65079" lon="6.03138">
        <ele>222.96</ele>
        <time>2017-09-27T09:43:57Z</time>
      </trkpt>
      <trkpt lat="47.65082" lon="6.03132">
        <ele>222.87</ele>
        <time>2017-09-27T09:43:58Z</time>
      </trkpt>
      <trkpt lat="47.65085" lon="6.03126">
        <ele>222.78</ele>
        <time>2017-09-27T09:43:59Z</time>
      </trkpt>
      <trkpt lat="47.65089" lon="6.03121">
        <ele>222.73</ele>
        <time>2017-09-27T09:44:01Z</time>
      </trkpt>
      <trkpt lat="47.65085" lon="6.03121">
        <ele>221.95</ele>
        <time>2017-09-27T09:44:41Z</time>
      </trkpt>
      <trkpt lat="47.65089" lon="6.03118">
        <ele>221.64</ele>
        <time>2017-09-27T09:44:46Z</time>
      </trkpt>
      <trkpt lat="47.65095" lon="6.03111">
        <ele>221.45</ele>
        <time>2017-09-27T09:44:49Z</time>
      </trkpt>
      <trkpt lat="47.65099" lon="6.03106">
        <ele>221.32</ele>
        <time>2017-09-27T09:44:51Z</time>
      </trkpt>
      <trkpt lat="47.65103" lon="6.031">
        <ele>221.19</ele>
        <time>2017-09-27T09:44:53Z</time>
      </trkpt>
      <trkpt lat="47.65106" lon="6.03095">
        <ele>221.06</ele>
        <time>2017-09-27T09:44:55Z</time>
      </trkpt>
      <trkpt lat="47.65111" lon="6.03088">
        <ele>220.93</ele>
        <time>2017-09-27T09:44:57Z</time>
      </trkpt>
      <trkpt lat="47.65116" lon="6.0308">
        <ele>220.78</ele>
        <time>2017-09-27T09:44:59Z</time>
      </trkpt>
      <trkpt lat="47.65122" lon="6.03072">
        <ele>219.66</ele>
        <time>2017-09-27T09:45:01Z</time>
      </trkpt>
      <trkpt lat="47.6513" lon="6.03065">
        <ele>218.74</ele>
        <time>2017-09-27T09:45:03Z</time>
      </trkpt>
      <trkpt lat="47.65134" lon="6.03061">
        <ele>218.39</ele>
        <time>2017-09-27T09:45:04Z</time>
      </trkpt>
      <trkpt lat="47.65138" lon="6.03057">
        <ele>218.07</ele>
        <time>2017-09-27T09:45:05Z</time>
      </trkpt>
      <trkpt lat="47.65142" lon="6.03055">
        <ele>217.79</ele>
        <time>2017-09-27T09:45:06Z</time>
      </trkpt>
      <trkpt lat="47.65147" lon="6.03051">
        <ele>217.53</ele>
        <time>2017-09-27T09:45:07Z</time>
      </trkpt>
      <trkpt lat="47.6515" lon="6.03047">
        <ele>217.29</ele>
        <time>2017-09-27T09:45:08Z</time>
      </trkpt>
      <trkpt lat="47.65158" lon="6.0304">
        <ele>216.83</ele>
        <time>2017-09-27T09:45:10Z</time>
      </trkpt>
      <trkpt lat="47.65166" lon="6.03035">
        <ele>216.71</ele>
        <time>2017-09-27T09:45:12Z</time>
      </trkpt>
      <trkpt lat="47.65171" lon="6.03033">
        <ele>216.52</ele>
        <time>2017-09-27T09:45:13Z</time>
      </trkpt>
      <trkpt lat="47.65175" lon="6.03032">
        <ele>216.31</ele>
        <time>2017-09-27T09:45:14Z</time>
      </trkpt>
      <trkpt lat="47.65184" lon="6.0303">
        <ele>215.97</ele>
        <time>2017-09-27T09:45:16Z</time>
      </trkpt>
      <trkpt lat="47.65189" lon="6.03029">
        <ele>215.86</ele>
        <time>2017-09-27T09:45:17Z</time>
      </trkpt>
      <trkpt lat="47.65194" lon="6.03027">
        <ele>215.8</ele>
        <time>2017-09-27T09:45:18Z</time>
      </trkpt>
      <trkpt lat="47.65202" lon="6.03025">
        <ele>215.78</ele>
        <time>2017-09-27T09:45:20Z</time>
      </trkpt>
      <trkpt lat="47.6521" lon="6.03023">
        <ele>215.78</ele>
        <time>2017-09-27T09:45:22Z</time>
      </trkpt>
      <trkpt lat="47.65218" lon="6.03023">
        <ele>215.87</ele>
        <time>2017-09-27T09:45:24Z</time>
      </trkpt>
      <trkpt lat="47.65225" lon="6.03022">
        <ele>215.96</ele>
        <time>2017-09-27T09:45:26Z</time>
      </trkpt>
      <trkpt lat="47.65233" lon="6.0302">
        <ele>216.07</ele>
        <time>2017-09-27T09:45:28Z</time>
      </trkpt>
      <trkpt lat="47.65241" lon="6.03019">
        <ele>216.19</ele>
        <time>2017-09-27T09:45:30Z</time>
      </trkpt>
      <trkpt lat="47.65248" lon="6.03018">
        <ele>216.22</ele>
        <time>2017-09-27T09:45:32Z</time>
      </trkpt>
      <trkpt lat="47.65255" lon="6.03017">
        <ele>216.34</ele>
        <time>2017-09-27T09:45:34Z</time>
      </trkpt>
      <trkpt lat="47.65262" lon="6.03015">
        <ele>216.6</ele>
        <time>2017-09-27T09:45:36Z</time>
      </trkpt>
      <trkpt lat="47.6527" lon="6.03015">
        <ele>216.84</ele>
        <time>2017-09-27T09:45:38Z</time>
      </trkpt>
      <trkpt lat="47.65278" lon="6.03015">
        <ele>216.99</ele>
        <time>2017-09-27T09:45:40Z</time>
      </trkpt>
      <trkpt lat="47.65285" lon="6.03013">
        <ele>217.03</ele>
        <time>2017-09-27T09:45:42Z</time>
      </trkpt>
      <trkpt lat="47.65292" lon="6.0301">
        <ele>217.05</ele>
        <time>2017-09-27T09:45:44Z</time>
      </trkpt>
      <trkpt lat="47.65299" lon="6.03006">
        <ele>217.13</ele>
        <time>2017-09-27T09:45:46Z</time>
      </trkpt>
      <trkpt lat="47.65307" lon="6.03002">
        <ele>217.17</ele>
        <time>2017-09-27T09:45:48Z</time>
      </trkpt>
      <trkpt lat="47.65314" lon="6.02997">
        <ele>217.17</ele>
        <time>2017-09-27T09:45:50Z</time>
      </trkpt>
      <trkpt lat="47.65321" lon="6.02992">
        <ele>217.18</ele>
        <time>2017-09-27T09:45:52Z</time>
      </trkpt>
      <trkpt lat="47.65327" lon="6.02988">
        <ele>217.17</ele>
        <time>2017-09-27T09:45:54Z</time>
      </trkpt>
      <trkpt lat="47.65334" lon="6.02984">
        <ele>217.16</ele>
        <time>2017-09-27T09:45:56Z</time>
      </trkpt>
      <trkpt lat="47.65341" lon="6.0298">
        <ele>217.13</ele>
        <time>2017-09-27T09:45:58Z</time>
      </trkpt>
      <trkpt lat="47.65348" lon="6.02976">
        <ele>216.92</ele>
        <time>2017-09-27T09:46:00Z</time>
      </trkpt>
      <trkpt lat="47.65356" lon="6.02973">
        <ele>216.7</ele>
        <time>2017-09-27T09:46:02Z</time>
      </trkpt>
      <trkpt lat="47.65363" lon="6.02969">
        <ele>216.44</ele>
        <time>2017-09-27T09:46:04Z</time>
      </trkpt>
      <trkpt lat="47.65371" lon="6.02966">
        <ele>216.18</ele>
        <time>2017-09-27T09:46:06Z</time>
      </trkpt>
      <trkpt lat="47.65379" lon="6.02962">
        <ele>215.97</ele>
        <time>2017-09-27T09:46:08Z</time>
      </trkpt>
      <trkpt lat="47.65388" lon="6.02958">
        <ele>215.79</ele>
        <time>2017-09-27T09:46:10Z</time>
      </trkpt>
      <trkpt lat="47.65392" lon="6.02956">
        <ele>215.77</ele>
        <time>2017-09-27T09:46:11Z</time>
      </trkpt>
      <trkpt lat="47.65397" lon="6.02954">
        <ele>215.76</ele>
        <time>2017-09-27T09:46:12Z</time>
      </trkpt>
      <trkpt lat="47.65405" lon="6.02951">
        <ele>215.77</ele>
        <time>2017-09-27T09:46:14Z</time>
      </trkpt>
      <trkpt lat="47.65412" lon="6.02947">
        <ele>215.83</ele>
        <time>2017-09-27T09:46:16Z</time>
      </trkpt>
      <trkpt lat="47.65419" lon="6.02944">
        <ele>215.87</ele>
        <time>2017-09-27T09:46:18Z</time>
      </trkpt>
      <trkpt lat="47.65428" lon="6.02941">
        <ele>215.99</ele>
        <time>2017-09-27T09:46:20Z</time>
      </trkpt>
      <trkpt lat="47.65433" lon="6.02939">
        <ele>216.09</ele>
        <time>2017-09-27T09:46:21Z</time>
      </trkpt>
      <trkpt lat="47.65437" lon="6.02937">
        <ele>216.2</ele>
        <time>2017-09-27T09:46:22Z</time>
      </trkpt>
      <trkpt lat="47.65441" lon="6.02935">
        <ele>216.28</ele>
        <time>2017-09-27T09:46:23Z</time>
      </trkpt>
      <trkpt lat="47.6545" lon="6.02931">
        <ele>216.38</ele>
        <time>2017-09-27T09:46:25Z</time>
      </trkpt>
      <trkpt lat="47.65458" lon="6.02927">
        <ele>216.39</ele>
        <time>2017-09-27T09:46:27Z</time>
      </trkpt>
      <trkpt lat="47.65466" lon="6.02923">
        <ele>216.39</ele>
        <time>2017-09-27T09:46:29Z</time>
      </trkpt>
      <trkpt lat="47.65474" lon="6.02919">
        <ele>216.39</ele>
        <time>2017-09-27T09:46:31Z</time>
      </trkpt>
      <trkpt lat="47.65481" lon="6.02916">
        <ele>216.39</ele>
        <time>2017-09-27T09:46:33Z</time>
      </trkpt>
      <trkpt lat="47.65489" lon="6.02913">
        <ele>216.39</ele>
        <time>2017-09-27T09:46:35Z</time>
      </trkpt>
      <trkpt lat="47.65497" lon="6.0291">
        <ele>216.35</ele>
        <time>2017-09-27T09:46:37Z</time>
      </trkpt>
      <trkpt lat="47.65505" lon="6.02907">
        <ele>216.26</ele>
        <time>2017-09-27T09:46:39Z</time>
      </trkpt>
      <trkpt lat="47.65513" lon="6.02903">
        <ele>216.08</ele>
        <time>2017-09-27T09:46:41Z</time>
      </trkpt>
      <trkpt lat="47.65521" lon="6.02901">
        <ele>215.89</ele>
        <time>2017-09-27T09:46:43Z</time>
      </trkpt>
      <trkpt lat="47.65529" lon="6.02898">
        <ele>215.76</ele>
        <time>2017-09-27T09:46:45Z</time>
      </trkpt>
      <trkpt lat="47.65537" lon="6.02896">
        <ele>215.66</ele>
        <time>2017-09-27T09:46:47Z</time>
      </trkpt>
      <trkpt lat="47.65546" lon="6.02894">
        <ele>215.58</ele>
        <time>2017-09-27T09:46:49Z</time>
      </trkpt>
      <trkpt lat="47.6555" lon="6.02893">
        <ele>215.53</ele>
        <time>2017-09-27T09:46:50Z</time>
      </trkpt>
      <trkpt lat="47.65555" lon="6.02892">
        <ele>215.49</ele>
        <time>2017-09-27T09:46:51Z</time>
      </trkpt>
      <trkpt lat="47.6556" lon="6.02891">
        <ele>215.43</ele>
        <time>2017-09-27T09:46:52Z</time>
      </trkpt>
      <trkpt lat="47.65564" lon="6.02889">
        <ele>215.38</ele>
        <time>2017-09-27T09:46:53Z</time>
      </trkpt>
      <trkpt lat="47.65569" lon="6.02888">
        <ele>215.33</ele>
        <time>2017-09-27T09:46:54Z</time>
      </trkpt>
      <trkpt lat="47.65573" lon="6.02887">
        <ele>215.31</ele>
        <time>2017-09-27T09:46:55Z</time>
      </trkpt>
      <trkpt lat="47.65582" lon="6.02885">
        <ele>215.25</ele>
        <time>2017-09-27T09:46:57Z</time>
      </trkpt>
      <trkpt lat="47.6559" lon="6.02883">
        <ele>215.2</ele>
        <time>2017-09-27T09:46:59Z</time>
      </trkpt>
      <trkpt lat="47.65598" lon="6.02881">
        <ele>215.2</ele>
        <time>2017-09-27T09:47:01Z</time>
      </trkpt>
      <trkpt lat="47.65605" lon="6.02879">
        <ele>215.2</ele>
        <time>2017-09-27T09:47:03Z</time>
      </trkpt>
      <trkpt lat="47.65613" lon="6.02877">
        <ele>215.18</ele>
        <time>2017-09-27T09:47:05Z</time>
      </trkpt>
      <trkpt lat="47.65621" lon="6.02875">
        <ele>215.17</ele>
        <time>2017-09-27T09:47:07Z</time>
      </trkpt>
      <trkpt lat="47.65629" lon="6.02873">
        <ele>215.12</ele>
        <time>2017-09-27T09:47:09Z</time>
      </trkpt>
      <trkpt lat="47.65637" lon="6.02871">
        <ele>215.07</ele>
        <time>2017-09-27T09:47:11Z</time>
      </trkpt>
      <trkpt lat="47.65644" lon="6.02869">
        <ele>215.05</ele>
        <time>2017-09-27T09:47:13Z</time>
      </trkpt>
      <trkpt lat="47.65652" lon="6.02867">
        <ele>215.05</ele>
        <time>2017-09-27T09:47:15Z</time>
      </trkpt>
      <trkpt lat="47.65659" lon="6.02864">
        <ele>215.01</ele>
        <time>2017-09-27T09:47:17Z</time>
      </trkpt>
      <trkpt lat="47.65668" lon="6.0286">
        <ele>214.97</ele>
        <time>2017-09-27T09:47:19Z</time>
      </trkpt>
      <trkpt lat="47.65676" lon="6.02857">
        <ele>214.95</ele>
        <time>2017-09-27T09:47:21Z</time>
      </trkpt>
      <trkpt lat="47.65684" lon="6.02854">
        <ele>214.96</ele>
        <time>2017-09-27T09:47:23Z</time>
      </trkpt>
      <trkpt lat="47.65693" lon="6.02851">
        <ele>214.99</ele>
        <time>2017-09-27T09:47:25Z</time>
      </trkpt>
      <trkpt lat="47.65697" lon="6.02849">
        <ele>215.01</ele>
        <time>2017-09-27T09:47:26Z</time>
      </trkpt>
      <trkpt lat="47.65706" lon="6.02845">
        <ele>215.03</ele>
        <time>2017-09-27T09:47:28Z</time>
      </trkpt>
      <trkpt lat="47.65714" lon="6.02842">
        <ele>215.05</ele>
        <time>2017-09-27T09:47:30Z</time>
      </trkpt>
      <trkpt lat="47.65723" lon="6.02838">
        <ele>215.09</ele>
        <time>2017-09-27T09:47:32Z</time>
      </trkpt>
      <trkpt lat="47.65728" lon="6.02836">
        <ele>215.09</ele>
        <time>2017-09-27T09:47:33Z</time>
      </trkpt>
      <trkpt lat="47.65732" lon="6.02835">
        <ele>215.1</ele>
        <time>2017-09-27T09:47:34Z</time>
      </trkpt>
      <trkpt lat="47.65737" lon="6.02833">
        <ele>215.11</ele>
        <time>2017-09-27T09:47:35Z</time>
      </trkpt>
      <trkpt lat="47.65741" lon="6.0283">
        <ele>215.12</ele>
        <time>2017-09-27T09:47:36Z</time>
      </trkpt>
      <trkpt lat="47.65746" lon="6.02829">
        <ele>215.14</ele>
        <time>2017-09-27T09:47:37Z</time>
      </trkpt>
      <trkpt lat="47.65751" lon="6.02827">
        <ele>215.19</ele>
        <time>2017-09-27T09:47:38Z</time>
      </trkpt>
      <trkpt lat="47.65755" lon="6.02825">
        <ele>215.24</ele>
        <time>2017-09-27T09:47:39Z</time>
      </trkpt>
      <trkpt lat="47.65759" lon="6.02823">
        <ele>215.28</ele>
        <time>2017-09-27T09:47:40Z</time>
      </trkpt>
      <trkpt lat="47.65764" lon="6.02821">
        <ele>215.33</ele>
        <time>2017-09-27T09:47:41Z</time>
      </trkpt>
      <trkpt lat="47.65772" lon="6.02817">
        <ele>215.4</ele>
        <time>2017-09-27T09:47:43Z</time>
      </trkpt>
      <trkpt lat="47.6578" lon="6.02813">
        <ele>215.49</ele>
        <time>2017-09-27T09:47:45Z</time>
      </trkpt>
      <trkpt lat="47.65785" lon="6.02811">
        <ele>215.53</ele>
        <time>2017-09-27T09:47:46Z</time>
      </trkpt>
      <trkpt lat="47.65793" lon="6.02807">
        <ele>215.65</ele>
        <time>2017-09-27T09:47:48Z</time>
      </trkpt>
      <trkpt lat="47.65798" lon="6.02805">
        <ele>215.7</ele>
        <time>2017-09-27T09:47:49Z</time>
      </trkpt>
      <trkpt lat="47.65806" lon="6.02801">
        <ele>215.8</ele>
        <time>2017-09-27T09:47:51Z</time>
      </trkpt>
      <trkpt lat="47.65814" lon="6.02798">
        <ele>215.92</ele>
        <time>2017-09-27T09:47:53Z</time>
      </trkpt>
      <trkpt lat="47.65822" lon="6.02794">
        <ele>216.01</ele>
        <time>2017-09-27T09:47:55Z</time>
      </trkpt>
      <trkpt lat="47.65829" lon="6.0279">
        <ele>216.09</ele>
        <time>2017-09-27T09:47:57Z</time>
      </trkpt>
      <trkpt lat="47.65836" lon="6.02786">
        <ele>216.15</ele>
        <time>2017-09-27T09:47:59Z</time>
      </trkpt>
      <trkpt lat="47.65844" lon="6.02782">
        <ele>216.25</ele>
        <time>2017-09-27T09:48:01Z</time>
      </trkpt>
      <trkpt lat="47.65852" lon="6.02777">
        <ele>216.32</ele>
        <time>2017-09-27T09:48:03Z</time>
      </trkpt>
      <trkpt lat="47.6586" lon="6.02773">
        <ele>216.36</ele>
        <time>2017-09-27T09:48:05Z</time>
      </trkpt>
      <trkpt lat="47.65864" lon="6.0277">
        <ele>216.37</ele>
        <time>2017-09-27T09:48:06Z</time>
      </trkpt>
      <trkpt lat="47.65868" lon="6.02767">
        <ele>216.39</ele>
        <time>2017-09-27T09:48:07Z</time>
      </trkpt>
      <trkpt lat="47.65873" lon="6.02765">
        <ele>216.4</ele>
        <time>2017-09-27T09:48:08Z</time>
      </trkpt>
      <trkpt lat="47.65877" lon="6.02762">
        <ele>216.37</ele>
        <time>2017-09-27T09:48:09Z</time>
      </trkpt>
      <trkpt lat="47.65881" lon="6.02759">
        <ele>216.32</ele>
        <time>2017-09-27T09:48:10Z</time>
      </trkpt>
      <trkpt lat="47.65885" lon="6.02755">
        <ele>216.26</ele>
        <time>2017-09-27T09:48:11Z</time>
      </trkpt>
      <trkpt lat="47.65893" lon="6.02749">
        <ele>216.14</ele>
        <time>2017-09-27T09:48:13Z</time>
      </trkpt>
      <trkpt lat="47.65901" lon="6.02744">
        <ele>215.98</ele>
        <time>2017-09-27T09:48:15Z</time>
      </trkpt>
      <trkpt lat="47.65907" lon="6.02738">
        <ele>215.84</ele>
        <time>2017-09-27T09:48:17Z</time>
      </trkpt>
      <trkpt lat="47.65914" lon="6.02732">
        <ele>215.62</ele>
        <time>2017-09-27T09:48:19Z</time>
      </trkpt>
      <trkpt lat="47.65921" lon="6.02727">
        <ele>215.35</ele>
        <time>2017-09-27T09:48:21Z</time>
      </trkpt>
      <trkpt lat="47.65929" lon="6.0272">
        <ele>215.05</ele>
        <time>2017-09-27T09:48:23Z</time>
      </trkpt>
      <trkpt lat="47.65936" lon="6.02714">
        <ele>214.74</ele>
        <time>2017-09-27T09:48:25Z</time>
      </trkpt>
      <trkpt lat="47.65944" lon="6.02707">
        <ele>214.46</ele>
        <time>2017-09-27T09:48:27Z</time>
      </trkpt>
      <trkpt lat="47.65952" lon="6.02701">
        <ele>214.18</ele>
        <time>2017-09-27T09:48:29Z</time>
      </trkpt>
      <trkpt lat="47.65959" lon="6.02696">
        <ele>213.89</ele>
        <time>2017-09-27T09:48:31Z</time>
      </trkpt>
      <trkpt lat="47.65967" lon="6.0269">
        <ele>213.61</ele>
        <time>2017-09-27T09:48:33Z</time>
      </trkpt>
      <trkpt lat="47.65971" lon="6.02687">
        <ele>213.49</ele>
        <time>2017-09-27T09:48:34Z</time>
      </trkpt>
      <trkpt lat="47.65975" lon="6.02684">
        <ele>213.38</ele>
        <time>2017-09-27T09:48:35Z</time>
      </trkpt>
      <trkpt lat="47.65983" lon="6.02678">
        <ele>213.16</ele>
        <time>2017-09-27T09:48:37Z</time>
      </trkpt>
      <trkpt lat="47.6599" lon="6.02671">
        <ele>212.94</ele>
        <time>2017-09-27T09:48:39Z</time>
      </trkpt>
      <trkpt lat="47.65997" lon="6.02666">
        <ele>212.89</ele>
        <time>2017-09-27T09:48:41Z</time>
      </trkpt>
      <trkpt lat="47.66003" lon="6.02661">
        <ele>212.86</ele>
        <time>2017-09-27T09:48:43Z</time>
      </trkpt>
      <trkpt lat="47.6601" lon="6.02657">
        <ele>212.66</ele>
        <time>2017-09-27T09:48:45Z</time>
      </trkpt>
      <trkpt lat="47.66014" lon="6.02654">
        <ele>212.54</ele>
        <time>2017-09-27T09:48:46Z</time>
      </trkpt>
      <trkpt lat="47.66019" lon="6.02651">
        <ele>212.44</ele>
        <time>2017-09-27T09:48:47Z</time>
      </trkpt>
      <trkpt lat="47.66024" lon="6.02648">
        <ele>212.34</ele>
        <time>2017-09-27T09:48:48Z</time>
      </trkpt>
      <trkpt lat="47.66028" lon="6.02645">
        <ele>212.24</ele>
        <time>2017-09-27T09:48:49Z</time>
      </trkpt>
      <trkpt lat="47.66033" lon="6.02642">
        <ele>212.16</ele>
        <time>2017-09-27T09:48:50Z</time>
      </trkpt>
      <trkpt lat="47.66038" lon="6.02639">
        <ele>212.09</ele>
        <time>2017-09-27T09:48:51Z</time>
      </trkpt>
      <trkpt lat="47.66042" lon="6.02637">
        <ele>212.01</ele>
        <time>2017-09-27T09:48:52Z</time>
      </trkpt>
      <trkpt lat="47.66047" lon="6.02634">
        <ele>211.92</ele>
        <time>2017-09-27T09:48:53Z</time>
      </trkpt>
      <trkpt lat="47.66052" lon="6.02631">
        <ele>211.83</ele>
        <time>2017-09-27T09:48:54Z</time>
      </trkpt>
      <trkpt lat="47.66056" lon="6.02628">
        <ele>211.74</ele>
        <time>2017-09-27T09:48:55Z</time>
      </trkpt>
      <trkpt lat="47.66066" lon="6.02626">
        <ele>211.56</ele>
        <time>2017-09-27T09:48:57Z</time>
      </trkpt>
      <trkpt lat="47.6607" lon="6.02624">
        <ele>211.45</ele>
        <time>2017-09-27T09:48:58Z</time>
      </trkpt>
      <trkpt lat="47.66075" lon="6.02624">
        <ele>211.35</ele>
        <time>2017-09-27T09:48:59Z</time>
      </trkpt>
      <trkpt lat="47.66083" lon="6.02622">
        <ele>211.21</ele>
        <time>2017-09-27T09:49:01Z</time>
      </trkpt>
      <trkpt lat="47.66088" lon="6.02622">
        <ele>211.18</ele>
        <time>2017-09-27T09:49:02Z</time>
      </trkpt>
      <trkpt lat="47.66093" lon="6.02623">
        <ele>211.16</ele>
        <time>2017-09-27T09:49:03Z</time>
      </trkpt>
      <trkpt lat="47.66099" lon="6.02623">
        <ele>211.14</ele>
        <time>2017-09-27T09:49:04Z</time>
      </trkpt>
      <trkpt lat="47.66104" lon="6.02624">
        <ele>211.12</ele>
        <time>2017-09-27T09:49:05Z</time>
      </trkpt>
      <trkpt lat="47.66109" lon="6.02626">
        <ele>211.08</ele>
        <time>2017-09-27T09:49:06Z</time>
      </trkpt>
      <trkpt lat="47.66114" lon="6.02628">
        <ele>210.99</ele>
        <time>2017-09-27T09:49:07Z</time>
      </trkpt>
      <trkpt lat="47.66119" lon="6.02631">
        <ele>210.89</ele>
        <time>2017-09-27T09:49:08Z</time>
      </trkpt>
      <trkpt lat="47.66123" lon="6.02634">
        <ele>210.8</ele>
        <time>2017-09-27T09:49:09Z</time>
      </trkpt>
      <trkpt lat="47.66128" lon="6.02637">
        <ele>210.72</ele>
        <time>2017-09-27T09:49:10Z</time>
      </trkpt>
      <trkpt lat="47.66136" lon="6.02641">
        <ele>210.6</ele>
        <time>2017-09-27T09:49:12Z</time>
      </trkpt>
      <trkpt lat="47.66143" lon="6.02645">
        <ele>210.5</ele>
        <time>2017-09-27T09:49:14Z</time>
      </trkpt>
      <trkpt lat="47.66151" lon="6.0265">
        <ele>210.43</ele>
        <time>2017-09-27T09:49:16Z</time>
      </trkpt>
      <trkpt lat="47.66157" lon="6.02653">
        <ele>210.42</ele>
        <time>2017-09-27T09:49:18Z</time>
      </trkpt>
      <trkpt lat="47.66165" lon="6.02657">
        <ele>210.38</ele>
        <time>2017-09-27T09:49:20Z</time>
      </trkpt>
      <trkpt lat="47.66171" lon="6.02661">
        <ele>210.37</ele>
        <time>2017-09-27T09:49:22Z</time>
      </trkpt>
      <trkpt lat="47.66177" lon="6.02665">
        <ele>210.37</ele>
        <time>2017-09-27T09:49:24Z</time>
      </trkpt>
      <trkpt lat="47.66182" lon="6.02669">
        <ele>210.36</ele>
        <time>2017-09-27T09:49:26Z</time>
      </trkpt>
      <trkpt lat="47.66186" lon="6.02675">
        <ele>210.36</ele>
        <time>2017-09-27T09:49:28Z</time>
      </trkpt>
      <trkpt lat="47.66189" lon="6.02681">
        <ele>210.37</ele>
        <time>2017-09-27T09:49:30Z</time>
      </trkpt>
      <trkpt lat="47.66192" lon="6.02691">
        <ele>210.39</ele>
        <time>2017-09-27T09:49:33Z</time>
      </trkpt>
      <trkpt lat="47.66192" lon="6.02701">
        <ele>210.42</ele>
        <time>2017-09-27T09:49:35Z</time>
      </trkpt>
      <trkpt lat="47.66192" lon="6.02713">
        <ele>210.46</ele>
        <time>2017-09-27T09:49:37Z</time>
      </trkpt>
      <trkpt lat="47.66192" lon="6.02725">
        <ele>210.5</ele>
        <time>2017-09-27T09:49:39Z</time>
      </trkpt>
      <trkpt lat="47.66193" lon="6.02737">
        <ele>210.56</ele>
        <time>2017-09-27T09:49:41Z</time>
      </trkpt>
      <trkpt lat="47.66195" lon="6.02749">
        <ele>210.61</ele>
        <time>2017-09-27T09:49:43Z</time>
      </trkpt>
      <trkpt lat="47.66196" lon="6.02758">
        <ele>210.67</ele>
        <time>2017-09-27T09:49:45Z</time>
      </trkpt>
      <trkpt lat="47.66196" lon="6.02768">
        <ele>210.73</ele>
        <time>2017-09-27T09:49:47Z</time>
      </trkpt>
      <trkpt lat="47.66195" lon="6.02775">
        <ele>210.78</ele>
        <time>2017-09-27T09:49:49Z</time>
      </trkpt>
      <trkpt lat="47.66196" lon="6.02782">
        <ele>210.85</ele>
        <time>2017-09-27T09:49:51Z</time>
      </trkpt>
      <trkpt lat="47.66197" lon="6.02791">
        <ele>210.91</ele>
        <time>2017-09-27T09:49:53Z</time>
      </trkpt>
      <trkpt lat="47.66201" lon="6.02799">
        <ele>210.99</ele>
        <time>2017-09-27T09:49:55Z</time>
      </trkpt>
      <trkpt lat="47.66203" lon="6.02807">
        <ele>211.07</ele>
        <time>2017-09-27T09:49:57Z</time>
      </trkpt>
      <trkpt lat="47.66208" lon="6.02815">
        <ele>211.14</ele>
        <time>2017-09-27T09:49:59Z</time>
      </trkpt>
      <trkpt lat="47.66211" lon="6.02821">
        <ele>211.22</ele>
        <time>2017-09-27T09:50:01Z</time>
      </trkpt>
      <trkpt lat="47.66214" lon="6.02828">
        <ele>211.31</ele>
        <time>2017-09-27T09:50:03Z</time>
      </trkpt>
      <trkpt lat="47.66218" lon="6.02834">
        <ele>211.39</ele>
        <time>2017-09-27T09:50:05Z</time>
      </trkpt>
      <trkpt lat="47.66222" lon="6.02841">
        <ele>211.48</ele>
        <time>2017-09-27T09:50:07Z</time>
      </trkpt>
      <trkpt lat="47.66228" lon="6.02847">
        <ele>211.56</ele>
        <time>2017-09-27T09:50:09Z</time>
      </trkpt>
      <trkpt lat="47.66232" lon="6.02853">
        <ele>211.65</ele>
        <time>2017-09-27T09:50:11Z</time>
      </trkpt>
      <trkpt lat="47.66238" lon="6.0286">
        <ele>211.74</ele>
        <time>2017-09-27T09:50:13Z</time>
      </trkpt>
      <trkpt lat="47.66243" lon="6.02867">
        <ele>211.82</ele>
        <time>2017-09-27T09:50:15Z</time>
      </trkpt>
      <trkpt lat="47.66249" lon="6.02874">
        <ele>211.91</ele>
        <time>2017-09-27T09:50:17Z</time>
      </trkpt>
      <trkpt lat="47.66254" lon="6.0288">
        <ele>212</ele>
        <time>2017-09-27T09:50:19Z</time>
      </trkpt>
      <trkpt lat="47.66259" lon="6.02887">
        <ele>212.09</ele>
        <time>2017-09-27T09:50:21Z</time>
      </trkpt>
      <trkpt lat="47.66264" lon="6.02894">
        <ele>212.18</ele>
        <time>2017-09-27T09:50:23Z</time>
      </trkpt>
      <trkpt lat="47.66268" lon="6.029">
        <ele>212.27</ele>
        <time>2017-09-27T09:50:25Z</time>
      </trkpt>
      <trkpt lat="47.66274" lon="6.02906">
        <ele>212.37</ele>
        <time>2017-09-27T09:50:27Z</time>
      </trkpt>
      <trkpt lat="47.66281" lon="6.02911">
        <ele>212.49</ele>
        <time>2017-09-27T09:50:29Z</time>
      </trkpt>
      <trkpt lat="47.66285" lon="6.02919">
        <ele>212.61</ele>
        <time>2017-09-27T09:50:31Z</time>
      </trkpt>
      <trkpt lat="47.66288" lon="6.02927">
        <ele>212.74</ele>
        <time>2017-09-27T09:50:33Z</time>
      </trkpt>
      <trkpt lat="47.66293" lon="6.02936">
        <ele>212.87</ele>
        <time>2017-09-27T09:50:35Z</time>
      </trkpt>
      <trkpt lat="47.66297" lon="6.02941">
        <ele>213</ele>
        <time>2017-09-27T09:50:37Z</time>
      </trkpt>
      <trkpt lat="47.66301" lon="6.02947">
        <ele>213.13</ele>
        <time>2017-09-27T09:50:39Z</time>
      </trkpt>
      <trkpt lat="47.66307" lon="6.02955">
        <ele>213.26</ele>
        <time>2017-09-27T09:50:41Z</time>
      </trkpt>
      <trkpt lat="47.66311" lon="6.02964">
        <ele>213.38</ele>
        <time>2017-09-27T09:50:43Z</time>
      </trkpt>
      <trkpt lat="47.66316" lon="6.0297">
        <ele>213.57</ele>
        <time>2017-09-27T09:50:46Z</time>
      </trkpt>
      <trkpt lat="47.66322" lon="6.02974">
        <ele>213.71</ele>
        <time>2017-09-27T09:50:48Z</time>
      </trkpt>
      <trkpt lat="47.66327" lon="6.02981">
        <ele>213.84</ele>
        <time>2017-09-27T09:50:50Z</time>
      </trkpt>
      <trkpt lat="47.66332" lon="6.02987">
        <ele>213.97</ele>
        <time>2017-09-27T09:50:52Z</time>
      </trkpt>
      <trkpt lat="47.66336" lon="6.02993">
        <ele>214.1</ele>
        <time>2017-09-27T09:50:54Z</time>
      </trkpt>
      <trkpt lat="47.66339" lon="6.02998">
        <ele>214.23</ele>
        <time>2017-09-27T09:50:56Z</time>
      </trkpt>
      <trkpt lat="47.66344" lon="6.03006">
        <ele>214.35</ele>
        <time>2017-09-27T09:50:58Z</time>
      </trkpt>
      <trkpt lat="47.66349" lon="6.03015">
        <ele>214.47</ele>
        <time>2017-09-27T09:51:00Z</time>
      </trkpt>
      <trkpt lat="47.66355" lon="6.03021">
        <ele>215.36</ele>
        <time>2017-09-27T09:51:02Z</time>
      </trkpt>
      <trkpt lat="47.66359" lon="6.03025">
        <ele>215.52</ele>
        <time>2017-09-27T09:51:03Z</time>
      </trkpt>
      <trkpt lat="47.66363" lon="6.03028">
        <ele>215.65</ele>
        <time>2017-09-27T09:51:05Z</time>
      </trkpt>
      <trkpt lat="47.66367" lon="6.03036">
        <ele>215.72</ele>
        <time>2017-09-27T09:51:07Z</time>
      </trkpt>
      <trkpt lat="47.66372" lon="6.0304">
        <ele>215.82</ele>
        <time>2017-09-27T09:51:10Z</time>
      </trkpt>
      <trkpt lat="47.66374" lon="6.03046">
        <ele>215.85</ele>
        <time>2017-09-27T09:51:11Z</time>
      </trkpt>
      <trkpt lat="47.66375" lon="6.03055">
        <ele>215.91</ele>
        <time>2017-09-27T09:51:13Z</time>
      </trkpt>
      <trkpt lat="47.6638" lon="6.0305">
        <ele>215.94</ele>
        <time>2017-09-27T09:51:14Z</time>
      </trkpt>
      <trkpt lat="47.6639" lon="6.03063">
        <ele>215.99</ele>
        <time>2017-09-27T09:51:16Z</time>
      </trkpt>
      <trkpt lat="47.66396" lon="6.03071">
        <ele>216.16</ele>
        <time>2017-09-27T09:51:17Z</time>
      </trkpt>
      <trkpt lat="47.66416" lon="6.03078">
        <ele>216.32</ele>
        <time>2017-09-27T09:51:18Z</time>
      </trkpt>
      <trkpt lat="47.66429" lon="6.03082">
        <ele>216.45</ele>
        <time>2017-09-27T09:51:19Z</time>
      </trkpt>
      <trkpt lat="47.66439" lon="6.03084">
        <ele>216.54</ele>
        <time>2017-09-27T09:51:20Z</time>
      </trkpt>
      <trkpt lat="47.66447" lon="6.03086">
        <ele>216.6</ele>
        <time>2017-09-27T09:51:21Z</time>
      </trkpt>
      <trkpt lat="47.66457" lon="6.03087">
        <ele>216.64</ele>
        <time>2017-09-27T09:51:22Z</time>
      </trkpt>
      <trkpt lat="47.66466" lon="6.03088">
        <ele>216.64</ele>
        <time>2017-09-27T09:51:23Z</time>
      </trkpt>
      <trkpt lat="47.66474" lon="6.03086">
        <ele>216.64</ele>
        <time>2017-09-27T09:51:24Z</time>
      </trkpt>
      <trkpt lat="47.66482" lon="6.03085">
        <ele>216.61</ele>
        <time>2017-09-27T09:51:25Z</time>
      </trkpt>
      <trkpt lat="47.66489" lon="6.03085">
        <ele>216.56</ele>
        <time>2017-09-27T09:51:26Z</time>
      </trkpt>
      <trkpt lat="47.66495" lon="6.03085">
        <ele>216.53</ele>
        <time>2017-09-27T09:51:27Z</time>
      </trkpt>
      <trkpt lat="47.66502" lon="6.03085">
        <ele>216.49</ele>
        <time>2017-09-27T09:51:28Z</time>
      </trkpt>
      <trkpt lat="47.66508" lon="6.03086">
        <ele>216.45</ele>
        <time>2017-09-27T09:51:29Z</time>
      </trkpt>
      <trkpt lat="47.66514" lon="6.03087">
        <ele>216.42</ele>
        <time>2017-09-27T09:51:30Z</time>
      </trkpt>
      <trkpt lat="47.6652" lon="6.03088">
        <ele>216.39</ele>
        <time>2017-09-27T09:51:31Z</time>
      </trkpt>
      <trkpt lat="47.66526" lon="6.03089">
        <ele>216.35</ele>
        <time>2017-09-27T09:51:32Z</time>
      </trkpt>
      <trkpt lat="47.6653" lon="6.03089">
        <ele>216.29</ele>
        <time>2017-09-27T09:51:33Z</time>
      </trkpt>
      <trkpt lat="47.66535" lon="6.0309">
        <ele>216.21</ele>
        <time>2017-09-27T09:51:34Z</time>
      </trkpt>
      <trkpt lat="47.66544" lon="6.0309">
        <ele>216.04</ele>
        <time>2017-09-27T09:51:36Z</time>
      </trkpt>
      <trkpt lat="47.66549" lon="6.03091">
        <ele>215.94</ele>
        <time>2017-09-27T09:51:37Z</time>
      </trkpt>
      <trkpt lat="47.66553" lon="6.03092">
        <ele>215.84</ele>
        <time>2017-09-27T09:51:38Z</time>
      </trkpt>
      <trkpt lat="47.66558" lon="6.03092">
        <ele>215.74</ele>
        <time>2017-09-27T09:51:39Z</time>
      </trkpt>
      <trkpt lat="47.66563" lon="6.03093">
        <ele>215.64</ele>
        <time>2017-09-27T09:51:40Z</time>
      </trkpt>
      <trkpt lat="47.66568" lon="6.03093">
        <ele>215.55</ele>
        <time>2017-09-27T09:51:41Z</time>
      </trkpt>
      <trkpt lat="47.66574" lon="6.03094">
        <ele>215.52</ele>
        <time>2017-09-27T09:51:42Z</time>
      </trkpt>
      <trkpt lat="47.6658" lon="6.03095">
        <ele>215.52</ele>
        <time>2017-09-27T09:51:43Z</time>
      </trkpt>
      <trkpt lat="47.66585" lon="6.03095">
        <ele>215.53</ele>
        <time>2017-09-27T09:51:44Z</time>
      </trkpt>
      <trkpt lat="47.66589" lon="6.03096">
        <ele>215.54</ele>
        <time>2017-09-27T09:51:45Z</time>
      </trkpt>
      <trkpt lat="47.66595" lon="6.03096">
        <ele>215.63</ele>
        <time>2017-09-27T09:51:46Z</time>
      </trkpt>
      <trkpt lat="47.666" lon="6.03095">
        <ele>215.74</ele>
        <time>2017-09-27T09:51:47Z</time>
      </trkpt>
      <trkpt lat="47.66608" lon="6.03095">
        <ele>215.98</ele>
        <time>2017-09-27T09:51:49Z</time>
      </trkpt>
      <trkpt lat="47.66616" lon="6.03094">
        <ele>216.09</ele>
        <time>2017-09-27T09:51:51Z</time>
      </trkpt>
      <trkpt lat="47.66624" lon="6.03094">
        <ele>216.1</ele>
        <time>2017-09-27T09:51:53Z</time>
      </trkpt>
      <trkpt lat="47.66633" lon="6.03095">
        <ele>216.09</ele>
        <time>2017-09-27T09:51:55Z</time>
      </trkpt>
      <trkpt lat="47.66637" lon="6.03094">
        <ele>216.09</ele>
        <time>2017-09-27T09:51:56Z</time>
      </trkpt>
      <trkpt lat="47.66642" lon="6.03094">
        <ele>216.11</ele>
        <time>2017-09-27T09:51:57Z</time>
      </trkpt>
      <trkpt lat="47.66647" lon="6.03093">
        <ele>216.14</ele>
        <time>2017-09-27T09:51:58Z</time>
      </trkpt>
      <trkpt lat="47.66652" lon="6.03093">
        <ele>216.18</ele>
        <time>2017-09-27T09:51:59Z</time>
      </trkpt>
      <trkpt lat="47.66657" lon="6.03093">
        <ele>216.21</ele>
        <time>2017-09-27T09:52:00Z</time>
      </trkpt>
      <trkpt lat="47.66662" lon="6.03094">
        <ele>216.26</ele>
        <time>2017-09-27T09:52:01Z</time>
      </trkpt>
      <trkpt lat="47.66667" lon="6.03094">
        <ele>216.29</ele>
        <time>2017-09-27T09:52:02Z</time>
      </trkpt>
      <trkpt lat="47.66672" lon="6.03094">
        <ele>216.31</ele>
        <time>2017-09-27T09:52:03Z</time>
      </trkpt>
      <trkpt lat="47.66677" lon="6.03096">
        <ele>216.35</ele>
        <time>2017-09-27T09:52:04Z</time>
      </trkpt>
      <trkpt lat="47.66682" lon="6.03098">
        <ele>216.38</ele>
        <time>2017-09-27T09:52:05Z</time>
      </trkpt>
      <trkpt lat="47.66686" lon="6.031">
        <ele>216.4</ele>
        <time>2017-09-27T09:52:06Z</time>
      </trkpt>
      <trkpt lat="47.66694" lon="6.03106">
        <ele>216.45</ele>
        <time>2017-09-27T09:52:08Z</time>
      </trkpt>
      <trkpt lat="47.66699" lon="6.03109">
        <ele>216.48</ele>
        <time>2017-09-27T09:52:09Z</time>
      </trkpt>
      <trkpt lat="47.66703" lon="6.03112">
        <ele>216.52</ele>
        <time>2017-09-27T09:52:10Z</time>
      </trkpt>
      <trkpt lat="47.66707" lon="6.03116">
        <ele>216.56</ele>
        <time>2017-09-27T09:52:11Z</time>
      </trkpt>
      <trkpt lat="47.66711" lon="6.0312">
        <ele>216.62</ele>
        <time>2017-09-27T09:52:12Z</time>
      </trkpt>
      <trkpt lat="47.66715" lon="6.03123">
        <ele>216.69</ele>
        <time>2017-09-27T09:52:13Z</time>
      </trkpt>
      <trkpt lat="47.66722" lon="6.03129">
        <ele>216.81</ele>
        <time>2017-09-27T09:52:15Z</time>
      </trkpt>
      <trkpt lat="47.66729" lon="6.03134">
        <ele>216.88</ele>
        <time>2017-09-27T09:52:17Z</time>
      </trkpt>
      <trkpt lat="47.66734" lon="6.03138">
        <ele>216.9</ele>
        <time>2017-09-27T09:52:20Z</time>
      </trkpt>
      <trkpt lat="47.66739" lon="6.03139">
        <ele>216.94</ele>
        <time>2017-09-27T09:52:24Z</time>
      </trkpt>
      <trkpt lat="47.66744" lon="6.03141">
        <ele>216.98</ele>
        <time>2017-09-27T09:52:26Z</time>
      </trkpt>
      <trkpt lat="47.66749" lon="6.03143">
        <ele>217.02</ele>
        <time>2017-09-27T09:52:28Z</time>
      </trkpt>
      <trkpt lat="47.66755" lon="6.03144">
        <ele>217.08</ele>
        <time>2017-09-27T09:52:30Z</time>
      </trkpt>
      <trkpt lat="47.6676" lon="6.03145">
        <ele>217.13</ele>
        <time>2017-09-27T09:52:32Z</time>
      </trkpt>
      <trkpt lat="47.66766" lon="6.03146">
        <ele>217.22</ele>
        <time>2017-09-27T09:52:35Z</time>
      </trkpt>
      <trkpt lat="47.66772" lon="6.03147">
        <ele>217.31</ele>
        <time>2017-09-27T09:52:38Z</time>
      </trkpt>
      <trkpt lat="47.66778" lon="6.03148">
        <ele>217.39</ele>
        <time>2017-09-27T09:52:40Z</time>
      </trkpt>
      <trkpt lat="47.66784" lon="6.03148">
        <ele>217.53</ele>
        <time>2017-09-27T09:52:43Z</time>
      </trkpt>
      <trkpt lat="47.66792" lon="6.03149">
        <ele>217.67</ele>
        <time>2017-09-27T09:52:46Z</time>
      </trkpt>
      <trkpt lat="47.66797" lon="6.03152">
        <ele>217.77</ele>
        <time>2017-09-27T09:52:48Z</time>
      </trkpt>
      <trkpt lat="47.66803" lon="6.03153">
        <ele>217.87</ele>
        <time>2017-09-27T09:52:50Z</time>
      </trkpt>
      <trkpt lat="47.66807" lon="6.03154">
        <ele>217.98</ele>
        <time>2017-09-27T09:52:52Z</time>
      </trkpt>
      <trkpt lat="47.66814" lon="6.03156">
        <ele>218.05</ele>
        <time>2017-09-27T09:52:53Z</time>
      </trkpt>
      <trkpt lat="47.66821" lon="6.03155">
        <ele>218.22</ele>
        <time>2017-09-27T09:52:55Z</time>
      </trkpt>
      <trkpt lat="47.66826" lon="6.03156">
        <ele>218.41</ele>
        <time>2017-09-27T09:52:57Z</time>
      </trkpt>
      <trkpt lat="47.66831" lon="6.03156">
        <ele>218.63</ele>
        <time>2017-09-27T09:52:59Z</time>
      </trkpt>
      <trkpt lat="47.66837" lon="6.03155">
        <ele>218.97</ele>
        <time>2017-09-27T09:53:02Z</time>
      </trkpt>
      <trkpt lat="47.66842" lon="6.03155">
        <ele>219.22</ele>
        <time>2017-09-27T09:53:04Z</time>
      </trkpt>
      <trkpt lat="47.66847" lon="6.03155">
        <ele>219.51</ele>
        <time>2017-09-27T09:53:06Z</time>
      </trkpt>
      <trkpt lat="47.66853" lon="6.03157">
        <ele>219.96</ele>
        <time>2017-09-27T09:53:09Z</time>
      </trkpt>
      <trkpt lat="47.66858" lon="6.03159">
        <ele>220.25</ele>
        <time>2017-09-27T09:53:11Z</time>
      </trkpt>
      <trkpt lat="47.66863" lon="6.03163">
        <ele>220.67</ele>
        <time>2017-09-27T09:53:14Z</time>
      </trkpt>
      <trkpt lat="47.66869" lon="6.03165">
        <ele>220.99</ele>
        <time>2017-09-27T09:53:16Z</time>
      </trkpt>
      <trkpt lat="47.66874" lon="6.03167">
        <ele>221.33</ele>
        <time>2017-09-27T09:53:18Z</time>
      </trkpt>
      <trkpt lat="47.6688" lon="6.0317">
        <ele>221.91</ele>
        <time>2017-09-27T09:53:21Z</time>
      </trkpt>
      <trkpt lat="47.66884" lon="6.03173">
        <ele>222.72</ele>
        <time>2017-09-27T09:53:25Z</time>
      </trkpt>
      <trkpt lat="47.66888" lon="6.03177">
        <ele>223.12</ele>
        <time>2017-09-27T09:53:27Z</time>
      </trkpt>
      <trkpt lat="47.66892" lon="6.03182">
        <ele>223.51</ele>
        <time>2017-09-27T09:53:29Z</time>
      </trkpt>
      <trkpt lat="47.66895" lon="6.03187">
        <ele>223.89</ele>
        <time>2017-09-27T09:53:31Z</time>
      </trkpt>
      <trkpt lat="47.66899" lon="6.03192">
        <ele>224.27</ele>
        <time>2017-09-27T09:53:33Z</time>
      </trkpt>
      <trkpt lat="47.66903" lon="6.03196">
        <ele>224.64</ele>
        <time>2017-09-27T09:53:35Z</time>
      </trkpt>
      <trkpt lat="47.66906" lon="6.03201">
        <ele>225.01</ele>
        <time>2017-09-27T09:53:37Z</time>
      </trkpt>
      <trkpt lat="47.6691" lon="6.03206">
        <ele>225.36</ele>
        <time>2017-09-27T09:53:39Z</time>
      </trkpt>
      <trkpt lat="47.66914" lon="6.03209">
        <ele>225.7</ele>
        <time>2017-09-27T09:53:41Z</time>
      </trkpt>
      <trkpt lat="47.6692" lon="6.03212">
        <ele>226.03</ele>
        <time>2017-09-27T09:53:43Z</time>
      </trkpt>
      <trkpt lat="47.66925" lon="6.03217">
        <ele>226.36</ele>
        <time>2017-09-27T09:53:45Z</time>
      </trkpt>
      <trkpt lat="47.66928" lon="6.03222">
        <ele>226.68</ele>
        <time>2017-09-27T09:53:47Z</time>
      </trkpt>
      <trkpt lat="47.66933" lon="6.03226">
        <ele>227.02</ele>
        <time>2017-09-27T09:53:49Z</time>
      </trkpt>
      <trkpt lat="47.66937" lon="6.0323">
        <ele>227.52</ele>
        <time>2017-09-27T09:53:52Z</time>
      </trkpt>
      <trkpt lat="47.66943" lon="6.03235">
        <ele>227.86</ele>
        <time>2017-09-27T09:53:54Z</time>
      </trkpt>
      <trkpt lat="47.66947" lon="6.03239">
        <ele>228.21</ele>
        <time>2017-09-27T09:53:56Z</time>
      </trkpt>
      <trkpt lat="47.66951" lon="6.03244">
        <ele>228.56</ele>
        <time>2017-09-27T09:53:58Z</time>
      </trkpt>
      <trkpt lat="47.66956" lon="6.03251">
        <ele>229.12</ele>
        <time>2017-09-27T09:54:01Z</time>
      </trkpt>
      <trkpt lat="47.6696" lon="6.03257">
        <ele>229.5</ele>
        <time>2017-09-27T09:54:03Z</time>
      </trkpt>
      <trkpt lat="47.66963" lon="6.03262">
        <ele>229.87</ele>
        <time>2017-09-27T09:54:05Z</time>
      </trkpt>
      <trkpt lat="47.66968" lon="6.03269">
        <ele>230.42</ele>
        <time>2017-09-27T09:54:08Z</time>
      </trkpt>
      <trkpt lat="47.66971" lon="6.03276">
        <ele>230.99</ele>
        <time>2017-09-27T09:54:11Z</time>
      </trkpt>
      <trkpt lat="47.66974" lon="6.0328">
        <ele>231.36</ele>
        <time>2017-09-27T09:54:13Z</time>
      </trkpt>
      <trkpt lat="47.66978" lon="6.03286">
        <ele>231.73</ele>
        <time>2017-09-27T09:54:15Z</time>
      </trkpt>
      <trkpt lat="47.66982" lon="6.03291">
        <ele>232.1</ele>
        <time>2017-09-27T09:54:17Z</time>
      </trkpt>
      <trkpt lat="47.66986" lon="6.03298">
        <ele>232.64</ele>
        <time>2017-09-27T09:54:20Z</time>
      </trkpt>
      <trkpt lat="47.66991" lon="6.03305">
        <ele>233.03</ele>
        <time>2017-09-27T09:54:22Z</time>
      </trkpt>
      <trkpt lat="47.66996" lon="6.03312">
        <ele>233.66</ele>
        <time>2017-09-27T09:54:25Z</time>
      </trkpt>
      <trkpt lat="47.66999" lon="6.03317">
        <ele>234.07</ele>
        <time>2017-09-27T09:54:27Z</time>
      </trkpt>
      <trkpt lat="47.67002" lon="6.03322">
        <ele>234.46</ele>
        <time>2017-09-27T09:54:29Z</time>
      </trkpt>
      <trkpt lat="47.67007" lon="6.03327">
        <ele>234.86</ele>
        <time>2017-09-27T09:54:31Z</time>
      </trkpt>
      <trkpt lat="47.67012" lon="6.03333">
        <ele>235.24</ele>
        <time>2017-09-27T09:54:33Z</time>
      </trkpt>
      <trkpt lat="47.67016" lon="6.03338">
        <ele>235.64</ele>
        <time>2017-09-27T09:54:35Z</time>
      </trkpt>
      <trkpt lat="47.6702" lon="6.03341">
        <ele>236.02</ele>
        <time>2017-09-27T09:54:37Z</time>
      </trkpt>
      <trkpt lat="47.67025" lon="6.03347">
        <ele>236.57</ele>
        <time>2017-09-27T09:54:40Z</time>
      </trkpt>
      <trkpt lat="47.67028" lon="6.03353">
        <ele>236.92</ele>
        <time>2017-09-27T09:54:42Z</time>
      </trkpt>
      <trkpt lat="47.67032" lon="6.03361">
        <ele>237.41</ele>
        <time>2017-09-27T09:54:45Z</time>
      </trkpt>
      <trkpt lat="47.67036" lon="6.03368">
        <ele>237.73</ele>
        <time>2017-09-27T09:54:47Z</time>
      </trkpt>
      <trkpt lat="47.6704" lon="6.03373">
        <ele>238.04</ele>
        <time>2017-09-27T09:54:49Z</time>
      </trkpt>
      <trkpt lat="47.67044" lon="6.03379">
        <ele>238.33</ele>
        <time>2017-09-27T09:54:51Z</time>
      </trkpt>
      <trkpt lat="47.67049" lon="6.03387">
        <ele>238.6</ele>
        <time>2017-09-27T09:54:53Z</time>
      </trkpt>
      <trkpt lat="47.67053" lon="6.03395">
        <ele>238.86</ele>
        <time>2017-09-27T09:54:55Z</time>
      </trkpt>
      <trkpt lat="47.67057" lon="6.03401">
        <ele>239.12</ele>
        <time>2017-09-27T09:54:57Z</time>
      </trkpt>
      <trkpt lat="47.67062" lon="6.03408">
        <ele>239.38</ele>
        <time>2017-09-27T09:54:59Z</time>
      </trkpt>
      <trkpt lat="47.67066" lon="6.03414">
        <ele>239.64</ele>
        <time>2017-09-27T09:55:01Z</time>
      </trkpt>
      <trkpt lat="47.6707" lon="6.03419">
        <ele>239.91</ele>
        <time>2017-09-27T09:55:03Z</time>
      </trkpt>
      <trkpt lat="47.67075" lon="6.03424">
        <ele>240.18</ele>
        <time>2017-09-27T09:55:05Z</time>
      </trkpt>
      <trkpt lat="47.67082" lon="6.03433">
        <ele>240.46</ele>
        <time>2017-09-27T09:55:07Z</time>
      </trkpt>
      <trkpt lat="47.67089" lon="6.0344">
        <ele>240.75</ele>
        <time>2017-09-27T09:55:09Z</time>
      </trkpt>
      <trkpt lat="47.67091" lon="6.03446">
        <ele>241.05</ele>
        <time>2017-09-27T09:55:11Z</time>
      </trkpt>
      <trkpt lat="47.67096" lon="6.03453">
        <ele>241.33</ele>
        <time>2017-09-27T09:55:13Z</time>
      </trkpt>
      <trkpt lat="47.67098" lon="6.0346">
        <ele>241.61</ele>
        <time>2017-09-27T09:55:15Z</time>
      </trkpt>
      <trkpt lat="47.67101" lon="6.03467">
        <ele>241.9</ele>
        <time>2017-09-27T09:55:17Z</time>
      </trkpt>
      <trkpt lat="47.67104" lon="6.03474">
        <ele>242.19</ele>
        <time>2017-09-27T09:55:19Z</time>
      </trkpt>
      <trkpt lat="47.67109" lon="6.03481">
        <ele>242.47</ele>
        <time>2017-09-27T09:55:21Z</time>
      </trkpt>
      <trkpt lat="47.67113" lon="6.03487">
        <ele>242.74</ele>
        <time>2017-09-27T09:55:23Z</time>
      </trkpt>
      <trkpt lat="47.67116" lon="6.03495">
        <ele>243</ele>
        <time>2017-09-27T09:55:25Z</time>
      </trkpt>
      <trkpt lat="47.6712" lon="6.03503">
        <ele>243.25</ele>
        <time>2017-09-27T09:55:27Z</time>
      </trkpt>
      <trkpt lat="47.67125" lon="6.0351">
        <ele>243.51</ele>
        <time>2017-09-27T09:55:29Z</time>
      </trkpt>
      <trkpt lat="47.6713" lon="6.03517">
        <ele>243.76</ele>
        <time>2017-09-27T09:55:31Z</time>
      </trkpt>
      <trkpt lat="47.67134" lon="6.03525">
        <ele>244.75</ele>
        <time>2017-09-27T09:55:33Z</time>
      </trkpt>
      <trkpt lat="47.67138" lon="6.03531">
        <ele>245.68</ele>
        <time>2017-09-27T09:55:34Z</time>
      </trkpt>
      <trkpt lat="47.67142" lon="6.03535">
        <ele>246.5</ele>
        <time>2017-09-27T09:55:35Z</time>
      </trkpt>
      <trkpt lat="47.67146" lon="6.03541">
        <ele>247.21</ele>
        <time>2017-09-27T09:55:36Z</time>
      </trkpt>
      <trkpt lat="47.6715" lon="6.03547">
        <ele>247.79</ele>
        <time>2017-09-27T09:55:37Z</time>
      </trkpt>
      <trkpt lat="47.67154" lon="6.03554">
        <ele>248.24</ele>
        <time>2017-09-27T09:55:38Z</time>
      </trkpt>
      <trkpt lat="47.67157" lon="6.03559">
        <ele>248.62</ele>
        <time>2017-09-27T09:55:39Z</time>
      </trkpt>
      <trkpt lat="47.67159" lon="6.03566">
        <ele>248.93</ele>
        <time>2017-09-27T09:55:40Z</time>
      </trkpt>
      <trkpt lat="47.67163" lon="6.03573">
        <ele>249.17</ele>
        <time>2017-09-27T09:55:41Z</time>
      </trkpt>
      <trkpt lat="47.67168" lon="6.0358">
        <ele>249.35</ele>
        <time>2017-09-27T09:55:42Z</time>
      </trkpt>
      <trkpt lat="47.67171" lon="6.03586">
        <ele>249.47</ele>
        <time>2017-09-27T09:55:43Z</time>
      </trkpt>
      <trkpt lat="47.67175" lon="6.03594">
        <ele>249.57</ele>
        <time>2017-09-27T09:55:44Z</time>
      </trkpt>
      <trkpt lat="47.67179" lon="6.03601">
        <ele>249.63</ele>
        <time>2017-09-27T09:55:45Z</time>
      </trkpt>
      <trkpt lat="47.67184" lon="6.03612">
        <ele>249.6</ele>
        <time>2017-09-27T09:55:46Z</time>
      </trkpt>
      <trkpt lat="47.67188" lon="6.03622">
        <ele>249.47</ele>
        <time>2017-09-27T09:55:47Z</time>
      </trkpt>
      <trkpt lat="47.67193" lon="6.03631">
        <ele>249.27</ele>
        <time>2017-09-27T09:55:48Z</time>
      </trkpt>
      <trkpt lat="47.67197" lon="6.03641">
        <ele>249.05</ele>
        <time>2017-09-27T09:55:49Z</time>
      </trkpt>
      <trkpt lat="47.67202" lon="6.03649">
        <ele>248.82</ele>
        <time>2017-09-27T09:55:50Z</time>
      </trkpt>
      <trkpt lat="47.67207" lon="6.03659">
        <ele>248.6</ele>
        <time>2017-09-27T09:55:51Z</time>
      </trkpt>
      <trkpt lat="47.67211" lon="6.03669">
        <ele>248.37</ele>
        <time>2017-09-27T09:55:52Z</time>
      </trkpt>
      <trkpt lat="47.67216" lon="6.03678">
        <ele>248.1</ele>
        <time>2017-09-27T09:55:53Z</time>
      </trkpt>
      <trkpt lat="47.67221" lon="6.03688">
        <ele>247.8</ele>
        <time>2017-09-27T09:55:54Z</time>
      </trkpt>
      <trkpt lat="47.67225" lon="6.03697">
        <ele>247.48</ele>
        <time>2017-09-27T09:55:55Z</time>
      </trkpt>
      <trkpt lat="47.6723" lon="6.03706">
        <ele>247.15</ele>
        <time>2017-09-27T09:55:56Z</time>
      </trkpt>
      <trkpt lat="47.67234" lon="6.03719">
        <ele>246.8</ele>
        <time>2017-09-27T09:55:57Z</time>
      </trkpt>
      <trkpt lat="47.67239" lon="6.03729">
        <ele>246.43</ele>
        <time>2017-09-27T09:55:58Z</time>
      </trkpt>
      <trkpt lat="47.67245" lon="6.03739">
        <ele>246.06</ele>
        <time>2017-09-27T09:55:59Z</time>
      </trkpt>
      <trkpt lat="47.67249" lon="6.03749">
        <ele>245.68</ele>
        <time>2017-09-27T09:56:00Z</time>
      </trkpt>
      <trkpt lat="47.67253" lon="6.0376">
        <ele>245.28</ele>
        <time>2017-09-27T09:56:01Z</time>
      </trkpt>
      <trkpt lat="47.6726" lon="6.0377">
        <ele>244.88</ele>
        <time>2017-09-27T09:56:02Z</time>
      </trkpt>
      <trkpt lat="47.67267" lon="6.0378">
        <ele>244.48</ele>
        <time>2017-09-27T09:56:03Z</time>
      </trkpt>
      <trkpt lat="47.67273" lon="6.03791">
        <ele>244.06</ele>
        <time>2017-09-27T09:56:04Z</time>
      </trkpt>
      <trkpt lat="47.67279" lon="6.03802">
        <ele>243.55</ele>
        <time>2017-09-27T09:56:05Z</time>
      </trkpt>
      <trkpt lat="47.67286" lon="6.03814">
        <ele>243.02</ele>
        <time>2017-09-27T09:56:06Z</time>
      </trkpt>
      <trkpt lat="47.67292" lon="6.03824">
        <ele>242.46</ele>
        <time>2017-09-27T09:56:07Z</time>
      </trkpt>
      <trkpt lat="47.67298" lon="6.03833">
        <ele>241.83</ele>
        <time>2017-09-27T09:56:08Z</time>
      </trkpt>
      <trkpt lat="47.67302" lon="6.03846">
        <ele>241.22</ele>
        <time>2017-09-27T09:56:09Z</time>
      </trkpt>
      <trkpt lat="47.67308" lon="6.03858">
        <ele>240.7</ele>
        <time>2017-09-27T09:56:10Z</time>
      </trkpt>
      <trkpt lat="47.67314" lon="6.03869">
        <ele>240.21</ele>
        <time>2017-09-27T09:56:11Z</time>
      </trkpt>
      <trkpt lat="47.67322" lon="6.03877">
        <ele>239.68</ele>
        <time>2017-09-27T09:56:12Z</time>
      </trkpt>
      <trkpt lat="47.67327" lon="6.03887">
        <ele>239.23</ele>
        <time>2017-09-27T09:56:13Z</time>
      </trkpt>
      <trkpt lat="47.67335" lon="6.03895">
        <ele>238.93</ele>
        <time>2017-09-27T09:56:14Z</time>
      </trkpt>
      <trkpt lat="47.67343" lon="6.03902">
        <ele>238.74</ele>
        <time>2017-09-27T09:56:15Z</time>
      </trkpt>
      <trkpt lat="47.67351" lon="6.0391">
        <ele>238.58</ele>
        <time>2017-09-27T09:56:16Z</time>
      </trkpt>
      <trkpt lat="47.67358" lon="6.03918">
        <ele>238.44</ele>
        <time>2017-09-27T09:56:17Z</time>
      </trkpt>
      <trkpt lat="47.67365" lon="6.03927">
        <ele>238.43</ele>
        <time>2017-09-27T09:56:18Z</time>
      </trkpt>
      <trkpt lat="47.67372" lon="6.03936">
        <ele>238.38</ele>
        <time>2017-09-27T09:56:19Z</time>
      </trkpt>
      <trkpt lat="47.67381" lon="6.03943">
        <ele>238.37</ele>
        <time>2017-09-27T09:56:20Z</time>
      </trkpt>
      <trkpt lat="47.67388" lon="6.03951">
        <ele>238.44</ele>
        <time>2017-09-27T09:56:21Z</time>
      </trkpt>
      <trkpt lat="47.67393" lon="6.03959">
        <ele>238.45</ele>
        <time>2017-09-27T09:56:22Z</time>
      </trkpt>
      <trkpt lat="47.67398" lon="6.03968">
        <ele>238.64</ele>
        <time>2017-09-27T09:56:23Z</time>
      </trkpt>
      <trkpt lat="47.67405" lon="6.03975">
        <ele>238.85</ele>
        <time>2017-09-27T09:56:24Z</time>
      </trkpt>
      <trkpt lat="47.67408" lon="6.03983">
        <ele>239.16</ele>
        <time>2017-09-27T09:56:25Z</time>
      </trkpt>
      <trkpt lat="47.67412" lon="6.0399">
        <ele>239.36</ele>
        <time>2017-09-27T09:56:26Z</time>
      </trkpt>
      <trkpt lat="47.67417" lon="6.03997">
        <ele>239.47</ele>
        <time>2017-09-27T09:56:27Z</time>
      </trkpt>
      <trkpt lat="47.67424" lon="6.04004">
        <ele>239.93</ele>
        <time>2017-09-27T09:56:28Z</time>
      </trkpt>
      <trkpt lat="47.67428" lon="6.04011">
        <ele>240.55</ele>
        <time>2017-09-27T09:56:29Z</time>
      </trkpt>
      <trkpt lat="47.67432" lon="6.04017">
        <ele>241.06</ele>
        <time>2017-09-27T09:56:30Z</time>
      </trkpt>
      <trkpt lat="47.67438" lon="6.04028">
        <ele>241.31</ele>
        <time>2017-09-27T09:56:32Z</time>
      </trkpt>
      <trkpt lat="47.67442" lon="6.04034">
        <ele>241.92</ele>
        <time>2017-09-27T09:56:33Z</time>
      </trkpt>
      <trkpt lat="47.67446" lon="6.04042">
        <ele>242.37</ele>
        <time>2017-09-27T09:56:35Z</time>
      </trkpt>
      <trkpt lat="47.67449" lon="6.04049">
        <ele>242.56</ele>
        <time>2017-09-27T09:56:36Z</time>
      </trkpt>
      <trkpt lat="47.67452" lon="6.04056">
        <ele>242.73</ele>
        <time>2017-09-27T09:56:37Z</time>
      </trkpt>
      <trkpt lat="47.67456" lon="6.04064">
        <ele>242.7</ele>
        <time>2017-09-27T09:56:38Z</time>
      </trkpt>
      <trkpt lat="47.67459" lon="6.04071">
        <ele>242.55</ele>
        <time>2017-09-27T09:56:39Z</time>
      </trkpt>
      <trkpt lat="47.67463" lon="6.04076">
        <ele>242.33</ele>
        <time>2017-09-27T09:56:40Z</time>
      </trkpt>
      <trkpt lat="47.67466" lon="6.04083">
        <ele>241.85</ele>
        <time>2017-09-27T09:56:41Z</time>
      </trkpt>
      <trkpt lat="47.6747" lon="6.04091">
        <ele>241.23</ele>
        <time>2017-09-27T09:56:42Z</time>
      </trkpt>
      <trkpt lat="47.67473" lon="6.04097">
        <ele>240.43</ele>
        <time>2017-09-27T09:56:43Z</time>
      </trkpt>
      <trkpt lat="47.67479" lon="6.04107">
        <ele>239.36</ele>
        <time>2017-09-27T09:56:44Z</time>
      </trkpt>
      <trkpt lat="47.67487" lon="6.04116">
        <ele>238.18</ele>
        <time>2017-09-27T09:56:45Z</time>
      </trkpt>
      <trkpt lat="47.67494" lon="6.04124">
        <ele>237.23</ele>
        <time>2017-09-27T09:56:46Z</time>
      </trkpt>
      <trkpt lat="47.67499" lon="6.04131">
        <ele>236.33</ele>
        <time>2017-09-27T09:56:47Z</time>
      </trkpt>
      <trkpt lat="47.67504" lon="6.04138">
        <ele>235.45</ele>
        <time>2017-09-27T09:56:48Z</time>
      </trkpt>
      <trkpt lat="47.6751" lon="6.04146">
        <ele>234.59</ele>
        <time>2017-09-27T09:56:49Z</time>
      </trkpt>
      <trkpt lat="47.67516" lon="6.04152">
        <ele>233.8</ele>
        <time>2017-09-27T09:56:50Z</time>
      </trkpt>
      <trkpt lat="47.67521" lon="6.04159">
        <ele>233.09</ele>
        <time>2017-09-27T09:56:51Z</time>
      </trkpt>
      <trkpt lat="47.67526" lon="6.04163">
        <ele>232.4</ele>
        <time>2017-09-27T09:56:52Z</time>
      </trkpt>
      <trkpt lat="47.67531" lon="6.04169">
        <ele>231.81</ele>
        <time>2017-09-27T09:56:53Z</time>
      </trkpt>
      <trkpt lat="47.67536" lon="6.04174">
        <ele>231.31</ele>
        <time>2017-09-27T09:56:54Z</time>
      </trkpt>
      <trkpt lat="47.67541" lon="6.04179">
        <ele>230.94</ele>
        <time>2017-09-27T09:56:55Z</time>
      </trkpt>
      <trkpt lat="47.67546" lon="6.04185">
        <ele>230.72</ele>
        <time>2017-09-27T09:56:56Z</time>
      </trkpt>
      <trkpt lat="47.67551" lon="6.04191">
        <ele>230.61</ele>
        <time>2017-09-27T09:56:57Z</time>
      </trkpt>
      <trkpt lat="47.67556" lon="6.04198">
        <ele>230.61</ele>
        <time>2017-09-27T09:56:58Z</time>
      </trkpt>
      <trkpt lat="47.67561" lon="6.04204">
        <ele>230.64</ele>
        <time>2017-09-27T09:56:59Z</time>
      </trkpt>
      <trkpt lat="47.67565" lon="6.0421">
        <ele>230.75</ele>
        <time>2017-09-27T09:57:00Z</time>
      </trkpt>
      <trkpt lat="47.6757" lon="6.04217">
        <ele>230.84</ele>
        <time>2017-09-27T09:57:01Z</time>
      </trkpt>
      <trkpt lat="47.67576" lon="6.04225">
        <ele>230.93</ele>
        <time>2017-09-27T09:57:02Z</time>
      </trkpt>
      <trkpt lat="47.67582" lon="6.04233">
        <ele>231.1</ele>
        <time>2017-09-27T09:57:03Z</time>
      </trkpt>
      <trkpt lat="47.67588" lon="6.0424">
        <ele>231.28</ele>
        <time>2017-09-27T09:57:04Z</time>
      </trkpt>
      <trkpt lat="47.67593" lon="6.04248">
        <ele>231.49</ele>
        <time>2017-09-27T09:57:05Z</time>
      </trkpt>
      <trkpt lat="47.67597" lon="6.04254">
        <ele>231.64</ele>
        <time>2017-09-27T09:57:06Z</time>
      </trkpt>
      <trkpt lat="47.67601" lon="6.04262">
        <ele>231.74</ele>
        <time>2017-09-27T09:57:07Z</time>
      </trkpt>
      <trkpt lat="47.67605" lon="6.0427">
        <ele>231.88</ele>
        <time>2017-09-27T09:57:08Z</time>
      </trkpt>
      <trkpt lat="47.67611" lon="6.04278">
        <ele>232.21</ele>
        <time>2017-09-27T09:57:09Z</time>
      </trkpt>
      <trkpt lat="47.67617" lon="6.04283">
        <ele>232.55</ele>
        <time>2017-09-27T09:57:10Z</time>
      </trkpt>
      <trkpt lat="47.67621" lon="6.0429">
        <ele>233</ele>
        <time>2017-09-27T09:57:11Z</time>
      </trkpt>
      <trkpt lat="47.67626" lon="6.04296">
        <ele>233.41</ele>
        <time>2017-09-27T09:57:12Z</time>
      </trkpt>
      <trkpt lat="47.6763" lon="6.04301">
        <ele>233.63</ele>
        <time>2017-09-27T09:57:13Z</time>
      </trkpt>
      <trkpt lat="47.67633" lon="6.04307">
        <ele>233.62</ele>
        <time>2017-09-27T09:57:14Z</time>
      </trkpt>
      <trkpt lat="47.67637" lon="6.04314">
        <ele>233.44</ele>
        <time>2017-09-27T09:57:15Z</time>
      </trkpt>
      <trkpt lat="47.67642" lon="6.0432">
        <ele>233.25</ele>
        <time>2017-09-27T09:57:16Z</time>
      </trkpt>
      <trkpt lat="47.67647" lon="6.04324">
        <ele>233.02</ele>
        <time>2017-09-27T09:57:17Z</time>
      </trkpt>
      <trkpt lat="47.67653" lon="6.04327">
        <ele>232.9</ele>
        <time>2017-09-27T09:57:18Z</time>
      </trkpt>
      <trkpt lat="47.67657" lon="6.04331">
        <ele>232.76</ele>
        <time>2017-09-27T09:57:19Z</time>
      </trkpt>
      <trkpt lat="47.67663" lon="6.04337">
        <ele>232.5</ele>
        <time>2017-09-27T09:57:20Z</time>
      </trkpt>
      <trkpt lat="47.67668" lon="6.04342">
        <ele>232.07</ele>
        <time>2017-09-27T09:57:21Z</time>
      </trkpt>
      <trkpt lat="47.67673" lon="6.04347">
        <ele>231.53</ele>
        <time>2017-09-27T09:57:22Z</time>
      </trkpt>
      <trkpt lat="47.67679" lon="6.04352">
        <ele>230.98</ele>
        <time>2017-09-27T09:57:23Z</time>
      </trkpt>
      <trkpt lat="47.67684" lon="6.04356">
        <ele>230.69</ele>
        <time>2017-09-27T09:57:24Z</time>
      </trkpt>
      <trkpt lat="47.6769" lon="6.0436">
        <ele>230.55</ele>
        <time>2017-09-27T09:57:25Z</time>
      </trkpt>
      <trkpt lat="47.67696" lon="6.04364">
        <ele>230.55</ele>
        <time>2017-09-27T09:57:26Z</time>
      </trkpt>
      <trkpt lat="47.67704" lon="6.04369">
        <ele>230.59</ele>
        <time>2017-09-27T09:57:27Z</time>
      </trkpt>
      <trkpt lat="47.6771" lon="6.04374">
        <ele>230.78</ele>
        <time>2017-09-27T09:57:28Z</time>
      </trkpt>
      <trkpt lat="47.67717" lon="6.04379">
        <ele>230.96</ele>
        <time>2017-09-27T09:57:29Z</time>
      </trkpt>
      <trkpt lat="47.67725" lon="6.04384">
        <ele>231.07</ele>
        <time>2017-09-27T09:57:30Z</time>
      </trkpt>
      <trkpt lat="47.67733" lon="6.04388">
        <ele>231.11</ele>
        <time>2017-09-27T09:57:31Z</time>
      </trkpt>
      <trkpt lat="47.6774" lon="6.04391">
        <ele>231.08</ele>
        <time>2017-09-27T09:57:32Z</time>
      </trkpt>
      <trkpt lat="47.67747" lon="6.04395">
        <ele>230.95</ele>
        <time>2017-09-27T09:57:33Z</time>
      </trkpt>
      <trkpt lat="47.67753" lon="6.04398">
        <ele>230.72</ele>
        <time>2017-09-27T09:57:34Z</time>
      </trkpt>
      <trkpt lat="47.67759" lon="6.04399">
        <ele>230.41</ele>
        <time>2017-09-27T09:57:35Z</time>
      </trkpt>
      <trkpt lat="47.67766" lon="6.04401">
        <ele>230.03</ele>
        <time>2017-09-27T09:57:36Z</time>
      </trkpt>
      <trkpt lat="47.67773" lon="6.04404">
        <ele>229.69</ele>
        <time>2017-09-27T09:57:37Z</time>
      </trkpt>
      <trkpt lat="47.67782" lon="6.04406">
        <ele>229.43</ele>
        <time>2017-09-27T09:57:38Z</time>
      </trkpt>
      <trkpt lat="47.67791" lon="6.04408">
        <ele>229.26</ele>
        <time>2017-09-27T09:57:39Z</time>
      </trkpt>
      <trkpt lat="47.67799" lon="6.04412">
        <ele>228.99</ele>
        <time>2017-09-27T09:57:40Z</time>
      </trkpt>
      <trkpt lat="47.67807" lon="6.04415">
        <ele>228.84</ele>
        <time>2017-09-27T09:57:41Z</time>
      </trkpt>
      <trkpt lat="47.67815" lon="6.04418">
        <ele>228.68</ele>
        <time>2017-09-27T09:57:42Z</time>
      </trkpt>
      <trkpt lat="47.67823" lon="6.0442">
        <ele>228.45</ele>
        <time>2017-09-27T09:57:43Z</time>
      </trkpt>
      <trkpt lat="47.67831" lon="6.04421">
        <ele>228.09</ele>
        <time>2017-09-27T09:57:44Z</time>
      </trkpt>
      <trkpt lat="47.67839" lon="6.04422">
        <ele>227.76</ele>
        <time>2017-09-27T09:57:45Z</time>
      </trkpt>
      <trkpt lat="47.67846" lon="6.04424">
        <ele>227.37</ele>
        <time>2017-09-27T09:57:46Z</time>
      </trkpt>
      <trkpt lat="47.67854" lon="6.04424">
        <ele>226.92</ele>
        <time>2017-09-27T09:57:47Z</time>
      </trkpt>
      <trkpt lat="47.67861" lon="6.04425">
        <ele>226.46</ele>
        <time>2017-09-27T09:57:48Z</time>
      </trkpt>
      <trkpt lat="47.67868" lon="6.04426">
        <ele>225.97</ele>
        <time>2017-09-27T09:57:49Z</time>
      </trkpt>
      <trkpt lat="47.67875" lon="6.04428">
        <ele>225.47</ele>
        <time>2017-09-27T09:57:50Z</time>
      </trkpt>
      <trkpt lat="47.67881" lon="6.04429">
        <ele>225.04</ele>
        <time>2017-09-27T09:57:51Z</time>
      </trkpt>
      <trkpt lat="47.67888" lon="6.0443">
        <ele>224.66</ele>
        <time>2017-09-27T09:57:52Z</time>
      </trkpt>
      <trkpt lat="47.67894" lon="6.04431">
        <ele>224.3</ele>
        <time>2017-09-27T09:57:53Z</time>
      </trkpt>
      <trkpt lat="47.67901" lon="6.04433">
        <ele>223.97</ele>
        <time>2017-09-27T09:57:54Z</time>
      </trkpt>
      <trkpt lat="47.67907" lon="6.04433">
        <ele>223.63</ele>
        <time>2017-09-27T09:57:55Z</time>
      </trkpt>
      <trkpt lat="47.67913" lon="6.04433">
        <ele>223.32</ele>
        <time>2017-09-27T09:57:56Z</time>
      </trkpt>
      <trkpt lat="47.67918" lon="6.04434">
        <ele>223.01</ele>
        <time>2017-09-27T09:57:57Z</time>
      </trkpt>
      <trkpt lat="47.67924" lon="6.04434">
        <ele>222.73</ele>
        <time>2017-09-27T09:57:58Z</time>
      </trkpt>
      <trkpt lat="47.67929" lon="6.04435">
        <ele>222.49</ele>
        <time>2017-09-27T09:57:59Z</time>
      </trkpt>
      <trkpt lat="47.67935" lon="6.04435">
        <ele>222.3</ele>
        <time>2017-09-27T09:58:00Z</time>
      </trkpt>
      <trkpt lat="47.67941" lon="6.04434">
        <ele>222.21</ele>
        <time>2017-09-27T09:58:01Z</time>
      </trkpt>
      <trkpt lat="47.67947" lon="6.04433">
        <ele>222.18</ele>
        <time>2017-09-27T09:58:02Z</time>
      </trkpt>
      <trkpt lat="47.67952" lon="6.04432">
        <ele>222.15</ele>
        <time>2017-09-27T09:58:03Z</time>
      </trkpt>
      <trkpt lat="47.67957" lon="6.04432">
        <ele>222.18</ele>
        <time>2017-09-27T09:58:04Z</time>
      </trkpt>
      <trkpt lat="47.67963" lon="6.04431">
        <ele>222.2</ele>
        <time>2017-09-27T09:58:05Z</time>
      </trkpt>
      <trkpt lat="47.67969" lon="6.0443">
        <ele>222.22</ele>
        <time>2017-09-27T09:58:06Z</time>
      </trkpt>
      <trkpt lat="47.67974" lon="6.04428">
        <ele>222.2</ele>
        <time>2017-09-27T09:58:07Z</time>
      </trkpt>
      <trkpt lat="47.67978" lon="6.04425">
        <ele>222.16</ele>
        <time>2017-09-27T09:58:08Z</time>
      </trkpt>
      <trkpt lat="47.67985" lon="6.04421">
        <ele>222.07</ele>
        <time>2017-09-27T09:58:10Z</time>
      </trkpt>
      <trkpt lat="47.6799" lon="6.04419">
        <ele>222.03</ele>
        <time>2017-09-27T09:58:12Z</time>
      </trkpt>
      <trkpt lat="47.67994" lon="6.04424">
        <ele>222.02</ele>
        <time>2017-09-27T09:58:14Z</time>
      </trkpt>
      <trkpt lat="47.68003" lon="6.04425">
        <ele>221.99</ele>
        <time>2017-09-27T09:58:41Z</time>
      </trkpt>
      <trkpt lat="47.68008" lon="6.0442">
        <ele>221.75</ele>
        <time>2017-09-27T09:58:48Z</time>
      </trkpt>
      <trkpt lat="47.68012" lon="6.04416">
        <ele>221.62</ele>
        <time>2017-09-27T09:58:50Z</time>
      </trkpt>
      <trkpt lat="47.68019" lon="6.04411">
        <ele>221.5</ele>
        <time>2017-09-27T09:58:52Z</time>
      </trkpt>
      <trkpt lat="47.68026" lon="6.04406">
        <ele>221.37</ele>
        <time>2017-09-27T09:58:54Z</time>
      </trkpt>
      <trkpt lat="47.68033" lon="6.04402">
        <ele>221.25</ele>
        <time>2017-09-27T09:58:56Z</time>
      </trkpt>
      <trkpt lat="47.68036" lon="6.04397">
        <ele>221.13</ele>
        <time>2017-09-27T09:58:58Z</time>
      </trkpt>
      <trkpt lat="47.68042" lon="6.04398">
        <ele>221</ele>
        <time>2017-09-27T09:59:00Z</time>
      </trkpt>
      <trkpt lat="47.68048" lon="6.04398">
        <ele>220.47</ele>
        <time>2017-09-27T09:59:02Z</time>
      </trkpt>
      <trkpt lat="47.68052" lon="6.04397">
        <ele>219.96</ele>
        <time>2017-09-27T09:59:03Z</time>
      </trkpt>
      <trkpt lat="47.68061" lon="6.04395">
        <ele>219.12</ele>
        <time>2017-09-27T09:59:05Z</time>
      </trkpt>
      <trkpt lat="47.68071" lon="6.04393">
        <ele>218.38</ele>
        <time>2017-09-27T09:59:07Z</time>
      </trkpt>
      <trkpt lat="47.68076" lon="6.04392">
        <ele>218</ele>
        <time>2017-09-27T09:59:08Z</time>
      </trkpt>
      <trkpt lat="47.68082" lon="6.04389">
        <ele>217.64</ele>
        <time>2017-09-27T09:59:09Z</time>
      </trkpt>
      <trkpt lat="47.68087" lon="6.04388">
        <ele>217.3</ele>
        <time>2017-09-27T09:59:10Z</time>
      </trkpt>
      <trkpt lat="47.68093" lon="6.04386">
        <ele>216.97</ele>
        <time>2017-09-27T09:59:11Z</time>
      </trkpt>
      <trkpt lat="47.68101" lon="6.04383">
        <ele>216.4</ele>
        <time>2017-09-27T09:59:13Z</time>
      </trkpt>
      <trkpt lat="47.68107" lon="6.04382">
        <ele>216.18</ele>
        <time>2017-09-27T09:59:14Z</time>
      </trkpt>
      <trkpt lat="47.68111" lon="6.0438">
        <ele>215.97</ele>
        <time>2017-09-27T09:59:15Z</time>
      </trkpt>
      <trkpt lat="47.6812" lon="6.04377">
        <ele>215.61</ele>
        <time>2017-09-27T09:59:17Z</time>
      </trkpt>
      <trkpt lat="47.68127" lon="6.04374">
        <ele>215.33</ele>
        <time>2017-09-27T09:59:19Z</time>
      </trkpt>
      <trkpt lat="47.68132" lon="6.04372">
        <ele>215.2</ele>
        <time>2017-09-27T09:59:20Z</time>
      </trkpt>
      <trkpt lat="47.68141" lon="6.04371">
        <ele>214.96</ele>
        <time>2017-09-27T09:59:22Z</time>
      </trkpt>
      <trkpt lat="47.6815" lon="6.04373">
        <ele>214.77</ele>
        <time>2017-09-27T09:59:24Z</time>
      </trkpt>
      <trkpt lat="47.68155" lon="6.04375">
        <ele>214.69</ele>
        <time>2017-09-27T09:59:25Z</time>
      </trkpt>
      <trkpt lat="47.6816" lon="6.04378">
        <ele>214.63</ele>
        <time>2017-09-27T09:59:26Z</time>
      </trkpt>
      <trkpt lat="47.68164" lon="6.04381">
        <ele>214.56</ele>
        <time>2017-09-27T09:59:27Z</time>
      </trkpt>
      <trkpt lat="47.68169" lon="6.04384">
        <ele>214.48</ele>
        <time>2017-09-27T09:59:28Z</time>
      </trkpt>
      <trkpt lat="47.68177" lon="6.0439">
        <ele>214.34</ele>
        <time>2017-09-27T09:59:30Z</time>
      </trkpt>
      <trkpt lat="47.68181" lon="6.04394">
        <ele>214.27</ele>
        <time>2017-09-27T09:59:31Z</time>
      </trkpt>
      <trkpt lat="47.68186" lon="6.04397">
        <ele>214.2</ele>
        <time>2017-09-27T09:59:32Z</time>
      </trkpt>
      <trkpt lat="47.68191" lon="6.044">
        <ele>214.12</ele>
        <time>2017-09-27T09:59:33Z</time>
      </trkpt>
      <trkpt lat="47.68197" lon="6.04403">
        <ele>214.01</ele>
        <time>2017-09-27T09:59:34Z</time>
      </trkpt>
      <trkpt lat="47.68202" lon="6.04407">
        <ele>213.86</ele>
        <time>2017-09-27T09:59:35Z</time>
      </trkpt>
      <trkpt lat="47.68206" lon="6.0441">
        <ele>213.73</ele>
        <time>2017-09-27T09:59:36Z</time>
      </trkpt>
      <trkpt lat="47.68211" lon="6.04413">
        <ele>213.62</ele>
        <time>2017-09-27T09:59:37Z</time>
      </trkpt>
      <trkpt lat="47.68216" lon="6.04416">
        <ele>213.51</ele>
        <time>2017-09-27T09:59:38Z</time>
      </trkpt>
      <trkpt lat="47.6822" lon="6.04418">
        <ele>213.42</ele>
        <time>2017-09-27T09:59:39Z</time>
      </trkpt>
      <trkpt lat="47.68225" lon="6.0442">
        <ele>213.33</ele>
        <time>2017-09-27T09:59:40Z</time>
      </trkpt>
      <trkpt lat="47.6823" lon="6.04423">
        <ele>213.27</ele>
        <time>2017-09-27T09:59:41Z</time>
      </trkpt>
      <trkpt lat="47.68235" lon="6.04425">
        <ele>213.22</ele>
        <time>2017-09-27T09:59:42Z</time>
      </trkpt>
      <trkpt lat="47.6824" lon="6.04426">
        <ele>213.16</ele>
        <time>2017-09-27T09:59:43Z</time>
      </trkpt>
      <trkpt lat="47.68245" lon="6.04427">
        <ele>213.1</ele>
        <time>2017-09-27T09:59:44Z</time>
      </trkpt>
      <trkpt lat="47.68251" lon="6.04428">
        <ele>213.06</ele>
        <time>2017-09-27T09:59:45Z</time>
      </trkpt>
      <trkpt lat="47.68256" lon="6.04429">
        <ele>213.02</ele>
        <time>2017-09-27T09:59:46Z</time>
      </trkpt>
      <trkpt lat="47.68261" lon="6.0443">
        <ele>212.99</ele>
        <time>2017-09-27T09:59:47Z</time>
      </trkpt>
      <trkpt lat="47.68266" lon="6.04431">
        <ele>212.97</ele>
        <time>2017-09-27T09:59:48Z</time>
      </trkpt>
      <trkpt lat="47.68272" lon="6.04431">
        <ele>212.94</ele>
        <time>2017-09-27T09:59:49Z</time>
      </trkpt>
      <trkpt lat="47.68278" lon="6.04432">
        <ele>212.92</ele>
        <time>2017-09-27T09:59:50Z</time>
      </trkpt>
      <trkpt lat="47.68284" lon="6.04431">
        <ele>212.88</ele>
        <time>2017-09-27T09:59:51Z</time>
      </trkpt>
      <trkpt lat="47.6829" lon="6.04432">
        <ele>212.84</ele>
        <time>2017-09-27T09:59:52Z</time>
      </trkpt>
      <trkpt lat="47.68296" lon="6.04432">
        <ele>212.81</ele>
        <time>2017-09-27T09:59:53Z</time>
      </trkpt>
      <trkpt lat="47.68301" lon="6.04432">
        <ele>212.79</ele>
        <time>2017-09-27T09:59:54Z</time>
      </trkpt>
      <trkpt lat="47.6831" lon="6.04433">
        <ele>212.77</ele>
        <time>2017-09-27T09:59:56Z</time>
      </trkpt>
      <trkpt lat="47.68315" lon="6.04433">
        <ele>212.77</ele>
        <time>2017-09-27T09:59:57Z</time>
      </trkpt>
      <trkpt lat="47.6832" lon="6.04433">
        <ele>212.77</ele>
        <time>2017-09-27T09:59:58Z</time>
      </trkpt>
      <trkpt lat="47.68324" lon="6.04434">
        <ele>212.79</ele>
        <time>2017-09-27T09:59:59Z</time>
      </trkpt>
      <trkpt lat="47.68329" lon="6.04434">
        <ele>212.81</ele>
        <time>2017-09-27T10:00:00Z</time>
      </trkpt>
      <trkpt lat="47.68334" lon="6.04435">
        <ele>212.83</ele>
        <time>2017-09-27T10:00:01Z</time>
      </trkpt>
      <trkpt lat="47.6834" lon="6.04436">
        <ele>212.84</ele>
        <time>2017-09-27T10:00:02Z</time>
      </trkpt>
      <trkpt lat="47.68349" lon="6.04436">
        <ele>212.87</ele>
        <time>2017-09-27T10:00:04Z</time>
      </trkpt>
      <trkpt lat="47.68358" lon="6.04436">
        <ele>212.97</ele>
        <time>2017-09-27T10:00:06Z</time>
      </trkpt>
      <trkpt lat="47.68365" lon="6.04437">
        <ele>213.09</ele>
        <time>2017-09-27T10:00:08Z</time>
      </trkpt>
      <trkpt lat="47.6837" lon="6.04437">
        <ele>213.11</ele>
        <time>2017-09-27T10:00:09Z</time>
      </trkpt>
      <trkpt lat="47.68375" lon="6.04438">
        <ele>213.07</ele>
        <time>2017-09-27T10:00:10Z</time>
      </trkpt>
      <trkpt lat="47.68383" lon="6.04438">
        <ele>212.99</ele>
        <time>2017-09-27T10:00:12Z</time>
      </trkpt>
      <trkpt lat="47.68388" lon="6.04438">
        <ele>212.94</ele>
        <time>2017-09-27T10:00:13Z</time>
      </trkpt>
      <trkpt lat="47.68392" lon="6.04438">
        <ele>212.87</ele>
        <time>2017-09-27T10:00:14Z</time>
      </trkpt>
      <trkpt lat="47.68397" lon="6.04438">
        <ele>212.82</ele>
        <time>2017-09-27T10:00:15Z</time>
      </trkpt>
      <trkpt lat="47.68402" lon="6.04438">
        <ele>212.78</ele>
        <time>2017-09-27T10:00:16Z</time>
      </trkpt>
      <trkpt lat="47.68407" lon="6.04438">
        <ele>212.74</ele>
        <time>2017-09-27T10:00:17Z</time>
      </trkpt>
      <trkpt lat="47.68411" lon="6.04438">
        <ele>212.69</ele>
        <time>2017-09-27T10:00:18Z</time>
      </trkpt>
      <trkpt lat="47.68419" lon="6.04439">
        <ele>212.61</ele>
        <time>2017-09-27T10:00:20Z</time>
      </trkpt>
      <trkpt lat="47.68424" lon="6.04438">
        <ele>212.58</ele>
        <time>2017-09-27T10:00:21Z</time>
      </trkpt>
      <trkpt lat="47.68429" lon="6.04438">
        <ele>212.54</ele>
        <time>2017-09-27T10:00:22Z</time>
      </trkpt>
      <trkpt lat="47.68434" lon="6.04437">
        <ele>212.49</ele>
        <time>2017-09-27T10:00:23Z</time>
      </trkpt>
      <trkpt lat="47.6844" lon="6.04437">
        <ele>212.43</ele>
        <time>2017-09-27T10:00:24Z</time>
      </trkpt>
      <trkpt lat="47.68446" lon="6.04436">
        <ele>212.4</ele>
        <time>2017-09-27T10:00:25Z</time>
      </trkpt>
      <trkpt lat="47.68451" lon="6.04436">
        <ele>212.39</ele>
        <time>2017-09-27T10:00:26Z</time>
      </trkpt>
      <trkpt lat="47.68457" lon="6.04437">
        <ele>212.34</ele>
        <time>2017-09-27T10:00:27Z</time>
      </trkpt>
      <trkpt lat="47.68462" lon="6.04437">
        <ele>212.28</ele>
        <time>2017-09-27T10:00:28Z</time>
      </trkpt>
      <trkpt lat="47.68467" lon="6.04438">
        <ele>212.25</ele>
        <time>2017-09-27T10:00:29Z</time>
      </trkpt>
      <trkpt lat="47.68471" lon="6.0444">
        <ele>212.24</ele>
        <time>2017-09-27T10:00:30Z</time>
      </trkpt>
      <trkpt lat="47.68477" lon="6.04441">
        <ele>212.22</ele>
        <time>2017-09-27T10:00:32Z</time>
      </trkpt>
      <trkpt lat="47.68485" lon="6.04445">
        <ele>212.2</ele>
        <time>2017-09-27T10:00:34Z</time>
      </trkpt>
      <trkpt lat="47.68493" lon="6.0445">
        <ele>212.13</ele>
        <time>2017-09-27T10:00:36Z</time>
      </trkpt>
      <trkpt lat="47.68498" lon="6.04452">
        <ele>212.11</ele>
        <time>2017-09-27T10:00:37Z</time>
      </trkpt>
      <trkpt lat="47.68502" lon="6.04455">
        <ele>212.1</ele>
        <time>2017-09-27T10:00:38Z</time>
      </trkpt>
      <trkpt lat="47.68508" lon="6.0446">
        <ele>212.1</ele>
        <time>2017-09-27T10:00:40Z</time>
      </trkpt>
      <trkpt lat="47.68512" lon="6.04462">
        <ele>212.11</ele>
        <time>2017-09-27T10:00:41Z</time>
      </trkpt>
      <trkpt lat="47.68518" lon="6.04465">
        <ele>212.13</ele>
        <time>2017-09-27T10:00:43Z</time>
      </trkpt>
      <trkpt lat="47.68524" lon="6.04469">
        <ele>212.15</ele>
        <time>2017-09-27T10:00:45Z</time>
      </trkpt>
      <trkpt lat="47.68529" lon="6.04471">
        <ele>212.18</ele>
        <time>2017-09-27T10:00:47Z</time>
      </trkpt>
      <trkpt lat="47.68535" lon="6.04476">
        <ele>212.22</ele>
        <time>2017-09-27T10:00:49Z</time>
      </trkpt>
      <trkpt lat="47.68542" lon="6.04481">
        <ele>212.26</ele>
        <time>2017-09-27T10:00:51Z</time>
      </trkpt>
      <trkpt lat="47.68548" lon="6.04485">
        <ele>212.31</ele>
        <time>2017-09-27T10:00:53Z</time>
      </trkpt>
      <trkpt lat="47.68554" lon="6.04489">
        <ele>212.37</ele>
        <time>2017-09-27T10:00:55Z</time>
      </trkpt>
      <trkpt lat="47.6856" lon="6.04494">
        <ele>212.42</ele>
        <time>2017-09-27T10:00:57Z</time>
      </trkpt>
      <trkpt lat="47.68566" lon="6.04497">
        <ele>212.48</ele>
        <time>2017-09-27T10:00:59Z</time>
      </trkpt>
      <trkpt lat="47.68571" lon="6.04499">
        <ele>212.56</ele>
        <time>2017-09-27T10:01:01Z</time>
      </trkpt>
      <trkpt lat="47.68577" lon="6.04504">
        <ele>212.67</ele>
        <time>2017-09-27T10:01:04Z</time>
      </trkpt>
      <trkpt lat="47.68584" lon="6.04507">
        <ele>212.81</ele>
        <time>2017-09-27T10:01:07Z</time>
      </trkpt>
      <trkpt lat="47.68588" lon="6.0451">
        <ele>212.96</ele>
        <time>2017-09-27T10:01:10Z</time>
      </trkpt>
      <trkpt lat="47.68593" lon="6.04513">
        <ele>213.13</ele>
        <time>2017-09-27T10:01:13Z</time>
      </trkpt>
      <trkpt lat="47.68597" lon="6.04518">
        <ele>213.25</ele>
        <time>2017-09-27T10:01:15Z</time>
      </trkpt>
      <trkpt lat="47.68601" lon="6.04522">
        <ele>213.38</ele>
        <time>2017-09-27T10:01:17Z</time>
      </trkpt>
      <trkpt lat="47.68606" lon="6.04526">
        <ele>213.5</ele>
        <time>2017-09-27T10:01:19Z</time>
      </trkpt>
      <trkpt lat="47.68609" lon="6.04531">
        <ele>213.63</ele>
        <time>2017-09-27T10:01:21Z</time>
      </trkpt>
      <trkpt lat="47.68611" lon="6.04538">
        <ele>213.82</ele>
        <time>2017-09-27T10:01:24Z</time>
      </trkpt>
      <trkpt lat="47.68615" lon="6.0454">
        <ele>215.76</ele>
        <time>2017-09-27T10:01:54Z</time>
      </trkpt>
      <trkpt lat="47.68621" lon="6.04541">
        <ele>216.75</ele>
        <time>2017-09-27T10:02:40Z</time>
      </trkpt>
    </trkseg>
  </trk>
</gpx>